<?xml version="1.0" encoding="UTF-8" standalone="no" ?>
<gpx xmlns="http://www.topografix.com/GPX/1/1" xmlns:xsi="http://www.w3.org/2001/XMLSchema-instance" xsi:schemaLocation="http://www.topografix.com/GPX/1/1 http://www.topografix.com/GPX/1/1/gpx.xsd" version="1.1" creator="VisuGPX - https://www.visugpx.com">
  <metadata>
    <name>Saint Martin Sous Montaigu</name>
    <desc><![CDATA[Rando VTT. Premiere partie assez dur si sol humide. ]]></desc>
  </metadata>
  <trk>
    <name><![CDATA[71 St Martin sous Montaigue]]></name>
    <trkseg>
      <trkpt lat="46.81555" lon="4.71363">
        <ele>218.84</ele>
        <time>2010-05-16T06:44:37Z</time>
      </trkpt>
      <trkpt lat="46.81552" lon="4.71394">
        <ele>222.2</ele>
        <time>2010-05-16T06:45:04Z</time>
      </trkpt>
      <trkpt lat="46.81552" lon="4.71398">
        <ele>225.09</ele>
        <time>2010-05-16T06:45:09Z</time>
      </trkpt>
      <trkpt lat="46.81548" lon="4.71402">
        <ele>228.45</ele>
        <time>2010-05-16T06:45:14Z</time>
      </trkpt>
      <trkpt lat="46.81543" lon="4.71405">
        <ele>230.85</ele>
        <time>2010-05-16T06:45:18Z</time>
      </trkpt>
      <trkpt lat="46.81541" lon="4.71405">
        <ele>232.78</ele>
        <time>2010-05-16T06:45:21Z</time>
      </trkpt>
      <trkpt lat="46.81546" lon="4.71403">
        <ele>236.14</ele>
        <time>2010-05-16T06:45:29Z</time>
      </trkpt>
      <trkpt lat="46.81546" lon="4.71403">
        <ele>236.14</ele>
        <time>2010-05-16T06:45:30Z</time>
      </trkpt>
      <trkpt lat="46.81549" lon="4.71402">
        <ele>239.02</ele>
        <time>2010-05-16T06:45:36Z</time>
      </trkpt>
      <trkpt lat="46.81549" lon="4.71402">
        <ele>239.51</ele>
        <time>2010-05-16T06:45:37Z</time>
      </trkpt>
      <trkpt lat="46.81549" lon="4.71403">
        <ele>240.95</ele>
        <time>2010-05-16T06:45:41Z</time>
      </trkpt>
      <trkpt lat="46.8155" lon="4.71402">
        <ele>243.83</ele>
        <time>2010-05-16T06:45:55Z</time>
      </trkpt>
      <trkpt lat="46.81548" lon="4.71403">
        <ele>246.72</ele>
        <time>2010-05-16T06:46:23Z</time>
      </trkpt>
      <trkpt lat="46.81548" lon="4.71403">
        <ele>246.72</ele>
        <time>2010-05-16T06:47:29Z</time>
      </trkpt>
      <trkpt lat="46.81548" lon="4.71403">
        <ele>246.72</ele>
        <time>2010-05-16T06:47:31Z</time>
      </trkpt>
      <trkpt lat="46.81539" lon="4.71394">
        <ele>246.72</ele>
        <time>2010-05-16T06:47:37Z</time>
      </trkpt>
      <trkpt lat="46.81537" lon="4.71381">
        <ele>247.2</ele>
        <time>2010-05-16T06:47:43Z</time>
      </trkpt>
      <trkpt lat="46.81539" lon="4.71378">
        <ele>247.2</ele>
        <time>2010-05-16T06:47:45Z</time>
      </trkpt>
      <trkpt lat="46.81547" lon="4.71358">
        <ele>248.64</ele>
        <time>2010-05-16T06:47:54Z</time>
      </trkpt>
      <trkpt lat="46.8155" lon="4.71335">
        <ele>250.08</ele>
        <time>2010-05-16T06:48:02Z</time>
      </trkpt>
      <trkpt lat="46.81552" lon="4.71309">
        <ele>250.56</ele>
        <time>2010-05-16T06:48:10Z</time>
      </trkpt>
      <trkpt lat="46.81558" lon="4.71287">
        <ele>251.52</ele>
        <time>2010-05-16T06:48:17Z</time>
      </trkpt>
      <trkpt lat="46.81566" lon="4.71266">
        <ele>252.48</ele>
        <time>2010-05-16T06:48:24Z</time>
      </trkpt>
      <trkpt lat="46.8157" lon="4.71258">
        <ele>252.96</ele>
        <time>2010-05-16T06:48:27Z</time>
      </trkpt>
      <trkpt lat="46.81589" lon="4.71253">
        <ele>253.93</ele>
        <time>2010-05-16T06:48:36Z</time>
      </trkpt>
      <trkpt lat="46.81602" lon="4.71241">
        <ele>254.89</ele>
        <time>2010-05-16T06:48:43Z</time>
      </trkpt>
      <trkpt lat="46.81621" lon="4.7122">
        <ele>256.33</ele>
        <time>2010-05-16T06:48:53Z</time>
      </trkpt>
      <trkpt lat="46.81641" lon="4.71201">
        <ele>257.29</ele>
        <time>2010-05-16T06:49:02Z</time>
      </trkpt>
      <trkpt lat="46.81648" lon="4.71192">
        <ele>257.77</ele>
        <time>2010-05-16T06:49:08Z</time>
      </trkpt>
      <trkpt lat="46.81648" lon="4.71193">
        <ele>257.77</ele>
        <time>2010-05-16T06:49:10Z</time>
      </trkpt>
      <trkpt lat="46.81637" lon="4.71192">
        <ele>257.29</ele>
        <time>2010-05-16T06:49:16Z</time>
      </trkpt>
      <trkpt lat="46.81635" lon="4.71185">
        <ele>258.25</ele>
        <time>2010-05-16T06:49:18Z</time>
      </trkpt>
      <trkpt lat="46.81626" lon="4.7116">
        <ele>258.25</ele>
        <time>2010-05-16T06:49:25Z</time>
      </trkpt>
      <trkpt lat="46.81617" lon="4.71135">
        <ele>258.73</ele>
        <time>2010-05-16T06:49:32Z</time>
      </trkpt>
      <trkpt lat="46.81612" lon="4.71112">
        <ele>260.17</ele>
        <time>2010-05-16T06:49:40Z</time>
      </trkpt>
      <trkpt lat="46.81608" lon="4.71088">
        <ele>262.1</ele>
        <time>2010-05-16T06:49:49Z</time>
      </trkpt>
      <trkpt lat="46.81605" lon="4.71069">
        <ele>263.06</ele>
        <time>2010-05-16T06:49:56Z</time>
      </trkpt>
      <trkpt lat="46.81605" lon="4.71053">
        <ele>264.02</ele>
        <time>2010-05-16T06:50:03Z</time>
      </trkpt>
      <trkpt lat="46.81617" lon="4.71046">
        <ele>265.46</ele>
        <time>2010-05-16T06:50:10Z</time>
      </trkpt>
      <trkpt lat="46.81619" lon="4.71045">
        <ele>265.46</ele>
        <time>2010-05-16T06:50:11Z</time>
      </trkpt>
      <trkpt lat="46.81625" lon="4.71045">
        <ele>266.42</ele>
        <time>2010-05-16T06:50:15Z</time>
      </trkpt>
      <trkpt lat="46.81633" lon="4.71041">
        <ele>267.38</ele>
        <time>2010-05-16T06:50:20Z</time>
      </trkpt>
      <trkpt lat="46.81648" lon="4.7104">
        <ele>268.83</ele>
        <time>2010-05-16T06:50:29Z</time>
      </trkpt>
      <trkpt lat="46.81655" lon="4.71035">
        <ele>269.79</ele>
        <time>2010-05-16T06:50:35Z</time>
      </trkpt>
      <trkpt lat="46.81668" lon="4.71029">
        <ele>272.19</ele>
        <time>2010-05-16T06:50:44Z</time>
      </trkpt>
      <trkpt lat="46.81679" lon="4.71022">
        <ele>273.15</ele>
        <time>2010-05-16T06:50:53Z</time>
      </trkpt>
      <trkpt lat="46.81694" lon="4.71015">
        <ele>275.56</ele>
        <time>2010-05-16T06:51:03Z</time>
      </trkpt>
      <trkpt lat="46.81711" lon="4.71012">
        <ele>277</ele>
        <time>2010-05-16T06:51:13Z</time>
      </trkpt>
      <trkpt lat="46.81714" lon="4.71012">
        <ele>277</ele>
        <time>2010-05-16T06:51:15Z</time>
      </trkpt>
      <trkpt lat="46.81732" lon="4.71016">
        <ele>278.44</ele>
        <time>2010-05-16T06:51:25Z</time>
      </trkpt>
      <trkpt lat="46.81746" lon="4.71024">
        <ele>279.88</ele>
        <time>2010-05-16T06:51:33Z</time>
      </trkpt>
      <trkpt lat="46.81763" lon="4.71033">
        <ele>281.32</ele>
        <time>2010-05-16T06:51:42Z</time>
      </trkpt>
      <trkpt lat="46.81777" lon="4.71043">
        <ele>282.28</ele>
        <time>2010-05-16T06:51:50Z</time>
      </trkpt>
      <trkpt lat="46.81797" lon="4.71052">
        <ele>283.73</ele>
        <time>2010-05-16T06:52:01Z</time>
      </trkpt>
      <trkpt lat="46.81812" lon="4.71059">
        <ele>285.65</ele>
        <time>2010-05-16T06:52:10Z</time>
      </trkpt>
      <trkpt lat="46.81831" lon="4.71068">
        <ele>287.09</ele>
        <time>2010-05-16T06:52:21Z</time>
      </trkpt>
      <trkpt lat="46.81847" lon="4.71076">
        <ele>289.49</ele>
        <time>2010-05-16T06:52:30Z</time>
      </trkpt>
      <trkpt lat="46.81864" lon="4.71082">
        <ele>290.94</ele>
        <time>2010-05-16T06:52:40Z</time>
      </trkpt>
      <trkpt lat="46.81884" lon="4.71086">
        <ele>292.38</ele>
        <time>2010-05-16T06:52:49Z</time>
      </trkpt>
      <trkpt lat="46.81909" lon="4.71097">
        <ele>292.86</ele>
        <time>2010-05-16T06:52:58Z</time>
      </trkpt>
      <trkpt lat="46.81926" lon="4.7111">
        <ele>293.34</ele>
        <time>2010-05-16T06:53:05Z</time>
      </trkpt>
      <trkpt lat="46.81947" lon="4.71125">
        <ele>293.34</ele>
        <time>2010-05-16T06:53:13Z</time>
      </trkpt>
      <trkpt lat="46.81961" lon="4.71135">
        <ele>292.38</ele>
        <time>2010-05-16T06:53:17Z</time>
      </trkpt>
      <trkpt lat="46.81994" lon="4.71165">
        <ele>291.9</ele>
        <time>2010-05-16T06:53:26Z</time>
      </trkpt>
      <trkpt lat="46.82028" lon="4.71185">
        <ele>291.42</ele>
        <time>2010-05-16T06:53:34Z</time>
      </trkpt>
      <trkpt lat="46.82065" lon="4.71194">
        <ele>291.9</ele>
        <time>2010-05-16T06:53:43Z</time>
      </trkpt>
      <trkpt lat="46.82084" lon="4.712">
        <ele>291.42</ele>
        <time>2010-05-16T06:53:47Z</time>
      </trkpt>
      <trkpt lat="46.82087" lon="4.71201">
        <ele>290.94</ele>
        <time>2010-05-16T06:53:48Z</time>
      </trkpt>
      <trkpt lat="46.8209" lon="4.71202">
        <ele>290.46</ele>
        <time>2010-05-16T06:53:49Z</time>
      </trkpt>
      <trkpt lat="46.82092" lon="4.71205">
        <ele>289.97</ele>
        <time>2010-05-16T06:53:50Z</time>
      </trkpt>
      <trkpt lat="46.82092" lon="4.71217">
        <ele>289.49</ele>
        <time>2010-05-16T06:53:52Z</time>
      </trkpt>
      <trkpt lat="46.82087" lon="4.71242">
        <ele>287.09</ele>
        <time>2010-05-16T06:53:55Z</time>
      </trkpt>
      <trkpt lat="46.82082" lon="4.71273">
        <ele>285.65</ele>
        <time>2010-05-16T06:53:58Z</time>
      </trkpt>
      <trkpt lat="46.82062" lon="4.71306">
        <ele>281.8</ele>
        <time>2010-05-16T06:54:02Z</time>
      </trkpt>
      <trkpt lat="46.82056" lon="4.71313">
        <ele>281.8</ele>
        <time>2010-05-16T06:54:03Z</time>
      </trkpt>
      <trkpt lat="46.82036" lon="4.71314">
        <ele>281.32</ele>
        <time>2010-05-16T06:54:07Z</time>
      </trkpt>
      <trkpt lat="46.82033" lon="4.71311">
        <ele>281.32</ele>
        <time>2010-05-16T06:54:08Z</time>
      </trkpt>
      <trkpt lat="46.82003" lon="4.71289">
        <ele>282.28</ele>
        <time>2010-05-16T06:54:17Z</time>
      </trkpt>
      <trkpt lat="46.81982" lon="4.71274">
        <ele>282.28</ele>
        <time>2010-05-16T06:54:24Z</time>
      </trkpt>
      <trkpt lat="46.81972" lon="4.71293">
        <ele>282.28</ele>
        <time>2010-05-16T06:54:29Z</time>
      </trkpt>
      <trkpt lat="46.81966" lon="4.71317">
        <ele>281.32</ele>
        <time>2010-05-16T06:54:33Z</time>
      </trkpt>
      <trkpt lat="46.81963" lon="4.71322">
        <ele>280.84</ele>
        <time>2010-05-16T06:54:34Z</time>
      </trkpt>
      <trkpt lat="46.81958" lon="4.71326">
        <ele>279.88</ele>
        <time>2010-05-16T06:54:35Z</time>
      </trkpt>
      <trkpt lat="46.81952" lon="4.71327">
        <ele>279.88</ele>
        <time>2010-05-16T06:54:36Z</time>
      </trkpt>
      <trkpt lat="46.81946" lon="4.71328">
        <ele>279.88</ele>
        <time>2010-05-16T06:54:37Z</time>
      </trkpt>
      <trkpt lat="46.81932" lon="4.7133">
        <ele>278.92</ele>
        <time>2010-05-16T06:54:40Z</time>
      </trkpt>
      <trkpt lat="46.81928" lon="4.71331">
        <ele>278.92</ele>
        <time>2010-05-16T06:54:41Z</time>
      </trkpt>
      <trkpt lat="46.81919" lon="4.71331">
        <ele>278.44</ele>
        <time>2010-05-16T06:54:43Z</time>
      </trkpt>
      <trkpt lat="46.81915" lon="4.71331">
        <ele>277.96</ele>
        <time>2010-05-16T06:54:44Z</time>
      </trkpt>
      <trkpt lat="46.81906" lon="4.71332">
        <ele>277.48</ele>
        <time>2010-05-16T06:54:46Z</time>
      </trkpt>
      <trkpt lat="46.81902" lon="4.71334">
        <ele>277.48</ele>
        <time>2010-05-16T06:54:47Z</time>
      </trkpt>
      <trkpt lat="46.81897" lon="4.71337">
        <ele>277</ele>
        <time>2010-05-16T06:54:48Z</time>
      </trkpt>
      <trkpt lat="46.81893" lon="4.71341">
        <ele>277</ele>
        <time>2010-05-16T06:54:49Z</time>
      </trkpt>
      <trkpt lat="46.81889" lon="4.71346">
        <ele>276.04</ele>
        <time>2010-05-16T06:54:50Z</time>
      </trkpt>
      <trkpt lat="46.81885" lon="4.71352">
        <ele>276.52</ele>
        <time>2010-05-16T06:54:51Z</time>
      </trkpt>
      <trkpt lat="46.81881" lon="4.71358">
        <ele>276.04</ele>
        <time>2010-05-16T06:54:52Z</time>
      </trkpt>
      <trkpt lat="46.81862" lon="4.71388">
        <ele>273.63</ele>
        <time>2010-05-16T06:54:57Z</time>
      </trkpt>
      <trkpt lat="46.8186" lon="4.71395">
        <ele>273.15</ele>
        <time>2010-05-16T06:54:58Z</time>
      </trkpt>
      <trkpt lat="46.81861" lon="4.71402">
        <ele>272.19</ele>
        <time>2010-05-16T06:54:59Z</time>
      </trkpt>
      <trkpt lat="46.81863" lon="4.71408">
        <ele>272.19</ele>
        <time>2010-05-16T06:55:00Z</time>
      </trkpt>
      <trkpt lat="46.81866" lon="4.71412">
        <ele>272.67</ele>
        <time>2010-05-16T06:55:01Z</time>
      </trkpt>
      <trkpt lat="46.81873" lon="4.7142">
        <ele>272.19</ele>
        <time>2010-05-16T06:55:03Z</time>
      </trkpt>
      <trkpt lat="46.81877" lon="4.71424">
        <ele>272.19</ele>
        <time>2010-05-16T06:55:04Z</time>
      </trkpt>
      <trkpt lat="46.8189" lon="4.71434">
        <ele>272.67</ele>
        <time>2010-05-16T06:55:08Z</time>
      </trkpt>
      <trkpt lat="46.81893" lon="4.71433">
        <ele>273.15</ele>
        <time>2010-05-16T06:55:09Z</time>
      </trkpt>
      <trkpt lat="46.81895" lon="4.71431">
        <ele>272.67</ele>
        <time>2010-05-16T06:55:10Z</time>
      </trkpt>
      <trkpt lat="46.81898" lon="4.71429">
        <ele>273.15</ele>
        <time>2010-05-16T06:55:11Z</time>
      </trkpt>
      <trkpt lat="46.819" lon="4.71427">
        <ele>273.63</ele>
        <time>2010-05-16T06:55:12Z</time>
      </trkpt>
      <trkpt lat="46.81903" lon="4.71426">
        <ele>274.11</ele>
        <time>2010-05-16T06:55:13Z</time>
      </trkpt>
      <trkpt lat="46.81906" lon="4.71424">
        <ele>273.63</ele>
        <time>2010-05-16T06:55:14Z</time>
      </trkpt>
      <trkpt lat="46.81922" lon="4.71417">
        <ele>274.11</ele>
        <time>2010-05-16T06:55:19Z</time>
      </trkpt>
      <trkpt lat="46.81924" lon="4.71413">
        <ele>274.11</ele>
        <time>2010-05-16T06:55:20Z</time>
      </trkpt>
      <trkpt lat="46.81926" lon="4.71409">
        <ele>274.59</ele>
        <time>2010-05-16T06:55:21Z</time>
      </trkpt>
      <trkpt lat="46.81927" lon="4.71405">
        <ele>274.59</ele>
        <time>2010-05-16T06:55:22Z</time>
      </trkpt>
      <trkpt lat="46.81929" lon="4.714">
        <ele>274.59</ele>
        <time>2010-05-16T06:55:23Z</time>
      </trkpt>
      <trkpt lat="46.8193" lon="4.71396">
        <ele>275.07</ele>
        <time>2010-05-16T06:55:24Z</time>
      </trkpt>
      <trkpt lat="46.81939" lon="4.7139">
        <ele>276.52</ele>
        <time>2010-05-16T06:55:28Z</time>
      </trkpt>
      <trkpt lat="46.81944" lon="4.71391">
        <ele>276.52</ele>
        <time>2010-05-16T06:55:30Z</time>
      </trkpt>
      <trkpt lat="46.81966" lon="4.71409">
        <ele>277</ele>
        <time>2010-05-16T06:55:38Z</time>
      </trkpt>
      <trkpt lat="46.81983" lon="4.71432">
        <ele>277.48</ele>
        <time>2010-05-16T06:55:45Z</time>
      </trkpt>
      <trkpt lat="46.81989" lon="4.71437">
        <ele>277</ele>
        <time>2010-05-16T06:55:47Z</time>
      </trkpt>
      <trkpt lat="46.81992" lon="4.71437">
        <ele>277</ele>
        <time>2010-05-16T06:55:48Z</time>
      </trkpt>
      <trkpt lat="46.82009" lon="4.71436">
        <ele>277.48</ele>
        <time>2010-05-16T06:55:53Z</time>
      </trkpt>
      <trkpt lat="46.82028" lon="4.71452">
        <ele>277.48</ele>
        <time>2010-05-16T06:55:59Z</time>
      </trkpt>
      <trkpt lat="46.82057" lon="4.71475">
        <ele>277</ele>
        <time>2010-05-16T06:56:07Z</time>
      </trkpt>
      <trkpt lat="46.82092" lon="4.71501">
        <ele>276.04</ele>
        <time>2010-05-16T06:56:16Z</time>
      </trkpt>
      <trkpt lat="46.82131" lon="4.71524">
        <ele>274.11</ele>
        <time>2010-05-16T06:56:24Z</time>
      </trkpt>
      <trkpt lat="46.82174" lon="4.71554">
        <ele>272.67</ele>
        <time>2010-05-16T06:56:33Z</time>
      </trkpt>
      <trkpt lat="46.82179" lon="4.71557">
        <ele>272.67</ele>
        <time>2010-05-16T06:56:34Z</time>
      </trkpt>
      <trkpt lat="46.82184" lon="4.71559">
        <ele>272.67</ele>
        <time>2010-05-16T06:56:35Z</time>
      </trkpt>
      <trkpt lat="46.82189" lon="4.7156">
        <ele>272.67</ele>
        <time>2010-05-16T06:56:36Z</time>
      </trkpt>
      <trkpt lat="46.82193" lon="4.7156">
        <ele>272.19</ele>
        <time>2010-05-16T06:56:37Z</time>
      </trkpt>
      <trkpt lat="46.82197" lon="4.71559">
        <ele>272.19</ele>
        <time>2010-05-16T06:56:38Z</time>
      </trkpt>
      <trkpt lat="46.82201" lon="4.71557">
        <ele>272.19</ele>
        <time>2010-05-16T06:56:39Z</time>
      </trkpt>
      <trkpt lat="46.82208" lon="4.71554">
        <ele>272.19</ele>
        <time>2010-05-16T06:56:41Z</time>
      </trkpt>
      <trkpt lat="46.82212" lon="4.71555">
        <ele>271.71</ele>
        <time>2010-05-16T06:56:42Z</time>
      </trkpt>
      <trkpt lat="46.82221" lon="4.71559">
        <ele>271.71</ele>
        <time>2010-05-16T06:56:44Z</time>
      </trkpt>
      <trkpt lat="46.82257" lon="4.71578">
        <ele>271.23</ele>
        <time>2010-05-16T06:56:52Z</time>
      </trkpt>
      <trkpt lat="46.82262" lon="4.7158">
        <ele>272.19</ele>
        <time>2010-05-16T06:56:53Z</time>
      </trkpt>
      <trkpt lat="46.82301" lon="4.71599">
        <ele>270.27</ele>
        <time>2010-05-16T06:57:01Z</time>
      </trkpt>
      <trkpt lat="46.8231" lon="4.71605">
        <ele>270.27</ele>
        <time>2010-05-16T06:57:03Z</time>
      </trkpt>
      <trkpt lat="46.82315" lon="4.71607">
        <ele>269.79</ele>
        <time>2010-05-16T06:57:04Z</time>
      </trkpt>
      <trkpt lat="46.82319" lon="4.71609">
        <ele>269.31</ele>
        <time>2010-05-16T06:57:05Z</time>
      </trkpt>
      <trkpt lat="46.82323" lon="4.71609">
        <ele>269.79</ele>
        <time>2010-05-16T06:57:06Z</time>
      </trkpt>
      <trkpt lat="46.82326" lon="4.71607">
        <ele>269.79</ele>
        <time>2010-05-16T06:57:07Z</time>
      </trkpt>
      <trkpt lat="46.8233" lon="4.71605">
        <ele>269.31</ele>
        <time>2010-05-16T06:57:08Z</time>
      </trkpt>
      <trkpt lat="46.82336" lon="4.71604">
        <ele>268.83</ele>
        <time>2010-05-16T06:57:09Z</time>
      </trkpt>
      <trkpt lat="46.82342" lon="4.71604">
        <ele>267.86</ele>
        <time>2010-05-16T06:57:10Z</time>
      </trkpt>
      <trkpt lat="46.82348" lon="4.71607">
        <ele>267.86</ele>
        <time>2010-05-16T06:57:11Z</time>
      </trkpt>
      <trkpt lat="46.82353" lon="4.71613">
        <ele>266.42</ele>
        <time>2010-05-16T06:57:12Z</time>
      </trkpt>
      <trkpt lat="46.82359" lon="4.71619">
        <ele>266.42</ele>
        <time>2010-05-16T06:57:13Z</time>
      </trkpt>
      <trkpt lat="46.82389" lon="4.71647">
        <ele>262.58</ele>
        <time>2010-05-16T06:57:17Z</time>
      </trkpt>
      <trkpt lat="46.82398" lon="4.71654">
        <ele>262.58</ele>
        <time>2010-05-16T06:57:18Z</time>
      </trkpt>
      <trkpt lat="46.82424" lon="4.71678">
        <ele>259.21</ele>
        <time>2010-05-16T06:57:21Z</time>
      </trkpt>
      <trkpt lat="46.82433" lon="4.71686">
        <ele>258.25</ele>
        <time>2010-05-16T06:57:22Z</time>
      </trkpt>
      <trkpt lat="46.82443" lon="4.71692">
        <ele>258.25</ele>
        <time>2010-05-16T06:57:23Z</time>
      </trkpt>
      <trkpt lat="46.82513" lon="4.71734">
        <ele>255.37</ele>
        <time>2010-05-16T06:57:31Z</time>
      </trkpt>
      <trkpt lat="46.8252" lon="4.71738">
        <ele>255.37</ele>
        <time>2010-05-16T06:57:32Z</time>
      </trkpt>
      <trkpt lat="46.82528" lon="4.71742">
        <ele>255.37</ele>
        <time>2010-05-16T06:57:33Z</time>
      </trkpt>
      <trkpt lat="46.82576" lon="4.71758">
        <ele>254.41</ele>
        <time>2010-05-16T06:57:40Z</time>
      </trkpt>
      <trkpt lat="46.82619" lon="4.71774">
        <ele>255.37</ele>
        <time>2010-05-16T06:57:47Z</time>
      </trkpt>
      <trkpt lat="46.82629" lon="4.71781">
        <ele>254.89</ele>
        <time>2010-05-16T06:57:49Z</time>
      </trkpt>
      <trkpt lat="46.82638" lon="4.71789">
        <ele>254.89</ele>
        <time>2010-05-16T06:57:51Z</time>
      </trkpt>
      <trkpt lat="46.82667" lon="4.71823">
        <ele>254.41</ele>
        <time>2010-05-16T06:57:58Z</time>
      </trkpt>
      <trkpt lat="46.82671" lon="4.71823">
        <ele>254.89</ele>
        <time>2010-05-16T06:57:59Z</time>
      </trkpt>
      <trkpt lat="46.82675" lon="4.71821">
        <ele>254.41</ele>
        <time>2010-05-16T06:58:00Z</time>
      </trkpt>
      <trkpt lat="46.82679" lon="4.71817">
        <ele>254.89</ele>
        <time>2010-05-16T06:58:01Z</time>
      </trkpt>
      <trkpt lat="46.82682" lon="4.71813">
        <ele>255.37</ele>
        <time>2010-05-16T06:58:02Z</time>
      </trkpt>
      <trkpt lat="46.82705" lon="4.71789">
        <ele>257.29</ele>
        <time>2010-05-16T06:58:10Z</time>
      </trkpt>
      <trkpt lat="46.82728" lon="4.71764">
        <ele>260.17</ele>
        <time>2010-05-16T06:58:20Z</time>
      </trkpt>
      <trkpt lat="46.82747" lon="4.71743">
        <ele>262.58</ele>
        <time>2010-05-16T06:58:30Z</time>
      </trkpt>
      <trkpt lat="46.82765" lon="4.71736">
        <ele>263.54</ele>
        <time>2010-05-16T06:58:38Z</time>
      </trkpt>
      <trkpt lat="46.82778" lon="4.71737">
        <ele>263.54</ele>
        <time>2010-05-16T06:58:43Z</time>
      </trkpt>
      <trkpt lat="46.82784" lon="4.71732">
        <ele>264.5</ele>
        <time>2010-05-16T06:58:46Z</time>
      </trkpt>
      <trkpt lat="46.82787" lon="4.71721">
        <ele>265.46</ele>
        <time>2010-05-16T06:58:50Z</time>
      </trkpt>
      <trkpt lat="46.8279" lon="4.717">
        <ele>267.38</ele>
        <time>2010-05-16T06:58:58Z</time>
      </trkpt>
      <trkpt lat="46.82791" lon="4.71676">
        <ele>269.79</ele>
        <time>2010-05-16T06:59:08Z</time>
      </trkpt>
      <trkpt lat="46.82792" lon="4.71663">
        <ele>270.27</ele>
        <time>2010-05-16T06:59:14Z</time>
      </trkpt>
      <trkpt lat="46.82792" lon="4.7166">
        <ele>270.75</ele>
        <time>2010-05-16T06:59:15Z</time>
      </trkpt>
      <trkpt lat="46.8279" lon="4.71644">
        <ele>272.19</ele>
        <time>2010-05-16T06:59:22Z</time>
      </trkpt>
      <trkpt lat="46.8279" lon="4.71642">
        <ele>272.19</ele>
        <time>2010-05-16T06:59:23Z</time>
      </trkpt>
      <trkpt lat="46.82789" lon="4.71639">
        <ele>272.67</ele>
        <time>2010-05-16T06:59:24Z</time>
      </trkpt>
      <trkpt lat="46.82789" lon="4.71637">
        <ele>273.15</ele>
        <time>2010-05-16T06:59:25Z</time>
      </trkpt>
      <trkpt lat="46.82788" lon="4.71635">
        <ele>272.67</ele>
        <time>2010-05-16T06:59:26Z</time>
      </trkpt>
      <trkpt lat="46.82787" lon="4.71632">
        <ele>273.15</ele>
        <time>2010-05-16T06:59:27Z</time>
      </trkpt>
      <trkpt lat="46.82785" lon="4.71614">
        <ele>274.59</ele>
        <time>2010-05-16T06:59:35Z</time>
      </trkpt>
      <trkpt lat="46.82783" lon="4.71592">
        <ele>277</ele>
        <time>2010-05-16T06:59:44Z</time>
      </trkpt>
      <trkpt lat="46.82783" lon="4.71589">
        <ele>276.52</ele>
        <time>2010-05-16T06:59:45Z</time>
      </trkpt>
      <trkpt lat="46.82783" lon="4.71586">
        <ele>276.52</ele>
        <time>2010-05-16T06:59:46Z</time>
      </trkpt>
      <trkpt lat="46.82783" lon="4.71584">
        <ele>276.52</ele>
        <time>2010-05-16T06:59:47Z</time>
      </trkpt>
      <trkpt lat="46.82783" lon="4.71581">
        <ele>277</ele>
        <time>2010-05-16T06:59:48Z</time>
      </trkpt>
      <trkpt lat="46.82783" lon="4.71578">
        <ele>277</ele>
        <time>2010-05-16T06:59:49Z</time>
      </trkpt>
      <trkpt lat="46.82783" lon="4.71553">
        <ele>278.44</ele>
        <time>2010-05-16T06:59:58Z</time>
      </trkpt>
      <trkpt lat="46.82783" lon="4.71527">
        <ele>279.4</ele>
        <time>2010-05-16T07:00:06Z</time>
      </trkpt>
      <trkpt lat="46.8278" lon="4.71487">
        <ele>279.88</ele>
        <time>2010-05-16T07:00:16Z</time>
      </trkpt>
      <trkpt lat="46.8278" lon="4.71452">
        <ele>279.88</ele>
        <time>2010-05-16T07:00:23Z</time>
      </trkpt>
      <trkpt lat="46.82787" lon="4.71415">
        <ele>279.88</ele>
        <time>2010-05-16T07:00:31Z</time>
      </trkpt>
      <trkpt lat="46.82801" lon="4.71401">
        <ele>279.88</ele>
        <time>2010-05-16T07:00:36Z</time>
      </trkpt>
      <trkpt lat="46.8282" lon="4.71404">
        <ele>280.36</ele>
        <time>2010-05-16T07:00:41Z</time>
      </trkpt>
      <trkpt lat="46.82839" lon="4.71416">
        <ele>281.8</ele>
        <time>2010-05-16T07:00:47Z</time>
      </trkpt>
      <trkpt lat="46.82854" lon="4.71429">
        <ele>282.77</ele>
        <time>2010-05-16T07:00:54Z</time>
      </trkpt>
      <trkpt lat="46.82864" lon="4.71439">
        <ele>284.69</ele>
        <time>2010-05-16T07:01:01Z</time>
      </trkpt>
      <trkpt lat="46.82874" lon="4.71449">
        <ele>285.65</ele>
        <time>2010-05-16T07:01:08Z</time>
      </trkpt>
      <trkpt lat="46.82884" lon="4.71463">
        <ele>288.05</ele>
        <time>2010-05-16T07:01:16Z</time>
      </trkpt>
      <trkpt lat="46.82893" lon="4.71479">
        <ele>289.49</ele>
        <time>2010-05-16T07:01:24Z</time>
      </trkpt>
      <trkpt lat="46.82906" lon="4.71487">
        <ele>292.38</ele>
        <time>2010-05-16T07:01:34Z</time>
      </trkpt>
      <trkpt lat="46.82907" lon="4.71485">
        <ele>291.9</ele>
        <time>2010-05-16T07:01:35Z</time>
      </trkpt>
      <trkpt lat="46.82908" lon="4.71482">
        <ele>292.38</ele>
        <time>2010-05-16T07:01:36Z</time>
      </trkpt>
      <trkpt lat="46.82907" lon="4.71479">
        <ele>292.86</ele>
        <time>2010-05-16T07:01:37Z</time>
      </trkpt>
      <trkpt lat="46.82906" lon="4.71477">
        <ele>292.86</ele>
        <time>2010-05-16T07:01:38Z</time>
      </trkpt>
      <trkpt lat="46.82905" lon="4.71474">
        <ele>292.86</ele>
        <time>2010-05-16T07:01:39Z</time>
      </trkpt>
      <trkpt lat="46.82904" lon="4.7147">
        <ele>292.86</ele>
        <time>2010-05-16T07:01:40Z</time>
      </trkpt>
      <trkpt lat="46.82903" lon="4.71467">
        <ele>292.86</ele>
        <time>2010-05-16T07:01:41Z</time>
      </trkpt>
      <trkpt lat="46.82898" lon="4.7144">
        <ele>292.86</ele>
        <time>2010-05-16T07:01:47Z</time>
      </trkpt>
      <trkpt lat="46.82897" lon="4.71409">
        <ele>294.3</ele>
        <time>2010-05-16T07:01:54Z</time>
      </trkpt>
      <trkpt lat="46.82898" lon="4.71376">
        <ele>295.74</ele>
        <time>2010-05-16T07:02:02Z</time>
      </trkpt>
      <trkpt lat="46.82899" lon="4.71351">
        <ele>297.18</ele>
        <time>2010-05-16T07:02:10Z</time>
      </trkpt>
      <trkpt lat="46.82901" lon="4.71325">
        <ele>298.63</ele>
        <time>2010-05-16T07:02:19Z</time>
      </trkpt>
      <trkpt lat="46.82902" lon="4.71296">
        <ele>299.59</ele>
        <time>2010-05-16T07:02:27Z</time>
      </trkpt>
      <trkpt lat="46.82903" lon="4.71262">
        <ele>299.59</ele>
        <time>2010-05-16T07:02:36Z</time>
      </trkpt>
      <trkpt lat="46.82903" lon="4.71225">
        <ele>301.03</ele>
        <time>2010-05-16T07:02:45Z</time>
      </trkpt>
      <trkpt lat="46.82902" lon="4.71197">
        <ele>301.99</ele>
        <time>2010-05-16T07:02:51Z</time>
      </trkpt>
      <trkpt lat="46.82902" lon="4.71159">
        <ele>302.95</ele>
        <time>2010-05-16T07:03:00Z</time>
      </trkpt>
      <trkpt lat="46.82901" lon="4.7113">
        <ele>303.91</ele>
        <time>2010-05-16T07:03:07Z</time>
      </trkpt>
      <trkpt lat="46.82901" lon="4.71092">
        <ele>305.84</ele>
        <time>2010-05-16T07:03:17Z</time>
      </trkpt>
      <trkpt lat="46.82901" lon="4.71062">
        <ele>308.24</ele>
        <time>2010-05-16T07:03:26Z</time>
      </trkpt>
      <trkpt lat="46.82902" lon="4.7104">
        <ele>310.16</ele>
        <time>2010-05-16T07:03:33Z</time>
      </trkpt>
      <trkpt lat="46.82905" lon="4.71015">
        <ele>311.6</ele>
        <time>2010-05-16T07:03:41Z</time>
      </trkpt>
      <trkpt lat="46.82905" lon="4.70986">
        <ele>313.53</ele>
        <time>2010-05-16T07:03:50Z</time>
      </trkpt>
      <trkpt lat="46.82901" lon="4.70959">
        <ele>315.45</ele>
        <time>2010-05-16T07:03:59Z</time>
      </trkpt>
      <trkpt lat="46.82899" lon="4.7094">
        <ele>316.89</ele>
        <time>2010-05-16T07:04:06Z</time>
      </trkpt>
      <trkpt lat="46.82903" lon="4.70912">
        <ele>318.81</ele>
        <time>2010-05-16T07:04:16Z</time>
      </trkpt>
      <trkpt lat="46.82912" lon="4.70885">
        <ele>319.78</ele>
        <time>2010-05-16T07:04:25Z</time>
      </trkpt>
      <trkpt lat="46.82917" lon="4.70857">
        <ele>321.22</ele>
        <time>2010-05-16T07:04:33Z</time>
      </trkpt>
      <trkpt lat="46.82919" lon="4.70808">
        <ele>321.22</ele>
        <time>2010-05-16T07:04:43Z</time>
      </trkpt>
      <trkpt lat="46.82915" lon="4.70758">
        <ele>321.7</ele>
        <time>2010-05-16T07:04:53Z</time>
      </trkpt>
      <trkpt lat="46.82916" lon="4.70723">
        <ele>322.18</ele>
        <time>2010-05-16T07:05:00Z</time>
      </trkpt>
      <trkpt lat="46.82929" lon="4.70701">
        <ele>324.1</ele>
        <time>2010-05-16T07:05:07Z</time>
      </trkpt>
      <trkpt lat="46.82944" lon="4.70676">
        <ele>325.54</ele>
        <time>2010-05-16T07:05:15Z</time>
      </trkpt>
      <trkpt lat="46.82952" lon="4.70644">
        <ele>326.5</ele>
        <time>2010-05-16T07:05:23Z</time>
      </trkpt>
      <trkpt lat="46.82958" lon="4.70609">
        <ele>327.47</ele>
        <time>2010-05-16T07:05:31Z</time>
      </trkpt>
      <trkpt lat="46.82964" lon="4.70574">
        <ele>326.99</ele>
        <time>2010-05-16T07:05:38Z</time>
      </trkpt>
      <trkpt lat="46.82973" lon="4.70542">
        <ele>326.99</ele>
        <time>2010-05-16T07:05:44Z</time>
      </trkpt>
      <trkpt lat="46.82975" lon="4.70536">
        <ele>326.99</ele>
        <time>2010-05-16T07:05:45Z</time>
      </trkpt>
      <trkpt lat="46.82977" lon="4.7053">
        <ele>326.99</ele>
        <time>2010-05-16T07:05:46Z</time>
      </trkpt>
      <trkpt lat="46.82986" lon="4.70508">
        <ele>326.99</ele>
        <time>2010-05-16T07:05:50Z</time>
      </trkpt>
      <trkpt lat="46.82989" lon="4.70503">
        <ele>326.5</ele>
        <time>2010-05-16T07:05:51Z</time>
      </trkpt>
      <trkpt lat="46.82992" lon="4.70497">
        <ele>326.5</ele>
        <time>2010-05-16T07:05:52Z</time>
      </trkpt>
      <trkpt lat="46.82995" lon="4.70491">
        <ele>326.02</ele>
        <time>2010-05-16T07:05:53Z</time>
      </trkpt>
      <trkpt lat="46.82999" lon="4.70485">
        <ele>326.02</ele>
        <time>2010-05-16T07:05:54Z</time>
      </trkpt>
      <trkpt lat="46.83002" lon="4.70479">
        <ele>325.54</ele>
        <time>2010-05-16T07:05:55Z</time>
      </trkpt>
      <trkpt lat="46.83013" lon="4.70461">
        <ele>325.06</ele>
        <time>2010-05-16T07:05:58Z</time>
      </trkpt>
      <trkpt lat="46.83025" lon="4.70443">
        <ele>324.1</ele>
        <time>2010-05-16T07:06:01Z</time>
      </trkpt>
      <trkpt lat="46.83042" lon="4.70411">
        <ele>321.7</ele>
        <time>2010-05-16T07:06:05Z</time>
      </trkpt>
      <trkpt lat="46.8305" lon="4.70394">
        <ele>321.7</ele>
        <time>2010-05-16T07:06:07Z</time>
      </trkpt>
      <trkpt lat="46.83053" lon="4.70385">
        <ele>321.22</ele>
        <time>2010-05-16T07:06:08Z</time>
      </trkpt>
      <trkpt lat="46.83058" lon="4.70366">
        <ele>320.74</ele>
        <time>2010-05-16T07:06:10Z</time>
      </trkpt>
      <trkpt lat="46.83062" lon="4.70358">
        <ele>320.74</ele>
        <time>2010-05-16T07:06:11Z</time>
      </trkpt>
      <trkpt lat="46.8308" lon="4.70322">
        <ele>318.81</ele>
        <time>2010-05-16T07:06:15Z</time>
      </trkpt>
      <trkpt lat="46.83097" lon="4.70279">
        <ele>316.89</ele>
        <time>2010-05-16T07:06:19Z</time>
      </trkpt>
      <trkpt lat="46.83101" lon="4.70268">
        <ele>315.93</ele>
        <time>2010-05-16T07:06:20Z</time>
      </trkpt>
      <trkpt lat="46.83105" lon="4.70257">
        <ele>315.45</ele>
        <time>2010-05-16T07:06:21Z</time>
      </trkpt>
      <trkpt lat="46.83119" lon="4.70222">
        <ele>312.57</ele>
        <time>2010-05-16T07:06:24Z</time>
      </trkpt>
      <trkpt lat="46.83124" lon="4.70209">
        <ele>311.6</ele>
        <time>2010-05-16T07:06:25Z</time>
      </trkpt>
      <trkpt lat="46.83139" lon="4.70168">
        <ele>309.2</ele>
        <time>2010-05-16T07:06:28Z</time>
      </trkpt>
      <trkpt lat="46.83146" lon="4.70156">
        <ele>308.24</ele>
        <time>2010-05-16T07:06:29Z</time>
      </trkpt>
      <trkpt lat="46.83166" lon="4.7012">
        <ele>305.84</ele>
        <time>2010-05-16T07:06:32Z</time>
      </trkpt>
      <trkpt lat="46.83171" lon="4.70107">
        <ele>304.39</ele>
        <time>2010-05-16T07:06:33Z</time>
      </trkpt>
      <trkpt lat="46.83179" lon="4.7008">
        <ele>303.43</ele>
        <time>2010-05-16T07:06:35Z</time>
      </trkpt>
      <trkpt lat="46.832" lon="4.70029">
        <ele>301.51</ele>
        <time>2010-05-16T07:06:40Z</time>
      </trkpt>
      <trkpt lat="46.83203" lon="4.70019">
        <ele>301.51</ele>
        <time>2010-05-16T07:06:41Z</time>
      </trkpt>
      <trkpt lat="46.83207" lon="4.70009">
        <ele>301.03</ele>
        <time>2010-05-16T07:06:42Z</time>
      </trkpt>
      <trkpt lat="46.8321" lon="4.7">
        <ele>301.03</ele>
        <time>2010-05-16T07:06:43Z</time>
      </trkpt>
      <trkpt lat="46.83214" lon="4.69989">
        <ele>300.55</ele>
        <time>2010-05-16T07:06:44Z</time>
      </trkpt>
      <trkpt lat="46.83243" lon="4.69922">
        <ele>297.18</ele>
        <time>2010-05-16T07:06:51Z</time>
      </trkpt>
      <trkpt lat="46.83252" lon="4.69902">
        <ele>296.7</ele>
        <time>2010-05-16T07:06:53Z</time>
      </trkpt>
      <trkpt lat="46.83256" lon="4.69892">
        <ele>295.26</ele>
        <time>2010-05-16T07:06:54Z</time>
      </trkpt>
      <trkpt lat="46.83258" lon="4.69883">
        <ele>294.3</ele>
        <time>2010-05-16T07:06:55Z</time>
      </trkpt>
      <trkpt lat="46.8326" lon="4.69875">
        <ele>293.82</ele>
        <time>2010-05-16T07:06:56Z</time>
      </trkpt>
      <trkpt lat="46.83264" lon="4.69852">
        <ele>290.46</ele>
        <time>2010-05-16T07:06:59Z</time>
      </trkpt>
      <trkpt lat="46.83272" lon="4.69818">
        <ele>286.61</ele>
        <time>2010-05-16T07:07:02Z</time>
      </trkpt>
      <trkpt lat="46.8328" lon="4.69778">
        <ele>283.73</ele>
        <time>2010-05-16T07:07:05Z</time>
      </trkpt>
      <trkpt lat="46.83284" lon="4.69766">
        <ele>283.25</ele>
        <time>2010-05-16T07:07:06Z</time>
      </trkpt>
      <trkpt lat="46.83302" lon="4.6971">
        <ele>280.84</ele>
        <time>2010-05-16T07:07:11Z</time>
      </trkpt>
      <trkpt lat="46.83308" lon="4.69688">
        <ele>278.92</ele>
        <time>2010-05-16T07:07:14Z</time>
      </trkpt>
      <trkpt lat="46.83308" lon="4.69681">
        <ele>278.44</ele>
        <time>2010-05-16T07:07:15Z</time>
      </trkpt>
      <trkpt lat="46.83307" lon="4.69674">
        <ele>277.96</ele>
        <time>2010-05-16T07:07:16Z</time>
      </trkpt>
      <trkpt lat="46.83304" lon="4.69668">
        <ele>277.96</ele>
        <time>2010-05-16T07:07:17Z</time>
      </trkpt>
      <trkpt lat="46.833" lon="4.69665">
        <ele>277.96</ele>
        <time>2010-05-16T07:07:18Z</time>
      </trkpt>
      <trkpt lat="46.83296" lon="4.69662">
        <ele>277.96</ele>
        <time>2010-05-16T07:07:19Z</time>
      </trkpt>
      <trkpt lat="46.83292" lon="4.69659">
        <ele>277.96</ele>
        <time>2010-05-16T07:07:20Z</time>
      </trkpt>
      <trkpt lat="46.8327" lon="4.69647">
        <ele>277.96</ele>
        <time>2010-05-16T07:07:25Z</time>
      </trkpt>
      <trkpt lat="46.83266" lon="4.69646">
        <ele>277.96</ele>
        <time>2010-05-16T07:07:26Z</time>
      </trkpt>
      <trkpt lat="46.83244" lon="4.69637">
        <ele>277.96</ele>
        <time>2010-05-16T07:07:31Z</time>
      </trkpt>
      <trkpt lat="46.83239" lon="4.69634">
        <ele>278.44</ele>
        <time>2010-05-16T07:07:32Z</time>
      </trkpt>
      <trkpt lat="46.83235" lon="4.69631">
        <ele>277.96</ele>
        <time>2010-05-16T07:07:33Z</time>
      </trkpt>
      <trkpt lat="46.83231" lon="4.69627">
        <ele>278.44</ele>
        <time>2010-05-16T07:07:34Z</time>
      </trkpt>
      <trkpt lat="46.83229" lon="4.69621">
        <ele>278.92</ele>
        <time>2010-05-16T07:07:35Z</time>
      </trkpt>
      <trkpt lat="46.83228" lon="4.69614">
        <ele>278.44</ele>
        <time>2010-05-16T07:07:36Z</time>
      </trkpt>
      <trkpt lat="46.83227" lon="4.69607">
        <ele>278.44</ele>
        <time>2010-05-16T07:07:37Z</time>
      </trkpt>
      <trkpt lat="46.83227" lon="4.69601">
        <ele>278.44</ele>
        <time>2010-05-16T07:07:38Z</time>
      </trkpt>
      <trkpt lat="46.83224" lon="4.69588">
        <ele>278.92</ele>
        <time>2010-05-16T07:07:40Z</time>
      </trkpt>
      <trkpt lat="46.83222" lon="4.69582">
        <ele>278.44</ele>
        <time>2010-05-16T07:07:41Z</time>
      </trkpt>
      <trkpt lat="46.8322" lon="4.69576">
        <ele>278.92</ele>
        <time>2010-05-16T07:07:42Z</time>
      </trkpt>
      <trkpt lat="46.83204" lon="4.69545">
        <ele>279.4</ele>
        <time>2010-05-16T07:07:49Z</time>
      </trkpt>
      <trkpt lat="46.83192" lon="4.69508">
        <ele>279.88</ele>
        <time>2010-05-16T07:07:57Z</time>
      </trkpt>
      <trkpt lat="46.83186" lon="4.69474">
        <ele>280.36</ele>
        <time>2010-05-16T07:08:04Z</time>
      </trkpt>
      <trkpt lat="46.83185" lon="4.69444">
        <ele>281.8</ele>
        <time>2010-05-16T07:08:10Z</time>
      </trkpt>
      <trkpt lat="46.83186" lon="4.69419">
        <ele>282.28</ele>
        <time>2010-05-16T07:08:15Z</time>
      </trkpt>
      <trkpt lat="46.83185" lon="4.69392">
        <ele>283.73</ele>
        <time>2010-05-16T07:08:21Z</time>
      </trkpt>
      <trkpt lat="46.83179" lon="4.69352">
        <ele>285.17</ele>
        <time>2010-05-16T07:08:30Z</time>
      </trkpt>
      <trkpt lat="46.83171" lon="4.69318">
        <ele>285.65</ele>
        <time>2010-05-16T07:08:38Z</time>
      </trkpt>
      <trkpt lat="46.8316" lon="4.69284">
        <ele>287.09</ele>
        <time>2010-05-16T07:08:47Z</time>
      </trkpt>
      <trkpt lat="46.83153" lon="4.69256">
        <ele>287.57</ele>
        <time>2010-05-16T07:08:54Z</time>
      </trkpt>
      <trkpt lat="46.8315" lon="4.69219">
        <ele>288.53</ele>
        <time>2010-05-16T07:09:02Z</time>
      </trkpt>
      <trkpt lat="46.83149" lon="4.69187">
        <ele>289.01</ele>
        <time>2010-05-16T07:09:09Z</time>
      </trkpt>
      <trkpt lat="46.83147" lon="4.69159">
        <ele>289.97</ele>
        <time>2010-05-16T07:09:16Z</time>
      </trkpt>
      <trkpt lat="46.83148" lon="4.69153">
        <ele>289.97</ele>
        <time>2010-05-16T07:09:18Z</time>
      </trkpt>
      <trkpt lat="46.8315" lon="4.69151">
        <ele>289.97</ele>
        <time>2010-05-16T07:09:19Z</time>
      </trkpt>
      <trkpt lat="46.83153" lon="4.6915">
        <ele>289.97</ele>
        <time>2010-05-16T07:09:20Z</time>
      </trkpt>
      <trkpt lat="46.83156" lon="4.6915">
        <ele>289.97</ele>
        <time>2010-05-16T07:09:21Z</time>
      </trkpt>
      <trkpt lat="46.83159" lon="4.69149">
        <ele>290.46</ele>
        <time>2010-05-16T07:09:22Z</time>
      </trkpt>
      <trkpt lat="46.83162" lon="4.69149">
        <ele>289.97</ele>
        <time>2010-05-16T07:09:23Z</time>
      </trkpt>
      <trkpt lat="46.83198" lon="4.69142">
        <ele>289.97</ele>
        <time>2010-05-16T07:09:33Z</time>
      </trkpt>
      <trkpt lat="46.83235" lon="4.69136">
        <ele>290.46</ele>
        <time>2010-05-16T07:09:43Z</time>
      </trkpt>
      <trkpt lat="46.83268" lon="4.69118">
        <ele>291.42</ele>
        <time>2010-05-16T07:09:53Z</time>
      </trkpt>
      <trkpt lat="46.83295" lon="4.69098">
        <ele>292.38</ele>
        <time>2010-05-16T07:10:02Z</time>
      </trkpt>
      <trkpt lat="46.83326" lon="4.69085">
        <ele>293.82</ele>
        <time>2010-05-16T07:10:12Z</time>
      </trkpt>
      <trkpt lat="46.83345" lon="4.6908">
        <ele>295.26</ele>
        <time>2010-05-16T07:10:19Z</time>
      </trkpt>
      <trkpt lat="46.8336" lon="4.69067">
        <ele>296.7</ele>
        <time>2010-05-16T07:10:26Z</time>
      </trkpt>
      <trkpt lat="46.83367" lon="4.69043">
        <ele>297.67</ele>
        <time>2010-05-16T07:10:34Z</time>
      </trkpt>
      <trkpt lat="46.83369" lon="4.69036">
        <ele>298.15</ele>
        <time>2010-05-16T07:10:37Z</time>
      </trkpt>
      <trkpt lat="46.83371" lon="4.69035">
        <ele>298.15</ele>
        <time>2010-05-16T07:10:38Z</time>
      </trkpt>
      <trkpt lat="46.83372" lon="4.69035">
        <ele>298.15</ele>
        <time>2010-05-16T07:10:39Z</time>
      </trkpt>
      <trkpt lat="46.83374" lon="4.69035">
        <ele>298.15</ele>
        <time>2010-05-16T07:10:40Z</time>
      </trkpt>
      <trkpt lat="46.83375" lon="4.69032">
        <ele>298.15</ele>
        <time>2010-05-16T07:10:42Z</time>
      </trkpt>
      <trkpt lat="46.83367" lon="4.69024">
        <ele>298.63</ele>
        <time>2010-05-16T07:10:49Z</time>
      </trkpt>
      <trkpt lat="46.83359" lon="4.69021">
        <ele>299.11</ele>
        <time>2010-05-16T07:10:54Z</time>
      </trkpt>
      <trkpt lat="46.83356" lon="4.6901">
        <ele>299.11</ele>
        <time>2010-05-16T07:11:01Z</time>
      </trkpt>
      <trkpt lat="46.83355" lon="4.6901">
        <ele>299.59</ele>
        <time>2010-05-16T07:11:02Z</time>
      </trkpt>
      <trkpt lat="46.83351" lon="4.69006">
        <ele>299.59</ele>
        <time>2010-05-16T07:11:05Z</time>
      </trkpt>
      <trkpt lat="46.83346" lon="4.68997">
        <ele>300.07</ele>
        <time>2010-05-16T07:11:09Z</time>
      </trkpt>
      <trkpt lat="46.83343" lon="4.68988">
        <ele>300.55</ele>
        <time>2010-05-16T07:11:14Z</time>
      </trkpt>
      <trkpt lat="46.83337" lon="4.68979">
        <ele>301.51</ele>
        <time>2010-05-16T07:11:23Z</time>
      </trkpt>
      <trkpt lat="46.83331" lon="4.68974">
        <ele>302.47</ele>
        <time>2010-05-16T07:11:30Z</time>
      </trkpt>
      <trkpt lat="46.83326" lon="4.68969">
        <ele>303.91</ele>
        <time>2010-05-16T07:11:36Z</time>
      </trkpt>
      <trkpt lat="46.83321" lon="4.68964">
        <ele>304.39</ele>
        <time>2010-05-16T07:11:43Z</time>
      </trkpt>
      <trkpt lat="46.83317" lon="4.68958">
        <ele>304.88</ele>
        <time>2010-05-16T07:11:49Z</time>
      </trkpt>
      <trkpt lat="46.83314" lon="4.68954">
        <ele>305.84</ele>
        <time>2010-05-16T07:11:55Z</time>
      </trkpt>
      <trkpt lat="46.83311" lon="4.6895">
        <ele>306.32</ele>
        <time>2010-05-16T07:11:59Z</time>
      </trkpt>
      <trkpt lat="46.83309" lon="4.68945">
        <ele>306.8</ele>
        <time>2010-05-16T07:12:06Z</time>
      </trkpt>
      <trkpt lat="46.83309" lon="4.68943">
        <ele>306.8</ele>
        <time>2010-05-16T07:12:15Z</time>
      </trkpt>
      <trkpt lat="46.83307" lon="4.6894">
        <ele>306.8</ele>
        <time>2010-05-16T07:12:22Z</time>
      </trkpt>
      <trkpt lat="46.83304" lon="4.68936">
        <ele>307.76</ele>
        <time>2010-05-16T07:12:25Z</time>
      </trkpt>
      <trkpt lat="46.83302" lon="4.68932">
        <ele>308.24</ele>
        <time>2010-05-16T07:12:27Z</time>
      </trkpt>
      <trkpt lat="46.83298" lon="4.68927">
        <ele>308.72</ele>
        <time>2010-05-16T07:12:30Z</time>
      </trkpt>
      <trkpt lat="46.83288" lon="4.6892">
        <ele>309.2</ele>
        <time>2010-05-16T07:12:37Z</time>
      </trkpt>
      <trkpt lat="46.83285" lon="4.68919">
        <ele>310.64</ele>
        <time>2010-05-16T07:12:43Z</time>
      </trkpt>
      <trkpt lat="46.83281" lon="4.6891">
        <ele>310.64</ele>
        <time>2010-05-16T07:12:55Z</time>
      </trkpt>
      <trkpt lat="46.83277" lon="4.68906">
        <ele>311.6</ele>
        <time>2010-05-16T07:12:59Z</time>
      </trkpt>
      <trkpt lat="46.83276" lon="4.68905">
        <ele>311.12</ele>
        <time>2010-05-16T07:13:02Z</time>
      </trkpt>
      <trkpt lat="46.83272" lon="4.68897">
        <ele>312.57</ele>
        <time>2010-05-16T07:13:09Z</time>
      </trkpt>
      <trkpt lat="46.83269" lon="4.6889">
        <ele>313.53</ele>
        <time>2010-05-16T07:13:15Z</time>
      </trkpt>
      <trkpt lat="46.83264" lon="4.68881">
        <ele>314.49</ele>
        <time>2010-05-16T07:13:22Z</time>
      </trkpt>
      <trkpt lat="46.83262" lon="4.68873">
        <ele>315.45</ele>
        <time>2010-05-16T07:13:28Z</time>
      </trkpt>
      <trkpt lat="46.83257" lon="4.68869">
        <ele>315.45</ele>
        <time>2010-05-16T07:13:34Z</time>
      </trkpt>
      <trkpt lat="46.83254" lon="4.68864">
        <ele>316.41</ele>
        <time>2010-05-16T07:13:41Z</time>
      </trkpt>
      <trkpt lat="46.83251" lon="4.68861">
        <ele>317.85</ele>
        <time>2010-05-16T07:13:48Z</time>
      </trkpt>
      <trkpt lat="46.83245" lon="4.68854">
        <ele>318.33</ele>
        <time>2010-05-16T07:13:54Z</time>
      </trkpt>
      <trkpt lat="46.83243" lon="4.68848">
        <ele>319.3</ele>
        <time>2010-05-16T07:14:01Z</time>
      </trkpt>
      <trkpt lat="46.83241" lon="4.68843">
        <ele>319.78</ele>
        <time>2010-05-16T07:14:05Z</time>
      </trkpt>
      <trkpt lat="46.83234" lon="4.68839">
        <ele>321.7</ele>
        <time>2010-05-16T07:14:13Z</time>
      </trkpt>
      <trkpt lat="46.8323" lon="4.68836">
        <ele>322.18</ele>
        <time>2010-05-16T07:14:19Z</time>
      </trkpt>
      <trkpt lat="46.83227" lon="4.68834">
        <ele>323.14</ele>
        <time>2010-05-16T07:14:24Z</time>
      </trkpt>
      <trkpt lat="46.83219" lon="4.68829">
        <ele>323.62</ele>
        <time>2010-05-16T07:14:31Z</time>
      </trkpt>
      <trkpt lat="46.83214" lon="4.68828">
        <ele>324.58</ele>
        <time>2010-05-16T07:14:37Z</time>
      </trkpt>
      <trkpt lat="46.83208" lon="4.68826">
        <ele>325.06</ele>
        <time>2010-05-16T07:14:42Z</time>
      </trkpt>
      <trkpt lat="46.83201" lon="4.68822">
        <ele>326.02</ele>
        <time>2010-05-16T07:14:49Z</time>
      </trkpt>
      <trkpt lat="46.83197" lon="4.68823">
        <ele>326.5</ele>
        <time>2010-05-16T07:14:54Z</time>
      </trkpt>
      <trkpt lat="46.83193" lon="4.68822">
        <ele>326.02</ele>
        <time>2010-05-16T07:14:59Z</time>
      </trkpt>
      <trkpt lat="46.8319" lon="4.68822">
        <ele>326.5</ele>
        <time>2010-05-16T07:15:02Z</time>
      </trkpt>
      <trkpt lat="46.83185" lon="4.68816">
        <ele>327.47</ele>
        <time>2010-05-16T07:15:09Z</time>
      </trkpt>
      <trkpt lat="46.83183" lon="4.68814">
        <ele>327.95</ele>
        <time>2010-05-16T07:15:11Z</time>
      </trkpt>
      <trkpt lat="46.83176" lon="4.68811">
        <ele>328.91</ele>
        <time>2010-05-16T07:15:18Z</time>
      </trkpt>
      <trkpt lat="46.83172" lon="4.68807">
        <ele>329.87</ele>
        <time>2010-05-16T07:15:24Z</time>
      </trkpt>
      <trkpt lat="46.8317" lon="4.68804">
        <ele>330.83</ele>
        <time>2010-05-16T07:15:30Z</time>
      </trkpt>
      <trkpt lat="46.83167" lon="4.688">
        <ele>331.31</ele>
        <time>2010-05-16T07:15:36Z</time>
      </trkpt>
      <trkpt lat="46.83163" lon="4.68794">
        <ele>331.79</ele>
        <time>2010-05-16T07:15:42Z</time>
      </trkpt>
      <trkpt lat="46.83156" lon="4.68789">
        <ele>333.23</ele>
        <time>2010-05-16T07:15:50Z</time>
      </trkpt>
      <trkpt lat="46.83152" lon="4.68783">
        <ele>334.68</ele>
        <time>2010-05-16T07:15:57Z</time>
      </trkpt>
      <trkpt lat="46.83151" lon="4.68779">
        <ele>335.16</ele>
        <time>2010-05-16T07:16:02Z</time>
      </trkpt>
      <trkpt lat="46.83147" lon="4.68776">
        <ele>336.12</ele>
        <time>2010-05-16T07:16:08Z</time>
      </trkpt>
      <trkpt lat="46.83145" lon="4.68772">
        <ele>337.56</ele>
        <time>2010-05-16T07:16:14Z</time>
      </trkpt>
      <trkpt lat="46.8314" lon="4.68772">
        <ele>338.52</ele>
        <time>2010-05-16T07:16:20Z</time>
      </trkpt>
      <trkpt lat="46.83139" lon="4.6877">
        <ele>339.48</ele>
        <time>2010-05-16T07:16:27Z</time>
      </trkpt>
      <trkpt lat="46.83135" lon="4.68768">
        <ele>340.44</ele>
        <time>2010-05-16T07:16:35Z</time>
      </trkpt>
      <trkpt lat="46.8313" lon="4.68767">
        <ele>341.41</ele>
        <time>2010-05-16T07:16:40Z</time>
      </trkpt>
      <trkpt lat="46.83128" lon="4.68766">
        <ele>341.41</ele>
        <time>2010-05-16T07:16:41Z</time>
      </trkpt>
      <trkpt lat="46.83119" lon="4.68766">
        <ele>342.85</ele>
        <time>2010-05-16T07:16:50Z</time>
      </trkpt>
      <trkpt lat="46.83116" lon="4.68762">
        <ele>343.33</ele>
        <time>2010-05-16T07:16:57Z</time>
      </trkpt>
      <trkpt lat="46.83112" lon="4.68763">
        <ele>343.81</ele>
        <time>2010-05-16T07:17:01Z</time>
      </trkpt>
      <trkpt lat="46.83107" lon="4.68766">
        <ele>344.77</ele>
        <time>2010-05-16T07:17:07Z</time>
      </trkpt>
      <trkpt lat="46.83103" lon="4.68767">
        <ele>345.25</ele>
        <time>2010-05-16T07:17:12Z</time>
      </trkpt>
      <trkpt lat="46.83099" lon="4.68767">
        <ele>345.73</ele>
        <time>2010-05-16T07:17:18Z</time>
      </trkpt>
      <trkpt lat="46.83094" lon="4.68767">
        <ele>346.21</ele>
        <time>2010-05-16T07:17:24Z</time>
      </trkpt>
      <trkpt lat="46.83088" lon="4.68763">
        <ele>346.69</ele>
        <time>2010-05-16T07:17:31Z</time>
      </trkpt>
      <trkpt lat="46.83087" lon="4.6876">
        <ele>347.65</ele>
        <time>2010-05-16T07:17:39Z</time>
      </trkpt>
      <trkpt lat="46.83085" lon="4.6876">
        <ele>347.65</ele>
        <time>2010-05-16T07:17:47Z</time>
      </trkpt>
      <trkpt lat="46.83083" lon="4.68761">
        <ele>348.13</ele>
        <time>2010-05-16T07:17:56Z</time>
      </trkpt>
      <trkpt lat="46.83079" lon="4.6876">
        <ele>347.65</ele>
        <time>2010-05-16T07:18:02Z</time>
      </trkpt>
      <trkpt lat="46.83076" lon="4.68759">
        <ele>348.62</ele>
        <time>2010-05-16T07:18:07Z</time>
      </trkpt>
      <trkpt lat="46.83066" lon="4.68755">
        <ele>349.58</ele>
        <time>2010-05-16T07:18:13Z</time>
      </trkpt>
      <trkpt lat="46.83057" lon="4.68753">
        <ele>350.54</ele>
        <time>2010-05-16T07:18:19Z</time>
      </trkpt>
      <trkpt lat="46.83049" lon="4.68755">
        <ele>351.02</ele>
        <time>2010-05-16T07:18:25Z</time>
      </trkpt>
      <trkpt lat="46.83043" lon="4.68752">
        <ele>351.98</ele>
        <time>2010-05-16T07:18:30Z</time>
      </trkpt>
      <trkpt lat="46.83036" lon="4.68748">
        <ele>352.94</ele>
        <time>2010-05-16T07:18:35Z</time>
      </trkpt>
      <trkpt lat="46.83024" lon="4.68741">
        <ele>353.9</ele>
        <time>2010-05-16T07:18:43Z</time>
      </trkpt>
      <trkpt lat="46.83018" lon="4.68735">
        <ele>355.83</ele>
        <time>2010-05-16T07:18:50Z</time>
      </trkpt>
      <trkpt lat="46.83016" lon="4.68732">
        <ele>356.31</ele>
        <time>2010-05-16T07:18:52Z</time>
      </trkpt>
      <trkpt lat="46.83011" lon="4.68728">
        <ele>357.27</ele>
        <time>2010-05-16T07:18:57Z</time>
      </trkpt>
      <trkpt lat="46.83007" lon="4.68724">
        <ele>358.23</ele>
        <time>2010-05-16T07:19:01Z</time>
      </trkpt>
      <trkpt lat="46.83001" lon="4.68722">
        <ele>359.19</ele>
        <time>2010-05-16T07:19:05Z</time>
      </trkpt>
      <trkpt lat="46.82992" lon="4.68718">
        <ele>360.15</ele>
        <time>2010-05-16T07:19:14Z</time>
      </trkpt>
      <trkpt lat="46.82989" lon="4.68715">
        <ele>361.11</ele>
        <time>2010-05-16T07:19:18Z</time>
      </trkpt>
      <trkpt lat="46.82984" lon="4.6871">
        <ele>362.07</ele>
        <time>2010-05-16T07:19:23Z</time>
      </trkpt>
      <trkpt lat="46.82978" lon="4.68705">
        <ele>363.04</ele>
        <time>2010-05-16T07:19:29Z</time>
      </trkpt>
      <trkpt lat="46.82972" lon="4.68697">
        <ele>364.48</ele>
        <time>2010-05-16T07:19:36Z</time>
      </trkpt>
      <trkpt lat="46.82967" lon="4.68686">
        <ele>365.44</ele>
        <time>2010-05-16T07:19:42Z</time>
      </trkpt>
      <trkpt lat="46.82963" lon="4.68682">
        <ele>366.88</ele>
        <time>2010-05-16T07:19:47Z</time>
      </trkpt>
      <trkpt lat="46.82957" lon="4.68673">
        <ele>367.84</ele>
        <time>2010-05-16T07:19:55Z</time>
      </trkpt>
      <trkpt lat="46.82952" lon="4.68663">
        <ele>368.8</ele>
        <time>2010-05-16T07:20:02Z</time>
      </trkpt>
      <trkpt lat="46.8295" lon="4.68655">
        <ele>369.28</ele>
        <time>2010-05-16T07:20:08Z</time>
      </trkpt>
      <trkpt lat="46.82946" lon="4.68645">
        <ele>370.73</ele>
        <time>2010-05-16T07:20:15Z</time>
      </trkpt>
      <trkpt lat="46.82946" lon="4.6864">
        <ele>371.69</ele>
        <time>2010-05-16T07:20:18Z</time>
      </trkpt>
      <trkpt lat="46.8295" lon="4.68629">
        <ele>372.17</ele>
        <time>2010-05-16T07:20:25Z</time>
      </trkpt>
      <trkpt lat="46.82953" lon="4.68621">
        <ele>372.65</ele>
        <time>2010-05-16T07:20:32Z</time>
      </trkpt>
      <trkpt lat="46.82952" lon="4.68621">
        <ele>372.17</ele>
        <time>2010-05-16T07:20:45Z</time>
      </trkpt>
      <trkpt lat="46.82952" lon="4.68619">
        <ele>372.65</ele>
        <time>2010-05-16T07:23:10Z</time>
      </trkpt>
      <trkpt lat="46.82954" lon="4.68617">
        <ele>373.13</ele>
        <time>2010-05-16T07:23:28Z</time>
      </trkpt>
      <trkpt lat="46.82959" lon="4.68604">
        <ele>374.09</ele>
        <time>2010-05-16T07:23:35Z</time>
      </trkpt>
      <trkpt lat="46.8296" lon="4.68594">
        <ele>374.09</ele>
        <time>2010-05-16T07:23:39Z</time>
      </trkpt>
      <trkpt lat="46.82962" lon="4.68589">
        <ele>374.09</ele>
        <time>2010-05-16T07:23:41Z</time>
      </trkpt>
      <trkpt lat="46.82961" lon="4.68579">
        <ele>374.57</ele>
        <time>2010-05-16T07:23:45Z</time>
      </trkpt>
      <trkpt lat="46.82959" lon="4.68567">
        <ele>375.53</ele>
        <time>2010-05-16T07:23:51Z</time>
      </trkpt>
      <trkpt lat="46.82957" lon="4.68553">
        <ele>376.01</ele>
        <time>2010-05-16T07:23:57Z</time>
      </trkpt>
      <trkpt lat="46.82953" lon="4.68541">
        <ele>376.97</ele>
        <time>2010-05-16T07:24:02Z</time>
      </trkpt>
      <trkpt lat="46.82952" lon="4.68539">
        <ele>376.97</ele>
        <time>2010-05-16T07:24:03Z</time>
      </trkpt>
      <trkpt lat="46.82946" lon="4.68519">
        <ele>377.45</ele>
        <time>2010-05-16T07:24:10Z</time>
      </trkpt>
      <trkpt lat="46.82942" lon="4.68502">
        <ele>377.94</ele>
        <time>2010-05-16T07:24:16Z</time>
      </trkpt>
      <trkpt lat="46.8294" lon="4.68489">
        <ele>377.94</ele>
        <time>2010-05-16T07:24:20Z</time>
      </trkpt>
      <trkpt lat="46.82939" lon="4.6848">
        <ele>378.42</ele>
        <time>2010-05-16T07:24:23Z</time>
      </trkpt>
      <trkpt lat="46.82935" lon="4.6846">
        <ele>378.42</ele>
        <time>2010-05-16T07:24:30Z</time>
      </trkpt>
      <trkpt lat="46.82929" lon="4.68438">
        <ele>378.9</ele>
        <time>2010-05-16T07:24:35Z</time>
      </trkpt>
      <trkpt lat="46.82926" lon="4.68422">
        <ele>378.9</ele>
        <time>2010-05-16T07:24:39Z</time>
      </trkpt>
      <trkpt lat="46.82915" lon="4.6839">
        <ele>379.38</ele>
        <time>2010-05-16T07:24:47Z</time>
      </trkpt>
      <trkpt lat="46.82906" lon="4.68361">
        <ele>379.86</ele>
        <time>2010-05-16T07:24:54Z</time>
      </trkpt>
      <trkpt lat="46.829" lon="4.68344">
        <ele>380.34</ele>
        <time>2010-05-16T07:24:59Z</time>
      </trkpt>
      <trkpt lat="46.82892" lon="4.6833">
        <ele>380.34</ele>
        <time>2010-05-16T07:25:03Z</time>
      </trkpt>
      <trkpt lat="46.82889" lon="4.68313">
        <ele>380.82</ele>
        <time>2010-05-16T07:25:09Z</time>
      </trkpt>
      <trkpt lat="46.8289" lon="4.68307">
        <ele>380.34</ele>
        <time>2010-05-16T07:25:11Z</time>
      </trkpt>
      <trkpt lat="46.82891" lon="4.68305">
        <ele>380.34</ele>
        <time>2010-05-16T07:25:12Z</time>
      </trkpt>
      <trkpt lat="46.82885" lon="4.6828">
        <ele>380.82</ele>
        <time>2010-05-16T07:25:19Z</time>
      </trkpt>
      <trkpt lat="46.82883" lon="4.68271">
        <ele>380.82</ele>
        <time>2010-05-16T07:25:21Z</time>
      </trkpt>
      <trkpt lat="46.82883" lon="4.6825">
        <ele>380.82</ele>
        <time>2010-05-16T07:25:26Z</time>
      </trkpt>
      <trkpt lat="46.82885" lon="4.68229">
        <ele>380.82</ele>
        <time>2010-05-16T07:25:32Z</time>
      </trkpt>
      <trkpt lat="46.82885" lon="4.68223">
        <ele>380.82</ele>
        <time>2010-05-16T07:25:33Z</time>
      </trkpt>
      <trkpt lat="46.82888" lon="4.6819">
        <ele>380.82</ele>
        <time>2010-05-16T07:25:41Z</time>
      </trkpt>
      <trkpt lat="46.82889" lon="4.68185">
        <ele>380.82</ele>
        <time>2010-05-16T07:25:45Z</time>
      </trkpt>
      <trkpt lat="46.82889" lon="4.68185">
        <ele>380.34</ele>
        <time>2010-05-16T07:25:46Z</time>
      </trkpt>
      <trkpt lat="46.82889" lon="4.68171">
        <ele>380.82</ele>
        <time>2010-05-16T07:25:53Z</time>
      </trkpt>
      <trkpt lat="46.82891" lon="4.68167">
        <ele>380.34</ele>
        <time>2010-05-16T07:25:58Z</time>
      </trkpt>
      <trkpt lat="46.82894" lon="4.68154">
        <ele>380.34</ele>
        <time>2010-05-16T07:26:04Z</time>
      </trkpt>
      <trkpt lat="46.829" lon="4.68152">
        <ele>379.86</ele>
        <time>2010-05-16T07:26:08Z</time>
      </trkpt>
      <trkpt lat="46.82922" lon="4.68146">
        <ele>380.82</ele>
        <time>2010-05-16T07:26:16Z</time>
      </trkpt>
      <trkpt lat="46.82937" lon="4.6814">
        <ele>381.3</ele>
        <time>2010-05-16T07:26:22Z</time>
      </trkpt>
      <trkpt lat="46.82954" lon="4.6813">
        <ele>382.74</ele>
        <time>2010-05-16T07:26:29Z</time>
      </trkpt>
      <trkpt lat="46.82967" lon="4.68123">
        <ele>383.22</ele>
        <time>2010-05-16T07:26:35Z</time>
      </trkpt>
      <trkpt lat="46.82976" lon="4.68115">
        <ele>383.7</ele>
        <time>2010-05-16T07:26:39Z</time>
      </trkpt>
      <trkpt lat="46.82993" lon="4.68104">
        <ele>383.7</ele>
        <time>2010-05-16T07:26:45Z</time>
      </trkpt>
      <trkpt lat="46.8301" lon="4.681">
        <ele>384.66</ele>
        <time>2010-05-16T07:26:51Z</time>
      </trkpt>
      <trkpt lat="46.83028" lon="4.68096">
        <ele>385.15</ele>
        <time>2010-05-16T07:26:58Z</time>
      </trkpt>
      <trkpt lat="46.83037" lon="4.68096">
        <ele>385.15</ele>
        <time>2010-05-16T07:27:03Z</time>
      </trkpt>
      <trkpt lat="46.83052" lon="4.68082">
        <ele>384.18</ele>
        <time>2010-05-16T07:27:09Z</time>
      </trkpt>
      <trkpt lat="46.83055" lon="4.6808">
        <ele>384.18</ele>
        <time>2010-05-16T07:27:10Z</time>
      </trkpt>
      <trkpt lat="46.83066" lon="4.68068">
        <ele>383.7</ele>
        <time>2010-05-16T07:27:14Z</time>
      </trkpt>
      <trkpt lat="46.8307" lon="4.68048">
        <ele>381.78</ele>
        <time>2010-05-16T07:27:19Z</time>
      </trkpt>
      <trkpt lat="46.8307" lon="4.68036">
        <ele>381.78</ele>
        <time>2010-05-16T07:27:24Z</time>
      </trkpt>
      <trkpt lat="46.83064" lon="4.68008">
        <ele>379.86</ele>
        <time>2010-05-16T07:27:30Z</time>
      </trkpt>
      <trkpt lat="46.83057" lon="4.67977">
        <ele>377.94</ele>
        <time>2010-05-16T07:27:34Z</time>
      </trkpt>
      <trkpt lat="46.83054" lon="4.67967">
        <ele>377.45</ele>
        <time>2010-05-16T07:27:35Z</time>
      </trkpt>
      <trkpt lat="46.83052" lon="4.67958">
        <ele>376.49</ele>
        <time>2010-05-16T07:27:36Z</time>
      </trkpt>
      <trkpt lat="46.8305" lon="4.67949">
        <ele>376.49</ele>
        <time>2010-05-16T07:27:37Z</time>
      </trkpt>
      <trkpt lat="46.83048" lon="4.67941">
        <ele>375.53</ele>
        <time>2010-05-16T07:27:38Z</time>
      </trkpt>
      <trkpt lat="46.83047" lon="4.67935">
        <ele>375.05</ele>
        <time>2010-05-16T07:27:39Z</time>
      </trkpt>
      <trkpt lat="46.83049" lon="4.67931">
        <ele>374.57</ele>
        <time>2010-05-16T07:27:40Z</time>
      </trkpt>
      <trkpt lat="46.83052" lon="4.67929">
        <ele>374.57</ele>
        <time>2010-05-16T07:27:41Z</time>
      </trkpt>
      <trkpt lat="46.83056" lon="4.67928">
        <ele>374.09</ele>
        <time>2010-05-16T07:27:42Z</time>
      </trkpt>
      <trkpt lat="46.83059" lon="4.67928">
        <ele>374.09</ele>
        <time>2010-05-16T07:27:43Z</time>
      </trkpt>
      <trkpt lat="46.83061" lon="4.67929">
        <ele>373.61</ele>
        <time>2010-05-16T07:27:44Z</time>
      </trkpt>
      <trkpt lat="46.83063" lon="4.6793">
        <ele>373.61</ele>
        <time>2010-05-16T07:27:45Z</time>
      </trkpt>
      <trkpt lat="46.83063" lon="4.67928">
        <ele>373.61</ele>
        <time>2010-05-16T07:27:47Z</time>
      </trkpt>
      <trkpt lat="46.83061" lon="4.67927">
        <ele>373.61</ele>
        <time>2010-05-16T07:27:48Z</time>
      </trkpt>
      <trkpt lat="46.83058" lon="4.67927">
        <ele>373.61</ele>
        <time>2010-05-16T07:27:49Z</time>
      </trkpt>
      <trkpt lat="46.83056" lon="4.67927">
        <ele>374.09</ele>
        <time>2010-05-16T07:27:50Z</time>
      </trkpt>
      <trkpt lat="46.83054" lon="4.67926">
        <ele>374.09</ele>
        <time>2010-05-16T07:27:51Z</time>
      </trkpt>
      <trkpt lat="46.83052" lon="4.67926">
        <ele>374.09</ele>
        <time>2010-05-16T07:27:52Z</time>
      </trkpt>
      <trkpt lat="46.8305" lon="4.67925">
        <ele>374.09</ele>
        <time>2010-05-16T07:27:53Z</time>
      </trkpt>
      <trkpt lat="46.83048" lon="4.67924">
        <ele>373.61</ele>
        <time>2010-05-16T07:27:54Z</time>
      </trkpt>
      <trkpt lat="46.83046" lon="4.67922">
        <ele>373.61</ele>
        <time>2010-05-16T07:27:55Z</time>
      </trkpt>
      <trkpt lat="46.83045" lon="4.67919">
        <ele>373.61</ele>
        <time>2010-05-16T07:27:56Z</time>
      </trkpt>
      <trkpt lat="46.83044" lon="4.67916">
        <ele>373.61</ele>
        <time>2010-05-16T07:27:57Z</time>
      </trkpt>
      <trkpt lat="46.83043" lon="4.67912">
        <ele>373.61</ele>
        <time>2010-05-16T07:27:58Z</time>
      </trkpt>
      <trkpt lat="46.83037" lon="4.67884">
        <ele>373.13</ele>
        <time>2010-05-16T07:28:04Z</time>
      </trkpt>
      <trkpt lat="46.83035" lon="4.67878">
        <ele>372.65</ele>
        <time>2010-05-16T07:28:05Z</time>
      </trkpt>
      <trkpt lat="46.83033" lon="4.67873">
        <ele>373.13</ele>
        <time>2010-05-16T07:28:06Z</time>
      </trkpt>
      <trkpt lat="46.83021" lon="4.67834">
        <ele>372.17</ele>
        <time>2010-05-16T07:28:13Z</time>
      </trkpt>
      <trkpt lat="46.83019" lon="4.67828">
        <ele>372.17</ele>
        <time>2010-05-16T07:28:14Z</time>
      </trkpt>
      <trkpt lat="46.83017" lon="4.67822">
        <ele>372.17</ele>
        <time>2010-05-16T07:28:15Z</time>
      </trkpt>
      <trkpt lat="46.83015" lon="4.67815">
        <ele>371.69</ele>
        <time>2010-05-16T07:28:16Z</time>
      </trkpt>
      <trkpt lat="46.83013" lon="4.67809">
        <ele>371.21</ele>
        <time>2010-05-16T07:28:17Z</time>
      </trkpt>
      <trkpt lat="46.83011" lon="4.67801">
        <ele>370.73</ele>
        <time>2010-05-16T07:28:18Z</time>
      </trkpt>
      <trkpt lat="46.82998" lon="4.67762">
        <ele>371.21</ele>
        <time>2010-05-16T07:28:24Z</time>
      </trkpt>
      <trkpt lat="46.82996" lon="4.67754">
        <ele>370.73</ele>
        <time>2010-05-16T07:28:25Z</time>
      </trkpt>
      <trkpt lat="46.82994" lon="4.67747">
        <ele>370.73</ele>
        <time>2010-05-16T07:28:26Z</time>
      </trkpt>
      <trkpt lat="46.82982" lon="4.67701">
        <ele>370.73</ele>
        <time>2010-05-16T07:28:32Z</time>
      </trkpt>
      <trkpt lat="46.8298" lon="4.67694">
        <ele>370.73</ele>
        <time>2010-05-16T07:28:33Z</time>
      </trkpt>
      <trkpt lat="46.82978" lon="4.67686">
        <ele>370.73</ele>
        <time>2010-05-16T07:28:34Z</time>
      </trkpt>
      <trkpt lat="46.82976" lon="4.67679">
        <ele>371.21</ele>
        <time>2010-05-16T07:28:35Z</time>
      </trkpt>
      <trkpt lat="46.82974" lon="4.67672">
        <ele>371.21</ele>
        <time>2010-05-16T07:28:36Z</time>
      </trkpt>
      <trkpt lat="46.82967" lon="4.67643">
        <ele>371.21</ele>
        <time>2010-05-16T07:28:40Z</time>
      </trkpt>
      <trkpt lat="46.82965" lon="4.67636">
        <ele>371.21</ele>
        <time>2010-05-16T07:28:41Z</time>
      </trkpt>
      <trkpt lat="46.82948" lon="4.6757">
        <ele>371.21</ele>
        <time>2010-05-16T07:28:50Z</time>
      </trkpt>
      <trkpt lat="46.82945" lon="4.67563">
        <ele>371.21</ele>
        <time>2010-05-16T07:28:51Z</time>
      </trkpt>
      <trkpt lat="46.82943" lon="4.67556">
        <ele>370.73</ele>
        <time>2010-05-16T07:28:52Z</time>
      </trkpt>
      <trkpt lat="46.82929" lon="4.67508">
        <ele>369.28</ele>
        <time>2010-05-16T07:28:58Z</time>
      </trkpt>
      <trkpt lat="46.82919" lon="4.67466">
        <ele>368.8</ele>
        <time>2010-05-16T07:29:03Z</time>
      </trkpt>
      <trkpt lat="46.82916" lon="4.67458">
        <ele>368.8</ele>
        <time>2010-05-16T07:29:04Z</time>
      </trkpt>
      <trkpt lat="46.82907" lon="4.67424">
        <ele>367.36</ele>
        <time>2010-05-16T07:29:08Z</time>
      </trkpt>
      <trkpt lat="46.82904" lon="4.67416">
        <ele>367.36</ele>
        <time>2010-05-16T07:29:09Z</time>
      </trkpt>
      <trkpt lat="46.82901" lon="4.67407">
        <ele>367.36</ele>
        <time>2010-05-16T07:29:10Z</time>
      </trkpt>
      <trkpt lat="46.82886" lon="4.67354">
        <ele>367.36</ele>
        <time>2010-05-16T07:29:17Z</time>
      </trkpt>
      <trkpt lat="46.82879" lon="4.67332">
        <ele>367.36</ele>
        <time>2010-05-16T07:29:20Z</time>
      </trkpt>
      <trkpt lat="46.82877" lon="4.67324">
        <ele>367.36</ele>
        <time>2010-05-16T07:29:21Z</time>
      </trkpt>
      <trkpt lat="46.82873" lon="4.6731">
        <ele>367.84</ele>
        <time>2010-05-16T07:29:23Z</time>
      </trkpt>
      <trkpt lat="46.82863" lon="4.67263">
        <ele>367.84</ele>
        <time>2010-05-16T07:29:31Z</time>
      </trkpt>
      <trkpt lat="46.82855" lon="4.67238">
        <ele>368.32</ele>
        <time>2010-05-16T07:29:37Z</time>
      </trkpt>
      <trkpt lat="46.82846" lon="4.6721">
        <ele>368.32</ele>
        <time>2010-05-16T07:29:43Z</time>
      </trkpt>
      <trkpt lat="46.82839" lon="4.67181">
        <ele>367.84</ele>
        <time>2010-05-16T07:29:49Z</time>
      </trkpt>
      <trkpt lat="46.8283" lon="4.67156">
        <ele>367.84</ele>
        <time>2010-05-16T07:29:54Z</time>
      </trkpt>
      <trkpt lat="46.8282" lon="4.67124">
        <ele>367.84</ele>
        <time>2010-05-16T07:30:00Z</time>
      </trkpt>
      <trkpt lat="46.82819" lon="4.67117">
        <ele>367.36</ele>
        <time>2010-05-16T07:30:01Z</time>
      </trkpt>
      <trkpt lat="46.82817" lon="4.6711">
        <ele>366.88</ele>
        <time>2010-05-16T07:30:02Z</time>
      </trkpt>
      <trkpt lat="46.82815" lon="4.67104">
        <ele>366.88</ele>
        <time>2010-05-16T07:30:03Z</time>
      </trkpt>
      <trkpt lat="46.82813" lon="4.67098">
        <ele>366.4</ele>
        <time>2010-05-16T07:30:04Z</time>
      </trkpt>
      <trkpt lat="46.82812" lon="4.67091">
        <ele>365.92</ele>
        <time>2010-05-16T07:30:05Z</time>
      </trkpt>
      <trkpt lat="46.82811" lon="4.67086">
        <ele>365.44</ele>
        <time>2010-05-16T07:30:06Z</time>
      </trkpt>
      <trkpt lat="46.82809" lon="4.6708">
        <ele>364.96</ele>
        <time>2010-05-16T07:30:07Z</time>
      </trkpt>
      <trkpt lat="46.82807" lon="4.67077">
        <ele>364.48</ele>
        <time>2010-05-16T07:30:08Z</time>
      </trkpt>
      <trkpt lat="46.82805" lon="4.67075">
        <ele>364</ele>
        <time>2010-05-16T07:30:09Z</time>
      </trkpt>
      <trkpt lat="46.82802" lon="4.67075">
        <ele>364</ele>
        <time>2010-05-16T07:30:10Z</time>
      </trkpt>
      <trkpt lat="46.82801" lon="4.67075">
        <ele>364.48</ele>
        <time>2010-05-16T07:30:11Z</time>
      </trkpt>
      <trkpt lat="46.82799" lon="4.67075">
        <ele>364.48</ele>
        <time>2010-05-16T07:30:12Z</time>
      </trkpt>
      <trkpt lat="46.82797" lon="4.67076">
        <ele>364.96</ele>
        <time>2010-05-16T07:30:13Z</time>
      </trkpt>
      <trkpt lat="46.82785" lon="4.67083">
        <ele>366.4</ele>
        <time>2010-05-16T07:30:19Z</time>
      </trkpt>
      <trkpt lat="46.82776" lon="4.67086">
        <ele>367.36</ele>
        <time>2010-05-16T07:30:24Z</time>
      </trkpt>
      <trkpt lat="46.82771" lon="4.67088">
        <ele>368.32</ele>
        <time>2010-05-16T07:30:27Z</time>
      </trkpt>
      <trkpt lat="46.82763" lon="4.67092">
        <ele>369.76</ele>
        <time>2010-05-16T07:30:33Z</time>
      </trkpt>
      <trkpt lat="46.8275" lon="4.671">
        <ele>370.24</ele>
        <time>2010-05-16T07:30:41Z</time>
      </trkpt>
      <trkpt lat="46.82738" lon="4.67108">
        <ele>371.69</ele>
        <time>2010-05-16T07:30:49Z</time>
      </trkpt>
      <trkpt lat="46.82731" lon="4.67111">
        <ele>372.17</ele>
        <time>2010-05-16T07:30:53Z</time>
      </trkpt>
      <trkpt lat="46.82721" lon="4.67119">
        <ele>373.13</ele>
        <time>2010-05-16T07:31:00Z</time>
      </trkpt>
      <trkpt lat="46.82718" lon="4.6712">
        <ele>373.13</ele>
        <time>2010-05-16T07:31:02Z</time>
      </trkpt>
      <trkpt lat="46.82716" lon="4.67121">
        <ele>373.61</ele>
        <time>2010-05-16T07:31:03Z</time>
      </trkpt>
      <trkpt lat="46.82711" lon="4.67123">
        <ele>374.57</ele>
        <time>2010-05-16T07:31:07Z</time>
      </trkpt>
      <trkpt lat="46.8271" lon="4.67124">
        <ele>374.09</ele>
        <time>2010-05-16T07:31:08Z</time>
      </trkpt>
      <trkpt lat="46.82708" lon="4.67124">
        <ele>374.57</ele>
        <time>2010-05-16T07:31:09Z</time>
      </trkpt>
      <trkpt lat="46.82706" lon="4.67125">
        <ele>375.05</ele>
        <time>2010-05-16T07:31:10Z</time>
      </trkpt>
      <trkpt lat="46.82705" lon="4.67126">
        <ele>375.05</ele>
        <time>2010-05-16T07:31:11Z</time>
      </trkpt>
      <trkpt lat="46.82703" lon="4.67127">
        <ele>375.53</ele>
        <time>2010-05-16T07:31:12Z</time>
      </trkpt>
      <trkpt lat="46.82693" lon="4.67133">
        <ele>376.97</ele>
        <time>2010-05-16T07:31:19Z</time>
      </trkpt>
      <trkpt lat="46.82683" lon="4.67138">
        <ele>379.38</ele>
        <time>2010-05-16T07:31:27Z</time>
      </trkpt>
      <trkpt lat="46.82673" lon="4.67144">
        <ele>381.3</ele>
        <time>2010-05-16T07:31:34Z</time>
      </trkpt>
      <trkpt lat="46.82672" lon="4.67145">
        <ele>381.3</ele>
        <time>2010-05-16T07:31:35Z</time>
      </trkpt>
      <trkpt lat="46.82671" lon="4.67146">
        <ele>381.3</ele>
        <time>2010-05-16T07:31:36Z</time>
      </trkpt>
      <trkpt lat="46.8267" lon="4.67147">
        <ele>381.78</ele>
        <time>2010-05-16T07:31:37Z</time>
      </trkpt>
      <trkpt lat="46.82668" lon="4.67148">
        <ele>382.26</ele>
        <time>2010-05-16T07:31:38Z</time>
      </trkpt>
      <trkpt lat="46.82667" lon="4.67149">
        <ele>382.26</ele>
        <time>2010-05-16T07:31:39Z</time>
      </trkpt>
      <trkpt lat="46.82666" lon="4.67149">
        <ele>382.26</ele>
        <time>2010-05-16T07:31:40Z</time>
      </trkpt>
      <trkpt lat="46.82664" lon="4.6715">
        <ele>382.74</ele>
        <time>2010-05-16T07:31:41Z</time>
      </trkpt>
      <trkpt lat="46.82663" lon="4.67151">
        <ele>382.74</ele>
        <time>2010-05-16T07:31:42Z</time>
      </trkpt>
      <trkpt lat="46.82662" lon="4.67151">
        <ele>382.74</ele>
        <time>2010-05-16T07:31:43Z</time>
      </trkpt>
      <trkpt lat="46.82654" lon="4.67155">
        <ele>385.63</ele>
        <time>2010-05-16T07:31:50Z</time>
      </trkpt>
      <trkpt lat="46.82648" lon="4.67159">
        <ele>386.11</ele>
        <time>2010-05-16T07:31:56Z</time>
      </trkpt>
      <trkpt lat="46.82642" lon="4.67161">
        <ele>387.07</ele>
        <time>2010-05-16T07:32:00Z</time>
      </trkpt>
      <trkpt lat="46.82633" lon="4.67167">
        <ele>388.51</ele>
        <time>2010-05-16T07:32:08Z</time>
      </trkpt>
      <trkpt lat="46.82627" lon="4.67173">
        <ele>389.47</ele>
        <time>2010-05-16T07:32:16Z</time>
      </trkpt>
      <trkpt lat="46.82616" lon="4.67178">
        <ele>389.95</ele>
        <time>2010-05-16T07:32:23Z</time>
      </trkpt>
      <trkpt lat="46.8261" lon="4.67183">
        <ele>391.39</ele>
        <time>2010-05-16T07:32:29Z</time>
      </trkpt>
      <trkpt lat="46.82602" lon="4.6719">
        <ele>392.36</ele>
        <time>2010-05-16T07:32:36Z</time>
      </trkpt>
      <trkpt lat="46.8259" lon="4.67195">
        <ele>391.87</ele>
        <time>2010-05-16T07:32:43Z</time>
      </trkpt>
      <trkpt lat="46.82578" lon="4.67199">
        <ele>391.87</ele>
        <time>2010-05-16T07:32:50Z</time>
      </trkpt>
      <trkpt lat="46.8257" lon="4.67191">
        <ele>391.87</ele>
        <time>2010-05-16T07:32:55Z</time>
      </trkpt>
      <trkpt lat="46.82558" lon="4.67179">
        <ele>391.39</ele>
        <time>2010-05-16T07:33:01Z</time>
      </trkpt>
      <trkpt lat="46.82555" lon="4.67177">
        <ele>391.87</ele>
        <time>2010-05-16T07:33:03Z</time>
      </trkpt>
      <trkpt lat="46.82554" lon="4.67176">
        <ele>391.87</ele>
        <time>2010-05-16T07:33:04Z</time>
      </trkpt>
      <trkpt lat="46.8255" lon="4.67177">
        <ele>391.87</ele>
        <time>2010-05-16T07:33:09Z</time>
      </trkpt>
      <trkpt lat="46.82548" lon="4.67174">
        <ele>391.87</ele>
        <time>2010-05-16T07:33:15Z</time>
      </trkpt>
      <trkpt lat="46.82547" lon="4.67172">
        <ele>391.39</ele>
        <time>2010-05-16T07:33:16Z</time>
      </trkpt>
      <trkpt lat="46.82546" lon="4.67171">
        <ele>391.87</ele>
        <time>2010-05-16T07:33:17Z</time>
      </trkpt>
      <trkpt lat="46.82546" lon="4.6717">
        <ele>391.39</ele>
        <time>2010-05-16T07:33:18Z</time>
      </trkpt>
      <trkpt lat="46.82545" lon="4.67168">
        <ele>391.39</ele>
        <time>2010-05-16T07:33:19Z</time>
      </trkpt>
      <trkpt lat="46.8254" lon="4.67164">
        <ele>391.39</ele>
        <time>2010-05-16T07:33:26Z</time>
      </trkpt>
      <trkpt lat="46.82539" lon="4.67163">
        <ele>391.87</ele>
        <time>2010-05-16T07:33:46Z</time>
      </trkpt>
      <trkpt lat="46.82538" lon="4.67161">
        <ele>391.87</ele>
        <time>2010-05-16T07:33:47Z</time>
      </trkpt>
      <trkpt lat="46.82536" lon="4.67159">
        <ele>391.87</ele>
        <time>2010-05-16T07:33:48Z</time>
      </trkpt>
      <trkpt lat="46.82535" lon="4.67157">
        <ele>391.87</ele>
        <time>2010-05-16T07:33:49Z</time>
      </trkpt>
      <trkpt lat="46.82534" lon="4.67155">
        <ele>392.36</ele>
        <time>2010-05-16T07:33:50Z</time>
      </trkpt>
      <trkpt lat="46.82532" lon="4.67153">
        <ele>391.87</ele>
        <time>2010-05-16T07:33:51Z</time>
      </trkpt>
      <trkpt lat="46.8253" lon="4.67151">
        <ele>391.39</ele>
        <time>2010-05-16T07:33:52Z</time>
      </trkpt>
      <trkpt lat="46.82528" lon="4.6715">
        <ele>391.87</ele>
        <time>2010-05-16T07:33:53Z</time>
      </trkpt>
      <trkpt lat="46.82527" lon="4.67149">
        <ele>391.87</ele>
        <time>2010-05-16T07:33:54Z</time>
      </trkpt>
      <trkpt lat="46.82525" lon="4.67147">
        <ele>391.87</ele>
        <time>2010-05-16T07:33:55Z</time>
      </trkpt>
      <trkpt lat="46.82524" lon="4.67146">
        <ele>391.87</ele>
        <time>2010-05-16T07:33:56Z</time>
      </trkpt>
      <trkpt lat="46.82522" lon="4.67144">
        <ele>391.87</ele>
        <time>2010-05-16T07:33:57Z</time>
      </trkpt>
      <trkpt lat="46.8252" lon="4.67143">
        <ele>391.39</ele>
        <time>2010-05-16T07:33:58Z</time>
      </trkpt>
      <trkpt lat="46.82518" lon="4.67142">
        <ele>391.39</ele>
        <time>2010-05-16T07:33:59Z</time>
      </trkpt>
      <trkpt lat="46.82516" lon="4.67142">
        <ele>391.39</ele>
        <time>2010-05-16T07:34:00Z</time>
      </trkpt>
      <trkpt lat="46.82514" lon="4.67141">
        <ele>391.39</ele>
        <time>2010-05-16T07:34:01Z</time>
      </trkpt>
      <trkpt lat="46.82512" lon="4.6714">
        <ele>391.87</ele>
        <time>2010-05-16T07:34:02Z</time>
      </trkpt>
      <trkpt lat="46.8251" lon="4.67138">
        <ele>391.39</ele>
        <time>2010-05-16T07:34:04Z</time>
      </trkpt>
      <trkpt lat="46.82508" lon="4.67135">
        <ele>391.87</ele>
        <time>2010-05-16T07:34:05Z</time>
      </trkpt>
      <trkpt lat="46.82508" lon="4.67132">
        <ele>391.39</ele>
        <time>2010-05-16T07:34:06Z</time>
      </trkpt>
      <trkpt lat="46.82507" lon="4.67129">
        <ele>391.87</ele>
        <time>2010-05-16T07:34:07Z</time>
      </trkpt>
      <trkpt lat="46.82506" lon="4.67127">
        <ele>391.39</ele>
        <time>2010-05-16T07:34:08Z</time>
      </trkpt>
      <trkpt lat="46.82505" lon="4.67125">
        <ele>391.87</ele>
        <time>2010-05-16T07:34:09Z</time>
      </trkpt>
      <trkpt lat="46.82502" lon="4.67122">
        <ele>391.87</ele>
        <time>2010-05-16T07:34:10Z</time>
      </trkpt>
      <trkpt lat="46.825" lon="4.6712">
        <ele>391.87</ele>
        <time>2010-05-16T07:34:11Z</time>
      </trkpt>
      <trkpt lat="46.82497" lon="4.67118">
        <ele>391.87</ele>
        <time>2010-05-16T07:34:12Z</time>
      </trkpt>
      <trkpt lat="46.82494" lon="4.67114">
        <ele>391.39</ele>
        <time>2010-05-16T07:34:13Z</time>
      </trkpt>
      <trkpt lat="46.8248" lon="4.67098">
        <ele>391.87</ele>
        <time>2010-05-16T07:34:19Z</time>
      </trkpt>
      <trkpt lat="46.82475" lon="4.67094">
        <ele>392.84</ele>
        <time>2010-05-16T07:34:22Z</time>
      </trkpt>
      <trkpt lat="46.82473" lon="4.67094">
        <ele>392.84</ele>
        <time>2010-05-16T07:34:23Z</time>
      </trkpt>
      <trkpt lat="46.82466" lon="4.67094">
        <ele>391.87</ele>
        <time>2010-05-16T07:34:26Z</time>
      </trkpt>
      <trkpt lat="46.82464" lon="4.67092">
        <ele>392.84</ele>
        <time>2010-05-16T07:34:27Z</time>
      </trkpt>
      <trkpt lat="46.82463" lon="4.67089">
        <ele>392.36</ele>
        <time>2010-05-16T07:34:28Z</time>
      </trkpt>
      <trkpt lat="46.82462" lon="4.67086">
        <ele>392.36</ele>
        <time>2010-05-16T07:34:29Z</time>
      </trkpt>
      <trkpt lat="46.82461" lon="4.67084">
        <ele>392.36</ele>
        <time>2010-05-16T07:34:30Z</time>
      </trkpt>
      <trkpt lat="46.8246" lon="4.67081">
        <ele>392.84</ele>
        <time>2010-05-16T07:34:31Z</time>
      </trkpt>
      <trkpt lat="46.82457" lon="4.67078">
        <ele>392.36</ele>
        <time>2010-05-16T07:34:32Z</time>
      </trkpt>
      <trkpt lat="46.82454" lon="4.67076">
        <ele>392.36</ele>
        <time>2010-05-16T07:34:33Z</time>
      </trkpt>
      <trkpt lat="46.82452" lon="4.67074">
        <ele>391.87</ele>
        <time>2010-05-16T07:34:34Z</time>
      </trkpt>
      <trkpt lat="46.8245" lon="4.67073">
        <ele>391.87</ele>
        <time>2010-05-16T07:34:35Z</time>
      </trkpt>
      <trkpt lat="46.82447" lon="4.67072">
        <ele>391.87</ele>
        <time>2010-05-16T07:34:36Z</time>
      </trkpt>
      <trkpt lat="46.82431" lon="4.67064">
        <ele>391.87</ele>
        <time>2010-05-16T07:34:43Z</time>
      </trkpt>
      <trkpt lat="46.82416" lon="4.67049">
        <ele>392.36</ele>
        <time>2010-05-16T07:34:49Z</time>
      </trkpt>
      <trkpt lat="46.82399" lon="4.67033">
        <ele>392.36</ele>
        <time>2010-05-16T07:34:56Z</time>
      </trkpt>
      <trkpt lat="46.82387" lon="4.67024">
        <ele>392.84</ele>
        <time>2010-05-16T07:35:01Z</time>
      </trkpt>
      <trkpt lat="46.82372" lon="4.67011">
        <ele>393.8</ele>
        <time>2010-05-16T07:35:08Z</time>
      </trkpt>
      <trkpt lat="46.82359" lon="4.66997">
        <ele>394.28</ele>
        <time>2010-05-16T07:35:15Z</time>
      </trkpt>
      <trkpt lat="46.82356" lon="4.66994">
        <ele>394.76</ele>
        <time>2010-05-16T07:35:17Z</time>
      </trkpt>
      <trkpt lat="46.82355" lon="4.66992">
        <ele>395.24</ele>
        <time>2010-05-16T07:35:18Z</time>
      </trkpt>
      <trkpt lat="46.82348" lon="4.66986">
        <ele>395.24</ele>
        <time>2010-05-16T07:35:23Z</time>
      </trkpt>
      <trkpt lat="46.82334" lon="4.66979">
        <ele>396.2</ele>
        <time>2010-05-16T07:35:31Z</time>
      </trkpt>
      <trkpt lat="46.8233" lon="4.66976">
        <ele>396.68</ele>
        <time>2010-05-16T07:35:34Z</time>
      </trkpt>
      <trkpt lat="46.82329" lon="4.66974">
        <ele>396.68</ele>
        <time>2010-05-16T07:35:35Z</time>
      </trkpt>
      <trkpt lat="46.82328" lon="4.66973">
        <ele>396.68</ele>
        <time>2010-05-16T07:35:36Z</time>
      </trkpt>
      <trkpt lat="46.82326" lon="4.66972">
        <ele>397.16</ele>
        <time>2010-05-16T07:35:37Z</time>
      </trkpt>
      <trkpt lat="46.82324" lon="4.66971">
        <ele>397.16</ele>
        <time>2010-05-16T07:35:38Z</time>
      </trkpt>
      <trkpt lat="46.82323" lon="4.6697">
        <ele>397.16</ele>
        <time>2010-05-16T07:35:39Z</time>
      </trkpt>
      <trkpt lat="46.82321" lon="4.66969">
        <ele>397.16</ele>
        <time>2010-05-16T07:35:40Z</time>
      </trkpt>
      <trkpt lat="46.82318" lon="4.66965">
        <ele>397.64</ele>
        <time>2010-05-16T07:35:43Z</time>
      </trkpt>
      <trkpt lat="46.82317" lon="4.66963">
        <ele>398.12</ele>
        <time>2010-05-16T07:35:44Z</time>
      </trkpt>
      <trkpt lat="46.82315" lon="4.66962">
        <ele>398.12</ele>
        <time>2010-05-16T07:35:45Z</time>
      </trkpt>
      <trkpt lat="46.82314" lon="4.6696">
        <ele>398.12</ele>
        <time>2010-05-16T07:35:46Z</time>
      </trkpt>
      <trkpt lat="46.82309" lon="4.66953">
        <ele>399.08</ele>
        <time>2010-05-16T07:35:51Z</time>
      </trkpt>
      <trkpt lat="46.82308" lon="4.66951">
        <ele>399.57</ele>
        <time>2010-05-16T07:35:52Z</time>
      </trkpt>
      <trkpt lat="46.82306" lon="4.66943">
        <ele>400.53</ele>
        <time>2010-05-16T07:35:57Z</time>
      </trkpt>
      <trkpt lat="46.82304" lon="4.66937">
        <ele>401.97</ele>
        <time>2010-05-16T07:36:02Z</time>
      </trkpt>
      <trkpt lat="46.82304" lon="4.66936">
        <ele>401.97</ele>
        <time>2010-05-16T07:36:03Z</time>
      </trkpt>
      <trkpt lat="46.82304" lon="4.66933">
        <ele>402.45</ele>
        <time>2010-05-16T07:36:10Z</time>
      </trkpt>
      <trkpt lat="46.82304" lon="4.66926">
        <ele>403.41</ele>
        <time>2010-05-16T07:36:17Z</time>
      </trkpt>
      <trkpt lat="46.82305" lon="4.66922">
        <ele>403.41</ele>
        <time>2010-05-16T07:36:20Z</time>
      </trkpt>
      <trkpt lat="46.82305" lon="4.66918">
        <ele>403.41</ele>
        <time>2010-05-16T07:36:23Z</time>
      </trkpt>
      <trkpt lat="46.82303" lon="4.6691">
        <ele>404.37</ele>
        <time>2010-05-16T07:36:29Z</time>
      </trkpt>
      <trkpt lat="46.82303" lon="4.66906">
        <ele>404.85</ele>
        <time>2010-05-16T07:36:36Z</time>
      </trkpt>
      <trkpt lat="46.82303" lon="4.66901">
        <ele>404.85</ele>
        <time>2010-05-16T07:36:43Z</time>
      </trkpt>
      <trkpt lat="46.82302" lon="4.66894">
        <ele>405.33</ele>
        <time>2010-05-16T07:36:50Z</time>
      </trkpt>
      <trkpt lat="46.823" lon="4.6689">
        <ele>405.81</ele>
        <time>2010-05-16T07:36:52Z</time>
      </trkpt>
      <trkpt lat="46.82299" lon="4.66888">
        <ele>405.33</ele>
        <time>2010-05-16T07:36:53Z</time>
      </trkpt>
      <trkpt lat="46.82299" lon="4.66886">
        <ele>405.33</ele>
        <time>2010-05-16T07:36:54Z</time>
      </trkpt>
      <trkpt lat="46.82291" lon="4.66867">
        <ele>407.26</ele>
        <time>2010-05-16T07:37:03Z</time>
      </trkpt>
      <trkpt lat="46.82283" lon="4.66849">
        <ele>407.26</ele>
        <time>2010-05-16T07:37:11Z</time>
      </trkpt>
      <trkpt lat="46.82273" lon="4.66828">
        <ele>407.74</ele>
        <time>2010-05-16T07:37:20Z</time>
      </trkpt>
      <trkpt lat="46.82265" lon="4.66811">
        <ele>408.22</ele>
        <time>2010-05-16T07:37:27Z</time>
      </trkpt>
      <trkpt lat="46.82255" lon="4.66783">
        <ele>408.7</ele>
        <time>2010-05-16T07:37:38Z</time>
      </trkpt>
      <trkpt lat="46.82252" lon="4.66758">
        <ele>409.66</ele>
        <time>2010-05-16T07:37:48Z</time>
      </trkpt>
      <trkpt lat="46.82255" lon="4.66737">
        <ele>410.14</ele>
        <time>2010-05-16T07:37:56Z</time>
      </trkpt>
      <trkpt lat="46.82258" lon="4.66717">
        <ele>411.58</ele>
        <time>2010-05-16T07:38:04Z</time>
      </trkpt>
      <trkpt lat="46.82261" lon="4.667">
        <ele>412.54</ele>
        <time>2010-05-16T07:38:11Z</time>
      </trkpt>
      <trkpt lat="46.82262" lon="4.66679">
        <ele>413.5</ele>
        <time>2010-05-16T07:38:19Z</time>
      </trkpt>
      <trkpt lat="46.82262" lon="4.66661">
        <ele>414.47</ele>
        <time>2010-05-16T07:38:26Z</time>
      </trkpt>
      <trkpt lat="46.82262" lon="4.66659">
        <ele>414.47</ele>
        <time>2010-05-16T07:38:27Z</time>
      </trkpt>
      <trkpt lat="46.82262" lon="4.66656">
        <ele>414.47</ele>
        <time>2010-05-16T07:38:28Z</time>
      </trkpt>
      <trkpt lat="46.82262" lon="4.66654">
        <ele>414.47</ele>
        <time>2010-05-16T07:38:29Z</time>
      </trkpt>
      <trkpt lat="46.82263" lon="4.66651">
        <ele>413.98</ele>
        <time>2010-05-16T07:38:30Z</time>
      </trkpt>
      <trkpt lat="46.82263" lon="4.66649">
        <ele>414.95</ele>
        <time>2010-05-16T07:38:31Z</time>
      </trkpt>
      <trkpt lat="46.82264" lon="4.66646">
        <ele>414.95</ele>
        <time>2010-05-16T07:38:32Z</time>
      </trkpt>
      <trkpt lat="46.82264" lon="4.66643">
        <ele>414.95</ele>
        <time>2010-05-16T07:38:33Z</time>
      </trkpt>
      <trkpt lat="46.82264" lon="4.66641">
        <ele>414.95</ele>
        <time>2010-05-16T07:38:34Z</time>
      </trkpt>
      <trkpt lat="46.82264" lon="4.66638">
        <ele>415.43</ele>
        <time>2010-05-16T07:38:35Z</time>
      </trkpt>
      <trkpt lat="46.82264" lon="4.66635">
        <ele>414.95</ele>
        <time>2010-05-16T07:38:36Z</time>
      </trkpt>
      <trkpt lat="46.82264" lon="4.66632">
        <ele>415.43</ele>
        <time>2010-05-16T07:38:37Z</time>
      </trkpt>
      <trkpt lat="46.82264" lon="4.6663">
        <ele>415.43</ele>
        <time>2010-05-16T07:38:38Z</time>
      </trkpt>
      <trkpt lat="46.82264" lon="4.66627">
        <ele>415.43</ele>
        <time>2010-05-16T07:38:39Z</time>
      </trkpt>
      <trkpt lat="46.82264" lon="4.66604">
        <ele>416.87</ele>
        <time>2010-05-16T07:38:48Z</time>
      </trkpt>
      <trkpt lat="46.82264" lon="4.66583">
        <ele>417.83</ele>
        <time>2010-05-16T07:38:56Z</time>
      </trkpt>
      <trkpt lat="46.8226" lon="4.66565">
        <ele>418.79</ele>
        <time>2010-05-16T07:39:04Z</time>
      </trkpt>
      <trkpt lat="46.82258" lon="4.66565">
        <ele>418.79</ele>
        <time>2010-05-16T07:39:05Z</time>
      </trkpt>
      <trkpt lat="46.82257" lon="4.66564">
        <ele>419.75</ele>
        <time>2010-05-16T07:39:06Z</time>
      </trkpt>
      <trkpt lat="46.82243" lon="4.66564">
        <ele>419.75</ele>
        <time>2010-05-16T07:39:13Z</time>
      </trkpt>
      <trkpt lat="46.82236" lon="4.66564">
        <ele>420.23</ele>
        <time>2010-05-16T07:39:17Z</time>
      </trkpt>
      <trkpt lat="46.82234" lon="4.66563">
        <ele>420.71</ele>
        <time>2010-05-16T07:39:18Z</time>
      </trkpt>
      <trkpt lat="46.82215" lon="4.66568">
        <ele>420.23</ele>
        <time>2010-05-16T07:39:27Z</time>
      </trkpt>
      <trkpt lat="46.82197" lon="4.66564">
        <ele>421.19</ele>
        <time>2010-05-16T07:39:36Z</time>
      </trkpt>
      <trkpt lat="46.82187" lon="4.66567">
        <ele>422.16</ele>
        <time>2010-05-16T07:39:43Z</time>
      </trkpt>
      <trkpt lat="46.82186" lon="4.66567">
        <ele>422.16</ele>
        <time>2010-05-16T07:39:44Z</time>
      </trkpt>
      <trkpt lat="46.82185" lon="4.66567">
        <ele>422.16</ele>
        <time>2010-05-16T07:39:45Z</time>
      </trkpt>
      <trkpt lat="46.82184" lon="4.66567">
        <ele>422.64</ele>
        <time>2010-05-16T07:39:50Z</time>
      </trkpt>
      <trkpt lat="46.82183" lon="4.6657">
        <ele>422.64</ele>
        <time>2010-05-16T07:39:52Z</time>
      </trkpt>
      <trkpt lat="46.82184" lon="4.66571">
        <ele>422.16</ele>
        <time>2010-05-16T07:39:54Z</time>
      </trkpt>
      <trkpt lat="46.82183" lon="4.66571">
        <ele>421.68</ele>
        <time>2010-05-16T07:40:02Z</time>
      </trkpt>
      <trkpt lat="46.82183" lon="4.66571">
        <ele>421.68</ele>
        <time>2010-05-16T07:40:44Z</time>
      </trkpt>
      <trkpt lat="46.82184" lon="4.66571">
        <ele>421.68</ele>
        <time>2010-05-16T07:42:44Z</time>
      </trkpt>
      <trkpt lat="46.82184" lon="4.66571">
        <ele>421.68</ele>
        <time>2010-05-16T07:43:44Z</time>
      </trkpt>
      <trkpt lat="46.82183" lon="4.66572">
        <ele>421.68</ele>
        <time>2010-05-16T07:44:20Z</time>
      </trkpt>
      <trkpt lat="46.82183" lon="4.66572">
        <ele>421.68</ele>
        <time>2010-05-16T07:44:43Z</time>
      </trkpt>
      <trkpt lat="46.82183" lon="4.66572">
        <ele>422.16</ele>
        <time>2010-05-16T07:45:05Z</time>
      </trkpt>
      <trkpt lat="46.82183" lon="4.66572">
        <ele>422.16</ele>
        <time>2010-05-16T07:45:35Z</time>
      </trkpt>
      <trkpt lat="46.82183" lon="4.66572">
        <ele>422.64</ele>
        <time>2010-05-16T07:46:07Z</time>
      </trkpt>
      <trkpt lat="46.82181" lon="4.66571">
        <ele>423.12</ele>
        <time>2010-05-16T07:46:24Z</time>
      </trkpt>
      <trkpt lat="46.82181" lon="4.66571">
        <ele>423.12</ele>
        <time>2010-05-16T07:46:31Z</time>
      </trkpt>
      <trkpt lat="46.82179" lon="4.66572">
        <ele>423.12</ele>
        <time>2010-05-16T07:46:32Z</time>
      </trkpt>
      <trkpt lat="46.82178" lon="4.66573">
        <ele>422.64</ele>
        <time>2010-05-16T07:46:33Z</time>
      </trkpt>
      <trkpt lat="46.82177" lon="4.66575">
        <ele>422.64</ele>
        <time>2010-05-16T07:46:34Z</time>
      </trkpt>
      <trkpt lat="46.82175" lon="4.66579">
        <ele>422.64</ele>
        <time>2010-05-16T07:46:36Z</time>
      </trkpt>
      <trkpt lat="46.82157" lon="4.66604">
        <ele>422.16</ele>
        <time>2010-05-16T07:46:45Z</time>
      </trkpt>
      <trkpt lat="46.82137" lon="4.66632">
        <ele>420.71</ele>
        <time>2010-05-16T07:46:53Z</time>
      </trkpt>
      <trkpt lat="46.82128" lon="4.6665">
        <ele>420.23</ele>
        <time>2010-05-16T07:46:57Z</time>
      </trkpt>
      <trkpt lat="46.8212" lon="4.66672">
        <ele>419.75</ele>
        <time>2010-05-16T07:47:01Z</time>
      </trkpt>
      <trkpt lat="46.82111" lon="4.66687">
        <ele>418.79</ele>
        <time>2010-05-16T07:47:05Z</time>
      </trkpt>
      <trkpt lat="46.82108" lon="4.66691">
        <ele>418.79</ele>
        <time>2010-05-16T07:47:06Z</time>
      </trkpt>
      <trkpt lat="46.82105" lon="4.66695">
        <ele>418.31</ele>
        <time>2010-05-16T07:47:07Z</time>
      </trkpt>
      <trkpt lat="46.82103" lon="4.66699">
        <ele>418.31</ele>
        <time>2010-05-16T07:47:08Z</time>
      </trkpt>
      <trkpt lat="46.82094" lon="4.66712">
        <ele>417.83</ele>
        <time>2010-05-16T07:47:12Z</time>
      </trkpt>
      <trkpt lat="46.82092" lon="4.66715">
        <ele>417.83</ele>
        <time>2010-05-16T07:47:13Z</time>
      </trkpt>
      <trkpt lat="46.82091" lon="4.66717">
        <ele>417.35</ele>
        <time>2010-05-16T07:47:14Z</time>
      </trkpt>
      <trkpt lat="46.82089" lon="4.6672">
        <ele>417.35</ele>
        <time>2010-05-16T07:47:15Z</time>
      </trkpt>
      <trkpt lat="46.82087" lon="4.66724">
        <ele>417.35</ele>
        <time>2010-05-16T07:47:16Z</time>
      </trkpt>
      <trkpt lat="46.82084" lon="4.66728">
        <ele>416.87</ele>
        <time>2010-05-16T07:47:17Z</time>
      </trkpt>
      <trkpt lat="46.82074" lon="4.66747">
        <ele>417.35</ele>
        <time>2010-05-16T07:47:22Z</time>
      </trkpt>
      <trkpt lat="46.82066" lon="4.66762">
        <ele>415.91</ele>
        <time>2010-05-16T07:47:26Z</time>
      </trkpt>
      <trkpt lat="46.82057" lon="4.66782">
        <ele>414.95</ele>
        <time>2010-05-16T07:47:30Z</time>
      </trkpt>
      <trkpt lat="46.82048" lon="4.66799">
        <ele>413.98</ele>
        <time>2010-05-16T07:47:34Z</time>
      </trkpt>
      <trkpt lat="46.82041" lon="4.6681">
        <ele>413.5</ele>
        <time>2010-05-16T07:47:37Z</time>
      </trkpt>
      <trkpt lat="46.8204" lon="4.66815">
        <ele>413.02</ele>
        <time>2010-05-16T07:47:38Z</time>
      </trkpt>
      <trkpt lat="46.82039" lon="4.6682">
        <ele>413.02</ele>
        <time>2010-05-16T07:47:39Z</time>
      </trkpt>
      <trkpt lat="46.82037" lon="4.66826">
        <ele>412.06</ele>
        <time>2010-05-16T07:47:40Z</time>
      </trkpt>
      <trkpt lat="46.82036" lon="4.66832">
        <ele>411.58</ele>
        <time>2010-05-16T07:47:41Z</time>
      </trkpt>
      <trkpt lat="46.82035" lon="4.66836">
        <ele>411.58</ele>
        <time>2010-05-16T07:47:42Z</time>
      </trkpt>
      <trkpt lat="46.82024" lon="4.66861">
        <ele>410.14</ele>
        <time>2010-05-16T07:47:48Z</time>
      </trkpt>
      <trkpt lat="46.82022" lon="4.66869">
        <ele>410.14</ele>
        <time>2010-05-16T07:47:50Z</time>
      </trkpt>
      <trkpt lat="46.82021" lon="4.66872">
        <ele>409.18</ele>
        <time>2010-05-16T07:47:51Z</time>
      </trkpt>
      <trkpt lat="46.8202" lon="4.66875">
        <ele>409.18</ele>
        <time>2010-05-16T07:47:52Z</time>
      </trkpt>
      <trkpt lat="46.82018" lon="4.66877">
        <ele>409.18</ele>
        <time>2010-05-16T07:47:53Z</time>
      </trkpt>
      <trkpt lat="46.82017" lon="4.6688">
        <ele>408.7</ele>
        <time>2010-05-16T07:47:54Z</time>
      </trkpt>
      <trkpt lat="46.82016" lon="4.66883">
        <ele>408.7</ele>
        <time>2010-05-16T07:47:55Z</time>
      </trkpt>
      <trkpt lat="46.82015" lon="4.66886">
        <ele>408.7</ele>
        <time>2010-05-16T07:47:56Z</time>
      </trkpt>
      <trkpt lat="46.82013" lon="4.66888">
        <ele>408.22</ele>
        <time>2010-05-16T07:47:57Z</time>
      </trkpt>
      <trkpt lat="46.82009" lon="4.66895">
        <ele>408.7</ele>
        <time>2010-05-16T07:48:00Z</time>
      </trkpt>
      <trkpt lat="46.82003" lon="4.66911">
        <ele>407.74</ele>
        <time>2010-05-16T07:48:07Z</time>
      </trkpt>
      <trkpt lat="46.82" lon="4.66925">
        <ele>407.26</ele>
        <time>2010-05-16T07:48:13Z</time>
      </trkpt>
      <trkpt lat="46.81995" lon="4.66939">
        <ele>406.77</ele>
        <time>2010-05-16T07:48:19Z</time>
      </trkpt>
      <trkpt lat="46.81991" lon="4.66947">
        <ele>406.29</ele>
        <time>2010-05-16T07:48:23Z</time>
      </trkpt>
      <trkpt lat="46.8199" lon="4.66951">
        <ele>405.81</ele>
        <time>2010-05-16T07:48:25Z</time>
      </trkpt>
      <trkpt lat="46.81989" lon="4.66953">
        <ele>406.29</ele>
        <time>2010-05-16T07:48:26Z</time>
      </trkpt>
      <trkpt lat="46.81988" lon="4.66955">
        <ele>405.81</ele>
        <time>2010-05-16T07:48:27Z</time>
      </trkpt>
      <trkpt lat="46.81986" lon="4.66957">
        <ele>405.81</ele>
        <time>2010-05-16T07:48:28Z</time>
      </trkpt>
      <trkpt lat="46.81985" lon="4.6696">
        <ele>405.81</ele>
        <time>2010-05-16T07:48:29Z</time>
      </trkpt>
      <trkpt lat="46.81984" lon="4.66963">
        <ele>405.33</ele>
        <time>2010-05-16T07:48:30Z</time>
      </trkpt>
      <trkpt lat="46.81983" lon="4.66966">
        <ele>405.33</ele>
        <time>2010-05-16T07:48:31Z</time>
      </trkpt>
      <trkpt lat="46.81982" lon="4.66969">
        <ele>404.85</ele>
        <time>2010-05-16T07:48:32Z</time>
      </trkpt>
      <trkpt lat="46.81982" lon="4.66971">
        <ele>404.85</ele>
        <time>2010-05-16T07:48:33Z</time>
      </trkpt>
      <trkpt lat="46.81981" lon="4.66974">
        <ele>404.85</ele>
        <time>2010-05-16T07:48:39Z</time>
      </trkpt>
      <trkpt lat="46.81979" lon="4.66979">
        <ele>404.37</ele>
        <time>2010-05-16T07:48:45Z</time>
      </trkpt>
      <trkpt lat="46.81976" lon="4.66986">
        <ele>404.85</ele>
        <time>2010-05-16T07:48:49Z</time>
      </trkpt>
      <trkpt lat="46.81975" lon="4.66989">
        <ele>404.37</ele>
        <time>2010-05-16T07:48:50Z</time>
      </trkpt>
      <trkpt lat="46.81974" lon="4.66992">
        <ele>404.37</ele>
        <time>2010-05-16T07:48:51Z</time>
      </trkpt>
      <trkpt lat="46.81972" lon="4.66994">
        <ele>404.37</ele>
        <time>2010-05-16T07:48:52Z</time>
      </trkpt>
      <trkpt lat="46.8197" lon="4.66997">
        <ele>404.37</ele>
        <time>2010-05-16T07:48:53Z</time>
      </trkpt>
      <trkpt lat="46.81969" lon="4.66999">
        <ele>403.89</ele>
        <time>2010-05-16T07:48:54Z</time>
      </trkpt>
      <trkpt lat="46.81968" lon="4.67001">
        <ele>404.37</ele>
        <time>2010-05-16T07:48:55Z</time>
      </trkpt>
      <trkpt lat="46.81966" lon="4.67003">
        <ele>403.89</ele>
        <time>2010-05-16T07:48:56Z</time>
      </trkpt>
      <trkpt lat="46.81965" lon="4.67005">
        <ele>403.89</ele>
        <time>2010-05-16T07:48:57Z</time>
      </trkpt>
      <trkpt lat="46.81962" lon="4.67012">
        <ele>404.37</ele>
        <time>2010-05-16T07:49:02Z</time>
      </trkpt>
      <trkpt lat="46.81961" lon="4.67014">
        <ele>404.37</ele>
        <time>2010-05-16T07:49:03Z</time>
      </trkpt>
      <trkpt lat="46.81959" lon="4.67018">
        <ele>403.89</ele>
        <time>2010-05-16T07:49:04Z</time>
      </trkpt>
      <trkpt lat="46.81958" lon="4.67022">
        <ele>403.89</ele>
        <time>2010-05-16T07:49:05Z</time>
      </trkpt>
      <trkpt lat="46.81956" lon="4.67026">
        <ele>403.89</ele>
        <time>2010-05-16T07:49:06Z</time>
      </trkpt>
      <trkpt lat="46.81955" lon="4.6703">
        <ele>403.41</ele>
        <time>2010-05-16T07:49:07Z</time>
      </trkpt>
      <trkpt lat="46.81954" lon="4.67034">
        <ele>403.41</ele>
        <time>2010-05-16T07:49:08Z</time>
      </trkpt>
      <trkpt lat="46.81952" lon="4.67038">
        <ele>402.93</ele>
        <time>2010-05-16T07:49:09Z</time>
      </trkpt>
      <trkpt lat="46.81951" lon="4.67041">
        <ele>402.93</ele>
        <time>2010-05-16T07:49:10Z</time>
      </trkpt>
      <trkpt lat="46.81941" lon="4.67053">
        <ele>401.97</ele>
        <time>2010-05-16T07:49:16Z</time>
      </trkpt>
      <trkpt lat="46.81934" lon="4.6706">
        <ele>402.45</ele>
        <time>2010-05-16T07:49:21Z</time>
      </trkpt>
      <trkpt lat="46.8192" lon="4.67072">
        <ele>402.45</ele>
        <time>2010-05-16T07:49:27Z</time>
      </trkpt>
      <trkpt lat="46.81904" lon="4.67083">
        <ele>401.97</ele>
        <time>2010-05-16T07:49:32Z</time>
      </trkpt>
      <trkpt lat="46.8189" lon="4.67096">
        <ele>401.01</ele>
        <time>2010-05-16T07:49:37Z</time>
      </trkpt>
      <trkpt lat="46.81873" lon="4.67109">
        <ele>401.01</ele>
        <time>2010-05-16T07:49:44Z</time>
      </trkpt>
      <trkpt lat="46.81868" lon="4.6711">
        <ele>401.49</ele>
        <time>2010-05-16T07:49:51Z</time>
      </trkpt>
      <trkpt lat="46.81855" lon="4.67119">
        <ele>401.01</ele>
        <time>2010-05-16T07:49:57Z</time>
      </trkpt>
      <trkpt lat="46.81849" lon="4.67125">
        <ele>400.05</ele>
        <time>2010-05-16T07:49:59Z</time>
      </trkpt>
      <trkpt lat="46.81846" lon="4.67127">
        <ele>400.05</ele>
        <time>2010-05-16T07:50:00Z</time>
      </trkpt>
      <trkpt lat="46.81836" lon="4.67129">
        <ele>399.57</ele>
        <time>2010-05-16T07:50:03Z</time>
      </trkpt>
      <trkpt lat="46.81831" lon="4.67131">
        <ele>399.57</ele>
        <time>2010-05-16T07:50:04Z</time>
      </trkpt>
      <trkpt lat="46.81812" lon="4.6714">
        <ele>399.08</ele>
        <time>2010-05-16T07:50:08Z</time>
      </trkpt>
      <trkpt lat="46.81789" lon="4.67155">
        <ele>399.08</ele>
        <time>2010-05-16T07:50:14Z</time>
      </trkpt>
      <trkpt lat="46.81768" lon="4.67163">
        <ele>399.08</ele>
        <time>2010-05-16T07:50:20Z</time>
      </trkpt>
      <trkpt lat="46.81763" lon="4.67166">
        <ele>398.6</ele>
        <time>2010-05-16T07:50:22Z</time>
      </trkpt>
      <trkpt lat="46.81724" lon="4.67189">
        <ele>397.16</ele>
        <time>2010-05-16T07:50:30Z</time>
      </trkpt>
      <trkpt lat="46.81703" lon="4.67201">
        <ele>395.72</ele>
        <time>2010-05-16T07:50:35Z</time>
      </trkpt>
      <trkpt lat="46.81694" lon="4.67199">
        <ele>394.76</ele>
        <time>2010-05-16T07:50:40Z</time>
      </trkpt>
      <trkpt lat="46.81686" lon="4.67188">
        <ele>394.76</ele>
        <time>2010-05-16T07:50:45Z</time>
      </trkpt>
      <trkpt lat="46.81672" lon="4.67183">
        <ele>393.32</ele>
        <time>2010-05-16T07:50:50Z</time>
      </trkpt>
      <trkpt lat="46.8166" lon="4.67169">
        <ele>392.36</ele>
        <time>2010-05-16T07:50:55Z</time>
      </trkpt>
      <trkpt lat="46.81645" lon="4.67158">
        <ele>391.39</ele>
        <time>2010-05-16T07:51:01Z</time>
      </trkpt>
      <trkpt lat="46.81633" lon="4.67146">
        <ele>390.91</ele>
        <time>2010-05-16T07:51:05Z</time>
      </trkpt>
      <trkpt lat="46.81621" lon="4.67135">
        <ele>389.47</ele>
        <time>2010-05-16T07:51:09Z</time>
      </trkpt>
      <trkpt lat="46.81617" lon="4.67133">
        <ele>388.99</ele>
        <time>2010-05-16T07:51:10Z</time>
      </trkpt>
      <trkpt lat="46.81613" lon="4.67131">
        <ele>388.51</ele>
        <time>2010-05-16T07:51:11Z</time>
      </trkpt>
      <trkpt lat="46.81608" lon="4.67129">
        <ele>388.51</ele>
        <time>2010-05-16T07:51:12Z</time>
      </trkpt>
      <trkpt lat="46.81604" lon="4.67127">
        <ele>388.03</ele>
        <time>2010-05-16T07:51:13Z</time>
      </trkpt>
      <trkpt lat="46.816" lon="4.67125">
        <ele>387.55</ele>
        <time>2010-05-16T07:51:14Z</time>
      </trkpt>
      <trkpt lat="46.81586" lon="4.6712">
        <ele>386.11</ele>
        <time>2010-05-16T07:51:17Z</time>
      </trkpt>
      <trkpt lat="46.81565" lon="4.67108">
        <ele>382.74</ele>
        <time>2010-05-16T07:51:21Z</time>
      </trkpt>
      <trkpt lat="46.81561" lon="4.67104">
        <ele>382.74</ele>
        <time>2010-05-16T07:51:22Z</time>
      </trkpt>
      <trkpt lat="46.81545" lon="4.67089">
        <ele>380.34</ele>
        <time>2010-05-16T07:51:27Z</time>
      </trkpt>
      <trkpt lat="46.81532" lon="4.67083">
        <ele>379.38</ele>
        <time>2010-05-16T07:51:30Z</time>
      </trkpt>
      <trkpt lat="46.81527" lon="4.67081">
        <ele>377.94</ele>
        <time>2010-05-16T07:51:31Z</time>
      </trkpt>
      <trkpt lat="46.81521" lon="4.67079">
        <ele>377.94</ele>
        <time>2010-05-16T07:51:32Z</time>
      </trkpt>
      <trkpt lat="46.81496" lon="4.67067">
        <ele>375.05</ele>
        <time>2010-05-16T07:51:37Z</time>
      </trkpt>
      <trkpt lat="46.81482" lon="4.67056">
        <ele>372.65</ele>
        <time>2010-05-16T07:51:40Z</time>
      </trkpt>
      <trkpt lat="46.81466" lon="4.67048">
        <ele>369.76</ele>
        <time>2010-05-16T07:51:43Z</time>
      </trkpt>
      <trkpt lat="46.81461" lon="4.67045">
        <ele>368.32</ele>
        <time>2010-05-16T07:51:44Z</time>
      </trkpt>
      <trkpt lat="46.81454" lon="4.67041">
        <ele>366.4</ele>
        <time>2010-05-16T07:51:46Z</time>
      </trkpt>
      <trkpt lat="46.81451" lon="4.6704">
        <ele>365.92</ele>
        <time>2010-05-16T07:51:47Z</time>
      </trkpt>
      <trkpt lat="46.81447" lon="4.6704">
        <ele>365.44</ele>
        <time>2010-05-16T07:51:48Z</time>
      </trkpt>
      <trkpt lat="46.81442" lon="4.67039">
        <ele>364.48</ele>
        <time>2010-05-16T07:51:49Z</time>
      </trkpt>
      <trkpt lat="46.81437" lon="4.67038">
        <ele>364</ele>
        <time>2010-05-16T07:51:50Z</time>
      </trkpt>
      <trkpt lat="46.81432" lon="4.67036">
        <ele>363.52</ele>
        <time>2010-05-16T07:51:51Z</time>
      </trkpt>
      <trkpt lat="46.81422" lon="4.67031">
        <ele>360.15</ele>
        <time>2010-05-16T07:51:54Z</time>
      </trkpt>
      <trkpt lat="46.81402" lon="4.67032">
        <ele>356.79</ele>
        <time>2010-05-16T07:51:59Z</time>
      </trkpt>
      <trkpt lat="46.814" lon="4.67033">
        <ele>355.83</ele>
        <time>2010-05-16T07:52:01Z</time>
      </trkpt>
      <trkpt lat="46.81393" lon="4.67038">
        <ele>354.86</ele>
        <time>2010-05-16T07:52:08Z</time>
      </trkpt>
      <trkpt lat="46.81376" lon="4.67045">
        <ele>355.34</ele>
        <time>2010-05-16T07:52:17Z</time>
      </trkpt>
      <trkpt lat="46.81373" lon="4.67048">
        <ele>355.34</ele>
        <time>2010-05-16T07:52:31Z</time>
      </trkpt>
      <trkpt lat="46.8137" lon="4.67049">
        <ele>354.86</ele>
        <time>2010-05-16T07:52:40Z</time>
      </trkpt>
      <trkpt lat="46.81368" lon="4.6705">
        <ele>354.86</ele>
        <time>2010-05-16T07:52:41Z</time>
      </trkpt>
      <trkpt lat="46.81364" lon="4.6705">
        <ele>354.86</ele>
        <time>2010-05-16T07:52:43Z</time>
      </trkpt>
      <trkpt lat="46.81362" lon="4.6705">
        <ele>354.86</ele>
        <time>2010-05-16T07:52:44Z</time>
      </trkpt>
      <trkpt lat="46.8135" lon="4.67055">
        <ele>354.86</ele>
        <time>2010-05-16T07:52:49Z</time>
      </trkpt>
      <trkpt lat="46.81328" lon="4.67061">
        <ele>353.9</ele>
        <time>2010-05-16T07:52:54Z</time>
      </trkpt>
      <trkpt lat="46.81297" lon="4.67063">
        <ele>350.54</ele>
        <time>2010-05-16T07:52:59Z</time>
      </trkpt>
      <trkpt lat="46.8129" lon="4.67064">
        <ele>350.06</ele>
        <time>2010-05-16T07:53:00Z</time>
      </trkpt>
      <trkpt lat="46.81284" lon="4.67066">
        <ele>349.1</ele>
        <time>2010-05-16T07:53:01Z</time>
      </trkpt>
      <trkpt lat="46.81279" lon="4.67068">
        <ele>349.1</ele>
        <time>2010-05-16T07:53:02Z</time>
      </trkpt>
      <trkpt lat="46.81275" lon="4.67072">
        <ele>348.62</ele>
        <time>2010-05-16T07:53:03Z</time>
      </trkpt>
      <trkpt lat="46.81271" lon="4.67077">
        <ele>347.65</ele>
        <time>2010-05-16T07:53:04Z</time>
      </trkpt>
      <trkpt lat="46.81266" lon="4.67082">
        <ele>347.65</ele>
        <time>2010-05-16T07:53:05Z</time>
      </trkpt>
      <trkpt lat="46.8125" lon="4.67105">
        <ele>348.13</ele>
        <time>2010-05-16T07:53:09Z</time>
      </trkpt>
      <trkpt lat="46.81247" lon="4.6711">
        <ele>348.13</ele>
        <time>2010-05-16T07:53:10Z</time>
      </trkpt>
      <trkpt lat="46.81239" lon="4.67124">
        <ele>349.1</ele>
        <time>2010-05-16T07:53:15Z</time>
      </trkpt>
      <trkpt lat="46.81233" lon="4.67131">
        <ele>349.1</ele>
        <time>2010-05-16T07:53:22Z</time>
      </trkpt>
      <trkpt lat="46.8123" lon="4.67133">
        <ele>349.1</ele>
        <time>2010-05-16T07:53:24Z</time>
      </trkpt>
      <trkpt lat="46.81227" lon="4.67138">
        <ele>349.1</ele>
        <time>2010-05-16T07:53:26Z</time>
      </trkpt>
      <trkpt lat="46.81226" lon="4.67141">
        <ele>349.1</ele>
        <time>2010-05-16T07:53:27Z</time>
      </trkpt>
      <trkpt lat="46.81225" lon="4.67145">
        <ele>349.1</ele>
        <time>2010-05-16T07:53:28Z</time>
      </trkpt>
      <trkpt lat="46.81223" lon="4.67148">
        <ele>349.1</ele>
        <time>2010-05-16T07:53:29Z</time>
      </trkpt>
      <trkpt lat="46.81221" lon="4.67151">
        <ele>349.1</ele>
        <time>2010-05-16T07:53:30Z</time>
      </trkpt>
      <trkpt lat="46.81219" lon="4.67155">
        <ele>349.1</ele>
        <time>2010-05-16T07:53:31Z</time>
      </trkpt>
      <trkpt lat="46.81203" lon="4.67181">
        <ele>350.06</ele>
        <time>2010-05-16T07:53:37Z</time>
      </trkpt>
      <trkpt lat="46.81193" lon="4.67206">
        <ele>349.1</ele>
        <time>2010-05-16T07:53:43Z</time>
      </trkpt>
      <trkpt lat="46.81184" lon="4.67228">
        <ele>349.58</ele>
        <time>2010-05-16T07:53:49Z</time>
      </trkpt>
      <trkpt lat="46.81174" lon="4.67252">
        <ele>349.58</ele>
        <time>2010-05-16T07:53:55Z</time>
      </trkpt>
      <trkpt lat="46.81164" lon="4.67286">
        <ele>350.06</ele>
        <time>2010-05-16T07:54:02Z</time>
      </trkpt>
      <trkpt lat="46.81156" lon="4.67312">
        <ele>350.54</ele>
        <time>2010-05-16T07:54:09Z</time>
      </trkpt>
      <trkpt lat="46.81154" lon="4.67327">
        <ele>351.5</ele>
        <time>2010-05-16T07:54:14Z</time>
      </trkpt>
      <trkpt lat="46.8115" lon="4.67339">
        <ele>352.46</ele>
        <time>2010-05-16T07:54:19Z</time>
      </trkpt>
      <trkpt lat="46.81148" lon="4.67341">
        <ele>352.46</ele>
        <time>2010-05-16T07:54:21Z</time>
      </trkpt>
      <trkpt lat="46.81147" lon="4.67342">
        <ele>352.46</ele>
        <time>2010-05-16T07:54:22Z</time>
      </trkpt>
      <trkpt lat="46.81146" lon="4.67343">
        <ele>352.46</ele>
        <time>2010-05-16T07:54:23Z</time>
      </trkpt>
      <trkpt lat="46.81141" lon="4.67352">
        <ele>351.98</ele>
        <time>2010-05-16T07:54:28Z</time>
      </trkpt>
      <trkpt lat="46.8114" lon="4.67355">
        <ele>351.98</ele>
        <time>2010-05-16T07:54:31Z</time>
      </trkpt>
      <trkpt lat="46.81137" lon="4.67362">
        <ele>351.5</ele>
        <time>2010-05-16T07:54:35Z</time>
      </trkpt>
      <trkpt lat="46.81129" lon="4.67373">
        <ele>351.02</ele>
        <time>2010-05-16T07:54:40Z</time>
      </trkpt>
      <trkpt lat="46.81126" lon="4.67378">
        <ele>351.5</ele>
        <time>2010-05-16T07:54:41Z</time>
      </trkpt>
      <trkpt lat="46.81124" lon="4.67383">
        <ele>351.02</ele>
        <time>2010-05-16T07:54:42Z</time>
      </trkpt>
      <trkpt lat="46.8112" lon="4.67388">
        <ele>351.02</ele>
        <time>2010-05-16T07:54:43Z</time>
      </trkpt>
      <trkpt lat="46.81119" lon="4.6739">
        <ele>351.02</ele>
        <time>2010-05-16T07:54:44Z</time>
      </trkpt>
      <trkpt lat="46.81113" lon="4.67402">
        <ele>350.54</ele>
        <time>2010-05-16T07:54:50Z</time>
      </trkpt>
      <trkpt lat="46.8111" lon="4.67408">
        <ele>350.54</ele>
        <time>2010-05-16T07:54:52Z</time>
      </trkpt>
      <trkpt lat="46.81109" lon="4.67411">
        <ele>350.06</ele>
        <time>2010-05-16T07:54:53Z</time>
      </trkpt>
      <trkpt lat="46.81108" lon="4.67414">
        <ele>349.58</ele>
        <time>2010-05-16T07:54:54Z</time>
      </trkpt>
      <trkpt lat="46.81095" lon="4.67436">
        <ele>349.1</ele>
        <time>2010-05-16T07:55:00Z</time>
      </trkpt>
      <trkpt lat="46.81084" lon="4.67456">
        <ele>346.21</ele>
        <time>2010-05-16T07:55:05Z</time>
      </trkpt>
      <trkpt lat="46.8108" lon="4.6746">
        <ele>345.73</ele>
        <time>2010-05-16T07:55:06Z</time>
      </trkpt>
      <trkpt lat="46.81047" lon="4.67487">
        <ele>343.33</ele>
        <time>2010-05-16T07:55:09Z</time>
      </trkpt>
      <trkpt lat="46.81039" lon="4.67494">
        <ele>341.89</ele>
        <time>2010-05-16T07:55:10Z</time>
      </trkpt>
      <trkpt lat="46.81033" lon="4.67501">
        <ele>340.92</ele>
        <time>2010-05-16T07:55:11Z</time>
      </trkpt>
      <trkpt lat="46.81027" lon="4.67509">
        <ele>341.41</ele>
        <time>2010-05-16T07:55:12Z</time>
      </trkpt>
      <trkpt lat="46.81022" lon="4.67518">
        <ele>340.44</ele>
        <time>2010-05-16T07:55:13Z</time>
      </trkpt>
      <trkpt lat="46.81019" lon="4.67526">
        <ele>340.92</ele>
        <time>2010-05-16T07:55:14Z</time>
      </trkpt>
      <trkpt lat="46.80996" lon="4.67588">
        <ele>339.96</ele>
        <time>2010-05-16T07:55:21Z</time>
      </trkpt>
      <trkpt lat="46.80977" lon="4.67645">
        <ele>339</ele>
        <time>2010-05-16T07:55:28Z</time>
      </trkpt>
      <trkpt lat="46.80974" lon="4.67653">
        <ele>338.52</ele>
        <time>2010-05-16T07:55:29Z</time>
      </trkpt>
      <trkpt lat="46.80962" lon="4.67676">
        <ele>337.08</ele>
        <time>2010-05-16T07:55:32Z</time>
      </trkpt>
      <trkpt lat="46.80954" lon="4.6769">
        <ele>336.6</ele>
        <time>2010-05-16T07:55:34Z</time>
      </trkpt>
      <trkpt lat="46.80949" lon="4.67697">
        <ele>335.64</ele>
        <time>2010-05-16T07:55:35Z</time>
      </trkpt>
      <trkpt lat="46.80945" lon="4.67707">
        <ele>335.16</ele>
        <time>2010-05-16T07:55:36Z</time>
      </trkpt>
      <trkpt lat="46.80939" lon="4.67727">
        <ele>333.23</ele>
        <time>2010-05-16T07:55:38Z</time>
      </trkpt>
      <trkpt lat="46.80936" lon="4.67737">
        <ele>332.75</ele>
        <time>2010-05-16T07:55:39Z</time>
      </trkpt>
      <trkpt lat="46.80935" lon="4.67747">
        <ele>331.79</ele>
        <time>2010-05-16T07:55:40Z</time>
      </trkpt>
      <trkpt lat="46.80935" lon="4.67757">
        <ele>330.83</ele>
        <time>2010-05-16T07:55:41Z</time>
      </trkpt>
      <trkpt lat="46.80936" lon="4.67768">
        <ele>330.35</ele>
        <time>2010-05-16T07:55:42Z</time>
      </trkpt>
      <trkpt lat="46.80943" lon="4.67819">
        <ele>326.02</ele>
        <time>2010-05-16T07:55:46Z</time>
      </trkpt>
      <trkpt lat="46.80947" lon="4.67831">
        <ele>325.54</ele>
        <time>2010-05-16T07:55:47Z</time>
      </trkpt>
      <trkpt lat="46.80953" lon="4.67843">
        <ele>325.06</ele>
        <time>2010-05-16T07:55:48Z</time>
      </trkpt>
      <trkpt lat="46.8096" lon="4.67855">
        <ele>323.62</ele>
        <time>2010-05-16T07:55:49Z</time>
      </trkpt>
      <trkpt lat="46.80967" lon="4.67866">
        <ele>322.66</ele>
        <time>2010-05-16T07:55:50Z</time>
      </trkpt>
      <trkpt lat="46.80982" lon="4.67889">
        <ele>321.7</ele>
        <time>2010-05-16T07:55:52Z</time>
      </trkpt>
      <trkpt lat="46.8099" lon="4.679">
        <ele>321.22</ele>
        <time>2010-05-16T07:55:53Z</time>
      </trkpt>
      <trkpt lat="46.80996" lon="4.67911">
        <ele>320.26</ele>
        <time>2010-05-16T07:55:54Z</time>
      </trkpt>
      <trkpt lat="46.81002" lon="4.67922">
        <ele>318.81</ele>
        <time>2010-05-16T07:55:55Z</time>
      </trkpt>
      <trkpt lat="46.81006" lon="4.67933">
        <ele>318.81</ele>
        <time>2010-05-16T07:55:56Z</time>
      </trkpt>
      <trkpt lat="46.81025" lon="4.67974">
        <ele>317.85</ele>
        <time>2010-05-16T07:56:00Z</time>
      </trkpt>
      <trkpt lat="46.81029" lon="4.67983">
        <ele>317.85</ele>
        <time>2010-05-16T07:56:01Z</time>
      </trkpt>
      <trkpt lat="46.81042" lon="4.68033">
        <ele>314.97</ele>
        <time>2010-05-16T07:56:06Z</time>
      </trkpt>
      <trkpt lat="46.81044" lon="4.68043">
        <ele>314.49</ele>
        <time>2010-05-16T07:56:07Z</time>
      </trkpt>
      <trkpt lat="46.81045" lon="4.68054">
        <ele>314.01</ele>
        <time>2010-05-16T07:56:08Z</time>
      </trkpt>
      <trkpt lat="46.81046" lon="4.68075">
        <ele>312.57</ele>
        <time>2010-05-16T07:56:10Z</time>
      </trkpt>
      <trkpt lat="46.81045" lon="4.68103">
        <ele>309.2</ele>
        <time>2010-05-16T07:56:13Z</time>
      </trkpt>
      <trkpt lat="46.81043" lon="4.68113">
        <ele>308.24</ele>
        <time>2010-05-16T07:56:14Z</time>
      </trkpt>
      <trkpt lat="46.81032" lon="4.6816">
        <ele>303.43</ele>
        <time>2010-05-16T07:56:18Z</time>
      </trkpt>
      <trkpt lat="46.81027" lon="4.68182">
        <ele>300.55</ele>
        <time>2010-05-16T07:56:20Z</time>
      </trkpt>
      <trkpt lat="46.81024" lon="4.68193">
        <ele>299.11</ele>
        <time>2010-05-16T07:56:21Z</time>
      </trkpt>
      <trkpt lat="46.8102" lon="4.68202">
        <ele>297.18</ele>
        <time>2010-05-16T07:56:22Z</time>
      </trkpt>
      <trkpt lat="46.8101" lon="4.68224">
        <ele>293.34</ele>
        <time>2010-05-16T07:56:25Z</time>
      </trkpt>
      <trkpt lat="46.81006" lon="4.68228">
        <ele>292.38</ele>
        <time>2010-05-16T07:56:26Z</time>
      </trkpt>
      <trkpt lat="46.81001" lon="4.6823">
        <ele>292.38</ele>
        <time>2010-05-16T07:56:27Z</time>
      </trkpt>
      <trkpt lat="46.80995" lon="4.68231">
        <ele>291.42</ele>
        <time>2010-05-16T07:56:28Z</time>
      </trkpt>
      <trkpt lat="46.8099" lon="4.6823">
        <ele>291.42</ele>
        <time>2010-05-16T07:56:29Z</time>
      </trkpt>
      <trkpt lat="46.80984" lon="4.68228">
        <ele>291.42</ele>
        <time>2010-05-16T07:56:30Z</time>
      </trkpt>
      <trkpt lat="46.80977" lon="4.68225">
        <ele>291.42</ele>
        <time>2010-05-16T07:56:31Z</time>
      </trkpt>
      <trkpt lat="46.80936" lon="4.682">
        <ele>288.53</ele>
        <time>2010-05-16T07:56:37Z</time>
      </trkpt>
      <trkpt lat="46.80914" lon="4.68183">
        <ele>287.57</ele>
        <time>2010-05-16T07:56:40Z</time>
      </trkpt>
      <trkpt lat="46.80893" lon="4.68166">
        <ele>286.61</ele>
        <time>2010-05-16T07:56:43Z</time>
      </trkpt>
      <trkpt lat="46.80848" lon="4.68125">
        <ele>284.69</ele>
        <time>2010-05-16T07:56:50Z</time>
      </trkpt>
      <trkpt lat="46.8081" lon="4.68082">
        <ele>282.77</ele>
        <time>2010-05-16T07:56:57Z</time>
      </trkpt>
      <trkpt lat="46.80794" lon="4.68055">
        <ele>282.28</ele>
        <time>2010-05-16T07:57:01Z</time>
      </trkpt>
      <trkpt lat="46.8079" lon="4.6805">
        <ele>281.8</ele>
        <time>2010-05-16T07:57:02Z</time>
      </trkpt>
      <trkpt lat="46.80773" lon="4.68033">
        <ele>281.32</ele>
        <time>2010-05-16T07:57:06Z</time>
      </trkpt>
      <trkpt lat="46.80758" lon="4.68023">
        <ele>280.84</ele>
        <time>2010-05-16T07:57:09Z</time>
      </trkpt>
      <trkpt lat="46.80754" lon="4.68021">
        <ele>280.36</ele>
        <time>2010-05-16T07:57:10Z</time>
      </trkpt>
      <trkpt lat="46.80746" lon="4.68018">
        <ele>279.88</ele>
        <time>2010-05-16T07:57:12Z</time>
      </trkpt>
      <trkpt lat="46.80742" lon="4.68015">
        <ele>280.36</ele>
        <time>2010-05-16T07:57:13Z</time>
      </trkpt>
      <trkpt lat="46.80739" lon="4.68012">
        <ele>280.36</ele>
        <time>2010-05-16T07:57:14Z</time>
      </trkpt>
      <trkpt lat="46.80738" lon="4.68009">
        <ele>280.36</ele>
        <time>2010-05-16T07:57:15Z</time>
      </trkpt>
      <trkpt lat="46.80737" lon="4.68007">
        <ele>280.36</ele>
        <time>2010-05-16T07:57:16Z</time>
      </trkpt>
      <trkpt lat="46.80735" lon="4.68006">
        <ele>279.88</ele>
        <time>2010-05-16T07:57:17Z</time>
      </trkpt>
      <trkpt lat="46.80734" lon="4.68005">
        <ele>280.36</ele>
        <time>2010-05-16T07:57:18Z</time>
      </trkpt>
      <trkpt lat="46.80733" lon="4.68004">
        <ele>279.88</ele>
        <time>2010-05-16T07:57:19Z</time>
      </trkpt>
      <trkpt lat="46.80732" lon="4.68003">
        <ele>280.36</ele>
        <time>2010-05-16T07:57:20Z</time>
      </trkpt>
      <trkpt lat="46.80731" lon="4.68001">
        <ele>280.36</ele>
        <time>2010-05-16T07:57:21Z</time>
      </trkpt>
      <trkpt lat="46.8073" lon="4.67998">
        <ele>280.36</ele>
        <time>2010-05-16T07:57:22Z</time>
      </trkpt>
      <trkpt lat="46.80728" lon="4.67996">
        <ele>280.36</ele>
        <time>2010-05-16T07:57:23Z</time>
      </trkpt>
      <trkpt lat="46.80727" lon="4.67994">
        <ele>280.36</ele>
        <time>2010-05-16T07:57:24Z</time>
      </trkpt>
      <trkpt lat="46.80725" lon="4.67993">
        <ele>280.36</ele>
        <time>2010-05-16T07:57:25Z</time>
      </trkpt>
      <trkpt lat="46.80724" lon="4.67992">
        <ele>280.36</ele>
        <time>2010-05-16T07:57:26Z</time>
      </trkpt>
      <trkpt lat="46.80723" lon="4.67991">
        <ele>280.36</ele>
        <time>2010-05-16T07:57:27Z</time>
      </trkpt>
      <trkpt lat="46.80722" lon="4.6799">
        <ele>280.36</ele>
        <time>2010-05-16T07:57:28Z</time>
      </trkpt>
      <trkpt lat="46.80721" lon="4.67989">
        <ele>279.88</ele>
        <time>2010-05-16T07:57:29Z</time>
      </trkpt>
      <trkpt lat="46.8072" lon="4.67988">
        <ele>279.88</ele>
        <time>2010-05-16T07:57:30Z</time>
      </trkpt>
      <trkpt lat="46.80719" lon="4.67983">
        <ele>279.88</ele>
        <time>2010-05-16T07:57:34Z</time>
      </trkpt>
      <trkpt lat="46.80718" lon="4.67981">
        <ele>279.4</ele>
        <time>2010-05-16T07:57:35Z</time>
      </trkpt>
      <trkpt lat="46.80717" lon="4.67978">
        <ele>279.4</ele>
        <time>2010-05-16T07:57:36Z</time>
      </trkpt>
      <trkpt lat="46.80717" lon="4.67975">
        <ele>279.4</ele>
        <time>2010-05-16T07:57:37Z</time>
      </trkpt>
      <trkpt lat="46.80715" lon="4.67971">
        <ele>279.88</ele>
        <time>2010-05-16T07:57:38Z</time>
      </trkpt>
      <trkpt lat="46.80714" lon="4.67967">
        <ele>279.88</ele>
        <time>2010-05-16T07:57:39Z</time>
      </trkpt>
      <trkpt lat="46.80712" lon="4.67962">
        <ele>280.36</ele>
        <time>2010-05-16T07:57:40Z</time>
      </trkpt>
      <trkpt lat="46.80709" lon="4.67958">
        <ele>279.88</ele>
        <time>2010-05-16T07:57:41Z</time>
      </trkpt>
      <trkpt lat="46.80706" lon="4.67954">
        <ele>279.88</ele>
        <time>2010-05-16T07:57:42Z</time>
      </trkpt>
      <trkpt lat="46.80702" lon="4.67949">
        <ele>279.4</ele>
        <time>2010-05-16T07:57:43Z</time>
      </trkpt>
      <trkpt lat="46.80694" lon="4.6794">
        <ele>278.92</ele>
        <time>2010-05-16T07:57:45Z</time>
      </trkpt>
      <trkpt lat="46.80688" lon="4.67936">
        <ele>278.92</ele>
        <time>2010-05-16T07:57:46Z</time>
      </trkpt>
      <trkpt lat="46.8067" lon="4.67923">
        <ele>277.48</ele>
        <time>2010-05-16T07:57:49Z</time>
      </trkpt>
      <trkpt lat="46.80627" lon="4.67894">
        <ele>275.07</ele>
        <time>2010-05-16T07:57:55Z</time>
      </trkpt>
      <trkpt lat="46.80588" lon="4.67868">
        <ele>273.15</ele>
        <time>2010-05-16T07:58:00Z</time>
      </trkpt>
      <trkpt lat="46.8058" lon="4.67864">
        <ele>273.15</ele>
        <time>2010-05-16T07:58:01Z</time>
      </trkpt>
      <trkpt lat="46.80525" lon="4.6784">
        <ele>271.71</ele>
        <time>2010-05-16T07:58:08Z</time>
      </trkpt>
      <trkpt lat="46.80486" lon="4.67818">
        <ele>273.63</ele>
        <time>2010-05-16T07:58:14Z</time>
      </trkpt>
      <trkpt lat="46.80476" lon="4.67812">
        <ele>274.11</ele>
        <time>2010-05-16T07:58:16Z</time>
      </trkpt>
      <trkpt lat="46.80472" lon="4.67809">
        <ele>274.59</ele>
        <time>2010-05-16T07:58:17Z</time>
      </trkpt>
      <trkpt lat="46.80439" lon="4.67793">
        <ele>277</ele>
        <time>2010-05-16T07:58:25Z</time>
      </trkpt>
      <trkpt lat="46.80412" lon="4.67777">
        <ele>278.92</ele>
        <time>2010-05-16T07:58:33Z</time>
      </trkpt>
      <trkpt lat="46.80384" lon="4.6776">
        <ele>280.84</ele>
        <time>2010-05-16T07:58:41Z</time>
      </trkpt>
      <trkpt lat="46.80349" lon="4.67747">
        <ele>281.8</ele>
        <time>2010-05-16T07:58:50Z</time>
      </trkpt>
      <trkpt lat="46.80319" lon="4.67739">
        <ele>282.28</ele>
        <time>2010-05-16T07:58:57Z</time>
      </trkpt>
      <trkpt lat="46.8029" lon="4.67716">
        <ele>282.28</ele>
        <time>2010-05-16T07:59:04Z</time>
      </trkpt>
      <trkpt lat="46.80251" lon="4.67667">
        <ele>281.8</ele>
        <time>2010-05-16T07:59:14Z</time>
      </trkpt>
      <trkpt lat="46.80219" lon="4.67626">
        <ele>282.28</ele>
        <time>2010-05-16T07:59:22Z</time>
      </trkpt>
      <trkpt lat="46.80176" lon="4.67576">
        <ele>281.8</ele>
        <time>2010-05-16T07:59:31Z</time>
      </trkpt>
      <trkpt lat="46.80136" lon="4.67547">
        <ele>280.36</ele>
        <time>2010-05-16T07:59:38Z</time>
      </trkpt>
      <trkpt lat="46.80131" lon="4.67541">
        <ele>280.84</ele>
        <time>2010-05-16T07:59:39Z</time>
      </trkpt>
      <trkpt lat="46.80126" lon="4.67536">
        <ele>280.84</ele>
        <time>2010-05-16T07:59:40Z</time>
      </trkpt>
      <trkpt lat="46.80121" lon="4.67529">
        <ele>280.84</ele>
        <time>2010-05-16T07:59:41Z</time>
      </trkpt>
      <trkpt lat="46.80117" lon="4.67523">
        <ele>281.32</ele>
        <time>2010-05-16T07:59:42Z</time>
      </trkpt>
      <trkpt lat="46.80098" lon="4.67498">
        <ele>280.84</ele>
        <time>2010-05-16T07:59:46Z</time>
      </trkpt>
      <trkpt lat="46.80088" lon="4.67488">
        <ele>280.84</ele>
        <time>2010-05-16T07:59:48Z</time>
      </trkpt>
      <trkpt lat="46.80082" lon="4.67484">
        <ele>280.36</ele>
        <time>2010-05-16T07:59:49Z</time>
      </trkpt>
      <trkpt lat="46.80041" lon="4.67458">
        <ele>279.88</ele>
        <time>2010-05-16T07:59:56Z</time>
      </trkpt>
      <trkpt lat="46.80007" lon="4.67436">
        <ele>279.4</ele>
        <time>2010-05-16T08:00:02Z</time>
      </trkpt>
      <trkpt lat="46.80001" lon="4.67433">
        <ele>279.4</ele>
        <time>2010-05-16T08:00:03Z</time>
      </trkpt>
      <trkpt lat="46.79977" lon="4.67423">
        <ele>278.92</ele>
        <time>2010-05-16T08:00:07Z</time>
      </trkpt>
      <trkpt lat="46.79971" lon="4.6742">
        <ele>278.92</ele>
        <time>2010-05-16T08:00:08Z</time>
      </trkpt>
      <trkpt lat="46.79966" lon="4.67417">
        <ele>278.92</ele>
        <time>2010-05-16T08:00:09Z</time>
      </trkpt>
      <trkpt lat="46.79962" lon="4.67414">
        <ele>278.92</ele>
        <time>2010-05-16T08:00:10Z</time>
      </trkpt>
      <trkpt lat="46.79956" lon="4.67412">
        <ele>278.92</ele>
        <time>2010-05-16T08:00:11Z</time>
      </trkpt>
      <trkpt lat="46.79951" lon="4.6741">
        <ele>278.92</ele>
        <time>2010-05-16T08:00:12Z</time>
      </trkpt>
      <trkpt lat="46.79939" lon="4.67406">
        <ele>279.4</ele>
        <time>2010-05-16T08:00:14Z</time>
      </trkpt>
      <trkpt lat="46.79901" lon="4.67406">
        <ele>278.92</ele>
        <time>2010-05-16T08:00:19Z</time>
      </trkpt>
      <trkpt lat="46.79895" lon="4.67406">
        <ele>278.92</ele>
        <time>2010-05-16T08:00:20Z</time>
      </trkpt>
      <trkpt lat="46.79854" lon="4.67401">
        <ele>279.4</ele>
        <time>2010-05-16T08:00:28Z</time>
      </trkpt>
      <trkpt lat="46.79843" lon="4.67398">
        <ele>279.4</ele>
        <time>2010-05-16T08:00:30Z</time>
      </trkpt>
      <trkpt lat="46.79838" lon="4.67395">
        <ele>279.88</ele>
        <time>2010-05-16T08:00:31Z</time>
      </trkpt>
      <trkpt lat="46.79833" lon="4.6739">
        <ele>279.88</ele>
        <time>2010-05-16T08:00:32Z</time>
      </trkpt>
      <trkpt lat="46.7983" lon="4.67385">
        <ele>280.36</ele>
        <time>2010-05-16T08:00:33Z</time>
      </trkpt>
      <trkpt lat="46.79826" lon="4.67379">
        <ele>280.36</ele>
        <time>2010-05-16T08:00:34Z</time>
      </trkpt>
      <trkpt lat="46.79823" lon="4.67372">
        <ele>279.88</ele>
        <time>2010-05-16T08:00:35Z</time>
      </trkpt>
      <trkpt lat="46.79814" lon="4.67354">
        <ele>280.36</ele>
        <time>2010-05-16T08:00:38Z</time>
      </trkpt>
      <trkpt lat="46.79798" lon="4.67304">
        <ele>280.84</ele>
        <time>2010-05-16T08:00:46Z</time>
      </trkpt>
      <trkpt lat="46.79782" lon="4.67246">
        <ele>282.28</ele>
        <time>2010-05-16T08:00:56Z</time>
      </trkpt>
      <trkpt lat="46.7977" lon="4.67215">
        <ele>283.25</ele>
        <time>2010-05-16T08:01:02Z</time>
      </trkpt>
      <trkpt lat="46.79759" lon="4.6719">
        <ele>282.77</ele>
        <time>2010-05-16T08:01:07Z</time>
      </trkpt>
      <trkpt lat="46.79742" lon="4.67144">
        <ele>282.28</ele>
        <time>2010-05-16T08:01:14Z</time>
      </trkpt>
      <trkpt lat="46.79733" lon="4.67122">
        <ele>281.8</ele>
        <time>2010-05-16T08:01:17Z</time>
      </trkpt>
      <trkpt lat="46.79729" lon="4.67114">
        <ele>281.32</ele>
        <time>2010-05-16T08:01:18Z</time>
      </trkpt>
      <trkpt lat="46.79695" lon="4.67061">
        <ele>280.84</ele>
        <time>2010-05-16T08:01:26Z</time>
      </trkpt>
      <trkpt lat="46.79668" lon="4.67026">
        <ele>280.84</ele>
        <time>2010-05-16T08:01:32Z</time>
      </trkpt>
      <trkpt lat="46.79663" lon="4.67022">
        <ele>281.32</ele>
        <time>2010-05-16T08:01:33Z</time>
      </trkpt>
      <trkpt lat="46.79648" lon="4.67011">
        <ele>281.32</ele>
        <time>2010-05-16T08:01:36Z</time>
      </trkpt>
      <trkpt lat="46.79644" lon="4.67008">
        <ele>281.8</ele>
        <time>2010-05-16T08:01:37Z</time>
      </trkpt>
      <trkpt lat="46.79639" lon="4.67005">
        <ele>282.28</ele>
        <time>2010-05-16T08:01:38Z</time>
      </trkpt>
      <trkpt lat="46.79635" lon="4.67003">
        <ele>282.28</ele>
        <time>2010-05-16T08:01:39Z</time>
      </trkpt>
      <trkpt lat="46.79631" lon="4.67001">
        <ele>281.8</ele>
        <time>2010-05-16T08:01:40Z</time>
      </trkpt>
      <trkpt lat="46.79626" lon="4.66999">
        <ele>282.77</ele>
        <time>2010-05-16T08:01:41Z</time>
      </trkpt>
      <trkpt lat="46.79622" lon="4.66998">
        <ele>282.77</ele>
        <time>2010-05-16T08:01:42Z</time>
      </trkpt>
      <trkpt lat="46.79617" lon="4.66997">
        <ele>282.77</ele>
        <time>2010-05-16T08:01:43Z</time>
      </trkpt>
      <trkpt lat="46.79613" lon="4.66997">
        <ele>283.25</ele>
        <time>2010-05-16T08:01:44Z</time>
      </trkpt>
      <trkpt lat="46.79609" lon="4.66999">
        <ele>283.73</ele>
        <time>2010-05-16T08:01:45Z</time>
      </trkpt>
      <trkpt lat="46.79605" lon="4.67001">
        <ele>283.73</ele>
        <time>2010-05-16T08:01:46Z</time>
      </trkpt>
      <trkpt lat="46.79601" lon="4.67003">
        <ele>283.73</ele>
        <time>2010-05-16T08:01:47Z</time>
      </trkpt>
      <trkpt lat="46.79597" lon="4.67007">
        <ele>283.73</ele>
        <time>2010-05-16T08:01:48Z</time>
      </trkpt>
      <trkpt lat="46.79593" lon="4.67012">
        <ele>283.25</ele>
        <time>2010-05-16T08:01:49Z</time>
      </trkpt>
      <trkpt lat="46.79589" lon="4.67016">
        <ele>283.25</ele>
        <time>2010-05-16T08:01:50Z</time>
      </trkpt>
      <trkpt lat="46.79583" lon="4.6702">
        <ele>282.77</ele>
        <time>2010-05-16T08:01:51Z</time>
      </trkpt>
      <trkpt lat="46.79578" lon="4.67023">
        <ele>282.77</ele>
        <time>2010-05-16T08:01:52Z</time>
      </trkpt>
      <trkpt lat="46.79572" lon="4.67026">
        <ele>282.28</ele>
        <time>2010-05-16T08:01:53Z</time>
      </trkpt>
      <trkpt lat="46.79565" lon="4.67027">
        <ele>281.8</ele>
        <time>2010-05-16T08:01:54Z</time>
      </trkpt>
      <trkpt lat="46.79558" lon="4.67027">
        <ele>281.32</ele>
        <time>2010-05-16T08:01:55Z</time>
      </trkpt>
      <trkpt lat="46.79551" lon="4.67025">
        <ele>280.84</ele>
        <time>2010-05-16T08:01:56Z</time>
      </trkpt>
      <trkpt lat="46.79544" lon="4.67023">
        <ele>280.84</ele>
        <time>2010-05-16T08:01:57Z</time>
      </trkpt>
      <trkpt lat="46.79522" lon="4.67016">
        <ele>278.44</ele>
        <time>2010-05-16T08:02:01Z</time>
      </trkpt>
      <trkpt lat="46.79518" lon="4.67014">
        <ele>278.44</ele>
        <time>2010-05-16T08:02:02Z</time>
      </trkpt>
      <trkpt lat="46.79508" lon="4.67014">
        <ele>277.96</ele>
        <time>2010-05-16T08:02:05Z</time>
      </trkpt>
      <trkpt lat="46.79503" lon="4.67012">
        <ele>277.48</ele>
        <time>2010-05-16T08:02:06Z</time>
      </trkpt>
      <trkpt lat="46.79497" lon="4.67008">
        <ele>277</ele>
        <time>2010-05-16T08:02:07Z</time>
      </trkpt>
      <trkpt lat="46.79491" lon="4.67003">
        <ele>276.52</ele>
        <time>2010-05-16T08:02:08Z</time>
      </trkpt>
      <trkpt lat="46.79486" lon="4.66998">
        <ele>276.04</ele>
        <time>2010-05-16T08:02:09Z</time>
      </trkpt>
      <trkpt lat="46.79479" lon="4.66995">
        <ele>275.07</ele>
        <time>2010-05-16T08:02:10Z</time>
      </trkpt>
      <trkpt lat="46.79471" lon="4.66993">
        <ele>274.59</ele>
        <time>2010-05-16T08:02:11Z</time>
      </trkpt>
      <trkpt lat="46.79462" lon="4.66991">
        <ele>273.63</ele>
        <time>2010-05-16T08:02:12Z</time>
      </trkpt>
      <trkpt lat="46.79453" lon="4.66989">
        <ele>273.15</ele>
        <time>2010-05-16T08:02:13Z</time>
      </trkpt>
      <trkpt lat="46.79444" lon="4.66986">
        <ele>272.19</ele>
        <time>2010-05-16T08:02:14Z</time>
      </trkpt>
      <trkpt lat="46.79427" lon="4.66979">
        <ele>270.75</ele>
        <time>2010-05-16T08:02:16Z</time>
      </trkpt>
      <trkpt lat="46.7942" lon="4.66979">
        <ele>270.75</ele>
        <time>2010-05-16T08:02:17Z</time>
      </trkpt>
      <trkpt lat="46.79413" lon="4.66984">
        <ele>270.27</ele>
        <time>2010-05-16T08:02:18Z</time>
      </trkpt>
      <trkpt lat="46.79407" lon="4.66992">
        <ele>269.79</ele>
        <time>2010-05-16T08:02:19Z</time>
      </trkpt>
      <trkpt lat="46.79403" lon="4.67002">
        <ele>269.79</ele>
        <time>2010-05-16T08:02:20Z</time>
      </trkpt>
      <trkpt lat="46.79401" lon="4.67012">
        <ele>269.31</ele>
        <time>2010-05-16T08:02:21Z</time>
      </trkpt>
      <trkpt lat="46.794" lon="4.67022">
        <ele>268.83</ele>
        <time>2010-05-16T08:02:22Z</time>
      </trkpt>
      <trkpt lat="46.794" lon="4.67032">
        <ele>268.83</ele>
        <time>2010-05-16T08:02:23Z</time>
      </trkpt>
      <trkpt lat="46.79399" lon="4.67042">
        <ele>268.35</ele>
        <time>2010-05-16T08:02:24Z</time>
      </trkpt>
      <trkpt lat="46.79399" lon="4.67061">
        <ele>268.83</ele>
        <time>2010-05-16T08:02:26Z</time>
      </trkpt>
      <trkpt lat="46.79398" lon="4.67071">
        <ele>269.31</ele>
        <time>2010-05-16T08:02:27Z</time>
      </trkpt>
      <trkpt lat="46.79396" lon="4.67079">
        <ele>269.31</ele>
        <time>2010-05-16T08:02:28Z</time>
      </trkpt>
      <trkpt lat="46.79392" lon="4.67086">
        <ele>269.31</ele>
        <time>2010-05-16T08:02:29Z</time>
      </trkpt>
      <trkpt lat="46.79387" lon="4.67092">
        <ele>269.79</ele>
        <time>2010-05-16T08:02:30Z</time>
      </trkpt>
      <trkpt lat="46.79382" lon="4.67097">
        <ele>270.27</ele>
        <time>2010-05-16T08:02:31Z</time>
      </trkpt>
      <trkpt lat="46.79378" lon="4.67101">
        <ele>270.27</ele>
        <time>2010-05-16T08:02:32Z</time>
      </trkpt>
      <trkpt lat="46.79347" lon="4.67134">
        <ele>271.23</ele>
        <time>2010-05-16T08:02:39Z</time>
      </trkpt>
      <trkpt lat="46.7931" lon="4.67175">
        <ele>269.31</ele>
        <time>2010-05-16T08:02:46Z</time>
      </trkpt>
      <trkpt lat="46.79288" lon="4.67197">
        <ele>269.31</ele>
        <time>2010-05-16T08:02:50Z</time>
      </trkpt>
      <trkpt lat="46.79279" lon="4.67208">
        <ele>268.35</ele>
        <time>2010-05-16T08:02:53Z</time>
      </trkpt>
      <trkpt lat="46.79276" lon="4.67213">
        <ele>267.86</ele>
        <time>2010-05-16T08:02:55Z</time>
      </trkpt>
      <trkpt lat="46.79274" lon="4.67217">
        <ele>268.35</ele>
        <time>2010-05-16T08:02:56Z</time>
      </trkpt>
      <trkpt lat="46.7926" lon="4.67251">
        <ele>268.35</ele>
        <time>2010-05-16T08:03:01Z</time>
      </trkpt>
      <trkpt lat="46.79257" lon="4.6726">
        <ele>268.35</ele>
        <time>2010-05-16T08:03:02Z</time>
      </trkpt>
      <trkpt lat="46.79241" lon="4.67294">
        <ele>270.27</ele>
        <time>2010-05-16T08:03:06Z</time>
      </trkpt>
      <trkpt lat="46.79236" lon="4.67301">
        <ele>270.27</ele>
        <time>2010-05-16T08:03:07Z</time>
      </trkpt>
      <trkpt lat="46.79231" lon="4.67307">
        <ele>270.27</ele>
        <time>2010-05-16T08:03:08Z</time>
      </trkpt>
      <trkpt lat="46.79221" lon="4.67315">
        <ele>271.71</ele>
        <time>2010-05-16T08:03:10Z</time>
      </trkpt>
      <trkpt lat="46.79216" lon="4.67318">
        <ele>272.19</ele>
        <time>2010-05-16T08:03:11Z</time>
      </trkpt>
      <trkpt lat="46.79211" lon="4.6732">
        <ele>272.19</ele>
        <time>2010-05-16T08:03:12Z</time>
      </trkpt>
      <trkpt lat="46.79207" lon="4.67323">
        <ele>272.67</ele>
        <time>2010-05-16T08:03:13Z</time>
      </trkpt>
      <trkpt lat="46.79177" lon="4.67337">
        <ele>275.56</ele>
        <time>2010-05-16T08:03:21Z</time>
      </trkpt>
      <trkpt lat="46.79157" lon="4.67346">
        <ele>277</ele>
        <time>2010-05-16T08:03:28Z</time>
      </trkpt>
      <trkpt lat="46.79136" lon="4.67356">
        <ele>279.4</ele>
        <time>2010-05-16T08:03:36Z</time>
      </trkpt>
      <trkpt lat="46.79116" lon="4.67366">
        <ele>280.84</ele>
        <time>2010-05-16T08:03:44Z</time>
      </trkpt>
      <trkpt lat="46.79095" lon="4.67387">
        <ele>282.77</ele>
        <time>2010-05-16T08:03:54Z</time>
      </trkpt>
      <trkpt lat="46.79083" lon="4.67421">
        <ele>285.17</ele>
        <time>2010-05-16T08:04:04Z</time>
      </trkpt>
      <trkpt lat="46.79078" lon="4.67459">
        <ele>286.13</ele>
        <time>2010-05-16T08:04:13Z</time>
      </trkpt>
      <trkpt lat="46.79069" lon="4.67498">
        <ele>287.09</ele>
        <time>2010-05-16T08:04:22Z</time>
      </trkpt>
      <trkpt lat="46.79052" lon="4.67532">
        <ele>288.05</ele>
        <time>2010-05-16T08:04:30Z</time>
      </trkpt>
      <trkpt lat="46.79028" lon="4.67549">
        <ele>289.01</ele>
        <time>2010-05-16T08:04:37Z</time>
      </trkpt>
      <trkpt lat="46.78997" lon="4.67567">
        <ele>290.46</ele>
        <time>2010-05-16T08:04:47Z</time>
      </trkpt>
      <trkpt lat="46.78971" lon="4.67581">
        <ele>292.38</ele>
        <time>2010-05-16T08:04:56Z</time>
      </trkpt>
      <trkpt lat="46.78951" lon="4.67591">
        <ele>294.3</ele>
        <time>2010-05-16T08:05:04Z</time>
      </trkpt>
      <trkpt lat="46.78928" lon="4.67603">
        <ele>296.22</ele>
        <time>2010-05-16T08:05:14Z</time>
      </trkpt>
      <trkpt lat="46.78908" lon="4.67615">
        <ele>298.63</ele>
        <time>2010-05-16T08:05:23Z</time>
      </trkpt>
      <trkpt lat="46.78891" lon="4.67623">
        <ele>300.55</ele>
        <time>2010-05-16T08:05:31Z</time>
      </trkpt>
      <trkpt lat="46.78874" lon="4.67632">
        <ele>301.99</ele>
        <time>2010-05-16T08:05:39Z</time>
      </trkpt>
      <trkpt lat="46.78848" lon="4.67643">
        <ele>303.91</ele>
        <time>2010-05-16T08:05:50Z</time>
      </trkpt>
      <trkpt lat="46.7883" lon="4.67648">
        <ele>304.88</ele>
        <time>2010-05-16T08:05:57Z</time>
      </trkpt>
      <trkpt lat="46.78812" lon="4.67649">
        <ele>305.84</ele>
        <time>2010-05-16T08:06:04Z</time>
      </trkpt>
      <trkpt lat="46.78796" lon="4.67628">
        <ele>307.28</ele>
        <time>2010-05-16T08:06:13Z</time>
      </trkpt>
      <trkpt lat="46.78781" lon="4.67603">
        <ele>308.24</ele>
        <time>2010-05-16T08:06:22Z</time>
      </trkpt>
      <trkpt lat="46.78768" lon="4.67581">
        <ele>310.16</ele>
        <time>2010-05-16T08:06:30Z</time>
      </trkpt>
      <trkpt lat="46.78754" lon="4.67559">
        <ele>311.6</ele>
        <time>2010-05-16T08:06:38Z</time>
      </trkpt>
      <trkpt lat="46.78737" lon="4.67536">
        <ele>312.57</ele>
        <time>2010-05-16T08:06:46Z</time>
      </trkpt>
      <trkpt lat="46.78715" lon="4.67519">
        <ele>313.05</ele>
        <time>2010-05-16T08:06:54Z</time>
      </trkpt>
      <trkpt lat="46.78688" lon="4.67511">
        <ele>314.49</ele>
        <time>2010-05-16T08:07:03Z</time>
      </trkpt>
      <trkpt lat="46.78658" lon="4.67504">
        <ele>316.89</ele>
        <time>2010-05-16T08:07:14Z</time>
      </trkpt>
      <trkpt lat="46.78631" lon="4.67498">
        <ele>318.81</ele>
        <time>2010-05-16T08:07:24Z</time>
      </trkpt>
      <trkpt lat="46.78602" lon="4.67491">
        <ele>320.74</ele>
        <time>2010-05-16T08:07:35Z</time>
      </trkpt>
      <trkpt lat="46.78577" lon="4.67484">
        <ele>322.66</ele>
        <time>2010-05-16T08:07:45Z</time>
      </trkpt>
      <trkpt lat="46.78553" lon="4.67478">
        <ele>323.62</ele>
        <time>2010-05-16T08:07:55Z</time>
      </trkpt>
      <trkpt lat="46.78532" lon="4.67473">
        <ele>325.54</ele>
        <time>2010-05-16T08:08:04Z</time>
      </trkpt>
      <trkpt lat="46.78508" lon="4.67465">
        <ele>326.99</ele>
        <time>2010-05-16T08:08:14Z</time>
      </trkpt>
      <trkpt lat="46.7848" lon="4.67453">
        <ele>328.91</ele>
        <time>2010-05-16T08:08:26Z</time>
      </trkpt>
      <trkpt lat="46.78464" lon="4.67443">
        <ele>330.35</ele>
        <time>2010-05-16T08:08:33Z</time>
      </trkpt>
      <trkpt lat="46.78442" lon="4.67433">
        <ele>331.79</ele>
        <time>2010-05-16T08:08:42Z</time>
      </trkpt>
      <trkpt lat="46.78422" lon="4.67423">
        <ele>333.23</ele>
        <time>2010-05-16T08:08:51Z</time>
      </trkpt>
      <trkpt lat="46.78404" lon="4.67413">
        <ele>334.68</ele>
        <time>2010-05-16T08:08:59Z</time>
      </trkpt>
      <trkpt lat="46.78384" lon="4.67403">
        <ele>335.64</ele>
        <time>2010-05-16T08:09:08Z</time>
      </trkpt>
      <trkpt lat="46.78363" lon="4.67392">
        <ele>337.08</ele>
        <time>2010-05-16T08:09:17Z</time>
      </trkpt>
      <trkpt lat="46.78342" lon="4.67381">
        <ele>339</ele>
        <time>2010-05-16T08:09:26Z</time>
      </trkpt>
      <trkpt lat="46.78322" lon="4.67371">
        <ele>339.96</ele>
        <time>2010-05-16T08:09:35Z</time>
      </trkpt>
      <trkpt lat="46.78301" lon="4.67362">
        <ele>341.89</ele>
        <time>2010-05-16T08:09:44Z</time>
      </trkpt>
      <trkpt lat="46.78279" lon="4.67356">
        <ele>343.33</ele>
        <time>2010-05-16T08:09:53Z</time>
      </trkpt>
      <trkpt lat="46.78251" lon="4.67361">
        <ele>345.73</ele>
        <time>2010-05-16T08:10:04Z</time>
      </trkpt>
      <trkpt lat="46.78232" lon="4.67369">
        <ele>346.69</ele>
        <time>2010-05-16T08:10:12Z</time>
      </trkpt>
      <trkpt lat="46.78209" lon="4.6737">
        <ele>348.13</ele>
        <time>2010-05-16T08:10:21Z</time>
      </trkpt>
      <trkpt lat="46.7819" lon="4.67353">
        <ele>350.54</ele>
        <time>2010-05-16T08:10:30Z</time>
      </trkpt>
      <trkpt lat="46.78173" lon="4.67326">
        <ele>352.46</ele>
        <time>2010-05-16T08:10:40Z</time>
      </trkpt>
      <trkpt lat="46.78159" lon="4.67305">
        <ele>352.94</ele>
        <time>2010-05-16T08:10:48Z</time>
      </trkpt>
      <trkpt lat="46.78144" lon="4.6728">
        <ele>354.86</ele>
        <time>2010-05-16T08:10:57Z</time>
      </trkpt>
      <trkpt lat="46.78131" lon="4.67253">
        <ele>356.31</ele>
        <time>2010-05-16T08:11:06Z</time>
      </trkpt>
      <trkpt lat="46.78124" lon="4.67223">
        <ele>357.27</ele>
        <time>2010-05-16T08:11:15Z</time>
      </trkpt>
      <trkpt lat="46.7812" lon="4.67192">
        <ele>359.19</ele>
        <time>2010-05-16T08:11:24Z</time>
      </trkpt>
      <trkpt lat="46.78114" lon="4.67162">
        <ele>360.63</ele>
        <time>2010-05-16T08:11:33Z</time>
      </trkpt>
      <trkpt lat="46.78103" lon="4.67138">
        <ele>362.07</ele>
        <time>2010-05-16T08:11:41Z</time>
      </trkpt>
      <trkpt lat="46.78091" lon="4.6712">
        <ele>363.04</ele>
        <time>2010-05-16T08:11:48Z</time>
      </trkpt>
      <trkpt lat="46.78074" lon="4.671">
        <ele>364.48</ele>
        <time>2010-05-16T08:11:57Z</time>
      </trkpt>
      <trkpt lat="46.78058" lon="4.67079">
        <ele>365.92</ele>
        <time>2010-05-16T08:12:05Z</time>
      </trkpt>
      <trkpt lat="46.7804" lon="4.67054">
        <ele>367.84</ele>
        <time>2010-05-16T08:12:15Z</time>
      </trkpt>
      <trkpt lat="46.78028" lon="4.67032">
        <ele>369.28</ele>
        <time>2010-05-16T08:12:23Z</time>
      </trkpt>
      <trkpt lat="46.78024" lon="4.67002">
        <ele>370.24</ele>
        <time>2010-05-16T08:12:31Z</time>
      </trkpt>
      <trkpt lat="46.78026" lon="4.6698">
        <ele>371.69</ele>
        <time>2010-05-16T08:12:38Z</time>
      </trkpt>
      <trkpt lat="46.78028" lon="4.66961">
        <ele>372.65</ele>
        <time>2010-05-16T08:12:44Z</time>
      </trkpt>
      <trkpt lat="46.78033" lon="4.66937">
        <ele>374.09</ele>
        <time>2010-05-16T08:12:51Z</time>
      </trkpt>
      <trkpt lat="46.7804" lon="4.66911">
        <ele>375.05</ele>
        <time>2010-05-16T08:12:59Z</time>
      </trkpt>
      <trkpt lat="46.7805" lon="4.66897">
        <ele>375.53</ele>
        <time>2010-05-16T08:13:05Z</time>
      </trkpt>
      <trkpt lat="46.7806" lon="4.66885">
        <ele>376.97</ele>
        <time>2010-05-16T08:13:11Z</time>
      </trkpt>
      <trkpt lat="46.78063" lon="4.66881">
        <ele>377.94</ele>
        <time>2010-05-16T08:13:13Z</time>
      </trkpt>
      <trkpt lat="46.78064" lon="4.66879">
        <ele>377.45</ele>
        <time>2010-05-16T08:13:14Z</time>
      </trkpt>
      <trkpt lat="46.78067" lon="4.66877">
        <ele>378.42</ele>
        <time>2010-05-16T08:13:15Z</time>
      </trkpt>
      <trkpt lat="46.78069" lon="4.66875">
        <ele>378.42</ele>
        <time>2010-05-16T08:13:16Z</time>
      </trkpt>
      <trkpt lat="46.7807" lon="4.66873">
        <ele>378.42</ele>
        <time>2010-05-16T08:13:17Z</time>
      </trkpt>
      <trkpt lat="46.78071" lon="4.6687">
        <ele>378.42</ele>
        <time>2010-05-16T08:13:18Z</time>
      </trkpt>
      <trkpt lat="46.78073" lon="4.66869">
        <ele>378.42</ele>
        <time>2010-05-16T08:13:19Z</time>
      </trkpt>
      <trkpt lat="46.78074" lon="4.66868">
        <ele>378.9</ele>
        <time>2010-05-16T08:13:20Z</time>
      </trkpt>
      <trkpt lat="46.78077" lon="4.66866">
        <ele>378.9</ele>
        <time>2010-05-16T08:13:21Z</time>
      </trkpt>
      <trkpt lat="46.78079" lon="4.66864">
        <ele>379.38</ele>
        <time>2010-05-16T08:13:22Z</time>
      </trkpt>
      <trkpt lat="46.78082" lon="4.66862">
        <ele>379.38</ele>
        <time>2010-05-16T08:13:23Z</time>
      </trkpt>
      <trkpt lat="46.78084" lon="4.66859">
        <ele>379.38</ele>
        <time>2010-05-16T08:13:24Z</time>
      </trkpt>
      <trkpt lat="46.78086" lon="4.66857">
        <ele>379.38</ele>
        <time>2010-05-16T08:13:25Z</time>
      </trkpt>
      <trkpt lat="46.78099" lon="4.66836">
        <ele>380.34</ele>
        <time>2010-05-16T08:13:32Z</time>
      </trkpt>
      <trkpt lat="46.78106" lon="4.66806">
        <ele>381.3</ele>
        <time>2010-05-16T08:13:40Z</time>
      </trkpt>
      <trkpt lat="46.78101" lon="4.66778">
        <ele>381.78</ele>
        <time>2010-05-16T08:13:48Z</time>
      </trkpt>
      <trkpt lat="46.7808" lon="4.66747">
        <ele>381.78</ele>
        <time>2010-05-16T08:13:57Z</time>
      </trkpt>
      <trkpt lat="46.78054" lon="4.66718">
        <ele>382.74</ele>
        <time>2010-05-16T08:14:06Z</time>
      </trkpt>
      <trkpt lat="46.78032" lon="4.66692">
        <ele>384.18</ele>
        <time>2010-05-16T08:14:14Z</time>
      </trkpt>
      <trkpt lat="46.78012" lon="4.66668">
        <ele>386.11</ele>
        <time>2010-05-16T08:14:22Z</time>
      </trkpt>
      <trkpt lat="46.77996" lon="4.6665">
        <ele>387.55</ele>
        <time>2010-05-16T08:14:29Z</time>
      </trkpt>
      <trkpt lat="46.77977" lon="4.6663">
        <ele>388.99</ele>
        <time>2010-05-16T08:14:37Z</time>
      </trkpt>
      <trkpt lat="46.77962" lon="4.6661">
        <ele>390.43</ele>
        <time>2010-05-16T08:14:45Z</time>
      </trkpt>
      <trkpt lat="46.77946" lon="4.66594">
        <ele>391.87</ele>
        <time>2010-05-16T08:14:52Z</time>
      </trkpt>
      <trkpt lat="46.77924" lon="4.6657">
        <ele>392.84</ele>
        <time>2010-05-16T08:15:02Z</time>
      </trkpt>
      <trkpt lat="46.77908" lon="4.66552">
        <ele>394.28</ele>
        <time>2010-05-16T08:15:10Z</time>
      </trkpt>
      <trkpt lat="46.77891" lon="4.66533">
        <ele>395.24</ele>
        <time>2010-05-16T08:15:18Z</time>
      </trkpt>
      <trkpt lat="46.77866" lon="4.66506">
        <ele>396.68</ele>
        <time>2010-05-16T08:15:28Z</time>
      </trkpt>
      <trkpt lat="46.77841" lon="4.66478">
        <ele>397.64</ele>
        <time>2010-05-16T08:15:37Z</time>
      </trkpt>
      <trkpt lat="46.77815" lon="4.66449">
        <ele>397.64</ele>
        <time>2010-05-16T08:15:47Z</time>
      </trkpt>
      <trkpt lat="46.77793" lon="4.66423">
        <ele>399.57</ele>
        <time>2010-05-16T08:15:55Z</time>
      </trkpt>
      <trkpt lat="46.77791" lon="4.6642">
        <ele>399.57</ele>
        <time>2010-05-16T08:15:56Z</time>
      </trkpt>
      <trkpt lat="46.77764" lon="4.66394">
        <ele>399.57</ele>
        <time>2010-05-16T08:16:04Z</time>
      </trkpt>
      <trkpt lat="46.77761" lon="4.66392">
        <ele>399.57</ele>
        <time>2010-05-16T08:16:05Z</time>
      </trkpt>
      <trkpt lat="46.77756" lon="4.66391">
        <ele>399.57</ele>
        <time>2010-05-16T08:16:06Z</time>
      </trkpt>
      <trkpt lat="46.77752" lon="4.6639">
        <ele>400.05</ele>
        <time>2010-05-16T08:16:07Z</time>
      </trkpt>
      <trkpt lat="46.77747" lon="4.66391">
        <ele>399.57</ele>
        <time>2010-05-16T08:16:08Z</time>
      </trkpt>
      <trkpt lat="46.77742" lon="4.66394">
        <ele>399.57</ele>
        <time>2010-05-16T08:16:09Z</time>
      </trkpt>
      <trkpt lat="46.77738" lon="4.66398">
        <ele>399.57</ele>
        <time>2010-05-16T08:16:10Z</time>
      </trkpt>
      <trkpt lat="46.77736" lon="4.66404">
        <ele>399.57</ele>
        <time>2010-05-16T08:16:11Z</time>
      </trkpt>
      <trkpt lat="46.77734" lon="4.6641">
        <ele>399.57</ele>
        <time>2010-05-16T08:16:12Z</time>
      </trkpt>
      <trkpt lat="46.77733" lon="4.66417">
        <ele>399.57</ele>
        <time>2010-05-16T08:16:13Z</time>
      </trkpt>
      <trkpt lat="46.77732" lon="4.66423">
        <ele>400.05</ele>
        <time>2010-05-16T08:16:14Z</time>
      </trkpt>
      <trkpt lat="46.77722" lon="4.66469">
        <ele>401.49</ele>
        <time>2010-05-16T08:16:22Z</time>
      </trkpt>
      <trkpt lat="46.77718" lon="4.66479">
        <ele>401.97</ele>
        <time>2010-05-16T08:16:24Z</time>
      </trkpt>
      <trkpt lat="46.77709" lon="4.66499">
        <ele>402.45</ele>
        <time>2010-05-16T08:16:28Z</time>
      </trkpt>
      <trkpt lat="46.77688" lon="4.66543">
        <ele>403.89</ele>
        <time>2010-05-16T08:16:37Z</time>
      </trkpt>
      <trkpt lat="46.77671" lon="4.66583">
        <ele>404.85</ele>
        <time>2010-05-16T08:16:45Z</time>
      </trkpt>
      <trkpt lat="46.77662" lon="4.66626">
        <ele>404.85</ele>
        <time>2010-05-16T08:16:53Z</time>
      </trkpt>
      <trkpt lat="46.7766" lon="4.66655">
        <ele>405.33</ele>
        <time>2010-05-16T08:16:59Z</time>
      </trkpt>
      <trkpt lat="46.77658" lon="4.66668">
        <ele>405.33</ele>
        <time>2010-05-16T08:17:04Z</time>
      </trkpt>
      <trkpt lat="46.77658" lon="4.66668">
        <ele>405.81</ele>
        <time>2010-05-16T08:17:24Z</time>
      </trkpt>
      <trkpt lat="46.77658" lon="4.66669">
        <ele>405.33</ele>
        <time>2010-05-16T08:18:00Z</time>
      </trkpt>
      <trkpt lat="46.77658" lon="4.66669">
        <ele>405.33</ele>
        <time>2010-05-16T08:18:22Z</time>
      </trkpt>
      <trkpt lat="46.77658" lon="4.66669">
        <ele>405.33</ele>
        <time>2010-05-16T08:18:55Z</time>
      </trkpt>
      <trkpt lat="46.77659" lon="4.66669">
        <ele>405.33</ele>
        <time>2010-05-16T08:20:09Z</time>
      </trkpt>
      <trkpt lat="46.77659" lon="4.66672">
        <ele>405.33</ele>
        <time>2010-05-16T08:20:10Z</time>
      </trkpt>
      <trkpt lat="46.77658" lon="4.66692">
        <ele>405.33</ele>
        <time>2010-05-16T08:20:14Z</time>
      </trkpt>
      <trkpt lat="46.77655" lon="4.6671">
        <ele>405.81</ele>
        <time>2010-05-16T08:20:17Z</time>
      </trkpt>
      <trkpt lat="46.77655" lon="4.66717">
        <ele>405.33</ele>
        <time>2010-05-16T08:20:18Z</time>
      </trkpt>
      <trkpt lat="46.77654" lon="4.66724">
        <ele>405.81</ele>
        <time>2010-05-16T08:20:19Z</time>
      </trkpt>
      <trkpt lat="46.7765" lon="4.66758">
        <ele>402.45</ele>
        <time>2010-05-16T08:20:23Z</time>
      </trkpt>
      <trkpt lat="46.77648" lon="4.66766">
        <ele>406.77</ele>
        <time>2010-05-16T08:20:24Z</time>
      </trkpt>
      <trkpt lat="46.77645" lon="4.66791">
        <ele>403.89</ele>
        <time>2010-05-16T08:20:27Z</time>
      </trkpt>
      <trkpt lat="46.77638" lon="4.66838">
        <ele>406.6679688</ele>
      </trkpt>
      <trkpt lat="46.77633" lon="4.66952">
        <ele>404.8515625</ele>
      </trkpt>
      <trkpt lat="46.77624" lon="4.67049">
        <ele>402.0507813</ele>
      </trkpt>
      <trkpt lat="46.77617" lon="4.67093">
        <ele>400.8828125</ele>
      </trkpt>
      <trkpt lat="46.77584" lon="4.67165">
        <ele>399.6328125</ele>
      </trkpt>
      <trkpt lat="46.776" lon="4.67435">
        <ele>387.390625</ele>
      </trkpt>
      <trkpt lat="46.77608" lon="4.67503">
        <ele>383.2734375</ele>
      </trkpt>
      <trkpt lat="46.77615" lon="4.67525">
        <ele>381.8046875</ele>
      </trkpt>
      <trkpt lat="46.77619" lon="4.67526">
        <ele>374.57</ele>
        <time>2010-05-16T08:23:09Z</time>
      </trkpt>
      <trkpt lat="46.77616" lon="4.67525">
        <ele>375.05</ele>
        <time>2010-05-16T08:23:16Z</time>
      </trkpt>
      <trkpt lat="46.77633" lon="4.67546">
        <ele>376.01</ele>
        <time>2010-05-16T08:23:22Z</time>
      </trkpt>
      <trkpt lat="46.77637" lon="4.67551">
        <ele>376.49</ele>
        <time>2010-05-16T08:23:23Z</time>
      </trkpt>
      <trkpt lat="46.77671" lon="4.67598">
        <ele>376.97</ele>
        <time>2010-05-16T08:23:31Z</time>
      </trkpt>
      <trkpt lat="46.77702" lon="4.67639">
        <ele>378.42</ele>
        <time>2010-05-16T08:23:38Z</time>
      </trkpt>
      <trkpt lat="46.77742" lon="4.67681">
        <ele>379.38</ele>
        <time>2010-05-16T08:23:46Z</time>
      </trkpt>
      <trkpt lat="46.77791" lon="4.67732">
        <ele>380.34</ele>
        <time>2010-05-16T08:23:56Z</time>
      </trkpt>
      <trkpt lat="46.77829" lon="4.6778">
        <ele>380.34</ele>
        <time>2010-05-16T08:24:04Z</time>
      </trkpt>
      <trkpt lat="46.77865" lon="4.67845">
        <ele>380.34</ele>
        <time>2010-05-16T08:24:13Z</time>
      </trkpt>
      <trkpt lat="46.77874" lon="4.67859">
        <ele>380.34</ele>
        <time>2010-05-16T08:24:15Z</time>
      </trkpt>
      <trkpt lat="46.77904" lon="4.679">
        <ele>382.26</ele>
        <time>2010-05-16T08:24:22Z</time>
      </trkpt>
      <trkpt lat="46.77936" lon="4.67939">
        <ele>382.74</ele>
        <time>2010-05-16T08:24:29Z</time>
      </trkpt>
      <trkpt lat="46.77984" lon="4.67999">
        <ele>382.26</ele>
        <time>2010-05-16T08:24:39Z</time>
      </trkpt>
      <trkpt lat="46.7799" lon="4.68008">
        <ele>382.26</ele>
        <time>2010-05-16T08:24:40Z</time>
      </trkpt>
      <trkpt lat="46.77999" lon="4.68027">
        <ele>380.82</ele>
        <time>2010-05-16T08:24:42Z</time>
      </trkpt>
      <trkpt lat="46.78003" lon="4.68038">
        <ele>380.82</ele>
        <time>2010-05-16T08:24:43Z</time>
      </trkpt>
      <trkpt lat="46.78017" lon="4.68107">
        <ele>379.86</ele>
        <time>2010-05-16T08:24:49Z</time>
      </trkpt>
      <trkpt lat="46.78031" lon="4.68185">
        <ele>379.86</ele>
        <time>2010-05-16T08:24:56Z</time>
      </trkpt>
      <trkpt lat="46.78049" lon="4.68252">
        <ele>381.3</ele>
        <time>2010-05-16T08:25:03Z</time>
      </trkpt>
      <trkpt lat="46.78069" lon="4.68305">
        <ele>381.78</ele>
        <time>2010-05-16T08:25:10Z</time>
      </trkpt>
      <trkpt lat="46.78074" lon="4.6832">
        <ele>381.78</ele>
        <time>2010-05-16T08:25:12Z</time>
      </trkpt>
      <trkpt lat="46.78077" lon="4.68327">
        <ele>381.78</ele>
        <time>2010-05-16T08:25:13Z</time>
      </trkpt>
      <trkpt lat="46.7808" lon="4.68335">
        <ele>382.26</ele>
        <time>2010-05-16T08:25:14Z</time>
      </trkpt>
      <trkpt lat="46.78083" lon="4.68343">
        <ele>381.78</ele>
        <time>2010-05-16T08:25:15Z</time>
      </trkpt>
      <trkpt lat="46.78086" lon="4.68351">
        <ele>382.26</ele>
        <time>2010-05-16T08:25:16Z</time>
      </trkpt>
      <trkpt lat="46.78113" lon="4.68416">
        <ele>382.26</ele>
        <time>2010-05-16T08:25:24Z</time>
      </trkpt>
      <trkpt lat="46.78142" lon="4.68462">
        <ele>381.3</ele>
        <time>2010-05-16T08:25:30Z</time>
      </trkpt>
      <trkpt lat="46.78179" lon="4.68523">
        <ele>378.9</ele>
        <time>2010-05-16T08:25:37Z</time>
      </trkpt>
      <trkpt lat="46.78183" lon="4.68534">
        <ele>378.42</ele>
        <time>2010-05-16T08:25:38Z</time>
      </trkpt>
      <trkpt lat="46.78187" lon="4.68546">
        <ele>378.42</ele>
        <time>2010-05-16T08:25:39Z</time>
      </trkpt>
      <trkpt lat="46.7819" lon="4.68557">
        <ele>378.42</ele>
        <time>2010-05-16T08:25:40Z</time>
      </trkpt>
      <trkpt lat="46.78192" lon="4.68569">
        <ele>378.42</ele>
        <time>2010-05-16T08:25:41Z</time>
      </trkpt>
      <trkpt lat="46.78205" lon="4.68633">
        <ele>375.05</ele>
        <time>2010-05-16T08:25:46Z</time>
      </trkpt>
      <trkpt lat="46.78207" lon="4.68647">
        <ele>375.05</ele>
        <time>2010-05-16T08:25:47Z</time>
      </trkpt>
      <trkpt lat="46.78225" lon="4.68748">
        <ele>371.69</ele>
        <time>2010-05-16T08:25:54Z</time>
      </trkpt>
      <trkpt lat="46.78232" lon="4.68813">
        <ele>367.36</ele>
        <time>2010-05-16T08:25:58Z</time>
      </trkpt>
      <trkpt lat="46.78234" lon="4.68864">
        <ele>365.44</ele>
        <time>2010-05-16T08:26:01Z</time>
      </trkpt>
      <trkpt lat="46.78233" lon="4.68898">
        <ele>364</ele>
        <time>2010-05-16T08:26:03Z</time>
      </trkpt>
      <trkpt lat="46.78225" lon="4.6897">
        <ele>361.59</ele>
        <time>2010-05-16T08:26:08Z</time>
      </trkpt>
      <trkpt lat="46.78222" lon="4.6898">
        <ele>361.11</ele>
        <time>2010-05-16T08:26:09Z</time>
      </trkpt>
      <trkpt lat="46.78219" lon="4.68989">
        <ele>362.07</ele>
        <time>2010-05-16T08:26:10Z</time>
      </trkpt>
      <trkpt lat="46.78219" lon="4.68997">
        <ele>361.59</ele>
        <time>2010-05-16T08:26:11Z</time>
      </trkpt>
      <trkpt lat="46.7822" lon="4.69005">
        <ele>361.11</ele>
        <time>2010-05-16T08:26:12Z</time>
      </trkpt>
      <trkpt lat="46.78222" lon="4.69013">
        <ele>361.59</ele>
        <time>2010-05-16T08:26:13Z</time>
      </trkpt>
      <trkpt lat="46.78223" lon="4.6902">
        <ele>363.04</ele>
        <time>2010-05-16T08:26:14Z</time>
      </trkpt>
      <trkpt lat="46.78224" lon="4.69027">
        <ele>363.04</ele>
        <time>2010-05-16T08:26:15Z</time>
      </trkpt>
      <trkpt lat="46.78225" lon="4.69033">
        <ele>363.52</ele>
        <time>2010-05-16T08:26:16Z</time>
      </trkpt>
      <trkpt lat="46.78227" lon="4.69039">
        <ele>363.52</ele>
        <time>2010-05-16T08:26:17Z</time>
      </trkpt>
      <trkpt lat="46.78231" lon="4.69052">
        <ele>363.52</ele>
        <time>2010-05-16T08:26:19Z</time>
      </trkpt>
      <trkpt lat="46.78233" lon="4.69059">
        <ele>363.04</ele>
        <time>2010-05-16T08:26:20Z</time>
      </trkpt>
      <trkpt lat="46.78236" lon="4.69065">
        <ele>363.04</ele>
        <time>2010-05-16T08:26:21Z</time>
      </trkpt>
      <trkpt lat="46.78244" lon="4.69089">
        <ele>361.59</ele>
        <time>2010-05-16T08:26:24Z</time>
      </trkpt>
      <trkpt lat="46.78248" lon="4.69098">
        <ele>361.11</ele>
        <time>2010-05-16T08:26:25Z</time>
      </trkpt>
      <trkpt lat="46.7826" lon="4.69124">
        <ele>360.15</ele>
        <time>2010-05-16T08:26:28Z</time>
      </trkpt>
      <trkpt lat="46.78273" lon="4.69149">
        <ele>359.19</ele>
        <time>2010-05-16T08:26:31Z</time>
      </trkpt>
      <trkpt lat="46.78276" lon="4.69158">
        <ele>359.19</ele>
        <time>2010-05-16T08:26:32Z</time>
      </trkpt>
      <trkpt lat="46.78281" lon="4.69178">
        <ele>357.75</ele>
        <time>2010-05-16T08:26:34Z</time>
      </trkpt>
      <trkpt lat="46.78283" lon="4.6919">
        <ele>357.75</ele>
        <time>2010-05-16T08:26:35Z</time>
      </trkpt>
      <trkpt lat="46.78284" lon="4.69201">
        <ele>357.27</ele>
        <time>2010-05-16T08:26:36Z</time>
      </trkpt>
      <trkpt lat="46.78284" lon="4.6928">
        <ele>356.79</ele>
        <time>2010-05-16T08:26:43Z</time>
      </trkpt>
      <trkpt lat="46.78282" lon="4.69358">
        <ele>357.27</ele>
        <time>2010-05-16T08:26:51Z</time>
      </trkpt>
      <trkpt lat="46.78281" lon="4.69402">
        <ele>358.71</ele>
        <time>2010-05-16T08:26:57Z</time>
      </trkpt>
      <trkpt lat="46.7828" lon="4.69425">
        <ele>360.63</ele>
        <time>2010-05-16T08:27:03Z</time>
      </trkpt>
      <trkpt lat="46.78277" lon="4.69447">
        <ele>362.07</ele>
        <time>2010-05-16T08:27:10Z</time>
      </trkpt>
      <trkpt lat="46.7827" lon="4.69469">
        <ele>364.48</ele>
        <time>2010-05-16T08:27:19Z</time>
      </trkpt>
      <trkpt lat="46.78262" lon="4.6948">
        <ele>365.92</ele>
        <time>2010-05-16T08:27:26Z</time>
      </trkpt>
      <trkpt lat="46.7825" lon="4.6949">
        <ele>367.36</ele>
        <time>2010-05-16T08:27:34Z</time>
      </trkpt>
      <trkpt lat="46.78239" lon="4.69497">
        <ele>368.8</ele>
        <time>2010-05-16T08:27:41Z</time>
      </trkpt>
      <trkpt lat="46.78229" lon="4.69503">
        <ele>369.76</ele>
        <time>2010-05-16T08:27:47Z</time>
      </trkpt>
      <trkpt lat="46.78216" lon="4.69513">
        <ele>371.69</ele>
        <time>2010-05-16T08:27:56Z</time>
      </trkpt>
      <trkpt lat="46.78205" lon="4.69524">
        <ele>373.61</ele>
        <time>2010-05-16T08:28:05Z</time>
      </trkpt>
      <trkpt lat="46.78193" lon="4.69532">
        <ele>375.53</ele>
        <time>2010-05-16T08:28:14Z</time>
      </trkpt>
      <trkpt lat="46.78191" lon="4.69534">
        <ele>375.53</ele>
        <time>2010-05-16T08:28:16Z</time>
      </trkpt>
      <trkpt lat="46.78187" lon="4.69536">
        <ele>376.49</ele>
        <time>2010-05-16T08:28:19Z</time>
      </trkpt>
      <trkpt lat="46.78185" lon="4.69537">
        <ele>376.49</ele>
        <time>2010-05-16T08:28:20Z</time>
      </trkpt>
      <trkpt lat="46.78184" lon="4.69537">
        <ele>376.97</ele>
        <time>2010-05-16T08:28:21Z</time>
      </trkpt>
      <trkpt lat="46.78183" lon="4.69538">
        <ele>376.97</ele>
        <time>2010-05-16T08:28:22Z</time>
      </trkpt>
      <trkpt lat="46.78182" lon="4.69539">
        <ele>376.97</ele>
        <time>2010-05-16T08:28:23Z</time>
      </trkpt>
      <trkpt lat="46.78181" lon="4.6954">
        <ele>377.45</ele>
        <time>2010-05-16T08:28:24Z</time>
      </trkpt>
      <trkpt lat="46.78179" lon="4.69541">
        <ele>377.45</ele>
        <time>2010-05-16T08:28:25Z</time>
      </trkpt>
      <trkpt lat="46.78178" lon="4.69542">
        <ele>377.94</ele>
        <time>2010-05-16T08:28:26Z</time>
      </trkpt>
      <trkpt lat="46.78177" lon="4.69544">
        <ele>377.94</ele>
        <time>2010-05-16T08:28:27Z</time>
      </trkpt>
      <trkpt lat="46.78176" lon="4.69545">
        <ele>377.94</ele>
        <time>2010-05-16T08:28:28Z</time>
      </trkpt>
      <trkpt lat="46.78175" lon="4.69545">
        <ele>377.94</ele>
        <time>2010-05-16T08:28:29Z</time>
      </trkpt>
      <trkpt lat="46.78173" lon="4.69546">
        <ele>378.42</ele>
        <time>2010-05-16T08:28:30Z</time>
      </trkpt>
      <trkpt lat="46.78172" lon="4.69547">
        <ele>378.9</ele>
        <time>2010-05-16T08:28:31Z</time>
      </trkpt>
      <trkpt lat="46.78163" lon="4.69554">
        <ele>380.82</ele>
        <time>2010-05-16T08:28:39Z</time>
      </trkpt>
      <trkpt lat="46.78153" lon="4.69563">
        <ele>382.74</ele>
        <time>2010-05-16T08:28:48Z</time>
      </trkpt>
      <trkpt lat="46.7815" lon="4.69577">
        <ele>384.66</ele>
        <time>2010-05-16T08:28:56Z</time>
      </trkpt>
      <trkpt lat="46.78151" lon="4.69579">
        <ele>384.66</ele>
        <time>2010-05-16T08:28:57Z</time>
      </trkpt>
      <trkpt lat="46.78152" lon="4.69581">
        <ele>384.66</ele>
        <time>2010-05-16T08:28:58Z</time>
      </trkpt>
      <trkpt lat="46.78158" lon="4.69589">
        <ele>385.63</ele>
        <time>2010-05-16T08:29:04Z</time>
      </trkpt>
      <trkpt lat="46.78168" lon="4.69595">
        <ele>387.55</ele>
        <time>2010-05-16T08:29:12Z</time>
      </trkpt>
      <trkpt lat="46.78174" lon="4.69597">
        <ele>388.51</ele>
        <time>2010-05-16T08:29:18Z</time>
      </trkpt>
      <trkpt lat="46.78176" lon="4.69599">
        <ele>389.47</ele>
        <time>2010-05-16T08:29:20Z</time>
      </trkpt>
      <trkpt lat="46.78189" lon="4.69601">
        <ele>390.43</ele>
        <time>2010-05-16T08:29:29Z</time>
      </trkpt>
      <trkpt lat="46.782" lon="4.69601">
        <ele>391.39</ele>
        <time>2010-05-16T08:29:36Z</time>
      </trkpt>
      <trkpt lat="46.78214" lon="4.69602">
        <ele>392.36</ele>
        <time>2010-05-16T08:29:44Z</time>
      </trkpt>
      <trkpt lat="46.7823" lon="4.69603">
        <ele>393.32</ele>
        <time>2010-05-16T08:29:51Z</time>
      </trkpt>
      <trkpt lat="46.7825" lon="4.69611">
        <ele>392.84</ele>
        <time>2010-05-16T08:29:58Z</time>
      </trkpt>
      <trkpt lat="46.78256" lon="4.69625">
        <ele>394.28</ele>
        <time>2010-05-16T08:30:05Z</time>
      </trkpt>
      <trkpt lat="46.78257" lon="4.69631">
        <ele>394.76</ele>
        <time>2010-05-16T08:30:08Z</time>
      </trkpt>
      <trkpt lat="46.78257" lon="4.69633">
        <ele>395.24</ele>
        <time>2010-05-16T08:30:09Z</time>
      </trkpt>
      <trkpt lat="46.78258" lon="4.69652">
        <ele>397.16</ele>
        <time>2010-05-16T08:30:18Z</time>
      </trkpt>
      <trkpt lat="46.78259" lon="4.69656">
        <ele>397.16</ele>
        <time>2010-05-16T08:30:20Z</time>
      </trkpt>
      <trkpt lat="46.78258" lon="4.69664">
        <ele>397.64</ele>
        <time>2010-05-16T08:30:24Z</time>
      </trkpt>
      <trkpt lat="46.78257" lon="4.69665">
        <ele>398.12</ele>
        <time>2010-05-16T08:30:25Z</time>
      </trkpt>
      <trkpt lat="46.78257" lon="4.69667">
        <ele>398.12</ele>
        <time>2010-05-16T08:30:26Z</time>
      </trkpt>
      <trkpt lat="46.78256" lon="4.69668">
        <ele>398.12</ele>
        <time>2010-05-16T08:30:27Z</time>
      </trkpt>
      <trkpt lat="46.78256" lon="4.6967">
        <ele>399.08</ele>
        <time>2010-05-16T08:30:28Z</time>
      </trkpt>
      <trkpt lat="46.78252" lon="4.69686">
        <ele>400.53</ele>
        <time>2010-05-16T08:30:37Z</time>
      </trkpt>
      <trkpt lat="46.78251" lon="4.69699">
        <ele>401.49</ele>
        <time>2010-05-16T08:30:43Z</time>
      </trkpt>
      <trkpt lat="46.78248" lon="4.69716">
        <ele>402.45</ele>
        <time>2010-05-16T08:30:51Z</time>
      </trkpt>
      <trkpt lat="46.78247" lon="4.69718">
        <ele>402.45</ele>
        <time>2010-05-16T08:30:52Z</time>
      </trkpt>
      <trkpt lat="46.78247" lon="4.6972">
        <ele>402.45</ele>
        <time>2010-05-16T08:30:53Z</time>
      </trkpt>
      <trkpt lat="46.78247" lon="4.69722">
        <ele>402.93</ele>
        <time>2010-05-16T08:30:54Z</time>
      </trkpt>
      <trkpt lat="46.78247" lon="4.69724">
        <ele>403.41</ele>
        <time>2010-05-16T08:30:55Z</time>
      </trkpt>
      <trkpt lat="46.78246" lon="4.69726">
        <ele>403.41</ele>
        <time>2010-05-16T08:30:56Z</time>
      </trkpt>
      <trkpt lat="46.78246" lon="4.69728">
        <ele>403.41</ele>
        <time>2010-05-16T08:30:57Z</time>
      </trkpt>
      <trkpt lat="46.78246" lon="4.6973">
        <ele>403.89</ele>
        <time>2010-05-16T08:30:58Z</time>
      </trkpt>
      <trkpt lat="46.78246" lon="4.69731">
        <ele>403.89</ele>
        <time>2010-05-16T08:30:59Z</time>
      </trkpt>
      <trkpt lat="46.78246" lon="4.69733">
        <ele>403.89</ele>
        <time>2010-05-16T08:31:00Z</time>
      </trkpt>
      <trkpt lat="46.78246" lon="4.69735">
        <ele>404.85</ele>
        <time>2010-05-16T08:31:01Z</time>
      </trkpt>
      <trkpt lat="46.78246" lon="4.6974">
        <ele>404.37</ele>
        <time>2010-05-16T08:31:03Z</time>
      </trkpt>
      <trkpt lat="46.78245" lon="4.69742">
        <ele>404.85</ele>
        <time>2010-05-16T08:31:04Z</time>
      </trkpt>
      <trkpt lat="46.78242" lon="4.69749">
        <ele>405.81</ele>
        <time>2010-05-16T08:31:08Z</time>
      </trkpt>
      <trkpt lat="46.78242" lon="4.6975">
        <ele>405.81</ele>
        <time>2010-05-16T08:31:09Z</time>
      </trkpt>
      <trkpt lat="46.78241" lon="4.69752">
        <ele>405.81</ele>
        <time>2010-05-16T08:31:10Z</time>
      </trkpt>
      <trkpt lat="46.7824" lon="4.69754">
        <ele>406.29</ele>
        <time>2010-05-16T08:31:11Z</time>
      </trkpt>
      <trkpt lat="46.78239" lon="4.69755">
        <ele>406.29</ele>
        <time>2010-05-16T08:31:12Z</time>
      </trkpt>
      <trkpt lat="46.78235" lon="4.69761">
        <ele>408.7</ele>
        <time>2010-05-16T08:31:18Z</time>
      </trkpt>
      <trkpt lat="46.78234" lon="4.69763">
        <ele>409.18</ele>
        <time>2010-05-16T08:31:19Z</time>
      </trkpt>
      <trkpt lat="46.78228" lon="4.69771">
        <ele>410.62</ele>
        <time>2010-05-16T08:31:25Z</time>
      </trkpt>
      <trkpt lat="46.78225" lon="4.69774">
        <ele>411.1</ele>
        <time>2010-05-16T08:31:27Z</time>
      </trkpt>
      <trkpt lat="46.78224" lon="4.69775">
        <ele>411.1</ele>
        <time>2010-05-16T08:31:28Z</time>
      </trkpt>
      <trkpt lat="46.78224" lon="4.69777">
        <ele>411.1</ele>
        <time>2010-05-16T08:31:29Z</time>
      </trkpt>
      <trkpt lat="46.78222" lon="4.69777">
        <ele>411.1</ele>
        <time>2010-05-16T08:31:30Z</time>
      </trkpt>
      <trkpt lat="46.78221" lon="4.69778">
        <ele>411.1</ele>
        <time>2010-05-16T08:31:31Z</time>
      </trkpt>
      <trkpt lat="46.7822" lon="4.69778">
        <ele>411.58</ele>
        <time>2010-05-16T08:31:32Z</time>
      </trkpt>
      <trkpt lat="46.78218" lon="4.69779">
        <ele>411.58</ele>
        <time>2010-05-16T08:31:33Z</time>
      </trkpt>
      <trkpt lat="46.78217" lon="4.6978">
        <ele>411.58</ele>
        <time>2010-05-16T08:31:34Z</time>
      </trkpt>
      <trkpt lat="46.78215" lon="4.6978">
        <ele>411.58</ele>
        <time>2010-05-16T08:31:35Z</time>
      </trkpt>
      <trkpt lat="46.78214" lon="4.69781">
        <ele>412.06</ele>
        <time>2010-05-16T08:31:36Z</time>
      </trkpt>
      <trkpt lat="46.78213" lon="4.69782">
        <ele>411.58</ele>
        <time>2010-05-16T08:31:37Z</time>
      </trkpt>
      <trkpt lat="46.78212" lon="4.69782">
        <ele>412.06</ele>
        <time>2010-05-16T08:31:38Z</time>
      </trkpt>
      <trkpt lat="46.7821" lon="4.69783">
        <ele>412.06</ele>
        <time>2010-05-16T08:31:39Z</time>
      </trkpt>
      <trkpt lat="46.78194" lon="4.69792">
        <ele>412.06</ele>
        <time>2010-05-16T08:31:47Z</time>
      </trkpt>
      <trkpt lat="46.78172" lon="4.69808">
        <ele>411.58</ele>
        <time>2010-05-16T08:31:54Z</time>
      </trkpt>
      <trkpt lat="46.78151" lon="4.69824">
        <ele>409.66</ele>
        <time>2010-05-16T08:31:59Z</time>
      </trkpt>
      <trkpt lat="46.78146" lon="4.69827">
        <ele>409.66</ele>
        <time>2010-05-16T08:32:00Z</time>
      </trkpt>
      <trkpt lat="46.78136" lon="4.69835">
        <ele>408.22</ele>
        <time>2010-05-16T08:32:02Z</time>
      </trkpt>
      <trkpt lat="46.78132" lon="4.69839">
        <ele>408.7</ele>
        <time>2010-05-16T08:32:03Z</time>
      </trkpt>
      <trkpt lat="46.78119" lon="4.69852">
        <ele>410.14</ele>
        <time>2010-05-16T08:32:08Z</time>
      </trkpt>
      <trkpt lat="46.78099" lon="4.6986">
        <ele>410.62</ele>
        <time>2010-05-16T08:32:15Z</time>
      </trkpt>
      <trkpt lat="46.78076" lon="4.69865">
        <ele>410.62</ele>
        <time>2010-05-16T08:32:22Z</time>
      </trkpt>
      <trkpt lat="46.78056" lon="4.69869">
        <ele>410.62</ele>
        <time>2010-05-16T08:32:27Z</time>
      </trkpt>
      <trkpt lat="46.78051" lon="4.6987">
        <ele>410.14</ele>
        <time>2010-05-16T08:32:28Z</time>
      </trkpt>
      <trkpt lat="46.78047" lon="4.69871">
        <ele>410.14</ele>
        <time>2010-05-16T08:32:29Z</time>
      </trkpt>
      <trkpt lat="46.78027" lon="4.69869">
        <ele>409.18</ele>
        <time>2010-05-16T08:32:33Z</time>
      </trkpt>
      <trkpt lat="46.78013" lon="4.69871">
        <ele>408.22</ele>
        <time>2010-05-16T08:32:36Z</time>
      </trkpt>
      <trkpt lat="46.77994" lon="4.6988">
        <ele>408.7</ele>
        <time>2010-05-16T08:32:40Z</time>
      </trkpt>
      <trkpt lat="46.7799" lon="4.69884">
        <ele>408.7</ele>
        <time>2010-05-16T08:32:41Z</time>
      </trkpt>
      <trkpt lat="46.77986" lon="4.69887">
        <ele>409.18</ele>
        <time>2010-05-16T08:32:42Z</time>
      </trkpt>
      <trkpt lat="46.77978" lon="4.69896">
        <ele>409.18</ele>
        <time>2010-05-16T08:32:44Z</time>
      </trkpt>
      <trkpt lat="46.77976" lon="4.69902">
        <ele>408.7</ele>
        <time>2010-05-16T08:32:45Z</time>
      </trkpt>
      <trkpt lat="46.77973" lon="4.69908">
        <ele>409.18</ele>
        <time>2010-05-16T08:32:46Z</time>
      </trkpt>
      <trkpt lat="46.77971" lon="4.69914">
        <ele>408.7</ele>
        <time>2010-05-16T08:32:47Z</time>
      </trkpt>
      <trkpt lat="46.7797" lon="4.69921">
        <ele>409.18</ele>
        <time>2010-05-16T08:32:48Z</time>
      </trkpt>
      <trkpt lat="46.7797" lon="4.69927">
        <ele>409.18</ele>
        <time>2010-05-16T08:32:49Z</time>
      </trkpt>
      <trkpt lat="46.77971" lon="4.69933">
        <ele>409.66</ele>
        <time>2010-05-16T08:32:50Z</time>
      </trkpt>
      <trkpt lat="46.77972" lon="4.69939">
        <ele>410.14</ele>
        <time>2010-05-16T08:32:51Z</time>
      </trkpt>
      <trkpt lat="46.77974" lon="4.6995">
        <ele>410.14</ele>
        <time>2010-05-16T08:32:53Z</time>
      </trkpt>
      <trkpt lat="46.77976" lon="4.69955">
        <ele>410.62</ele>
        <time>2010-05-16T08:32:54Z</time>
      </trkpt>
      <trkpt lat="46.77978" lon="4.69959">
        <ele>410.14</ele>
        <time>2010-05-16T08:32:55Z</time>
      </trkpt>
      <trkpt lat="46.7799" lon="4.69989">
        <ele>412.06</ele>
        <time>2010-05-16T08:33:02Z</time>
      </trkpt>
      <trkpt lat="46.77993" lon="4.70017">
        <ele>412.06</ele>
        <time>2010-05-16T08:33:08Z</time>
      </trkpt>
      <trkpt lat="46.77993" lon="4.70024">
        <ele>412.06</ele>
        <time>2010-05-16T08:33:09Z</time>
      </trkpt>
      <trkpt lat="46.77992" lon="4.7003">
        <ele>411.58</ele>
        <time>2010-05-16T08:33:10Z</time>
      </trkpt>
      <trkpt lat="46.77991" lon="4.70037">
        <ele>411.1</ele>
        <time>2010-05-16T08:33:11Z</time>
      </trkpt>
      <trkpt lat="46.7799" lon="4.70044">
        <ele>411.58</ele>
        <time>2010-05-16T08:33:12Z</time>
      </trkpt>
      <trkpt lat="46.77989" lon="4.70051">
        <ele>411.1</ele>
        <time>2010-05-16T08:33:13Z</time>
      </trkpt>
      <trkpt lat="46.77987" lon="4.70058">
        <ele>411.1</ele>
        <time>2010-05-16T08:33:14Z</time>
      </trkpt>
      <trkpt lat="46.77985" lon="4.70065">
        <ele>411.1</ele>
        <time>2010-05-16T08:33:15Z</time>
      </trkpt>
      <trkpt lat="46.77982" lon="4.70071">
        <ele>411.1</ele>
        <time>2010-05-16T08:33:16Z</time>
      </trkpt>
      <trkpt lat="46.77969" lon="4.70113">
        <ele>411.1</ele>
        <time>2010-05-16T08:33:22Z</time>
      </trkpt>
      <trkpt lat="46.77967" lon="4.7012">
        <ele>411.1</ele>
        <time>2010-05-16T08:33:23Z</time>
      </trkpt>
      <trkpt lat="46.77963" lon="4.70139">
        <ele>412.06</ele>
        <time>2010-05-16T08:33:26Z</time>
      </trkpt>
      <trkpt lat="46.77949" lon="4.70174">
        <ele>410.14</ele>
        <time>2010-05-16T08:33:32Z</time>
      </trkpt>
      <trkpt lat="46.7794" lon="4.70189">
        <ele>408.7</ele>
        <time>2010-05-16T08:33:34Z</time>
      </trkpt>
      <trkpt lat="46.77936" lon="4.70196">
        <ele>408.22</ele>
        <time>2010-05-16T08:33:35Z</time>
      </trkpt>
      <trkpt lat="46.77932" lon="4.70206">
        <ele>407.26</ele>
        <time>2010-05-16T08:33:36Z</time>
      </trkpt>
      <trkpt lat="46.77928" lon="4.70216">
        <ele>406.77</ele>
        <time>2010-05-16T08:33:37Z</time>
      </trkpt>
      <trkpt lat="46.77926" lon="4.70227">
        <ele>406.29</ele>
        <time>2010-05-16T08:33:38Z</time>
      </trkpt>
      <trkpt lat="46.77924" lon="4.70238">
        <ele>405.81</ele>
        <time>2010-05-16T08:33:39Z</time>
      </trkpt>
      <trkpt lat="46.77923" lon="4.70251">
        <ele>405.33</ele>
        <time>2010-05-16T08:33:40Z</time>
      </trkpt>
      <trkpt lat="46.77922" lon="4.70263">
        <ele>403.89</ele>
        <time>2010-05-16T08:33:41Z</time>
      </trkpt>
      <trkpt lat="46.77923" lon="4.70289">
        <ele>402.93</ele>
        <time>2010-05-16T08:33:43Z</time>
      </trkpt>
      <trkpt lat="46.77924" lon="4.70304">
        <ele>401.49</ele>
        <time>2010-05-16T08:33:44Z</time>
      </trkpt>
      <trkpt lat="46.77926" lon="4.70319">
        <ele>400.53</ele>
        <time>2010-05-16T08:33:45Z</time>
      </trkpt>
      <trkpt lat="46.77932" lon="4.70347">
        <ele>397.16</ele>
        <time>2010-05-16T08:33:47Z</time>
      </trkpt>
      <trkpt lat="46.77934" lon="4.7036">
        <ele>396.2</ele>
        <time>2010-05-16T08:33:48Z</time>
      </trkpt>
      <trkpt lat="46.77937" lon="4.70385">
        <ele>393.32</ele>
        <time>2010-05-16T08:33:50Z</time>
      </trkpt>
      <trkpt lat="46.77939" lon="4.70426">
        <ele>389.47</ele>
        <time>2010-05-16T08:33:53Z</time>
      </trkpt>
      <trkpt lat="46.77939" lon="4.70456">
        <ele>386.11</ele>
        <time>2010-05-16T08:33:55Z</time>
      </trkpt>
      <trkpt lat="46.77937" lon="4.705">
        <ele>382.26</ele>
        <time>2010-05-16T08:33:58Z</time>
      </trkpt>
      <trkpt lat="46.77934" lon="4.70514">
        <ele>380.34</ele>
        <time>2010-05-16T08:33:59Z</time>
      </trkpt>
      <trkpt lat="46.77931" lon="4.70526">
        <ele>378.42</ele>
        <time>2010-05-16T08:34:00Z</time>
      </trkpt>
      <trkpt lat="46.77926" lon="4.70537">
        <ele>376.49</ele>
        <time>2010-05-16T08:34:01Z</time>
      </trkpt>
      <trkpt lat="46.77924" lon="4.70544">
        <ele>375.53</ele>
        <time>2010-05-16T08:34:02Z</time>
      </trkpt>
      <trkpt lat="46.77924" lon="4.7055">
        <ele>374.09</ele>
        <time>2010-05-16T08:34:03Z</time>
      </trkpt>
      <trkpt lat="46.77924" lon="4.70555">
        <ele>373.61</ele>
        <time>2010-05-16T08:34:04Z</time>
      </trkpt>
      <trkpt lat="46.77926" lon="4.70559">
        <ele>373.13</ele>
        <time>2010-05-16T08:34:05Z</time>
      </trkpt>
      <trkpt lat="46.77931" lon="4.70563">
        <ele>372.17</ele>
        <time>2010-05-16T08:34:06Z</time>
      </trkpt>
      <trkpt lat="46.77936" lon="4.70566">
        <ele>372.17</ele>
        <time>2010-05-16T08:34:07Z</time>
      </trkpt>
      <trkpt lat="46.77948" lon="4.70572">
        <ele>370.73</ele>
        <time>2010-05-16T08:34:09Z</time>
      </trkpt>
      <trkpt lat="46.77954" lon="4.70576">
        <ele>370.73</ele>
        <time>2010-05-16T08:34:10Z</time>
      </trkpt>
      <trkpt lat="46.7796" lon="4.70582">
        <ele>370.24</ele>
        <time>2010-05-16T08:34:11Z</time>
      </trkpt>
      <trkpt lat="46.78006" lon="4.70617">
        <ele>369.76</ele>
        <time>2010-05-16T08:34:18Z</time>
      </trkpt>
      <trkpt lat="46.78045" lon="4.7064">
        <ele>370.24</ele>
        <time>2010-05-16T08:34:25Z</time>
      </trkpt>
      <trkpt lat="46.7805" lon="4.70641">
        <ele>369.76</ele>
        <time>2010-05-16T08:34:26Z</time>
      </trkpt>
      <trkpt lat="46.78055" lon="4.70641">
        <ele>370.24</ele>
        <time>2010-05-16T08:34:27Z</time>
      </trkpt>
      <trkpt lat="46.78072" lon="4.70642">
        <ele>371.69</ele>
        <time>2010-05-16T08:34:33Z</time>
      </trkpt>
      <trkpt lat="46.78087" lon="4.7064">
        <ele>374.09</ele>
        <time>2010-05-16T08:34:40Z</time>
      </trkpt>
      <trkpt lat="46.78097" lon="4.70635">
        <ele>375.05</ele>
        <time>2010-05-16T08:34:45Z</time>
      </trkpt>
      <trkpt lat="46.78111" lon="4.70631">
        <ele>376.97</ele>
        <time>2010-05-16T08:34:53Z</time>
      </trkpt>
      <trkpt lat="46.78122" lon="4.70634">
        <ele>378.9</ele>
        <time>2010-05-16T08:35:01Z</time>
      </trkpt>
      <trkpt lat="46.78132" lon="4.70639">
        <ele>380.82</ele>
        <time>2010-05-16T08:35:09Z</time>
      </trkpt>
      <trkpt lat="46.7814" lon="4.70642">
        <ele>381.3</ele>
        <time>2010-05-16T08:35:15Z</time>
      </trkpt>
      <trkpt lat="46.78141" lon="4.70641">
        <ele>381.78</ele>
        <time>2010-05-16T08:35:16Z</time>
      </trkpt>
      <trkpt lat="46.78142" lon="4.70641">
        <ele>381.78</ele>
        <time>2010-05-16T08:35:17Z</time>
      </trkpt>
      <trkpt lat="46.78144" lon="4.70641">
        <ele>382.26</ele>
        <time>2010-05-16T08:35:18Z</time>
      </trkpt>
      <trkpt lat="46.78145" lon="4.70641">
        <ele>382.74</ele>
        <time>2010-05-16T08:35:19Z</time>
      </trkpt>
      <trkpt lat="46.78146" lon="4.70641">
        <ele>382.74</ele>
        <time>2010-05-16T08:35:20Z</time>
      </trkpt>
      <trkpt lat="46.78148" lon="4.70641">
        <ele>382.74</ele>
        <time>2010-05-16T08:35:21Z</time>
      </trkpt>
      <trkpt lat="46.78149" lon="4.70641">
        <ele>383.22</ele>
        <time>2010-05-16T08:35:22Z</time>
      </trkpt>
      <trkpt lat="46.7815" lon="4.7064">
        <ele>383.22</ele>
        <time>2010-05-16T08:35:23Z</time>
      </trkpt>
      <trkpt lat="46.78151" lon="4.70641">
        <ele>383.22</ele>
        <time>2010-05-16T08:35:24Z</time>
      </trkpt>
      <trkpt lat="46.78157" lon="4.7064">
        <ele>384.18</ele>
        <time>2010-05-16T08:35:28Z</time>
      </trkpt>
      <trkpt lat="46.78158" lon="4.70641">
        <ele>385.15</ele>
        <time>2010-05-16T08:35:29Z</time>
      </trkpt>
      <trkpt lat="46.7816" lon="4.70641">
        <ele>384.66</ele>
        <time>2010-05-16T08:35:30Z</time>
      </trkpt>
      <trkpt lat="46.78163" lon="4.70639">
        <ele>385.15</ele>
        <time>2010-05-16T08:35:33Z</time>
      </trkpt>
      <trkpt lat="46.78164" lon="4.70638">
        <ele>385.63</ele>
        <time>2010-05-16T08:35:34Z</time>
      </trkpt>
      <trkpt lat="46.78165" lon="4.70636">
        <ele>385.63</ele>
        <time>2010-05-16T08:35:35Z</time>
      </trkpt>
      <trkpt lat="46.78166" lon="4.70635">
        <ele>386.11</ele>
        <time>2010-05-16T08:35:36Z</time>
      </trkpt>
      <trkpt lat="46.78167" lon="4.70633">
        <ele>386.11</ele>
        <time>2010-05-16T08:35:37Z</time>
      </trkpt>
      <trkpt lat="46.78169" lon="4.70632">
        <ele>386.59</ele>
        <time>2010-05-16T08:35:38Z</time>
      </trkpt>
      <trkpt lat="46.78169" lon="4.70631">
        <ele>386.59</ele>
        <time>2010-05-16T08:35:39Z</time>
      </trkpt>
      <trkpt lat="46.7817" lon="4.70629">
        <ele>387.07</ele>
        <time>2010-05-16T08:35:40Z</time>
      </trkpt>
      <trkpt lat="46.78171" lon="4.70626">
        <ele>387.07</ele>
        <time>2010-05-16T08:35:42Z</time>
      </trkpt>
      <trkpt lat="46.78172" lon="4.70625">
        <ele>387.55</ele>
        <time>2010-05-16T08:35:43Z</time>
      </trkpt>
      <trkpt lat="46.78172" lon="4.70625">
        <ele>387.55</ele>
        <time>2010-05-16T08:35:44Z</time>
      </trkpt>
      <trkpt lat="46.78178" lon="4.70621">
        <ele>388.99</ele>
        <time>2010-05-16T08:35:50Z</time>
      </trkpt>
      <trkpt lat="46.7818" lon="4.7062">
        <ele>389.47</ele>
        <time>2010-05-16T08:35:53Z</time>
      </trkpt>
      <trkpt lat="46.78182" lon="4.7062">
        <ele>389.47</ele>
        <time>2010-05-16T08:35:54Z</time>
      </trkpt>
      <trkpt lat="46.78183" lon="4.70619">
        <ele>389.47</ele>
        <time>2010-05-16T08:35:55Z</time>
      </trkpt>
      <trkpt lat="46.78184" lon="4.70619">
        <ele>389.47</ele>
        <time>2010-05-16T08:35:56Z</time>
      </trkpt>
      <trkpt lat="46.78185" lon="4.70619">
        <ele>389.95</ele>
        <time>2010-05-16T08:35:57Z</time>
      </trkpt>
      <trkpt lat="46.78191" lon="4.7062">
        <ele>390.43</ele>
        <time>2010-05-16T08:36:01Z</time>
      </trkpt>
      <trkpt lat="46.78192" lon="4.70621">
        <ele>390.43</ele>
        <time>2010-05-16T08:36:02Z</time>
      </trkpt>
      <trkpt lat="46.78194" lon="4.70622">
        <ele>390.43</ele>
        <time>2010-05-16T08:36:03Z</time>
      </trkpt>
      <trkpt lat="46.78195" lon="4.70624">
        <ele>390.91</ele>
        <time>2010-05-16T08:36:04Z</time>
      </trkpt>
      <trkpt lat="46.78196" lon="4.70624">
        <ele>390.91</ele>
        <time>2010-05-16T08:36:05Z</time>
      </trkpt>
      <trkpt lat="46.78198" lon="4.70624">
        <ele>391.39</ele>
        <time>2010-05-16T08:36:06Z</time>
      </trkpt>
      <trkpt lat="46.78199" lon="4.70624">
        <ele>390.91</ele>
        <time>2010-05-16T08:36:07Z</time>
      </trkpt>
      <trkpt lat="46.78201" lon="4.70624">
        <ele>391.39</ele>
        <time>2010-05-16T08:36:08Z</time>
      </trkpt>
      <trkpt lat="46.78202" lon="4.70625">
        <ele>391.39</ele>
        <time>2010-05-16T08:36:09Z</time>
      </trkpt>
      <trkpt lat="46.78203" lon="4.70626">
        <ele>391.87</ele>
        <time>2010-05-16T08:36:10Z</time>
      </trkpt>
      <trkpt lat="46.78204" lon="4.70628">
        <ele>391.87</ele>
        <time>2010-05-16T08:36:11Z</time>
      </trkpt>
      <trkpt lat="46.78204" lon="4.7063">
        <ele>391.87</ele>
        <time>2010-05-16T08:36:12Z</time>
      </trkpt>
      <trkpt lat="46.78205" lon="4.70632">
        <ele>391.39</ele>
        <time>2010-05-16T08:36:13Z</time>
      </trkpt>
      <trkpt lat="46.78206" lon="4.70634">
        <ele>391.87</ele>
        <time>2010-05-16T08:36:14Z</time>
      </trkpt>
      <trkpt lat="46.78208" lon="4.70638">
        <ele>392.36</ele>
        <time>2010-05-16T08:36:16Z</time>
      </trkpt>
      <trkpt lat="46.78209" lon="4.7064">
        <ele>392.36</ele>
        <time>2010-05-16T08:36:17Z</time>
      </trkpt>
      <trkpt lat="46.78216" lon="4.70653">
        <ele>393.32</ele>
        <time>2010-05-16T08:36:25Z</time>
      </trkpt>
      <trkpt lat="46.78218" lon="4.70655">
        <ele>394.28</ele>
        <time>2010-05-16T08:36:27Z</time>
      </trkpt>
      <trkpt lat="46.78219" lon="4.70656">
        <ele>393.8</ele>
        <time>2010-05-16T08:36:28Z</time>
      </trkpt>
      <trkpt lat="46.7822" lon="4.70657">
        <ele>393.8</ele>
        <time>2010-05-16T08:36:29Z</time>
      </trkpt>
      <trkpt lat="46.78221" lon="4.70658">
        <ele>394.28</ele>
        <time>2010-05-16T08:36:30Z</time>
      </trkpt>
      <trkpt lat="46.78223" lon="4.70658">
        <ele>394.76</ele>
        <time>2010-05-16T08:36:31Z</time>
      </trkpt>
      <trkpt lat="46.78231" lon="4.70662">
        <ele>396.2</ele>
        <time>2010-05-16T08:36:38Z</time>
      </trkpt>
      <trkpt lat="46.78233" lon="4.70662">
        <ele>396.2</ele>
        <time>2010-05-16T08:36:39Z</time>
      </trkpt>
      <trkpt lat="46.78234" lon="4.70663">
        <ele>396.2</ele>
        <time>2010-05-16T08:36:40Z</time>
      </trkpt>
      <trkpt lat="46.78235" lon="4.70663">
        <ele>396.68</ele>
        <time>2010-05-16T08:36:41Z</time>
      </trkpt>
      <trkpt lat="46.78242" lon="4.70668">
        <ele>397.16</ele>
        <time>2010-05-16T08:36:47Z</time>
      </trkpt>
      <trkpt lat="46.78245" lon="4.70671">
        <ele>397.64</ele>
        <time>2010-05-16T08:36:50Z</time>
      </trkpt>
      <trkpt lat="46.78251" lon="4.70673">
        <ele>398.6</ele>
        <time>2010-05-16T08:36:55Z</time>
      </trkpt>
      <trkpt lat="46.78252" lon="4.70674">
        <ele>398.6</ele>
        <time>2010-05-16T08:36:56Z</time>
      </trkpt>
      <trkpt lat="46.78253" lon="4.70675">
        <ele>399.08</ele>
        <time>2010-05-16T08:36:57Z</time>
      </trkpt>
      <trkpt lat="46.78255" lon="4.70675">
        <ele>399.08</ele>
        <time>2010-05-16T08:36:58Z</time>
      </trkpt>
      <trkpt lat="46.78256" lon="4.70675">
        <ele>399.08</ele>
        <time>2010-05-16T08:36:59Z</time>
      </trkpt>
      <trkpt lat="46.78258" lon="4.70676">
        <ele>399.08</ele>
        <time>2010-05-16T08:37:00Z</time>
      </trkpt>
      <trkpt lat="46.78259" lon="4.70676">
        <ele>399.57</ele>
        <time>2010-05-16T08:37:01Z</time>
      </trkpt>
      <trkpt lat="46.78262" lon="4.70678">
        <ele>399.57</ele>
        <time>2010-05-16T08:37:03Z</time>
      </trkpt>
      <trkpt lat="46.78263" lon="4.70679">
        <ele>400.05</ele>
        <time>2010-05-16T08:37:04Z</time>
      </trkpt>
      <trkpt lat="46.78264" lon="4.7068">
        <ele>400.05</ele>
        <time>2010-05-16T08:37:05Z</time>
      </trkpt>
      <trkpt lat="46.78266" lon="4.7068">
        <ele>400.53</ele>
        <time>2010-05-16T08:37:06Z</time>
      </trkpt>
      <trkpt lat="46.78267" lon="4.70681">
        <ele>400.53</ele>
        <time>2010-05-16T08:37:07Z</time>
      </trkpt>
      <trkpt lat="46.78269" lon="4.70682">
        <ele>400.53</ele>
        <time>2010-05-16T08:37:08Z</time>
      </trkpt>
      <trkpt lat="46.78271" lon="4.70683">
        <ele>401.01</ele>
        <time>2010-05-16T08:37:09Z</time>
      </trkpt>
      <trkpt lat="46.78272" lon="4.70684">
        <ele>401.01</ele>
        <time>2010-05-16T08:37:10Z</time>
      </trkpt>
      <trkpt lat="46.78274" lon="4.70685">
        <ele>401.49</ele>
        <time>2010-05-16T08:37:11Z</time>
      </trkpt>
      <trkpt lat="46.78275" lon="4.70686">
        <ele>401.49</ele>
        <time>2010-05-16T08:37:12Z</time>
      </trkpt>
      <trkpt lat="46.78276" lon="4.70687">
        <ele>401.49</ele>
        <time>2010-05-16T08:37:13Z</time>
      </trkpt>
      <trkpt lat="46.78277" lon="4.70688">
        <ele>401.49</ele>
        <time>2010-05-16T08:37:14Z</time>
      </trkpt>
      <trkpt lat="46.78284" lon="4.70695">
        <ele>402.45</ele>
        <time>2010-05-16T08:37:18Z</time>
      </trkpt>
      <trkpt lat="46.78285" lon="4.70697">
        <ele>401.97</ele>
        <time>2010-05-16T08:37:19Z</time>
      </trkpt>
      <trkpt lat="46.78295" lon="4.70709">
        <ele>402.93</ele>
        <time>2010-05-16T08:37:26Z</time>
      </trkpt>
      <trkpt lat="46.78306" lon="4.70724">
        <ele>404.37</ele>
        <time>2010-05-16T08:37:35Z</time>
      </trkpt>
      <trkpt lat="46.78319" lon="4.70733">
        <ele>406.29</ele>
        <time>2010-05-16T08:37:45Z</time>
      </trkpt>
      <trkpt lat="46.78321" lon="4.70735">
        <ele>406.29</ele>
        <time>2010-05-16T08:37:47Z</time>
      </trkpt>
      <trkpt lat="46.78323" lon="4.70735">
        <ele>406.77</ele>
        <time>2010-05-16T08:37:48Z</time>
      </trkpt>
      <trkpt lat="46.78324" lon="4.70736">
        <ele>407.26</ele>
        <time>2010-05-16T08:37:49Z</time>
      </trkpt>
      <trkpt lat="46.78325" lon="4.70736">
        <ele>407.26</ele>
        <time>2010-05-16T08:37:50Z</time>
      </trkpt>
      <trkpt lat="46.78326" lon="4.70737">
        <ele>407.26</ele>
        <time>2010-05-16T08:37:51Z</time>
      </trkpt>
      <trkpt lat="46.78327" lon="4.70737">
        <ele>407.74</ele>
        <time>2010-05-16T08:37:52Z</time>
      </trkpt>
      <trkpt lat="46.78338" lon="4.70735">
        <ele>409.66</ele>
        <time>2010-05-16T08:38:00Z</time>
      </trkpt>
      <trkpt lat="46.78349" lon="4.7073">
        <ele>410.62</ele>
        <time>2010-05-16T08:38:08Z</time>
      </trkpt>
      <trkpt lat="46.78353" lon="4.70729">
        <ele>411.1</ele>
        <time>2010-05-16T08:38:11Z</time>
      </trkpt>
      <trkpt lat="46.78353" lon="4.70728">
        <ele>411.58</ele>
        <time>2010-05-16T08:38:12Z</time>
      </trkpt>
      <trkpt lat="46.78364" lon="4.70724">
        <ele>413.02</ele>
        <time>2010-05-16T08:38:21Z</time>
      </trkpt>
      <trkpt lat="46.78375" lon="4.70722">
        <ele>414.95</ele>
        <time>2010-05-16T08:38:30Z</time>
      </trkpt>
      <trkpt lat="46.78384" lon="4.70717">
        <ele>416.39</ele>
        <time>2010-05-16T08:38:38Z</time>
      </trkpt>
      <trkpt lat="46.78392" lon="4.70714">
        <ele>417.83</ele>
        <time>2010-05-16T08:38:46Z</time>
      </trkpt>
      <trkpt lat="46.78402" lon="4.7071">
        <ele>419.27</ele>
        <time>2010-05-16T08:38:55Z</time>
      </trkpt>
      <trkpt lat="46.78413" lon="4.70705">
        <ele>421.19</ele>
        <time>2010-05-16T08:39:04Z</time>
      </trkpt>
      <trkpt lat="46.78417" lon="4.70703">
        <ele>421.68</ele>
        <time>2010-05-16T08:39:07Z</time>
      </trkpt>
      <trkpt lat="46.78418" lon="4.70702">
        <ele>421.68</ele>
        <time>2010-05-16T08:39:08Z</time>
      </trkpt>
      <trkpt lat="46.78419" lon="4.70701">
        <ele>422.16</ele>
        <time>2010-05-16T08:39:09Z</time>
      </trkpt>
      <trkpt lat="46.7842" lon="4.707">
        <ele>422.16</ele>
        <time>2010-05-16T08:39:10Z</time>
      </trkpt>
      <trkpt lat="46.78421" lon="4.70699">
        <ele>422.64</ele>
        <time>2010-05-16T08:39:11Z</time>
      </trkpt>
      <trkpt lat="46.78422" lon="4.70699">
        <ele>423.12</ele>
        <time>2010-05-16T08:39:12Z</time>
      </trkpt>
      <trkpt lat="46.78424" lon="4.70698">
        <ele>423.12</ele>
        <time>2010-05-16T08:39:13Z</time>
      </trkpt>
      <trkpt lat="46.78425" lon="4.70697">
        <ele>422.64</ele>
        <time>2010-05-16T08:39:14Z</time>
      </trkpt>
      <trkpt lat="46.78426" lon="4.70696">
        <ele>422.64</ele>
        <time>2010-05-16T08:39:15Z</time>
      </trkpt>
      <trkpt lat="46.78427" lon="4.70695">
        <ele>423.12</ele>
        <time>2010-05-16T08:39:16Z</time>
      </trkpt>
      <trkpt lat="46.78428" lon="4.70694">
        <ele>423.6</ele>
        <time>2010-05-16T08:39:17Z</time>
      </trkpt>
      <trkpt lat="46.78437" lon="4.70685">
        <ele>425.04</ele>
        <time>2010-05-16T08:39:26Z</time>
      </trkpt>
      <trkpt lat="46.78447" lon="4.70676">
        <ele>426.96</ele>
        <time>2010-05-16T08:39:35Z</time>
      </trkpt>
      <trkpt lat="46.78459" lon="4.70662">
        <ele>428.4</ele>
        <time>2010-05-16T08:39:47Z</time>
      </trkpt>
      <trkpt lat="46.78464" lon="4.70656">
        <ele>429.37</ele>
        <time>2010-05-16T08:39:52Z</time>
      </trkpt>
      <trkpt lat="46.78465" lon="4.70656">
        <ele>429.37</ele>
        <time>2010-05-16T08:39:53Z</time>
      </trkpt>
      <trkpt lat="46.78466" lon="4.70655">
        <ele>429.37</ele>
        <time>2010-05-16T08:39:54Z</time>
      </trkpt>
      <trkpt lat="46.78467" lon="4.70653">
        <ele>429.37</ele>
        <time>2010-05-16T08:39:55Z</time>
      </trkpt>
      <trkpt lat="46.78468" lon="4.70652">
        <ele>429.37</ele>
        <time>2010-05-16T08:39:56Z</time>
      </trkpt>
      <trkpt lat="46.78469" lon="4.70651">
        <ele>430.33</ele>
        <time>2010-05-16T08:39:57Z</time>
      </trkpt>
      <trkpt lat="46.78469" lon="4.70649">
        <ele>430.33</ele>
        <time>2010-05-16T08:39:58Z</time>
      </trkpt>
      <trkpt lat="46.78471" lon="4.70648">
        <ele>430.33</ele>
        <time>2010-05-16T08:39:59Z</time>
      </trkpt>
      <trkpt lat="46.78472" lon="4.70647">
        <ele>430.33</ele>
        <time>2010-05-16T08:40:00Z</time>
      </trkpt>
      <trkpt lat="46.78473" lon="4.70647">
        <ele>430.33</ele>
        <time>2010-05-16T08:40:01Z</time>
      </trkpt>
      <trkpt lat="46.78474" lon="4.70645">
        <ele>431.29</ele>
        <time>2010-05-16T08:40:02Z</time>
      </trkpt>
      <trkpt lat="46.78475" lon="4.70644">
        <ele>430.81</ele>
        <time>2010-05-16T08:40:03Z</time>
      </trkpt>
      <trkpt lat="46.78476" lon="4.70643">
        <ele>430.81</ele>
        <time>2010-05-16T08:40:04Z</time>
      </trkpt>
      <trkpt lat="46.78477" lon="4.70642">
        <ele>431.29</ele>
        <time>2010-05-16T08:40:05Z</time>
      </trkpt>
      <trkpt lat="46.78478" lon="4.70641">
        <ele>431.29</ele>
        <time>2010-05-16T08:40:06Z</time>
      </trkpt>
      <trkpt lat="46.78486" lon="4.70634">
        <ele>431.77</ele>
        <time>2010-05-16T08:40:13Z</time>
      </trkpt>
      <trkpt lat="46.78489" lon="4.70629">
        <ele>432.25</ele>
        <time>2010-05-16T08:40:17Z</time>
      </trkpt>
      <trkpt lat="46.78498" lon="4.70618">
        <ele>434.17</ele>
        <time>2010-05-16T08:40:26Z</time>
      </trkpt>
      <trkpt lat="46.78508" lon="4.70609">
        <ele>434.65</ele>
        <time>2010-05-16T08:40:34Z</time>
      </trkpt>
      <trkpt lat="46.78521" lon="4.70602">
        <ele>435.61</ele>
        <time>2010-05-16T08:40:43Z</time>
      </trkpt>
      <trkpt lat="46.78538" lon="4.70604">
        <ele>436.58</ele>
        <time>2010-05-16T08:40:52Z</time>
      </trkpt>
      <trkpt lat="46.78552" lon="4.706">
        <ele>437.06</ele>
        <time>2010-05-16T08:40:59Z</time>
      </trkpt>
      <trkpt lat="46.78573" lon="4.70591">
        <ele>437.54</ele>
        <time>2010-05-16T08:41:08Z</time>
      </trkpt>
      <trkpt lat="46.78584" lon="4.70593">
        <ele>438.02</ele>
        <time>2010-05-16T08:41:12Z</time>
      </trkpt>
      <trkpt lat="46.78587" lon="4.70616">
        <ele>438.02</ele>
        <time>2010-05-16T08:41:18Z</time>
      </trkpt>
      <trkpt lat="46.78588" lon="4.70646">
        <ele>437.54</ele>
        <time>2010-05-16T08:41:24Z</time>
      </trkpt>
      <trkpt lat="46.78591" lon="4.70651">
        <ele>437.54</ele>
        <time>2010-05-16T08:41:25Z</time>
      </trkpt>
      <trkpt lat="46.78594" lon="4.70655">
        <ele>437.54</ele>
        <time>2010-05-16T08:41:26Z</time>
      </trkpt>
      <trkpt lat="46.78598" lon="4.70658">
        <ele>437.54</ele>
        <time>2010-05-16T08:41:27Z</time>
      </trkpt>
      <trkpt lat="46.78602" lon="4.7066">
        <ele>437.54</ele>
        <time>2010-05-16T08:41:28Z</time>
      </trkpt>
      <trkpt lat="46.78627" lon="4.70675">
        <ele>438.02</ele>
        <time>2010-05-16T08:41:35Z</time>
      </trkpt>
      <trkpt lat="46.78649" lon="4.70684">
        <ele>437.54</ele>
        <time>2010-05-16T08:41:41Z</time>
      </trkpt>
      <trkpt lat="46.78653" lon="4.70686">
        <ele>437.54</ele>
        <time>2010-05-16T08:41:42Z</time>
      </trkpt>
      <trkpt lat="46.78657" lon="4.70688">
        <ele>437.06</ele>
        <time>2010-05-16T08:41:43Z</time>
      </trkpt>
      <trkpt lat="46.78665" lon="4.70692">
        <ele>437.06</ele>
        <time>2010-05-16T08:41:45Z</time>
      </trkpt>
      <trkpt lat="46.78669" lon="4.70694">
        <ele>437.06</ele>
        <time>2010-05-16T08:41:46Z</time>
      </trkpt>
      <trkpt lat="46.78689" lon="4.707">
        <ele>435.61</ele>
        <time>2010-05-16T08:41:50Z</time>
      </trkpt>
      <trkpt lat="46.787" lon="4.70703">
        <ele>435.61</ele>
        <time>2010-05-16T08:41:52Z</time>
      </trkpt>
      <trkpt lat="46.78706" lon="4.70705">
        <ele>435.13</ele>
        <time>2010-05-16T08:41:53Z</time>
      </trkpt>
      <trkpt lat="46.78711" lon="4.70707">
        <ele>434.65</ele>
        <time>2010-05-16T08:41:54Z</time>
      </trkpt>
      <trkpt lat="46.78717" lon="4.7071">
        <ele>434.65</ele>
        <time>2010-05-16T08:41:55Z</time>
      </trkpt>
      <trkpt lat="46.78722" lon="4.70713">
        <ele>434.17</ele>
        <time>2010-05-16T08:41:56Z</time>
      </trkpt>
      <trkpt lat="46.78744" lon="4.70723">
        <ele>432.73</ele>
        <time>2010-05-16T08:42:00Z</time>
      </trkpt>
      <trkpt lat="46.78747" lon="4.70725">
        <ele>432.25</ele>
        <time>2010-05-16T08:42:01Z</time>
      </trkpt>
      <trkpt lat="46.7875" lon="4.70726">
        <ele>431.29</ele>
        <time>2010-05-16T08:42:02Z</time>
      </trkpt>
      <trkpt lat="46.78751" lon="4.70725">
        <ele>430.81</ele>
        <time>2010-05-16T08:42:06Z</time>
      </trkpt>
      <trkpt lat="46.78751" lon="4.70725">
        <ele>430.81</ele>
        <time>2010-05-16T08:42:08Z</time>
      </trkpt>
      <trkpt lat="46.78753" lon="4.70724">
        <ele>430.81</ele>
        <time>2010-05-16T08:42:13Z</time>
      </trkpt>
      <trkpt lat="46.78753" lon="4.70724">
        <ele>430.81</ele>
        <time>2010-05-16T08:42:24Z</time>
      </trkpt>
      <trkpt lat="46.78755" lon="4.70722">
        <ele>430.81</ele>
        <time>2010-05-16T08:42:36Z</time>
      </trkpt>
      <trkpt lat="46.78755" lon="4.70722">
        <ele>430.81</ele>
        <time>2010-05-16T08:42:43Z</time>
      </trkpt>
      <trkpt lat="46.78755" lon="4.70722">
        <ele>429.85</ele>
        <time>2010-05-16T08:42:51Z</time>
      </trkpt>
      <trkpt lat="46.78756" lon="4.70722">
        <ele>429.85</ele>
        <time>2010-05-16T08:43:24Z</time>
      </trkpt>
      <trkpt lat="46.78758" lon="4.70721">
        <ele>430.33</ele>
        <time>2010-05-16T08:43:25Z</time>
      </trkpt>
      <trkpt lat="46.7876" lon="4.70721">
        <ele>430.33</ele>
        <time>2010-05-16T08:43:26Z</time>
      </trkpt>
      <trkpt lat="46.78761" lon="4.7072">
        <ele>430.81</ele>
        <time>2010-05-16T08:43:27Z</time>
      </trkpt>
      <trkpt lat="46.78763" lon="4.7072">
        <ele>430.33</ele>
        <time>2010-05-16T08:43:28Z</time>
      </trkpt>
      <trkpt lat="46.78765" lon="4.70722">
        <ele>430.33</ele>
        <time>2010-05-16T08:43:29Z</time>
      </trkpt>
      <trkpt lat="46.78767" lon="4.70724">
        <ele>429.37</ele>
        <time>2010-05-16T08:43:30Z</time>
      </trkpt>
      <trkpt lat="46.78768" lon="4.70725">
        <ele>429.85</ele>
        <time>2010-05-16T08:43:31Z</time>
      </trkpt>
      <trkpt lat="46.7877" lon="4.70726">
        <ele>428.89</ele>
        <time>2010-05-16T08:43:36Z</time>
      </trkpt>
      <trkpt lat="46.7877" lon="4.70726">
        <ele>429.37</ele>
        <time>2010-05-16T08:43:58Z</time>
      </trkpt>
      <trkpt lat="46.7877" lon="4.70726">
        <ele>429.37</ele>
        <time>2010-05-16T08:44:14Z</time>
      </trkpt>
      <trkpt lat="46.7877" lon="4.70726">
        <ele>428.89</ele>
        <time>2010-05-16T08:44:25Z</time>
      </trkpt>
      <trkpt lat="46.78771" lon="4.70726">
        <ele>429.37</ele>
        <time>2010-05-16T08:47:48Z</time>
      </trkpt>
      <trkpt lat="46.78773" lon="4.70724">
        <ele>429.37</ele>
        <time>2010-05-16T08:47:49Z</time>
      </trkpt>
      <trkpt lat="46.78775" lon="4.70723">
        <ele>429.37</ele>
        <time>2010-05-16T08:47:50Z</time>
      </trkpt>
      <trkpt lat="46.78777" lon="4.70721">
        <ele>428.89</ele>
        <time>2010-05-16T08:47:51Z</time>
      </trkpt>
      <trkpt lat="46.78781" lon="4.70717">
        <ele>428.89</ele>
        <time>2010-05-16T08:47:52Z</time>
      </trkpt>
      <trkpt lat="46.78784" lon="4.70714">
        <ele>428.89</ele>
        <time>2010-05-16T08:47:53Z</time>
      </trkpt>
      <trkpt lat="46.78791" lon="4.70706">
        <ele>428.89</ele>
        <time>2010-05-16T08:47:55Z</time>
      </trkpt>
      <trkpt lat="46.78794" lon="4.70702">
        <ele>428.89</ele>
        <time>2010-05-16T08:47:56Z</time>
      </trkpt>
      <trkpt lat="46.78819" lon="4.70679">
        <ele>429.85</ele>
        <time>2010-05-16T08:48:04Z</time>
      </trkpt>
      <trkpt lat="46.78848" lon="4.70655">
        <ele>429.85</ele>
        <time>2010-05-16T08:48:12Z</time>
      </trkpt>
      <trkpt lat="46.78885" lon="4.70633">
        <ele>428.4</ele>
        <time>2010-05-16T08:48:19Z</time>
      </trkpt>
      <trkpt lat="46.78938" lon="4.70614">
        <ele>426</ele>
        <time>2010-05-16T08:48:28Z</time>
      </trkpt>
      <trkpt lat="46.78944" lon="4.70613">
        <ele>425.52</ele>
        <time>2010-05-16T08:48:29Z</time>
      </trkpt>
      <trkpt lat="46.7897" lon="4.70614">
        <ele>423.6</ele>
        <time>2010-05-16T08:48:34Z</time>
      </trkpt>
      <trkpt lat="46.78975" lon="4.70616">
        <ele>423.6</ele>
        <time>2010-05-16T08:48:35Z</time>
      </trkpt>
      <trkpt lat="46.78986" lon="4.7062">
        <ele>423.12</ele>
        <time>2010-05-16T08:48:37Z</time>
      </trkpt>
      <trkpt lat="46.79017" lon="4.70629">
        <ele>421.19</ele>
        <time>2010-05-16T08:48:42Z</time>
      </trkpt>
      <trkpt lat="46.79064" lon="4.70649">
        <ele>417.83</ele>
        <time>2010-05-16T08:48:48Z</time>
      </trkpt>
      <trkpt lat="46.79081" lon="4.70653">
        <ele>416.87</ele>
        <time>2010-05-16T08:48:50Z</time>
      </trkpt>
      <trkpt lat="46.79089" lon="4.70653">
        <ele>416.39</ele>
        <time>2010-05-16T08:48:51Z</time>
      </trkpt>
      <trkpt lat="46.79098" lon="4.70653">
        <ele>415.91</ele>
        <time>2010-05-16T08:48:52Z</time>
      </trkpt>
      <trkpt lat="46.79105" lon="4.70653">
        <ele>414.95</ele>
        <time>2010-05-16T08:48:53Z</time>
      </trkpt>
      <trkpt lat="46.79128" lon="4.70659">
        <ele>413.02</ele>
        <time>2010-05-16T08:48:56Z</time>
      </trkpt>
      <trkpt lat="46.79134" lon="4.70664">
        <ele>412.54</ele>
        <time>2010-05-16T08:48:57Z</time>
      </trkpt>
      <trkpt lat="46.7914" lon="4.70669">
        <ele>412.06</ele>
        <time>2010-05-16T08:48:58Z</time>
      </trkpt>
      <trkpt lat="46.79146" lon="4.70674">
        <ele>411.58</ele>
        <time>2010-05-16T08:48:59Z</time>
      </trkpt>
      <trkpt lat="46.79152" lon="4.7068">
        <ele>411.1</ele>
        <time>2010-05-16T08:49:00Z</time>
      </trkpt>
      <trkpt lat="46.79196" lon="4.70709">
        <ele>408.7</ele>
        <time>2010-05-16T08:49:06Z</time>
      </trkpt>
      <trkpt lat="46.79204" lon="4.70712">
        <ele>408.22</ele>
        <time>2010-05-16T08:49:07Z</time>
      </trkpt>
      <trkpt lat="46.79219" lon="4.7072">
        <ele>407.26</ele>
        <time>2010-05-16T08:49:09Z</time>
      </trkpt>
      <trkpt lat="46.79227" lon="4.70723">
        <ele>406.77</ele>
        <time>2010-05-16T08:49:10Z</time>
      </trkpt>
      <trkpt lat="46.79266" lon="4.70744">
        <ele>403.89</ele>
        <time>2010-05-16T08:49:15Z</time>
      </trkpt>
      <trkpt lat="46.79274" lon="4.7075">
        <ele>403.89</ele>
        <time>2010-05-16T08:49:16Z</time>
      </trkpt>
      <trkpt lat="46.79305" lon="4.70773">
        <ele>401.97</ele>
        <time>2010-05-16T08:49:20Z</time>
      </trkpt>
      <trkpt lat="46.79337" lon="4.70787">
        <ele>398.6</ele>
        <time>2010-05-16T08:49:24Z</time>
      </trkpt>
      <trkpt lat="46.79387" lon="4.70803">
        <ele>395.72</ele>
        <time>2010-05-16T08:49:30Z</time>
      </trkpt>
      <trkpt lat="46.79403" lon="4.7081">
        <ele>394.76</ele>
        <time>2010-05-16T08:49:32Z</time>
      </trkpt>
      <trkpt lat="46.79411" lon="4.70815">
        <ele>393.8</ele>
        <time>2010-05-16T08:49:33Z</time>
      </trkpt>
      <trkpt lat="46.79419" lon="4.70822">
        <ele>393.32</ele>
        <time>2010-05-16T08:49:34Z</time>
      </trkpt>
      <trkpt lat="46.79427" lon="4.70827">
        <ele>392.84</ele>
        <time>2010-05-16T08:49:35Z</time>
      </trkpt>
      <trkpt lat="46.79435" lon="4.70832">
        <ele>391.87</ele>
        <time>2010-05-16T08:49:36Z</time>
      </trkpt>
      <trkpt lat="46.79473" lon="4.70846">
        <ele>388.51</ele>
        <time>2010-05-16T08:49:40Z</time>
      </trkpt>
      <trkpt lat="46.79493" lon="4.7085">
        <ele>387.07</ele>
        <time>2010-05-16T08:49:42Z</time>
      </trkpt>
      <trkpt lat="46.79529" lon="4.70868">
        <ele>383.7</ele>
        <time>2010-05-16T08:49:46Z</time>
      </trkpt>
      <trkpt lat="46.79536" lon="4.70874">
        <ele>381.78</ele>
        <time>2010-05-16T08:49:47Z</time>
      </trkpt>
      <trkpt lat="46.79555" lon="4.70891">
        <ele>378.9</ele>
        <time>2010-05-16T08:49:50Z</time>
      </trkpt>
      <trkpt lat="46.79574" lon="4.70904">
        <ele>376.97</ele>
        <time>2010-05-16T08:49:53Z</time>
      </trkpt>
      <trkpt lat="46.79578" lon="4.7091">
        <ele>376.01</ele>
        <time>2010-05-16T08:49:54Z</time>
      </trkpt>
      <trkpt lat="46.7958" lon="4.70917">
        <ele>376.49</ele>
        <time>2010-05-16T08:49:55Z</time>
      </trkpt>
      <trkpt lat="46.7958" lon="4.70924">
        <ele>376.01</ele>
        <time>2010-05-16T08:49:56Z</time>
      </trkpt>
      <trkpt lat="46.79577" lon="4.7093">
        <ele>376.49</ele>
        <time>2010-05-16T08:49:57Z</time>
      </trkpt>
      <trkpt lat="46.79575" lon="4.70934">
        <ele>376.01</ele>
        <time>2010-05-16T08:49:58Z</time>
      </trkpt>
      <trkpt lat="46.79572" lon="4.70939">
        <ele>376.49</ele>
        <time>2010-05-16T08:49:59Z</time>
      </trkpt>
      <trkpt lat="46.79569" lon="4.70944">
        <ele>376.49</ele>
        <time>2010-05-16T08:50:00Z</time>
      </trkpt>
      <trkpt lat="46.79565" lon="4.70948">
        <ele>376.97</ele>
        <time>2010-05-16T08:50:01Z</time>
      </trkpt>
      <trkpt lat="46.79552" lon="4.70972">
        <ele>378.42</ele>
        <time>2010-05-16T08:50:06Z</time>
      </trkpt>
      <trkpt lat="46.79549" lon="4.70977">
        <ele>378.42</ele>
        <time>2010-05-16T08:50:07Z</time>
      </trkpt>
      <trkpt lat="46.79541" lon="4.7099">
        <ele>377.94</ele>
        <time>2010-05-16T08:50:10Z</time>
      </trkpt>
      <trkpt lat="46.79538" lon="4.70995">
        <ele>377.94</ele>
        <time>2010-05-16T08:50:11Z</time>
      </trkpt>
      <trkpt lat="46.79536" lon="4.71">
        <ele>378.42</ele>
        <time>2010-05-16T08:50:12Z</time>
      </trkpt>
      <trkpt lat="46.79529" lon="4.71017">
        <ele>378.9</ele>
        <time>2010-05-16T08:50:16Z</time>
      </trkpt>
      <trkpt lat="46.79519" lon="4.71037">
        <ele>379.38</ele>
        <time>2010-05-16T08:50:22Z</time>
      </trkpt>
      <trkpt lat="46.79516" lon="4.71066">
        <ele>378.42</ele>
        <time>2010-05-16T08:50:28Z</time>
      </trkpt>
      <trkpt lat="46.79516" lon="4.71073">
        <ele>378.42</ele>
        <time>2010-05-16T08:50:29Z</time>
      </trkpt>
      <trkpt lat="46.79518" lon="4.7108">
        <ele>378.42</ele>
        <time>2010-05-16T08:50:30Z</time>
      </trkpt>
      <trkpt lat="46.79519" lon="4.71087">
        <ele>377.94</ele>
        <time>2010-05-16T08:50:31Z</time>
      </trkpt>
      <trkpt lat="46.79521" lon="4.71094">
        <ele>377.94</ele>
        <time>2010-05-16T08:50:32Z</time>
      </trkpt>
      <trkpt lat="46.79527" lon="4.71117">
        <ele>377.45</ele>
        <time>2010-05-16T08:50:35Z</time>
      </trkpt>
      <trkpt lat="46.79532" lon="4.71132">
        <ele>376.49</ele>
        <time>2010-05-16T08:50:37Z</time>
      </trkpt>
      <trkpt lat="46.79556" lon="4.71178">
        <ele>374.09</ele>
        <time>2010-05-16T08:50:43Z</time>
      </trkpt>
      <trkpt lat="46.79564" lon="4.71196">
        <ele>373.13</ele>
        <time>2010-05-16T08:50:45Z</time>
      </trkpt>
      <trkpt lat="46.79567" lon="4.71206">
        <ele>372.65</ele>
        <time>2010-05-16T08:50:46Z</time>
      </trkpt>
      <trkpt lat="46.79568" lon="4.71218">
        <ele>372.17</ele>
        <time>2010-05-16T08:50:47Z</time>
      </trkpt>
      <trkpt lat="46.7957" lon="4.71229">
        <ele>371.69</ele>
        <time>2010-05-16T08:50:48Z</time>
      </trkpt>
      <trkpt lat="46.79574" lon="4.71238">
        <ele>371.21</ele>
        <time>2010-05-16T08:50:49Z</time>
      </trkpt>
      <trkpt lat="46.79578" lon="4.71245">
        <ele>370.24</ele>
        <time>2010-05-16T08:50:50Z</time>
      </trkpt>
      <trkpt lat="46.79585" lon="4.71252">
        <ele>369.76</ele>
        <time>2010-05-16T08:50:51Z</time>
      </trkpt>
      <trkpt lat="46.79591" lon="4.71258">
        <ele>368.8</ele>
        <time>2010-05-16T08:50:52Z</time>
      </trkpt>
      <trkpt lat="46.79597" lon="4.71264">
        <ele>368.8</ele>
        <time>2010-05-16T08:50:53Z</time>
      </trkpt>
      <trkpt lat="46.79607" lon="4.71278">
        <ele>368.32</ele>
        <time>2010-05-16T08:50:55Z</time>
      </trkpt>
      <trkpt lat="46.79612" lon="4.71285">
        <ele>367.84</ele>
        <time>2010-05-16T08:50:56Z</time>
      </trkpt>
      <trkpt lat="46.79631" lon="4.71315">
        <ele>366.4</ele>
        <time>2010-05-16T08:51:00Z</time>
      </trkpt>
      <trkpt lat="46.79637" lon="4.7132">
        <ele>366.88</ele>
        <time>2010-05-16T08:51:01Z</time>
      </trkpt>
      <trkpt lat="46.79661" lon="4.71336">
        <ele>366.88</ele>
        <time>2010-05-16T08:51:05Z</time>
      </trkpt>
      <trkpt lat="46.79677" lon="4.71351">
        <ele>365.92</ele>
        <time>2010-05-16T08:51:08Z</time>
      </trkpt>
      <trkpt lat="46.79688" lon="4.7136">
        <ele>364.96</ele>
        <time>2010-05-16T08:51:10Z</time>
      </trkpt>
      <trkpt lat="46.79691" lon="4.71364">
        <ele>364</ele>
        <time>2010-05-16T08:51:11Z</time>
      </trkpt>
      <trkpt lat="46.79692" lon="4.71368">
        <ele>364</ele>
        <time>2010-05-16T08:51:12Z</time>
      </trkpt>
      <trkpt lat="46.79693" lon="4.71373">
        <ele>363.04</ele>
        <time>2010-05-16T08:51:13Z</time>
      </trkpt>
      <trkpt lat="46.79692" lon="4.71379">
        <ele>363.04</ele>
        <time>2010-05-16T08:51:14Z</time>
      </trkpt>
      <trkpt lat="46.79692" lon="4.71386">
        <ele>363.04</ele>
        <time>2010-05-16T08:51:15Z</time>
      </trkpt>
      <trkpt lat="46.79691" lon="4.71393">
        <ele>363.04</ele>
        <time>2010-05-16T08:51:16Z</time>
      </trkpt>
      <trkpt lat="46.7969" lon="4.714">
        <ele>362.55</ele>
        <time>2010-05-16T08:51:17Z</time>
      </trkpt>
      <trkpt lat="46.79689" lon="4.71407">
        <ele>362.07</ele>
        <time>2010-05-16T08:51:18Z</time>
      </trkpt>
      <trkpt lat="46.79688" lon="4.71414">
        <ele>361.59</ele>
        <time>2010-05-16T08:51:19Z</time>
      </trkpt>
      <trkpt lat="46.7968" lon="4.71459">
        <ele>359.19</ele>
        <time>2010-05-16T08:51:24Z</time>
      </trkpt>
      <trkpt lat="46.79675" lon="4.71488">
        <ele>357.75</ele>
        <time>2010-05-16T08:51:27Z</time>
      </trkpt>
      <trkpt lat="46.79673" lon="4.71498">
        <ele>357.27</ele>
        <time>2010-05-16T08:51:28Z</time>
      </trkpt>
      <trkpt lat="46.79672" lon="4.71512">
        <ele>356.79</ele>
        <time>2010-05-16T08:51:30Z</time>
      </trkpt>
      <trkpt lat="46.79673" lon="4.71518">
        <ele>356.31</ele>
        <time>2010-05-16T08:51:31Z</time>
      </trkpt>
      <trkpt lat="46.79674" lon="4.71523">
        <ele>356.31</ele>
        <time>2010-05-16T08:51:32Z</time>
      </trkpt>
      <trkpt lat="46.79676" lon="4.71528">
        <ele>356.79</ele>
        <time>2010-05-16T08:51:33Z</time>
      </trkpt>
      <trkpt lat="46.79679" lon="4.71533">
        <ele>356.31</ele>
        <time>2010-05-16T08:51:34Z</time>
      </trkpt>
      <trkpt lat="46.79683" lon="4.71536">
        <ele>356.31</ele>
        <time>2010-05-16T08:51:35Z</time>
      </trkpt>
      <trkpt lat="46.79692" lon="4.71544">
        <ele>356.79</ele>
        <time>2010-05-16T08:51:37Z</time>
      </trkpt>
      <trkpt lat="46.79725" lon="4.7156">
        <ele>356.79</ele>
        <time>2010-05-16T08:51:44Z</time>
      </trkpt>
      <trkpt lat="46.79754" lon="4.71564">
        <ele>356.31</ele>
        <time>2010-05-16T08:51:50Z</time>
      </trkpt>
      <trkpt lat="46.79785" lon="4.71561">
        <ele>354.38</ele>
        <time>2010-05-16T08:51:56Z</time>
      </trkpt>
      <trkpt lat="46.79823" lon="4.71555">
        <ele>351.98</ele>
        <time>2010-05-16T08:52:02Z</time>
      </trkpt>
      <trkpt lat="46.79838" lon="4.71555">
        <ele>350.06</ele>
        <time>2010-05-16T08:52:04Z</time>
      </trkpt>
      <trkpt lat="46.79845" lon="4.71556">
        <ele>349.1</ele>
        <time>2010-05-16T08:52:05Z</time>
      </trkpt>
      <trkpt lat="46.79868" lon="4.71561">
        <ele>345.25</ele>
        <time>2010-05-16T08:52:08Z</time>
      </trkpt>
      <trkpt lat="46.7989" lon="4.71567">
        <ele>341.89</ele>
        <time>2010-05-16T08:52:11Z</time>
      </trkpt>
      <trkpt lat="46.79905" lon="4.71572">
        <ele>339</ele>
        <time>2010-05-16T08:52:13Z</time>
      </trkpt>
      <trkpt lat="46.79934" lon="4.71584">
        <ele>334.68</ele>
        <time>2010-05-16T08:52:17Z</time>
      </trkpt>
      <trkpt lat="46.79954" lon="4.71592">
        <ele>331.31</ele>
        <time>2010-05-16T08:52:20Z</time>
      </trkpt>
      <trkpt lat="46.79981" lon="4.71605">
        <ele>327.47</ele>
        <time>2010-05-16T08:52:24Z</time>
      </trkpt>
      <trkpt lat="46.80011" lon="4.71617">
        <ele>322.66</ele>
        <time>2010-05-16T08:52:28Z</time>
      </trkpt>
      <trkpt lat="46.80018" lon="4.7162">
        <ele>321.7</ele>
        <time>2010-05-16T08:52:29Z</time>
      </trkpt>
      <trkpt lat="46.80025" lon="4.71623">
        <ele>320.74</ele>
        <time>2010-05-16T08:52:30Z</time>
      </trkpt>
      <trkpt lat="46.80032" lon="4.71627">
        <ele>320.26</ele>
        <time>2010-05-16T08:52:31Z</time>
      </trkpt>
      <trkpt lat="46.8004" lon="4.7163">
        <ele>319.78</ele>
        <time>2010-05-16T08:52:32Z</time>
      </trkpt>
      <trkpt lat="46.80048" lon="4.71632">
        <ele>318.81</ele>
        <time>2010-05-16T08:52:33Z</time>
      </trkpt>
      <trkpt lat="46.80055" lon="4.71634">
        <ele>316.89</ele>
        <time>2010-05-16T08:52:34Z</time>
      </trkpt>
      <trkpt lat="46.80061" lon="4.71634">
        <ele>315.45</ele>
        <time>2010-05-16T08:52:35Z</time>
      </trkpt>
      <trkpt lat="46.80067" lon="4.71634">
        <ele>314.97</ele>
        <time>2010-05-16T08:52:36Z</time>
      </trkpt>
      <trkpt lat="46.80074" lon="4.71633">
        <ele>313.53</ele>
        <time>2010-05-16T08:52:37Z</time>
      </trkpt>
      <trkpt lat="46.80089" lon="4.71633">
        <ele>311.6</ele>
        <time>2010-05-16T08:52:39Z</time>
      </trkpt>
      <trkpt lat="46.80107" lon="4.71636">
        <ele>309.2</ele>
        <time>2010-05-16T08:52:41Z</time>
      </trkpt>
      <trkpt lat="46.80114" lon="4.71638">
        <ele>309.2</ele>
        <time>2010-05-16T08:52:42Z</time>
      </trkpt>
      <trkpt lat="46.80121" lon="4.7164">
        <ele>308.72</ele>
        <time>2010-05-16T08:52:43Z</time>
      </trkpt>
      <trkpt lat="46.80158" lon="4.71649">
        <ele>307.28</ele>
        <time>2010-05-16T08:52:48Z</time>
      </trkpt>
      <trkpt lat="46.80165" lon="4.7165">
        <ele>306.8</ele>
        <time>2010-05-16T08:52:49Z</time>
      </trkpt>
      <trkpt lat="46.80174" lon="4.71651">
        <ele>305.84</ele>
        <time>2010-05-16T08:52:50Z</time>
      </trkpt>
      <trkpt lat="46.80191" lon="4.7165">
        <ele>304.39</ele>
        <time>2010-05-16T08:52:52Z</time>
      </trkpt>
      <trkpt lat="46.802" lon="4.71649">
        <ele>303.43</ele>
        <time>2010-05-16T08:52:53Z</time>
      </trkpt>
      <trkpt lat="46.80211" lon="4.71649">
        <ele>302.95</ele>
        <time>2010-05-16T08:52:54Z</time>
      </trkpt>
      <trkpt lat="46.80255" lon="4.71655">
        <ele>299.11</ele>
        <time>2010-05-16T08:52:59Z</time>
      </trkpt>
      <trkpt lat="46.80264" lon="4.71657">
        <ele>298.63</ele>
        <time>2010-05-16T08:53:00Z</time>
      </trkpt>
      <trkpt lat="46.80298" lon="4.71665">
        <ele>295.26</ele>
        <time>2010-05-16T08:53:04Z</time>
      </trkpt>
      <trkpt lat="46.80331" lon="4.71667">
        <ele>291.9</ele>
        <time>2010-05-16T08:53:08Z</time>
      </trkpt>
      <trkpt lat="46.80349" lon="4.71668">
        <ele>289.97</ele>
        <time>2010-05-16T08:53:10Z</time>
      </trkpt>
      <trkpt lat="46.80357" lon="4.71671">
        <ele>288.53</ele>
        <time>2010-05-16T08:53:11Z</time>
      </trkpt>
      <trkpt lat="46.80366" lon="4.71675">
        <ele>288.05</ele>
        <time>2010-05-16T08:53:12Z</time>
      </trkpt>
      <trkpt lat="46.80392" lon="4.71686">
        <ele>286.13</ele>
        <time>2010-05-16T08:53:15Z</time>
      </trkpt>
      <trkpt lat="46.804" lon="4.71688">
        <ele>284.69</ele>
        <time>2010-05-16T08:53:16Z</time>
      </trkpt>
      <trkpt lat="46.80408" lon="4.71691">
        <ele>283.25</ele>
        <time>2010-05-16T08:53:17Z</time>
      </trkpt>
      <trkpt lat="46.80415" lon="4.71695">
        <ele>282.28</ele>
        <time>2010-05-16T08:53:18Z</time>
      </trkpt>
      <trkpt lat="46.80421" lon="4.71699">
        <ele>280.84</ele>
        <time>2010-05-16T08:53:19Z</time>
      </trkpt>
      <trkpt lat="46.80428" lon="4.71703">
        <ele>280.36</ele>
        <time>2010-05-16T08:53:20Z</time>
      </trkpt>
      <trkpt lat="46.80434" lon="4.71708">
        <ele>280.36</ele>
        <time>2010-05-16T08:53:21Z</time>
      </trkpt>
      <trkpt lat="46.80447" lon="4.71722">
        <ele>278.92</ele>
        <time>2010-05-16T08:53:23Z</time>
      </trkpt>
      <trkpt lat="46.80453" lon="4.7173">
        <ele>278.44</ele>
        <time>2010-05-16T08:53:24Z</time>
      </trkpt>
      <trkpt lat="46.80458" lon="4.71737">
        <ele>278.44</ele>
        <time>2010-05-16T08:53:25Z</time>
      </trkpt>
      <trkpt lat="46.80478" lon="4.71765">
        <ele>274.59</ele>
        <time>2010-05-16T08:53:29Z</time>
      </trkpt>
      <trkpt lat="46.80489" lon="4.71771">
        <ele>272.19</ele>
        <time>2010-05-16T08:53:32Z</time>
      </trkpt>
      <trkpt lat="46.80494" lon="4.71772">
        <ele>271.71</ele>
        <time>2010-05-16T08:53:33Z</time>
      </trkpt>
      <trkpt lat="46.80498" lon="4.71772">
        <ele>271.23</ele>
        <time>2010-05-16T08:53:34Z</time>
      </trkpt>
      <trkpt lat="46.80507" lon="4.71771">
        <ele>269.79</ele>
        <time>2010-05-16T08:53:36Z</time>
      </trkpt>
      <trkpt lat="46.80515" lon="4.71769">
        <ele>268.83</ele>
        <time>2010-05-16T08:53:38Z</time>
      </trkpt>
      <trkpt lat="46.80518" lon="4.71769">
        <ele>268.35</ele>
        <time>2010-05-16T08:53:39Z</time>
      </trkpt>
      <trkpt lat="46.8052" lon="4.7177">
        <ele>267.86</ele>
        <time>2010-05-16T08:53:43Z</time>
      </trkpt>
      <trkpt lat="46.8052" lon="4.7177">
        <ele>267.86</ele>
        <time>2010-05-16T08:54:06Z</time>
      </trkpt>
      <trkpt lat="46.8052" lon="4.7177">
        <ele>267.38</ele>
        <time>2010-05-16T08:54:43Z</time>
      </trkpt>
      <trkpt lat="46.8052" lon="4.7177">
        <ele>267.86</ele>
        <time>2010-05-16T08:54:55Z</time>
      </trkpt>
      <trkpt lat="46.80521" lon="4.7177">
        <ele>267.38</ele>
        <time>2010-05-16T08:55:32Z</time>
      </trkpt>
      <trkpt lat="46.80521" lon="4.71768">
        <ele>267.86</ele>
        <time>2010-05-16T08:56:39Z</time>
      </trkpt>
      <trkpt lat="46.80519" lon="4.71768">
        <ele>267.86</ele>
        <time>2010-05-16T08:58:32Z</time>
      </trkpt>
      <trkpt lat="46.80525" lon="4.71772">
        <ele>267.38</ele>
        <time>2010-05-16T08:58:43Z</time>
      </trkpt>
      <trkpt lat="46.80543" lon="4.71785">
        <ele>266.42</ele>
        <time>2010-05-16T08:58:48Z</time>
      </trkpt>
      <trkpt lat="46.80571" lon="4.71805">
        <ele>264.02</ele>
        <time>2010-05-16T08:58:54Z</time>
      </trkpt>
      <trkpt lat="46.80607" lon="4.71825">
        <ele>260.17</ele>
        <time>2010-05-16T08:59:00Z</time>
      </trkpt>
      <trkpt lat="46.80632" lon="4.71839">
        <ele>258.25</ele>
        <time>2010-05-16T08:59:05Z</time>
      </trkpt>
      <trkpt lat="46.80645" lon="4.71845">
        <ele>257.29</ele>
        <time>2010-05-16T08:59:07Z</time>
      </trkpt>
      <trkpt lat="46.80658" lon="4.71851">
        <ele>255.85</ele>
        <time>2010-05-16T08:59:09Z</time>
      </trkpt>
      <trkpt lat="46.80664" lon="4.71853">
        <ele>255.85</ele>
        <time>2010-05-16T08:59:10Z</time>
      </trkpt>
      <trkpt lat="46.80708" lon="4.7187">
        <ele>252</ele>
        <time>2010-05-16T08:59:16Z</time>
      </trkpt>
      <trkpt lat="46.80745" lon="4.71885">
        <ele>247.68</ele>
        <time>2010-05-16T08:59:21Z</time>
      </trkpt>
      <trkpt lat="46.80786" lon="4.71905">
        <ele>244.79</ele>
        <time>2010-05-16T08:59:27Z</time>
      </trkpt>
      <trkpt lat="46.80792" lon="4.71909">
        <ele>243.83</ele>
        <time>2010-05-16T08:59:28Z</time>
      </trkpt>
      <trkpt lat="46.80801" lon="4.71914">
        <ele>242.87</ele>
        <time>2010-05-16T08:59:30Z</time>
      </trkpt>
      <trkpt lat="46.80812" lon="4.71921">
        <ele>241.91</ele>
        <time>2010-05-16T08:59:33Z</time>
      </trkpt>
      <trkpt lat="46.80816" lon="4.71923">
        <ele>241.43</ele>
        <time>2010-05-16T08:59:34Z</time>
      </trkpt>
      <trkpt lat="46.80821" lon="4.71924">
        <ele>240.47</ele>
        <time>2010-05-16T08:59:35Z</time>
      </trkpt>
      <trkpt lat="46.80826" lon="4.71924">
        <ele>240.47</ele>
        <time>2010-05-16T08:59:36Z</time>
      </trkpt>
      <trkpt lat="46.80832" lon="4.71924">
        <ele>239.51</ele>
        <time>2010-05-16T08:59:37Z</time>
      </trkpt>
      <trkpt lat="46.80837" lon="4.71925">
        <ele>239.02</ele>
        <time>2010-05-16T08:59:38Z</time>
      </trkpt>
      <trkpt lat="46.80843" lon="4.71926">
        <ele>238.06</ele>
        <time>2010-05-16T08:59:39Z</time>
      </trkpt>
      <trkpt lat="46.80849" lon="4.71929">
        <ele>238.06</ele>
        <time>2010-05-16T08:59:40Z</time>
      </trkpt>
      <trkpt lat="46.80855" lon="4.71932">
        <ele>237.58</ele>
        <time>2010-05-16T08:59:41Z</time>
      </trkpt>
      <trkpt lat="46.80862" lon="4.71936">
        <ele>237.1</ele>
        <time>2010-05-16T08:59:42Z</time>
      </trkpt>
      <trkpt lat="46.80876" lon="4.71946">
        <ele>236.14</ele>
        <time>2010-05-16T08:59:44Z</time>
      </trkpt>
      <trkpt lat="46.80919" lon="4.71976">
        <ele>232.78</ele>
        <time>2010-05-16T08:59:50Z</time>
      </trkpt>
      <trkpt lat="46.80964" lon="4.72002">
        <ele>230.37</ele>
        <time>2010-05-16T08:59:56Z</time>
      </trkpt>
      <trkpt lat="46.80987" lon="4.7201">
        <ele>228.93</ele>
        <time>2010-05-16T08:59:59Z</time>
      </trkpt>
      <trkpt lat="46.81005" lon="4.72012">
        <ele>227.01</ele>
        <time>2010-05-16T09:00:02Z</time>
      </trkpt>
      <trkpt lat="46.8101" lon="4.72011">
        <ele>226.05</ele>
        <time>2010-05-16T09:00:03Z</time>
      </trkpt>
      <trkpt lat="46.81029" lon="4.72007">
        <ele>224.61</ele>
        <time>2010-05-16T09:00:06Z</time>
      </trkpt>
      <trkpt lat="46.81035" lon="4.72008">
        <ele>223.16</ele>
        <time>2010-05-16T09:00:07Z</time>
      </trkpt>
      <trkpt lat="46.81042" lon="4.72009">
        <ele>222.2</ele>
        <time>2010-05-16T09:00:08Z</time>
      </trkpt>
      <trkpt lat="46.81048" lon="4.72012">
        <ele>220.76</ele>
        <time>2010-05-16T09:00:09Z</time>
      </trkpt>
      <trkpt lat="46.81054" lon="4.72016">
        <ele>220.28</ele>
        <time>2010-05-16T09:00:10Z</time>
      </trkpt>
      <trkpt lat="46.8106" lon="4.72021">
        <ele>219.8</ele>
        <time>2010-05-16T09:00:11Z</time>
      </trkpt>
      <trkpt lat="46.81065" lon="4.72027">
        <ele>218.84</ele>
        <time>2010-05-16T09:00:12Z</time>
      </trkpt>
      <trkpt lat="46.81069" lon="4.72033">
        <ele>217.88</ele>
        <time>2010-05-16T09:00:13Z</time>
      </trkpt>
      <trkpt lat="46.81072" lon="4.7204">
        <ele>217.88</ele>
        <time>2010-05-16T09:00:14Z</time>
      </trkpt>
      <trkpt lat="46.81074" lon="4.72047">
        <ele>217.4</ele>
        <time>2010-05-16T09:00:15Z</time>
      </trkpt>
      <trkpt lat="46.81078" lon="4.72052">
        <ele>217.4</ele>
        <time>2010-05-16T09:00:16Z</time>
      </trkpt>
      <trkpt lat="46.81081" lon="4.72056">
        <ele>216.91</ele>
        <time>2010-05-16T09:00:17Z</time>
      </trkpt>
      <trkpt lat="46.81084" lon="4.72059">
        <ele>215.95</ele>
        <time>2010-05-16T09:00:18Z</time>
      </trkpt>
      <trkpt lat="46.81086" lon="4.72061">
        <ele>215.95</ele>
        <time>2010-05-16T09:00:19Z</time>
      </trkpt>
      <trkpt lat="46.81089" lon="4.72062">
        <ele>215.95</ele>
        <time>2010-05-16T09:00:20Z</time>
      </trkpt>
      <trkpt lat="46.81094" lon="4.72064">
        <ele>214.51</ele>
        <time>2010-05-16T09:00:25Z</time>
      </trkpt>
      <trkpt lat="46.81094" lon="4.72065">
        <ele>214.51</ele>
        <time>2010-05-16T09:00:32Z</time>
      </trkpt>
      <trkpt lat="46.81098" lon="4.72084">
        <ele>214.51</ele>
        <time>2010-05-16T09:00:38Z</time>
      </trkpt>
      <trkpt lat="46.81101" lon="4.72112">
        <ele>214.51</ele>
        <time>2010-05-16T09:00:43Z</time>
      </trkpt>
      <trkpt lat="46.81102" lon="4.72118">
        <ele>214.51</ele>
        <time>2010-05-16T09:00:44Z</time>
      </trkpt>
      <trkpt lat="46.81103" lon="4.72144">
        <ele>214.51</ele>
        <time>2010-05-16T09:00:48Z</time>
      </trkpt>
      <trkpt lat="46.81103" lon="4.72159">
        <ele>214.51</ele>
        <time>2010-05-16T09:00:50Z</time>
      </trkpt>
      <trkpt lat="46.81103" lon="4.72166">
        <ele>214.51</ele>
        <time>2010-05-16T09:00:51Z</time>
      </trkpt>
      <trkpt lat="46.81101" lon="4.72235">
        <ele>214.51</ele>
        <time>2010-05-16T09:01:00Z</time>
      </trkpt>
      <trkpt lat="46.811" lon="4.72243">
        <ele>214.03</ele>
        <time>2010-05-16T09:01:01Z</time>
      </trkpt>
      <trkpt lat="46.81097" lon="4.72259">
        <ele>214.03</ele>
        <time>2010-05-16T09:01:03Z</time>
      </trkpt>
      <trkpt lat="46.81092" lon="4.72283">
        <ele>213.55</ele>
        <time>2010-05-16T09:01:06Z</time>
      </trkpt>
      <trkpt lat="46.81084" lon="4.72316">
        <ele>213.07</ele>
        <time>2010-05-16T09:01:10Z</time>
      </trkpt>
      <trkpt lat="46.81068" lon="4.72374">
        <ele>212.59</ele>
        <time>2010-05-16T09:01:17Z</time>
      </trkpt>
      <trkpt lat="46.81061" lon="4.72408">
        <ele>212.11</ele>
        <time>2010-05-16T09:01:21Z</time>
      </trkpt>
      <trkpt lat="46.81057" lon="4.72415">
        <ele>212.11</ele>
        <time>2010-05-16T09:01:22Z</time>
      </trkpt>
      <trkpt lat="46.81053" lon="4.7242">
        <ele>212.11</ele>
        <time>2010-05-16T09:01:23Z</time>
      </trkpt>
      <trkpt lat="46.81048" lon="4.72425">
        <ele>212.11</ele>
        <time>2010-05-16T09:01:24Z</time>
      </trkpt>
      <trkpt lat="46.81043" lon="4.72429">
        <ele>212.11</ele>
        <time>2010-05-16T09:01:25Z</time>
      </trkpt>
      <trkpt lat="46.81027" lon="4.72439">
        <ele>212.11</ele>
        <time>2010-05-16T09:01:28Z</time>
      </trkpt>
      <trkpt lat="46.81022" lon="4.72442">
        <ele>212.11</ele>
        <time>2010-05-16T09:01:29Z</time>
      </trkpt>
      <trkpt lat="46.8101" lon="4.72447">
        <ele>212.11</ele>
        <time>2010-05-16T09:01:31Z</time>
      </trkpt>
      <trkpt lat="46.80999" lon="4.72453">
        <ele>211.63</ele>
        <time>2010-05-16T09:01:33Z</time>
      </trkpt>
      <trkpt lat="46.80989" lon="4.72459">
        <ele>211.63</ele>
        <time>2010-05-16T09:01:35Z</time>
      </trkpt>
      <trkpt lat="46.80985" lon="4.72464">
        <ele>212.59</ele>
        <time>2010-05-16T09:01:36Z</time>
      </trkpt>
      <trkpt lat="46.80983" lon="4.7247">
        <ele>212.59</ele>
        <time>2010-05-16T09:01:37Z</time>
      </trkpt>
      <trkpt lat="46.80982" lon="4.72477">
        <ele>212.59</ele>
        <time>2010-05-16T09:01:38Z</time>
      </trkpt>
      <trkpt lat="46.80981" lon="4.72484">
        <ele>212.59</ele>
        <time>2010-05-16T09:01:39Z</time>
      </trkpt>
      <trkpt lat="46.8098" lon="4.72492">
        <ele>213.07</ele>
        <time>2010-05-16T09:01:40Z</time>
      </trkpt>
      <trkpt lat="46.80978" lon="4.72561">
        <ele>212.59</ele>
        <time>2010-05-16T09:01:49Z</time>
      </trkpt>
      <trkpt lat="46.80978" lon="4.7257">
        <ele>212.59</ele>
        <time>2010-05-16T09:01:50Z</time>
      </trkpt>
      <trkpt lat="46.80979" lon="4.72578">
        <ele>212.59</ele>
        <time>2010-05-16T09:01:51Z</time>
      </trkpt>
      <trkpt lat="46.80981" lon="4.72594">
        <ele>212.11</ele>
        <time>2010-05-16T09:01:53Z</time>
      </trkpt>
      <trkpt lat="46.80983" lon="4.72602">
        <ele>212.59</ele>
        <time>2010-05-16T09:01:54Z</time>
      </trkpt>
      <trkpt lat="46.80987" lon="4.72617">
        <ele>212.11</ele>
        <time>2010-05-16T09:01:56Z</time>
      </trkpt>
      <trkpt lat="46.80991" lon="4.72641">
        <ele>212.59</ele>
        <time>2010-05-16T09:01:59Z</time>
      </trkpt>
      <trkpt lat="46.80992" lon="4.72649">
        <ele>212.11</ele>
        <time>2010-05-16T09:02:00Z</time>
      </trkpt>
      <trkpt lat="46.80993" lon="4.72657">
        <ele>212.11</ele>
        <time>2010-05-16T09:02:01Z</time>
      </trkpt>
      <trkpt lat="46.80994" lon="4.72679">
        <ele>211.63</ele>
        <time>2010-05-16T09:02:04Z</time>
      </trkpt>
      <trkpt lat="46.80992" lon="4.72684">
        <ele>211.63</ele>
        <time>2010-05-16T09:02:05Z</time>
      </trkpt>
      <trkpt lat="46.80989" lon="4.72686">
        <ele>211.63</ele>
        <time>2010-05-16T09:02:06Z</time>
      </trkpt>
      <trkpt lat="46.80986" lon="4.72688">
        <ele>211.63</ele>
        <time>2010-05-16T09:02:07Z</time>
      </trkpt>
      <trkpt lat="46.80982" lon="4.72688">
        <ele>211.63</ele>
        <time>2010-05-16T09:02:08Z</time>
      </trkpt>
      <trkpt lat="46.80978" lon="4.72688">
        <ele>211.63</ele>
        <time>2010-05-16T09:02:09Z</time>
      </trkpt>
      <trkpt lat="46.80975" lon="4.72688">
        <ele>212.11</ele>
        <time>2010-05-16T09:02:10Z</time>
      </trkpt>
      <trkpt lat="46.80947" lon="4.72685">
        <ele>211.63</ele>
        <time>2010-05-16T09:02:17Z</time>
      </trkpt>
      <trkpt lat="46.80922" lon="4.72699">
        <ele>213.07</ele>
        <time>2010-05-16T09:02:24Z</time>
      </trkpt>
      <trkpt lat="46.80894" lon="4.72721">
        <ele>213.55</ele>
        <time>2010-05-16T09:02:32Z</time>
      </trkpt>
      <trkpt lat="46.80886" lon="4.72748">
        <ele>214.51</ele>
        <time>2010-05-16T09:02:38Z</time>
      </trkpt>
      <trkpt lat="46.80876" lon="4.72778">
        <ele>214.99</ele>
        <time>2010-05-16T09:02:45Z</time>
      </trkpt>
      <trkpt lat="46.80854" lon="4.72797">
        <ele>215.47</ele>
        <time>2010-05-16T09:02:52Z</time>
      </trkpt>
      <trkpt lat="46.80824" lon="4.72818">
        <ele>216.43</ele>
        <time>2010-05-16T09:03:00Z</time>
      </trkpt>
      <trkpt lat="46.80786" lon="4.72856">
        <ele>216.43</ele>
        <time>2010-05-16T09:03:09Z</time>
      </trkpt>
      <trkpt lat="46.8075" lon="4.72903">
        <ele>216.43</ele>
        <time>2010-05-16T09:03:18Z</time>
      </trkpt>
      <trkpt lat="46.80724" lon="4.72961">
        <ele>216.91</ele>
        <time>2010-05-16T09:03:27Z</time>
      </trkpt>
      <trkpt lat="46.80714" lon="4.72988">
        <ele>216.91</ele>
        <time>2010-05-16T09:03:31Z</time>
      </trkpt>
      <trkpt lat="46.80699" lon="4.73071">
        <ele>216.43</ele>
        <time>2010-05-16T09:03:42Z</time>
      </trkpt>
      <trkpt lat="46.80697" lon="4.73078">
        <ele>215.95</ele>
        <time>2010-05-16T09:03:43Z</time>
      </trkpt>
      <trkpt lat="46.80694" lon="4.73085">
        <ele>216.43</ele>
        <time>2010-05-16T09:03:44Z</time>
      </trkpt>
      <trkpt lat="46.8069" lon="4.7309">
        <ele>216.43</ele>
        <time>2010-05-16T09:03:45Z</time>
      </trkpt>
      <trkpt lat="46.80685" lon="4.73094">
        <ele>215.95</ele>
        <time>2010-05-16T09:03:46Z</time>
      </trkpt>
      <trkpt lat="46.8068" lon="4.73097">
        <ele>216.43</ele>
        <time>2010-05-16T09:03:47Z</time>
      </trkpt>
      <trkpt lat="46.80675" lon="4.73101">
        <ele>215.95</ele>
        <time>2010-05-16T09:03:48Z</time>
      </trkpt>
      <trkpt lat="46.80615" lon="4.7314">
        <ele>216.91</ele>
        <time>2010-05-16T09:04:00Z</time>
      </trkpt>
      <trkpt lat="46.80573" lon="4.73166">
        <ele>218.84</ele>
        <time>2010-05-16T09:04:10Z</time>
      </trkpt>
      <trkpt lat="46.8055" lon="4.73184">
        <ele>220.28</ele>
        <time>2010-05-16T09:04:17Z</time>
      </trkpt>
      <trkpt lat="46.80526" lon="4.73206">
        <ele>221.24</ele>
        <time>2010-05-16T09:04:25Z</time>
      </trkpt>
      <trkpt lat="46.80491" lon="4.73239">
        <ele>222.68</ele>
        <time>2010-05-16T09:04:36Z</time>
      </trkpt>
      <trkpt lat="46.80465" lon="4.73252">
        <ele>224.12</ele>
        <time>2010-05-16T09:04:44Z</time>
      </trkpt>
      <trkpt lat="46.80446" lon="4.7324">
        <ele>225.09</ele>
        <time>2010-05-16T09:04:50Z</time>
      </trkpt>
      <trkpt lat="46.80423" lon="4.73228">
        <ele>225.57</ele>
        <time>2010-05-16T09:04:57Z</time>
      </trkpt>
      <trkpt lat="46.80399" lon="4.73226">
        <ele>226.53</ele>
        <time>2010-05-16T09:05:04Z</time>
      </trkpt>
      <trkpt lat="46.80371" lon="4.73234">
        <ele>227.49</ele>
        <time>2010-05-16T09:05:12Z</time>
      </trkpt>
      <trkpt lat="46.80346" lon="4.7327">
        <ele>227.49</ele>
        <time>2010-05-16T09:05:21Z</time>
      </trkpt>
      <trkpt lat="46.80314" lon="4.73305">
        <ele>227.97</ele>
        <time>2010-05-16T09:05:30Z</time>
      </trkpt>
      <trkpt lat="46.80283" lon="4.73344">
        <ele>227.49</ele>
        <time>2010-05-16T09:05:39Z</time>
      </trkpt>
      <trkpt lat="46.80273" lon="4.73359">
        <ele>227.49</ele>
        <time>2010-05-16T09:05:42Z</time>
      </trkpt>
      <trkpt lat="46.80251" lon="4.73384">
        <ele>227.97</ele>
        <time>2010-05-16T09:05:48Z</time>
      </trkpt>
      <trkpt lat="46.80238" lon="4.734">
        <ele>229.41</ele>
        <time>2010-05-16T09:05:54Z</time>
      </trkpt>
      <trkpt lat="46.80228" lon="4.73418">
        <ele>231.81</ele>
        <time>2010-05-16T09:06:04Z</time>
      </trkpt>
      <trkpt lat="46.80224" lon="4.73428">
        <ele>232.78</ele>
        <time>2010-05-16T09:06:09Z</time>
      </trkpt>
      <trkpt lat="46.80218" lon="4.73437">
        <ele>234.7</ele>
        <time>2010-05-16T09:06:17Z</time>
      </trkpt>
      <trkpt lat="46.80217" lon="4.73438">
        <ele>235.18</ele>
        <time>2010-05-16T09:06:19Z</time>
      </trkpt>
      <trkpt lat="46.80213" lon="4.73441">
        <ele>235.66</ele>
        <time>2010-05-16T09:06:23Z</time>
      </trkpt>
      <trkpt lat="46.80204" lon="4.73449">
        <ele>237.58</ele>
        <time>2010-05-16T09:06:31Z</time>
      </trkpt>
      <trkpt lat="46.80199" lon="4.73456">
        <ele>239.02</ele>
        <time>2010-05-16T09:06:37Z</time>
      </trkpt>
      <trkpt lat="46.80197" lon="4.73457">
        <ele>239.51</ele>
        <time>2010-05-16T09:06:38Z</time>
      </trkpt>
      <trkpt lat="46.80188" lon="4.73466">
        <ele>241.91</ele>
        <time>2010-05-16T09:06:47Z</time>
      </trkpt>
      <trkpt lat="46.80176" lon="4.73473">
        <ele>243.83</ele>
        <time>2010-05-16T09:06:57Z</time>
      </trkpt>
      <trkpt lat="46.80168" lon="4.7348">
        <ele>246.23</ele>
        <time>2010-05-16T09:07:05Z</time>
      </trkpt>
      <trkpt lat="46.80167" lon="4.73482">
        <ele>246.23</ele>
        <time>2010-05-16T09:07:06Z</time>
      </trkpt>
      <trkpt lat="46.80166" lon="4.73483">
        <ele>246.23</ele>
        <time>2010-05-16T09:07:07Z</time>
      </trkpt>
      <trkpt lat="46.80165" lon="4.73484">
        <ele>246.23</ele>
        <time>2010-05-16T09:07:08Z</time>
      </trkpt>
      <trkpt lat="46.80164" lon="4.73485">
        <ele>246.72</ele>
        <time>2010-05-16T09:07:09Z</time>
      </trkpt>
      <trkpt lat="46.80154" lon="4.73492">
        <ele>249.12</ele>
        <time>2010-05-16T09:07:19Z</time>
      </trkpt>
      <trkpt lat="46.80152" lon="4.73494">
        <ele>249.12</ele>
        <time>2010-05-16T09:07:21Z</time>
      </trkpt>
      <trkpt lat="46.80151" lon="4.73495">
        <ele>249.6</ele>
        <time>2010-05-16T09:07:22Z</time>
      </trkpt>
      <trkpt lat="46.8015" lon="4.73496">
        <ele>249.6</ele>
        <time>2010-05-16T09:07:23Z</time>
      </trkpt>
      <trkpt lat="46.80149" lon="4.73496">
        <ele>250.08</ele>
        <time>2010-05-16T09:07:24Z</time>
      </trkpt>
      <trkpt lat="46.80148" lon="4.73497">
        <ele>250.08</ele>
        <time>2010-05-16T09:07:25Z</time>
      </trkpt>
      <trkpt lat="46.80148" lon="4.73499">
        <ele>250.08</ele>
        <time>2010-05-16T09:07:26Z</time>
      </trkpt>
      <trkpt lat="46.80147" lon="4.735">
        <ele>250.56</ele>
        <time>2010-05-16T09:07:27Z</time>
      </trkpt>
      <trkpt lat="46.80146" lon="4.73501">
        <ele>251.04</ele>
        <time>2010-05-16T09:07:28Z</time>
      </trkpt>
      <trkpt lat="46.80144" lon="4.73502">
        <ele>250.56</ele>
        <time>2010-05-16T09:07:29Z</time>
      </trkpt>
      <trkpt lat="46.80143" lon="4.73503">
        <ele>251.04</ele>
        <time>2010-05-16T09:07:30Z</time>
      </trkpt>
      <trkpt lat="46.80142" lon="4.73503">
        <ele>251.04</ele>
        <time>2010-05-16T09:07:31Z</time>
      </trkpt>
      <trkpt lat="46.80141" lon="4.73504">
        <ele>251.52</ele>
        <time>2010-05-16T09:07:32Z</time>
      </trkpt>
      <trkpt lat="46.80133" lon="4.73509">
        <ele>252.96</ele>
        <time>2010-05-16T09:07:39Z</time>
      </trkpt>
      <trkpt lat="46.80123" lon="4.73515">
        <ele>254.89</ele>
        <time>2010-05-16T09:07:48Z</time>
      </trkpt>
      <trkpt lat="46.80116" lon="4.73519">
        <ele>255.37</ele>
        <time>2010-05-16T09:07:54Z</time>
      </trkpt>
      <trkpt lat="46.80114" lon="4.73519">
        <ele>255.85</ele>
        <time>2010-05-16T09:07:55Z</time>
      </trkpt>
      <trkpt lat="46.80104" lon="4.73525">
        <ele>257.29</ele>
        <time>2010-05-16T09:08:04Z</time>
      </trkpt>
      <trkpt lat="46.80094" lon="4.73531">
        <ele>258.73</ele>
        <time>2010-05-16T09:08:13Z</time>
      </trkpt>
      <trkpt lat="46.80092" lon="4.73532">
        <ele>258.73</ele>
        <time>2010-05-16T09:08:15Z</time>
      </trkpt>
      <trkpt lat="46.80091" lon="4.73532">
        <ele>259.21</ele>
        <time>2010-05-16T09:08:16Z</time>
      </trkpt>
      <trkpt lat="46.80089" lon="4.73532">
        <ele>259.69</ele>
        <time>2010-05-16T09:08:18Z</time>
      </trkpt>
      <trkpt lat="46.80088" lon="4.73533">
        <ele>259.69</ele>
        <time>2010-05-16T09:08:19Z</time>
      </trkpt>
      <trkpt lat="46.80076" lon="4.7354">
        <ele>261.14</ele>
        <time>2010-05-16T09:08:29Z</time>
      </trkpt>
      <trkpt lat="46.80064" lon="4.73547">
        <ele>263.06</ele>
        <time>2010-05-16T09:08:38Z</time>
      </trkpt>
      <trkpt lat="46.80048" lon="4.73554">
        <ele>264.5</ele>
        <time>2010-05-16T09:08:50Z</time>
      </trkpt>
      <trkpt lat="46.8004" lon="4.73557">
        <ele>266.42</ele>
        <time>2010-05-16T09:08:58Z</time>
      </trkpt>
      <trkpt lat="46.80032" lon="4.73563">
        <ele>268.35</ele>
        <time>2010-05-16T09:09:05Z</time>
      </trkpt>
      <trkpt lat="46.80021" lon="4.73568">
        <ele>269.79</ele>
        <time>2010-05-16T09:09:14Z</time>
      </trkpt>
      <trkpt lat="46.80011" lon="4.73573">
        <ele>270.75</ele>
        <time>2010-05-16T09:09:22Z</time>
      </trkpt>
      <trkpt lat="46.8001" lon="4.73574">
        <ele>271.23</ele>
        <time>2010-05-16T09:09:23Z</time>
      </trkpt>
      <trkpt lat="46.80008" lon="4.73575">
        <ele>271.71</ele>
        <time>2010-05-16T09:09:24Z</time>
      </trkpt>
      <trkpt lat="46.79995" lon="4.73581">
        <ele>272.67</ele>
        <time>2010-05-16T09:09:33Z</time>
      </trkpt>
      <trkpt lat="46.79983" lon="4.7359">
        <ele>274.11</ele>
        <time>2010-05-16T09:09:41Z</time>
      </trkpt>
      <trkpt lat="46.79969" lon="4.73597">
        <ele>276.04</ele>
        <time>2010-05-16T09:09:51Z</time>
      </trkpt>
      <trkpt lat="46.79958" lon="4.73606">
        <ele>277</ele>
        <time>2010-05-16T09:10:00Z</time>
      </trkpt>
      <trkpt lat="46.79957" lon="4.73608">
        <ele>277.48</ele>
        <time>2010-05-16T09:10:01Z</time>
      </trkpt>
      <trkpt lat="46.79956" lon="4.73609">
        <ele>277.48</ele>
        <time>2010-05-16T09:10:02Z</time>
      </trkpt>
      <trkpt lat="46.79955" lon="4.7361">
        <ele>277.48</ele>
        <time>2010-05-16T09:10:03Z</time>
      </trkpt>
      <trkpt lat="46.79949" lon="4.73617">
        <ele>278.44</ele>
        <time>2010-05-16T09:10:08Z</time>
      </trkpt>
      <trkpt lat="46.79947" lon="4.73618">
        <ele>278.44</ele>
        <time>2010-05-16T09:10:09Z</time>
      </trkpt>
      <trkpt lat="46.79946" lon="4.73619">
        <ele>278.92</ele>
        <time>2010-05-16T09:10:10Z</time>
      </trkpt>
      <trkpt lat="46.79945" lon="4.7362">
        <ele>278.44</ele>
        <time>2010-05-16T09:10:11Z</time>
      </trkpt>
      <trkpt lat="46.79944" lon="4.73621">
        <ele>278.92</ele>
        <time>2010-05-16T09:10:12Z</time>
      </trkpt>
      <trkpt lat="46.79932" lon="4.73636">
        <ele>280.84</ele>
        <time>2010-05-16T09:10:22Z</time>
      </trkpt>
      <trkpt lat="46.79923" lon="4.73649">
        <ele>281.8</ele>
        <time>2010-05-16T09:10:30Z</time>
      </trkpt>
      <trkpt lat="46.79917" lon="4.73662">
        <ele>283.25</ele>
        <time>2010-05-16T09:10:38Z</time>
      </trkpt>
      <trkpt lat="46.79909" lon="4.73677">
        <ele>284.69</ele>
        <time>2010-05-16T09:10:46Z</time>
      </trkpt>
      <trkpt lat="46.79901" lon="4.73689">
        <ele>285.17</ele>
        <time>2010-05-16T09:10:54Z</time>
      </trkpt>
      <trkpt lat="46.79901" lon="4.73691">
        <ele>285.65</ele>
        <time>2010-05-16T09:10:55Z</time>
      </trkpt>
      <trkpt lat="46.79891" lon="4.73707">
        <ele>287.09</ele>
        <time>2010-05-16T09:11:05Z</time>
      </trkpt>
      <trkpt lat="46.79884" lon="4.73716">
        <ele>288.05</ele>
        <time>2010-05-16T09:11:12Z</time>
      </trkpt>
      <trkpt lat="46.79877" lon="4.73722">
        <ele>289.01</ele>
        <time>2010-05-16T09:11:17Z</time>
      </trkpt>
      <trkpt lat="46.79877" lon="4.73724">
        <ele>289.01</ele>
        <time>2010-05-16T09:11:18Z</time>
      </trkpt>
      <trkpt lat="46.79877" lon="4.73728">
        <ele>289.49</ele>
        <time>2010-05-16T09:11:19Z</time>
      </trkpt>
      <trkpt lat="46.79878" lon="4.7373">
        <ele>289.01</ele>
        <time>2010-05-16T09:11:20Z</time>
      </trkpt>
      <trkpt lat="46.7988" lon="4.73731">
        <ele>289.49</ele>
        <time>2010-05-16T09:11:21Z</time>
      </trkpt>
      <trkpt lat="46.79884" lon="4.73732">
        <ele>290.94</ele>
        <time>2010-05-16T09:11:25Z</time>
      </trkpt>
      <trkpt lat="46.79889" lon="4.73734">
        <ele>290.94</ele>
        <time>2010-05-16T09:11:30Z</time>
      </trkpt>
      <trkpt lat="46.79891" lon="4.73735">
        <ele>290.94</ele>
        <time>2010-05-16T09:11:32Z</time>
      </trkpt>
      <trkpt lat="46.79898" lon="4.73735">
        <ele>290.46</ele>
        <time>2010-05-16T09:11:37Z</time>
      </trkpt>
      <trkpt lat="46.79898" lon="4.73735">
        <ele>290.46</ele>
        <time>2010-05-16T09:11:48Z</time>
      </trkpt>
      <trkpt lat="46.79898" lon="4.73735">
        <ele>290.94</ele>
        <time>2010-05-16T09:12:54Z</time>
      </trkpt>
      <trkpt lat="46.79898" lon="4.73734">
        <ele>290.46</ele>
        <time>2010-05-16T09:13:06Z</time>
      </trkpt>
      <trkpt lat="46.79898" lon="4.73732">
        <ele>291.9</ele>
        <time>2010-05-16T09:18:51Z</time>
      </trkpt>
      <trkpt lat="46.79898" lon="4.73732">
        <ele>291.9</ele>
        <time>2010-05-16T09:19:34Z</time>
      </trkpt>
      <trkpt lat="46.79906" lon="4.73737">
        <ele>291.9</ele>
        <time>2010-05-16T09:19:40Z</time>
      </trkpt>
      <trkpt lat="46.79923" lon="4.73742">
        <ele>291.42</ele>
        <time>2010-05-16T09:19:48Z</time>
      </trkpt>
      <trkpt lat="46.79943" lon="4.73748">
        <ele>290.46</ele>
        <time>2010-05-16T09:19:54Z</time>
      </trkpt>
      <trkpt lat="46.79947" lon="4.73749">
        <ele>289.97</ele>
        <time>2010-05-16T09:19:55Z</time>
      </trkpt>
      <trkpt lat="46.79951" lon="4.73752">
        <ele>290.46</ele>
        <time>2010-05-16T09:19:56Z</time>
      </trkpt>
      <trkpt lat="46.79971" lon="4.73762">
        <ele>289.49</ele>
        <time>2010-05-16T09:20:02Z</time>
      </trkpt>
      <trkpt lat="46.79984" lon="4.73765">
        <ele>288.53</ele>
        <time>2010-05-16T09:20:05Z</time>
      </trkpt>
      <trkpt lat="46.79988" lon="4.73767">
        <ele>288.53</ele>
        <time>2010-05-16T09:20:06Z</time>
      </trkpt>
      <trkpt lat="46.79992" lon="4.73771">
        <ele>288.53</ele>
        <time>2010-05-16T09:20:07Z</time>
      </trkpt>
      <trkpt lat="46.79995" lon="4.73773">
        <ele>288.53</ele>
        <time>2010-05-16T09:20:08Z</time>
      </trkpt>
      <trkpt lat="46.79998" lon="4.73776">
        <ele>288.05</ele>
        <time>2010-05-16T09:20:09Z</time>
      </trkpt>
      <trkpt lat="46.80005" lon="4.73779">
        <ele>287.57</ele>
        <time>2010-05-16T09:20:11Z</time>
      </trkpt>
      <trkpt lat="46.80032" lon="4.738">
        <ele>285.65</ele>
        <time>2010-05-16T09:20:18Z</time>
      </trkpt>
      <trkpt lat="46.80049" lon="4.73816">
        <ele>285.17</ele>
        <time>2010-05-16T09:20:22Z</time>
      </trkpt>
      <trkpt lat="46.80073" lon="4.73835">
        <ele>284.21</ele>
        <time>2010-05-16T09:20:27Z</time>
      </trkpt>
      <trkpt lat="46.80083" lon="4.73844">
        <ele>283.73</ele>
        <time>2010-05-16T09:20:29Z</time>
      </trkpt>
      <trkpt lat="46.80087" lon="4.73845">
        <ele>283.25</ele>
        <time>2010-05-16T09:20:30Z</time>
      </trkpt>
      <trkpt lat="46.80091" lon="4.73846">
        <ele>282.28</ele>
        <time>2010-05-16T09:20:31Z</time>
      </trkpt>
      <trkpt lat="46.80105" lon="4.73848">
        <ele>280.36</ele>
        <time>2010-05-16T09:20:34Z</time>
      </trkpt>
      <trkpt lat="46.8011" lon="4.73852">
        <ele>280.36</ele>
        <time>2010-05-16T09:20:35Z</time>
      </trkpt>
      <trkpt lat="46.8012" lon="4.73861">
        <ele>279.4</ele>
        <time>2010-05-16T09:20:37Z</time>
      </trkpt>
      <trkpt lat="46.80126" lon="4.73866">
        <ele>278.92</ele>
        <time>2010-05-16T09:20:38Z</time>
      </trkpt>
      <trkpt lat="46.80163" lon="4.73899">
        <ele>276.52</ele>
        <time>2010-05-16T09:20:45Z</time>
      </trkpt>
      <trkpt lat="46.80169" lon="4.73902">
        <ele>276.04</ele>
        <time>2010-05-16T09:20:46Z</time>
      </trkpt>
      <trkpt lat="46.8018" lon="4.73909">
        <ele>274.59</ele>
        <time>2010-05-16T09:20:48Z</time>
      </trkpt>
      <trkpt lat="46.80186" lon="4.73914">
        <ele>274.59</ele>
        <time>2010-05-16T09:20:49Z</time>
      </trkpt>
      <trkpt lat="46.80192" lon="4.73919">
        <ele>274.11</ele>
        <time>2010-05-16T09:20:50Z</time>
      </trkpt>
      <trkpt lat="46.80198" lon="4.73926">
        <ele>274.11</ele>
        <time>2010-05-16T09:20:51Z</time>
      </trkpt>
      <trkpt lat="46.80202" lon="4.73931">
        <ele>273.63</ele>
        <time>2010-05-16T09:20:52Z</time>
      </trkpt>
      <trkpt lat="46.80206" lon="4.73936">
        <ele>273.15</ele>
        <time>2010-05-16T09:20:53Z</time>
      </trkpt>
      <trkpt lat="46.8021" lon="4.7394">
        <ele>272.67</ele>
        <time>2010-05-16T09:20:54Z</time>
      </trkpt>
      <trkpt lat="46.80214" lon="4.73943">
        <ele>272.19</ele>
        <time>2010-05-16T09:20:55Z</time>
      </trkpt>
      <trkpt lat="46.80219" lon="4.73946">
        <ele>271.71</ele>
        <time>2010-05-16T09:20:56Z</time>
      </trkpt>
      <trkpt lat="46.80242" lon="4.7396">
        <ele>270.75</ele>
        <time>2010-05-16T09:21:00Z</time>
      </trkpt>
      <trkpt lat="46.80261" lon="4.7397">
        <ele>268.83</ele>
        <time>2010-05-16T09:21:03Z</time>
      </trkpt>
      <trkpt lat="46.80267" lon="4.73974">
        <ele>268.35</ele>
        <time>2010-05-16T09:21:04Z</time>
      </trkpt>
      <trkpt lat="46.80273" lon="4.73978">
        <ele>267.86</ele>
        <time>2010-05-16T09:21:05Z</time>
      </trkpt>
      <trkpt lat="46.80299" lon="4.73995">
        <ele>265.46</ele>
        <time>2010-05-16T09:21:09Z</time>
      </trkpt>
      <trkpt lat="46.80315" lon="4.74003">
        <ele>263.54</ele>
        <time>2010-05-16T09:21:12Z</time>
      </trkpt>
      <trkpt lat="46.8032" lon="4.74005">
        <ele>262.58</ele>
        <time>2010-05-16T09:21:13Z</time>
      </trkpt>
      <trkpt lat="46.80325" lon="4.74007">
        <ele>262.1</ele>
        <time>2010-05-16T09:21:14Z</time>
      </trkpt>
      <trkpt lat="46.80331" lon="4.74009">
        <ele>262.1</ele>
        <time>2010-05-16T09:21:15Z</time>
      </trkpt>
      <trkpt lat="46.80347" lon="4.74017">
        <ele>260.17</ele>
        <time>2010-05-16T09:21:18Z</time>
      </trkpt>
      <trkpt lat="46.80352" lon="4.7402">
        <ele>259.69</ele>
        <time>2010-05-16T09:21:19Z</time>
      </trkpt>
      <trkpt lat="46.80368" lon="4.74035">
        <ele>259.21</ele>
        <time>2010-05-16T09:21:22Z</time>
      </trkpt>
      <trkpt lat="46.80376" lon="4.74047">
        <ele>258.73</ele>
        <time>2010-05-16T09:21:24Z</time>
      </trkpt>
      <trkpt lat="46.80379" lon="4.74053">
        <ele>258.73</ele>
        <time>2010-05-16T09:21:25Z</time>
      </trkpt>
      <trkpt lat="46.80381" lon="4.74057">
        <ele>259.21</ele>
        <time>2010-05-16T09:21:26Z</time>
      </trkpt>
      <trkpt lat="46.80382" lon="4.74061">
        <ele>259.69</ele>
        <time>2010-05-16T09:21:27Z</time>
      </trkpt>
      <trkpt lat="46.80384" lon="4.74065">
        <ele>259.69</ele>
        <time>2010-05-16T09:21:28Z</time>
      </trkpt>
      <trkpt lat="46.80386" lon="4.74068">
        <ele>260.65</ele>
        <time>2010-05-16T09:21:29Z</time>
      </trkpt>
      <trkpt lat="46.80389" lon="4.74071">
        <ele>260.65</ele>
        <time>2010-05-16T09:21:30Z</time>
      </trkpt>
      <trkpt lat="46.80392" lon="4.74075">
        <ele>259.69</ele>
        <time>2010-05-16T09:21:31Z</time>
      </trkpt>
      <trkpt lat="46.80394" lon="4.74079">
        <ele>260.17</ele>
        <time>2010-05-16T09:21:32Z</time>
      </trkpt>
      <trkpt lat="46.80396" lon="4.74084">
        <ele>260.17</ele>
        <time>2010-05-16T09:21:33Z</time>
      </trkpt>
      <trkpt lat="46.80397" lon="4.74088">
        <ele>259.69</ele>
        <time>2010-05-16T09:21:34Z</time>
      </trkpt>
      <trkpt lat="46.80398" lon="4.74091">
        <ele>259.69</ele>
        <time>2010-05-16T09:21:35Z</time>
      </trkpt>
      <trkpt lat="46.80398" lon="4.74093">
        <ele>259.21</ele>
        <time>2010-05-16T09:21:40Z</time>
      </trkpt>
      <trkpt lat="46.80399" lon="4.74094">
        <ele>258.73</ele>
        <time>2010-05-16T09:21:57Z</time>
      </trkpt>
      <trkpt lat="46.80399" lon="4.74094">
        <ele>258.73</ele>
        <time>2010-05-16T09:22:20Z</time>
      </trkpt>
      <trkpt lat="46.80398" lon="4.74096">
        <ele>258.73</ele>
        <time>2010-05-16T09:22:25Z</time>
      </trkpt>
      <trkpt lat="46.80396" lon="4.74098">
        <ele>259.21</ele>
        <time>2010-05-16T09:22:26Z</time>
      </trkpt>
      <trkpt lat="46.80395" lon="4.74099">
        <ele>259.21</ele>
        <time>2010-05-16T09:22:27Z</time>
      </trkpt>
      <trkpt lat="46.80393" lon="4.74101">
        <ele>259.21</ele>
        <time>2010-05-16T09:22:28Z</time>
      </trkpt>
      <trkpt lat="46.80392" lon="4.74103">
        <ele>259.21</ele>
        <time>2010-05-16T09:22:29Z</time>
      </trkpt>
      <trkpt lat="46.8039" lon="4.74106">
        <ele>259.21</ele>
        <time>2010-05-16T09:22:30Z</time>
      </trkpt>
      <trkpt lat="46.80387" lon="4.74108">
        <ele>259.21</ele>
        <time>2010-05-16T09:22:31Z</time>
      </trkpt>
      <trkpt lat="46.80385" lon="4.74111">
        <ele>259.21</ele>
        <time>2010-05-16T09:22:32Z</time>
      </trkpt>
      <trkpt lat="46.80382" lon="4.74114">
        <ele>259.69</ele>
        <time>2010-05-16T09:22:33Z</time>
      </trkpt>
      <trkpt lat="46.8037" lon="4.74132">
        <ele>259.21</ele>
        <time>2010-05-16T09:22:39Z</time>
      </trkpt>
      <trkpt lat="46.80353" lon="4.7415">
        <ele>259.69</ele>
        <time>2010-05-16T09:22:45Z</time>
      </trkpt>
      <trkpt lat="46.80333" lon="4.7416">
        <ele>259.21</ele>
        <time>2010-05-16T09:22:51Z</time>
      </trkpt>
      <trkpt lat="46.80309" lon="4.74166">
        <ele>259.21</ele>
        <time>2010-05-16T09:22:58Z</time>
      </trkpt>
      <trkpt lat="46.80289" lon="4.74172">
        <ele>258.73</ele>
        <time>2010-05-16T09:23:04Z</time>
      </trkpt>
      <trkpt lat="46.80269" lon="4.74174">
        <ele>258.25</ele>
        <time>2010-05-16T09:23:10Z</time>
      </trkpt>
      <trkpt lat="46.80249" lon="4.74174">
        <ele>257.77</ele>
        <time>2010-05-16T09:23:15Z</time>
      </trkpt>
      <trkpt lat="46.80245" lon="4.74175">
        <ele>258.25</ele>
        <time>2010-05-16T09:23:16Z</time>
      </trkpt>
      <trkpt lat="46.80242" lon="4.74175">
        <ele>258.25</ele>
        <time>2010-05-16T09:23:17Z</time>
      </trkpt>
      <trkpt lat="46.80238" lon="4.74173">
        <ele>257.77</ele>
        <time>2010-05-16T09:23:18Z</time>
      </trkpt>
      <trkpt lat="46.80235" lon="4.74171">
        <ele>257.77</ele>
        <time>2010-05-16T09:23:19Z</time>
      </trkpt>
      <trkpt lat="46.80232" lon="4.7417">
        <ele>258.25</ele>
        <time>2010-05-16T09:23:20Z</time>
      </trkpt>
      <trkpt lat="46.80228" lon="4.74169">
        <ele>258.25</ele>
        <time>2010-05-16T09:23:21Z</time>
      </trkpt>
      <trkpt lat="46.80225" lon="4.74168">
        <ele>258.73</ele>
        <time>2010-05-16T09:23:22Z</time>
      </trkpt>
      <trkpt lat="46.80201" lon="4.74161">
        <ele>259.21</ele>
        <time>2010-05-16T09:23:28Z</time>
      </trkpt>
      <trkpt lat="46.80194" lon="4.74157">
        <ele>259.69</ele>
        <time>2010-05-16T09:23:30Z</time>
      </trkpt>
      <trkpt lat="46.80183" lon="4.74153">
        <ele>260.65</ele>
        <time>2010-05-16T09:23:33Z</time>
      </trkpt>
      <trkpt lat="46.80179" lon="4.74154">
        <ele>260.17</ele>
        <time>2010-05-16T09:23:34Z</time>
      </trkpt>
      <trkpt lat="46.80176" lon="4.74153">
        <ele>260.65</ele>
        <time>2010-05-16T09:23:35Z</time>
      </trkpt>
      <trkpt lat="46.80173" lon="4.74152">
        <ele>261.14</ele>
        <time>2010-05-16T09:23:36Z</time>
      </trkpt>
      <trkpt lat="46.80169" lon="4.74152">
        <ele>261.14</ele>
        <time>2010-05-16T09:23:37Z</time>
      </trkpt>
      <trkpt lat="46.80165" lon="4.74151">
        <ele>261.14</ele>
        <time>2010-05-16T09:23:38Z</time>
      </trkpt>
      <trkpt lat="46.80162" lon="4.7415">
        <ele>261.14</ele>
        <time>2010-05-16T09:23:39Z</time>
      </trkpt>
      <trkpt lat="46.80159" lon="4.74148">
        <ele>261.62</ele>
        <time>2010-05-16T09:23:40Z</time>
      </trkpt>
      <trkpt lat="46.80155" lon="4.74148">
        <ele>261.62</ele>
        <time>2010-05-16T09:23:41Z</time>
      </trkpt>
      <trkpt lat="46.80152" lon="4.74148">
        <ele>261.62</ele>
        <time>2010-05-16T09:23:42Z</time>
      </trkpt>
      <trkpt lat="46.80145" lon="4.74148">
        <ele>262.1</ele>
        <time>2010-05-16T09:23:44Z</time>
      </trkpt>
      <trkpt lat="46.80142" lon="4.74148">
        <ele>262.1</ele>
        <time>2010-05-16T09:23:45Z</time>
      </trkpt>
      <trkpt lat="46.80138" lon="4.74147">
        <ele>262.1</ele>
        <time>2010-05-16T09:23:46Z</time>
      </trkpt>
      <trkpt lat="46.80135" lon="4.74146">
        <ele>262.1</ele>
        <time>2010-05-16T09:23:47Z</time>
      </trkpt>
      <trkpt lat="46.80132" lon="4.74146">
        <ele>262.1</ele>
        <time>2010-05-16T09:23:48Z</time>
      </trkpt>
      <trkpt lat="46.80129" lon="4.74146">
        <ele>262.58</ele>
        <time>2010-05-16T09:23:49Z</time>
      </trkpt>
      <trkpt lat="46.80126" lon="4.74144">
        <ele>262.58</ele>
        <time>2010-05-16T09:23:50Z</time>
      </trkpt>
      <trkpt lat="46.80124" lon="4.74143">
        <ele>262.58</ele>
        <time>2010-05-16T09:23:51Z</time>
      </trkpt>
      <trkpt lat="46.80121" lon="4.74143">
        <ele>262.1</ele>
        <time>2010-05-16T09:23:52Z</time>
      </trkpt>
      <trkpt lat="46.80118" lon="4.74145">
        <ele>263.06</ele>
        <time>2010-05-16T09:23:53Z</time>
      </trkpt>
      <trkpt lat="46.80114" lon="4.74148">
        <ele>262.58</ele>
        <time>2010-05-16T09:23:54Z</time>
      </trkpt>
      <trkpt lat="46.80111" lon="4.74148">
        <ele>263.06</ele>
        <time>2010-05-16T09:23:55Z</time>
      </trkpt>
      <trkpt lat="46.80107" lon="4.74147">
        <ele>263.06</ele>
        <time>2010-05-16T09:23:56Z</time>
      </trkpt>
      <trkpt lat="46.80104" lon="4.74147">
        <ele>262.58</ele>
        <time>2010-05-16T09:23:57Z</time>
      </trkpt>
      <trkpt lat="46.80087" lon="4.74143">
        <ele>263.06</ele>
        <time>2010-05-16T09:24:02Z</time>
      </trkpt>
      <trkpt lat="46.80069" lon="4.74133">
        <ele>263.06</ele>
        <time>2010-05-16T09:24:08Z</time>
      </trkpt>
      <trkpt lat="46.80053" lon="4.7412">
        <ele>264.02</ele>
        <time>2010-05-16T09:24:14Z</time>
      </trkpt>
      <trkpt lat="46.80036" lon="4.74114">
        <ele>263.06</ele>
        <time>2010-05-16T09:24:19Z</time>
      </trkpt>
      <trkpt lat="46.80023" lon="4.74113">
        <ele>262.58</ele>
        <time>2010-05-16T09:24:23Z</time>
      </trkpt>
      <trkpt lat="46.80006" lon="4.74113">
        <ele>264.02</ele>
        <time>2010-05-16T09:24:29Z</time>
      </trkpt>
      <trkpt lat="46.8" lon="4.74114">
        <ele>264.5</ele>
        <time>2010-05-16T09:24:31Z</time>
      </trkpt>
      <trkpt lat="46.79997" lon="4.74114">
        <ele>264.98</ele>
        <time>2010-05-16T09:24:32Z</time>
      </trkpt>
      <trkpt lat="46.79986" lon="4.74112">
        <ele>265.46</ele>
        <time>2010-05-16T09:24:37Z</time>
      </trkpt>
      <trkpt lat="46.79981" lon="4.74112">
        <ele>265.94</ele>
        <time>2010-05-16T09:24:39Z</time>
      </trkpt>
      <trkpt lat="46.7997" lon="4.7411">
        <ele>266.9</ele>
        <time>2010-05-16T09:24:45Z</time>
      </trkpt>
      <trkpt lat="46.79957" lon="4.74108">
        <ele>267.86</ele>
        <time>2010-05-16T09:24:52Z</time>
      </trkpt>
      <trkpt lat="46.79955" lon="4.74108">
        <ele>268.35</ele>
        <time>2010-05-16T09:24:53Z</time>
      </trkpt>
      <trkpt lat="46.79953" lon="4.74107">
        <ele>268.35</ele>
        <time>2010-05-16T09:24:54Z</time>
      </trkpt>
      <trkpt lat="46.7995" lon="4.74108">
        <ele>268.35</ele>
        <time>2010-05-16T09:24:55Z</time>
      </trkpt>
      <trkpt lat="46.79948" lon="4.74108">
        <ele>267.86</ele>
        <time>2010-05-16T09:24:56Z</time>
      </trkpt>
      <trkpt lat="46.79946" lon="4.74108">
        <ele>268.35</ele>
        <time>2010-05-16T09:24:57Z</time>
      </trkpt>
      <trkpt lat="46.79944" lon="4.74107">
        <ele>268.35</ele>
        <time>2010-05-16T09:24:58Z</time>
      </trkpt>
      <trkpt lat="46.79942" lon="4.74105">
        <ele>268.35</ele>
        <time>2010-05-16T09:24:59Z</time>
      </trkpt>
      <trkpt lat="46.79929" lon="4.74103">
        <ele>269.31</ele>
        <time>2010-05-16T09:25:05Z</time>
      </trkpt>
      <trkpt lat="46.79927" lon="4.74103">
        <ele>269.31</ele>
        <time>2010-05-16T09:25:06Z</time>
      </trkpt>
      <trkpt lat="46.79925" lon="4.74102">
        <ele>269.31</ele>
        <time>2010-05-16T09:25:07Z</time>
      </trkpt>
      <trkpt lat="46.79923" lon="4.74102">
        <ele>269.31</ele>
        <time>2010-05-16T09:25:08Z</time>
      </trkpt>
      <trkpt lat="46.79921" lon="4.741">
        <ele>269.79</ele>
        <time>2010-05-16T09:25:09Z</time>
      </trkpt>
      <trkpt lat="46.79914" lon="4.74097">
        <ele>269.79</ele>
        <time>2010-05-16T09:25:13Z</time>
      </trkpt>
      <trkpt lat="46.79912" lon="4.74097">
        <ele>269.79</ele>
        <time>2010-05-16T09:25:14Z</time>
      </trkpt>
      <trkpt lat="46.79903" lon="4.74094">
        <ele>270.27</ele>
        <time>2010-05-16T09:25:18Z</time>
      </trkpt>
      <trkpt lat="46.79902" lon="4.74093">
        <ele>270.27</ele>
        <time>2010-05-16T09:25:19Z</time>
      </trkpt>
      <trkpt lat="46.79893" lon="4.74092">
        <ele>270.75</ele>
        <time>2010-05-16T09:25:24Z</time>
      </trkpt>
      <trkpt lat="46.79886" lon="4.74088">
        <ele>271.23</ele>
        <time>2010-05-16T09:25:28Z</time>
      </trkpt>
      <trkpt lat="46.79884" lon="4.74088">
        <ele>271.23</ele>
        <time>2010-05-16T09:25:29Z</time>
      </trkpt>
      <trkpt lat="46.79866" lon="4.74088">
        <ele>271.23</ele>
        <time>2010-05-16T09:25:35Z</time>
      </trkpt>
      <trkpt lat="46.79858" lon="4.74091">
        <ele>271.23</ele>
        <time>2010-05-16T09:25:38Z</time>
      </trkpt>
      <trkpt lat="46.79856" lon="4.74093">
        <ele>271.23</ele>
        <time>2010-05-16T09:25:39Z</time>
      </trkpt>
      <trkpt lat="46.79855" lon="4.74094">
        <ele>271.71</ele>
        <time>2010-05-16T09:25:40Z</time>
      </trkpt>
      <trkpt lat="46.79853" lon="4.74095">
        <ele>271.71</ele>
        <time>2010-05-16T09:25:41Z</time>
      </trkpt>
      <trkpt lat="46.79851" lon="4.74094">
        <ele>271.71</ele>
        <time>2010-05-16T09:25:42Z</time>
      </trkpt>
      <trkpt lat="46.79849" lon="4.74093">
        <ele>271.71</ele>
        <time>2010-05-16T09:25:43Z</time>
      </trkpt>
      <trkpt lat="46.79847" lon="4.74092">
        <ele>272.19</ele>
        <time>2010-05-16T09:25:44Z</time>
      </trkpt>
      <trkpt lat="46.79844" lon="4.74092">
        <ele>271.71</ele>
        <time>2010-05-16T09:25:45Z</time>
      </trkpt>
      <trkpt lat="46.79841" lon="4.74092">
        <ele>271.71</ele>
        <time>2010-05-16T09:25:46Z</time>
      </trkpt>
      <trkpt lat="46.79838" lon="4.74093">
        <ele>271.71</ele>
        <time>2010-05-16T09:25:47Z</time>
      </trkpt>
      <trkpt lat="46.79835" lon="4.74094">
        <ele>272.19</ele>
        <time>2010-05-16T09:25:48Z</time>
      </trkpt>
      <trkpt lat="46.79832" lon="4.74094">
        <ele>272.19</ele>
        <time>2010-05-16T09:25:49Z</time>
      </trkpt>
      <trkpt lat="46.79829" lon="4.74094">
        <ele>272.67</ele>
        <time>2010-05-16T09:25:50Z</time>
      </trkpt>
      <trkpt lat="46.79826" lon="4.74094">
        <ele>272.19</ele>
        <time>2010-05-16T09:25:51Z</time>
      </trkpt>
      <trkpt lat="46.79823" lon="4.74094">
        <ele>272.19</ele>
        <time>2010-05-16T09:25:52Z</time>
      </trkpt>
      <trkpt lat="46.7982" lon="4.74092">
        <ele>272.19</ele>
        <time>2010-05-16T09:25:53Z</time>
      </trkpt>
      <trkpt lat="46.79817" lon="4.7409">
        <ele>272.19</ele>
        <time>2010-05-16T09:25:54Z</time>
      </trkpt>
      <trkpt lat="46.79801" lon="4.74087">
        <ele>273.15</ele>
        <time>2010-05-16T09:26:00Z</time>
      </trkpt>
      <trkpt lat="46.79796" lon="4.74083">
        <ele>273.63</ele>
        <time>2010-05-16T09:26:03Z</time>
      </trkpt>
      <trkpt lat="46.79794" lon="4.74084">
        <ele>274.11</ele>
        <time>2010-05-16T09:26:04Z</time>
      </trkpt>
      <trkpt lat="46.79792" lon="4.74084">
        <ele>274.11</ele>
        <time>2010-05-16T09:26:05Z</time>
      </trkpt>
      <trkpt lat="46.79791" lon="4.74083">
        <ele>274.59</ele>
        <time>2010-05-16T09:26:06Z</time>
      </trkpt>
      <trkpt lat="46.79789" lon="4.74082">
        <ele>274.59</ele>
        <time>2010-05-16T09:26:07Z</time>
      </trkpt>
      <trkpt lat="46.79787" lon="4.74081">
        <ele>275.07</ele>
        <time>2010-05-16T09:26:08Z</time>
      </trkpt>
      <trkpt lat="46.79785" lon="4.7408">
        <ele>275.07</ele>
        <time>2010-05-16T09:26:09Z</time>
      </trkpt>
      <trkpt lat="46.79782" lon="4.74079">
        <ele>275.07</ele>
        <time>2010-05-16T09:26:10Z</time>
      </trkpt>
      <trkpt lat="46.79778" lon="4.74077">
        <ele>275.07</ele>
        <time>2010-05-16T09:26:12Z</time>
      </trkpt>
      <trkpt lat="46.79776" lon="4.74077">
        <ele>275.56</ele>
        <time>2010-05-16T09:26:13Z</time>
      </trkpt>
      <trkpt lat="46.79773" lon="4.74076">
        <ele>275.56</ele>
        <time>2010-05-16T09:26:15Z</time>
      </trkpt>
      <trkpt lat="46.79769" lon="4.74077">
        <ele>275.56</ele>
        <time>2010-05-16T09:26:16Z</time>
      </trkpt>
      <trkpt lat="46.79765" lon="4.74077">
        <ele>275.56</ele>
        <time>2010-05-16T09:26:17Z</time>
      </trkpt>
      <trkpt lat="46.79763" lon="4.74078">
        <ele>275.56</ele>
        <time>2010-05-16T09:26:18Z</time>
      </trkpt>
      <trkpt lat="46.79748" lon="4.74083">
        <ele>276.04</ele>
        <time>2010-05-16T09:26:24Z</time>
      </trkpt>
      <trkpt lat="46.79746" lon="4.74083">
        <ele>276.04</ele>
        <time>2010-05-16T09:26:25Z</time>
      </trkpt>
      <trkpt lat="46.79744" lon="4.74083">
        <ele>276.04</ele>
        <time>2010-05-16T09:26:26Z</time>
      </trkpt>
      <trkpt lat="46.79742" lon="4.74082">
        <ele>276.52</ele>
        <time>2010-05-16T09:26:27Z</time>
      </trkpt>
      <trkpt lat="46.79733" lon="4.7409">
        <ele>277</ele>
        <time>2010-05-16T09:26:31Z</time>
      </trkpt>
      <trkpt lat="46.7973" lon="4.74091">
        <ele>277.48</ele>
        <time>2010-05-16T09:26:33Z</time>
      </trkpt>
      <trkpt lat="46.79725" lon="4.74097">
        <ele>277.48</ele>
        <time>2010-05-16T09:26:37Z</time>
      </trkpt>
      <trkpt lat="46.79714" lon="4.74109">
        <ele>277.96</ele>
        <time>2010-05-16T09:26:42Z</time>
      </trkpt>
      <trkpt lat="46.79713" lon="4.7411">
        <ele>277.96</ele>
        <time>2010-05-16T09:26:43Z</time>
      </trkpt>
      <trkpt lat="46.79711" lon="4.74113">
        <ele>278.44</ele>
        <time>2010-05-16T09:26:44Z</time>
      </trkpt>
      <trkpt lat="46.79698" lon="4.7413">
        <ele>278.92</ele>
        <time>2010-05-16T09:26:51Z</time>
      </trkpt>
      <trkpt lat="46.7969" lon="4.74139">
        <ele>280.36</ele>
        <time>2010-05-16T09:26:56Z</time>
      </trkpt>
      <trkpt lat="46.7968" lon="4.74152">
        <ele>281.32</ele>
        <time>2010-05-16T09:27:03Z</time>
      </trkpt>
      <trkpt lat="46.79672" lon="4.7416">
        <ele>282.28</ele>
        <time>2010-05-16T09:27:09Z</time>
      </trkpt>
      <trkpt lat="46.79665" lon="4.74171">
        <ele>283.25</ele>
        <time>2010-05-16T09:27:15Z</time>
      </trkpt>
      <trkpt lat="46.79652" lon="4.74187">
        <ele>284.21</ele>
        <time>2010-05-16T09:27:22Z</time>
      </trkpt>
      <trkpt lat="46.79651" lon="4.7419">
        <ele>284.21</ele>
        <time>2010-05-16T09:27:23Z</time>
      </trkpt>
      <trkpt lat="46.79649" lon="4.74192">
        <ele>284.69</ele>
        <time>2010-05-16T09:27:24Z</time>
      </trkpt>
      <trkpt lat="46.79649" lon="4.74195">
        <ele>284.69</ele>
        <time>2010-05-16T09:27:25Z</time>
      </trkpt>
      <trkpt lat="46.79648" lon="4.74198">
        <ele>284.69</ele>
        <time>2010-05-16T09:27:26Z</time>
      </trkpt>
      <trkpt lat="46.79647" lon="4.742">
        <ele>284.69</ele>
        <time>2010-05-16T09:27:27Z</time>
      </trkpt>
      <trkpt lat="46.79646" lon="4.74203">
        <ele>285.17</ele>
        <time>2010-05-16T09:27:28Z</time>
      </trkpt>
      <trkpt lat="46.79646" lon="4.74206">
        <ele>286.13</ele>
        <time>2010-05-16T09:27:29Z</time>
      </trkpt>
      <trkpt lat="46.79645" lon="4.7421">
        <ele>285.17</ele>
        <time>2010-05-16T09:27:30Z</time>
      </trkpt>
      <trkpt lat="46.79644" lon="4.74214">
        <ele>285.17</ele>
        <time>2010-05-16T09:27:31Z</time>
      </trkpt>
      <trkpt lat="46.79642" lon="4.74228">
        <ele>285.17</ele>
        <time>2010-05-16T09:27:36Z</time>
      </trkpt>
      <trkpt lat="46.79642" lon="4.74231">
        <ele>285.65</ele>
        <time>2010-05-16T09:27:37Z</time>
      </trkpt>
      <trkpt lat="46.79641" lon="4.74234">
        <ele>285.65</ele>
        <time>2010-05-16T09:27:38Z</time>
      </trkpt>
      <trkpt lat="46.79641" lon="4.74237">
        <ele>285.65</ele>
        <time>2010-05-16T09:27:39Z</time>
      </trkpt>
      <trkpt lat="46.79639" lon="4.74241">
        <ele>285.65</ele>
        <time>2010-05-16T09:27:40Z</time>
      </trkpt>
      <trkpt lat="46.79632" lon="4.74264">
        <ele>286.13</ele>
        <time>2010-05-16T09:27:47Z</time>
      </trkpt>
      <trkpt lat="46.79631" lon="4.74266">
        <ele>285.65</ele>
        <time>2010-05-16T09:27:48Z</time>
      </trkpt>
      <trkpt lat="46.7963" lon="4.74269">
        <ele>286.13</ele>
        <time>2010-05-16T09:27:49Z</time>
      </trkpt>
      <trkpt lat="46.79629" lon="4.74272">
        <ele>286.61</ele>
        <time>2010-05-16T09:27:50Z</time>
      </trkpt>
      <trkpt lat="46.79628" lon="4.74277">
        <ele>286.61</ele>
        <time>2010-05-16T09:27:51Z</time>
      </trkpt>
      <trkpt lat="46.79627" lon="4.74282">
        <ele>286.13</ele>
        <time>2010-05-16T09:27:52Z</time>
      </trkpt>
      <trkpt lat="46.79626" lon="4.74288">
        <ele>286.13</ele>
        <time>2010-05-16T09:27:53Z</time>
      </trkpt>
      <trkpt lat="46.79626" lon="4.74293">
        <ele>286.13</ele>
        <time>2010-05-16T09:27:54Z</time>
      </trkpt>
      <trkpt lat="46.79625" lon="4.74299">
        <ele>285.65</ele>
        <time>2010-05-16T09:27:55Z</time>
      </trkpt>
      <trkpt lat="46.79625" lon="4.74305">
        <ele>285.65</ele>
        <time>2010-05-16T09:27:56Z</time>
      </trkpt>
      <trkpt lat="46.79624" lon="4.74311">
        <ele>286.13</ele>
        <time>2010-05-16T09:27:57Z</time>
      </trkpt>
      <trkpt lat="46.7962" lon="4.74342">
        <ele>285.17</ele>
        <time>2010-05-16T09:28:02Z</time>
      </trkpt>
      <trkpt lat="46.79618" lon="4.74349">
        <ele>285.17</ele>
        <time>2010-05-16T09:28:03Z</time>
      </trkpt>
      <trkpt lat="46.79613" lon="4.74368">
        <ele>285.17</ele>
        <time>2010-05-16T09:28:06Z</time>
      </trkpt>
      <trkpt lat="46.79611" lon="4.74374">
        <ele>285.17</ele>
        <time>2010-05-16T09:28:07Z</time>
      </trkpt>
      <trkpt lat="46.79608" lon="4.7438">
        <ele>285.17</ele>
        <time>2010-05-16T09:28:08Z</time>
      </trkpt>
      <trkpt lat="46.79606" lon="4.74386">
        <ele>285.65</ele>
        <time>2010-05-16T09:28:09Z</time>
      </trkpt>
      <trkpt lat="46.79603" lon="4.74392">
        <ele>285.17</ele>
        <time>2010-05-16T09:28:10Z</time>
      </trkpt>
      <trkpt lat="46.79589" lon="4.74413">
        <ele>285.17</ele>
        <time>2010-05-16T09:28:15Z</time>
      </trkpt>
      <trkpt lat="46.79571" lon="4.74438">
        <ele>285.17</ele>
        <time>2010-05-16T09:28:21Z</time>
      </trkpt>
      <trkpt lat="46.7956" lon="4.74448">
        <ele>285.17</ele>
        <time>2010-05-16T09:28:25Z</time>
      </trkpt>
      <trkpt lat="46.79558" lon="4.74451">
        <ele>285.65</ele>
        <time>2010-05-16T09:28:26Z</time>
      </trkpt>
      <trkpt lat="46.79555" lon="4.74453">
        <ele>285.17</ele>
        <time>2010-05-16T09:28:30Z</time>
      </trkpt>
      <trkpt lat="46.79554" lon="4.74454">
        <ele>285.65</ele>
        <time>2010-05-16T09:28:34Z</time>
      </trkpt>
      <trkpt lat="46.79552" lon="4.74457">
        <ele>285.65</ele>
        <time>2010-05-16T09:28:36Z</time>
      </trkpt>
      <trkpt lat="46.79551" lon="4.74458">
        <ele>285.65</ele>
        <time>2010-05-16T09:28:37Z</time>
      </trkpt>
      <trkpt lat="46.79549" lon="4.7446">
        <ele>285.17</ele>
        <time>2010-05-16T09:28:38Z</time>
      </trkpt>
      <trkpt lat="46.79548" lon="4.74463">
        <ele>285.17</ele>
        <time>2010-05-16T09:28:39Z</time>
      </trkpt>
      <trkpt lat="46.79547" lon="4.74465">
        <ele>285.17</ele>
        <time>2010-05-16T09:28:40Z</time>
      </trkpt>
      <trkpt lat="46.79545" lon="4.74468">
        <ele>285.17</ele>
        <time>2010-05-16T09:28:41Z</time>
      </trkpt>
      <trkpt lat="46.79544" lon="4.74472">
        <ele>285.65</ele>
        <time>2010-05-16T09:28:42Z</time>
      </trkpt>
      <trkpt lat="46.79542" lon="4.74475">
        <ele>285.17</ele>
        <time>2010-05-16T09:28:43Z</time>
      </trkpt>
      <trkpt lat="46.79539" lon="4.74477">
        <ele>285.17</ele>
        <time>2010-05-16T09:28:44Z</time>
      </trkpt>
      <trkpt lat="46.79537" lon="4.7448">
        <ele>285.17</ele>
        <time>2010-05-16T09:28:45Z</time>
      </trkpt>
      <trkpt lat="46.79524" lon="4.74498">
        <ele>284.21</ele>
        <time>2010-05-16T09:28:51Z</time>
      </trkpt>
      <trkpt lat="46.7951" lon="4.74506">
        <ele>283.73</ele>
        <time>2010-05-16T09:28:57Z</time>
      </trkpt>
      <trkpt lat="46.79509" lon="4.74508">
        <ele>283.73</ele>
        <time>2010-05-16T09:29:02Z</time>
      </trkpt>
      <trkpt lat="46.79509" lon="4.74508">
        <ele>283.73</ele>
        <time>2010-05-16T09:29:16Z</time>
      </trkpt>
      <trkpt lat="46.79509" lon="4.74508">
        <ele>283.73</ele>
        <time>2010-05-16T09:29:28Z</time>
      </trkpt>
      <trkpt lat="46.79508" lon="4.74509">
        <ele>283.25</ele>
        <time>2010-05-16T09:29:47Z</time>
      </trkpt>
      <trkpt lat="46.79508" lon="4.74508">
        <ele>283.25</ele>
        <time>2010-05-16T09:29:53Z</time>
      </trkpt>
      <trkpt lat="46.79508" lon="4.74507">
        <ele>283.73</ele>
        <time>2010-05-16T09:29:54Z</time>
      </trkpt>
      <trkpt lat="46.79509" lon="4.74506">
        <ele>283.73</ele>
        <time>2010-05-16T09:29:55Z</time>
      </trkpt>
      <trkpt lat="46.7951" lon="4.74491">
        <ele>284.69</ele>
        <time>2010-05-16T09:30:02Z</time>
      </trkpt>
      <trkpt lat="46.79513" lon="4.74461">
        <ele>287.09</ele>
        <time>2010-05-16T09:30:12Z</time>
      </trkpt>
      <trkpt lat="46.79517" lon="4.74438">
        <ele>288.53</ele>
        <time>2010-05-16T09:30:19Z</time>
      </trkpt>
      <trkpt lat="46.79522" lon="4.7441">
        <ele>289.49</ele>
        <time>2010-05-16T09:30:27Z</time>
      </trkpt>
      <trkpt lat="46.79526" lon="4.74383">
        <ele>291.42</ele>
        <time>2010-05-16T09:30:35Z</time>
      </trkpt>
      <trkpt lat="46.79524" lon="4.74351">
        <ele>293.34</ele>
        <time>2010-05-16T09:30:45Z</time>
      </trkpt>
      <trkpt lat="46.79521" lon="4.74321">
        <ele>294.78</ele>
        <time>2010-05-16T09:30:55Z</time>
      </trkpt>
      <trkpt lat="46.79518" lon="4.74298">
        <ele>296.7</ele>
        <time>2010-05-16T09:31:03Z</time>
      </trkpt>
      <trkpt lat="46.79512" lon="4.74272">
        <ele>297.67</ele>
        <time>2010-05-16T09:31:12Z</time>
      </trkpt>
      <trkpt lat="46.79508" lon="4.74246">
        <ele>300.07</ele>
        <time>2010-05-16T09:31:21Z</time>
      </trkpt>
      <trkpt lat="46.79505" lon="4.74223">
        <ele>301.03</ele>
        <time>2010-05-16T09:31:29Z</time>
      </trkpt>
      <trkpt lat="46.79501" lon="4.74202">
        <ele>301.99</ele>
        <time>2010-05-16T09:31:36Z</time>
      </trkpt>
      <trkpt lat="46.79495" lon="4.74172">
        <ele>303.91</ele>
        <time>2010-05-16T09:31:46Z</time>
      </trkpt>
      <trkpt lat="46.79489" lon="4.74143">
        <ele>305.84</ele>
        <time>2010-05-16T09:31:56Z</time>
      </trkpt>
      <trkpt lat="46.79484" lon="4.74123">
        <ele>307.28</ele>
        <time>2010-05-16T09:32:03Z</time>
      </trkpt>
      <trkpt lat="46.79476" lon="4.74098">
        <ele>308.72</ele>
        <time>2010-05-16T09:32:12Z</time>
      </trkpt>
      <trkpt lat="46.79471" lon="4.7408">
        <ele>309.68</ele>
        <time>2010-05-16T09:32:19Z</time>
      </trkpt>
      <trkpt lat="46.79466" lon="4.74053">
        <ele>311.6</ele>
        <time>2010-05-16T09:32:29Z</time>
      </trkpt>
      <trkpt lat="46.79463" lon="4.7403">
        <ele>313.05</ele>
        <time>2010-05-16T09:32:37Z</time>
      </trkpt>
      <trkpt lat="46.7946" lon="4.74012">
        <ele>314.01</ele>
        <time>2010-05-16T09:32:43Z</time>
      </trkpt>
      <trkpt lat="46.79456" lon="4.73988">
        <ele>315.45</ele>
        <time>2010-05-16T09:32:51Z</time>
      </trkpt>
      <trkpt lat="46.79453" lon="4.73967">
        <ele>315.93</ele>
        <time>2010-05-16T09:32:58Z</time>
      </trkpt>
      <trkpt lat="46.79449" lon="4.73938">
        <ele>317.37</ele>
        <time>2010-05-16T09:33:08Z</time>
      </trkpt>
      <trkpt lat="46.79445" lon="4.73905">
        <ele>319.3</ele>
        <time>2010-05-16T09:33:19Z</time>
      </trkpt>
      <trkpt lat="46.79442" lon="4.73877">
        <ele>320.74</ele>
        <time>2010-05-16T09:33:29Z</time>
      </trkpt>
      <trkpt lat="46.79442" lon="4.73852">
        <ele>322.18</ele>
        <time>2010-05-16T09:33:37Z</time>
      </trkpt>
      <trkpt lat="46.79443" lon="4.73829">
        <ele>321.7</ele>
        <time>2010-05-16T09:33:44Z</time>
      </trkpt>
      <trkpt lat="46.79448" lon="4.73802">
        <ele>321.7</ele>
        <time>2010-05-16T09:33:53Z</time>
      </trkpt>
      <trkpt lat="46.79455" lon="4.73779">
        <ele>321.7</ele>
        <time>2010-05-16T09:34:00Z</time>
      </trkpt>
      <trkpt lat="46.79467" lon="4.73762">
        <ele>321.7</ele>
        <time>2010-05-16T09:34:07Z</time>
      </trkpt>
      <trkpt lat="46.79467" lon="4.73758">
        <ele>321.7</ele>
        <time>2010-05-16T09:34:08Z</time>
      </trkpt>
      <trkpt lat="46.79467" lon="4.73755">
        <ele>321.7</ele>
        <time>2010-05-16T09:34:09Z</time>
      </trkpt>
      <trkpt lat="46.79466" lon="4.73752">
        <ele>321.7</ele>
        <time>2010-05-16T09:34:10Z</time>
      </trkpt>
      <trkpt lat="46.79463" lon="4.7375">
        <ele>321.7</ele>
        <time>2010-05-16T09:34:11Z</time>
      </trkpt>
      <trkpt lat="46.7946" lon="4.73744">
        <ele>322.18</ele>
        <time>2010-05-16T09:34:13Z</time>
      </trkpt>
      <trkpt lat="46.7946" lon="4.73741">
        <ele>322.18</ele>
        <time>2010-05-16T09:34:14Z</time>
      </trkpt>
      <trkpt lat="46.7946" lon="4.73737">
        <ele>322.66</ele>
        <time>2010-05-16T09:34:15Z</time>
      </trkpt>
      <trkpt lat="46.79468" lon="4.73707">
        <ele>323.14</ele>
        <time>2010-05-16T09:34:23Z</time>
      </trkpt>
      <trkpt lat="46.79474" lon="4.73677">
        <ele>324.58</ele>
        <time>2010-05-16T09:34:31Z</time>
      </trkpt>
      <trkpt lat="46.79477" lon="4.73657">
        <ele>326.02</ele>
        <time>2010-05-16T09:34:37Z</time>
      </trkpt>
      <trkpt lat="46.79481" lon="4.73631">
        <ele>328.91</ele>
        <time>2010-05-16T09:34:45Z</time>
      </trkpt>
      <trkpt lat="46.7948" lon="4.73614">
        <ele>330.83</ele>
        <time>2010-05-16T09:34:52Z</time>
      </trkpt>
      <trkpt lat="46.79477" lon="4.73593">
        <ele>332.27</ele>
        <time>2010-05-16T09:35:00Z</time>
      </trkpt>
      <trkpt lat="46.79474" lon="4.73576">
        <ele>333.23</ele>
        <time>2010-05-16T09:35:07Z</time>
      </trkpt>
      <trkpt lat="46.79468" lon="4.73559">
        <ele>334.68</ele>
        <time>2010-05-16T09:35:15Z</time>
      </trkpt>
      <trkpt lat="46.79458" lon="4.73543">
        <ele>335.16</ele>
        <time>2010-05-16T09:35:24Z</time>
      </trkpt>
      <trkpt lat="46.79448" lon="4.73529">
        <ele>337.08</ele>
        <time>2010-05-16T09:35:32Z</time>
      </trkpt>
      <trkpt lat="46.79438" lon="4.73515">
        <ele>338.04</ele>
        <time>2010-05-16T09:35:40Z</time>
      </trkpt>
      <trkpt lat="46.7943" lon="4.73502">
        <ele>331.31</ele>
        <time>2010-05-16T09:35:47Z</time>
      </trkpt>
      <trkpt lat="46.79429" lon="4.735">
        <ele>339</ele>
        <time>2010-05-16T09:35:48Z</time>
      </trkpt>
      <trkpt lat="46.79427" lon="4.73498">
        <ele>342.37</ele>
        <time>2010-05-16T09:35:49Z</time>
      </trkpt>
      <trkpt lat="46.79426" lon="4.73496">
        <ele>339.48</ele>
        <time>2010-05-16T09:35:50Z</time>
      </trkpt>
      <trkpt lat="46.79419" lon="4.73487">
        <ele>335.64</ele>
        <time>2010-05-16T09:35:55Z</time>
      </trkpt>
      <trkpt lat="46.79415" lon="4.73484">
        <ele>339.48</ele>
        <time>2010-05-16T09:35:57Z</time>
      </trkpt>
      <trkpt lat="46.79414" lon="4.73482">
        <ele>339.48</ele>
        <time>2010-05-16T09:35:58Z</time>
      </trkpt>
      <trkpt lat="46.79401" lon="4.73467">
        <ele>340.92</ele>
        <time>2010-05-16T09:36:07Z</time>
      </trkpt>
      <trkpt lat="46.79391" lon="4.7346">
        <ele>341.41</ele>
        <time>2010-05-16T09:36:14Z</time>
      </trkpt>
      <trkpt lat="46.79388" lon="4.73454">
        <ele>341.89</ele>
        <time>2010-05-16T09:36:18Z</time>
      </trkpt>
      <trkpt lat="46.79388" lon="4.73451">
        <ele>341.89</ele>
        <time>2010-05-16T09:36:19Z</time>
      </trkpt>
      <trkpt lat="46.79388" lon="4.73449">
        <ele>342.37</ele>
        <time>2010-05-16T09:36:20Z</time>
      </trkpt>
      <trkpt lat="46.79389" lon="4.73447">
        <ele>342.85</ele>
        <time>2010-05-16T09:36:21Z</time>
      </trkpt>
      <trkpt lat="46.79389" lon="4.73445">
        <ele>342.85</ele>
        <time>2010-05-16T09:36:22Z</time>
      </trkpt>
      <trkpt lat="46.7939" lon="4.73442">
        <ele>342.85</ele>
        <time>2010-05-16T09:36:23Z</time>
      </trkpt>
      <trkpt lat="46.7939" lon="4.73439">
        <ele>342.85</ele>
        <time>2010-05-16T09:36:24Z</time>
      </trkpt>
      <trkpt lat="46.7939" lon="4.73436">
        <ele>343.33</ele>
        <time>2010-05-16T09:36:25Z</time>
      </trkpt>
      <trkpt lat="46.7939" lon="4.73433">
        <ele>343.33</ele>
        <time>2010-05-16T09:36:26Z</time>
      </trkpt>
      <trkpt lat="46.79391" lon="4.7343">
        <ele>343.81</ele>
        <time>2010-05-16T09:36:27Z</time>
      </trkpt>
      <trkpt lat="46.79392" lon="4.73427">
        <ele>343.81</ele>
        <time>2010-05-16T09:36:28Z</time>
      </trkpt>
      <trkpt lat="46.79392" lon="4.73424">
        <ele>343.81</ele>
        <time>2010-05-16T09:36:29Z</time>
      </trkpt>
      <trkpt lat="46.79393" lon="4.73422">
        <ele>343.81</ele>
        <time>2010-05-16T09:36:30Z</time>
      </trkpt>
      <trkpt lat="46.79393" lon="4.73419">
        <ele>343.81</ele>
        <time>2010-05-16T09:36:31Z</time>
      </trkpt>
      <trkpt lat="46.79393" lon="4.73416">
        <ele>344.29</ele>
        <time>2010-05-16T09:36:32Z</time>
      </trkpt>
      <trkpt lat="46.79393" lon="4.73395">
        <ele>344.77</ele>
        <time>2010-05-16T09:36:39Z</time>
      </trkpt>
      <trkpt lat="46.79393" lon="4.73386">
        <ele>344.77</ele>
        <time>2010-05-16T09:36:42Z</time>
      </trkpt>
      <trkpt lat="46.79393" lon="4.73384">
        <ele>345.25</ele>
        <time>2010-05-16T09:36:43Z</time>
      </trkpt>
      <trkpt lat="46.79396" lon="4.73364">
        <ele>345.73</ele>
        <time>2010-05-16T09:36:49Z</time>
      </trkpt>
      <trkpt lat="46.79398" lon="4.73342">
        <ele>345.25</ele>
        <time>2010-05-16T09:36:55Z</time>
      </trkpt>
      <trkpt lat="46.79404" lon="4.73317">
        <ele>344.29</ele>
        <time>2010-05-16T09:37:01Z</time>
      </trkpt>
      <trkpt lat="46.79409" lon="4.73301">
        <ele>343.81</ele>
        <time>2010-05-16T09:37:04Z</time>
      </trkpt>
      <trkpt lat="46.79422" lon="4.73278">
        <ele>341.89</ele>
        <time>2010-05-16T09:37:08Z</time>
      </trkpt>
      <trkpt lat="46.79425" lon="4.73274">
        <ele>341.89</ele>
        <time>2010-05-16T09:37:09Z</time>
      </trkpt>
      <trkpt lat="46.79426" lon="4.73269">
        <ele>341.41</ele>
        <time>2010-05-16T09:37:10Z</time>
      </trkpt>
      <trkpt lat="46.79425" lon="4.73266">
        <ele>340.44</ele>
        <time>2010-05-16T09:37:11Z</time>
      </trkpt>
      <trkpt lat="46.79424" lon="4.73263">
        <ele>340.44</ele>
        <time>2010-05-16T09:37:12Z</time>
      </trkpt>
      <trkpt lat="46.7942" lon="4.73257">
        <ele>339.96</ele>
        <time>2010-05-16T09:37:14Z</time>
      </trkpt>
      <trkpt lat="46.79417" lon="4.73254">
        <ele>340.44</ele>
        <time>2010-05-16T09:37:15Z</time>
      </trkpt>
      <trkpt lat="46.79415" lon="4.7325">
        <ele>340.44</ele>
        <time>2010-05-16T09:37:17Z</time>
      </trkpt>
      <trkpt lat="46.79413" lon="4.73246">
        <ele>339.96</ele>
        <time>2010-05-16T09:37:18Z</time>
      </trkpt>
      <trkpt lat="46.7941" lon="4.73241">
        <ele>339.96</ele>
        <time>2010-05-16T09:37:19Z</time>
      </trkpt>
      <trkpt lat="46.79408" lon="4.73237">
        <ele>339.96</ele>
        <time>2010-05-16T09:37:20Z</time>
      </trkpt>
      <trkpt lat="46.79407" lon="4.73233">
        <ele>339.96</ele>
        <time>2010-05-16T09:37:21Z</time>
      </trkpt>
      <trkpt lat="46.79405" lon="4.73228">
        <ele>339.48</ele>
        <time>2010-05-16T09:37:22Z</time>
      </trkpt>
      <trkpt lat="46.79403" lon="4.73222">
        <ele>339</ele>
        <time>2010-05-16T09:37:23Z</time>
      </trkpt>
      <trkpt lat="46.79397" lon="4.73208">
        <ele>338.52</ele>
        <time>2010-05-16T09:37:26Z</time>
      </trkpt>
      <trkpt lat="46.79394" lon="4.73204">
        <ele>339</ele>
        <time>2010-05-16T09:37:27Z</time>
      </trkpt>
      <trkpt lat="46.7939" lon="4.73198">
        <ele>338.52</ele>
        <time>2010-05-16T09:37:28Z</time>
      </trkpt>
      <trkpt lat="46.79387" lon="4.73193">
        <ele>338.52</ele>
        <time>2010-05-16T09:37:29Z</time>
      </trkpt>
      <trkpt lat="46.79384" lon="4.73188">
        <ele>339</ele>
        <time>2010-05-16T09:37:30Z</time>
      </trkpt>
      <trkpt lat="46.79377" lon="4.73173">
        <ele>338.52</ele>
        <time>2010-05-16T09:37:33Z</time>
      </trkpt>
      <trkpt lat="46.79375" lon="4.73168">
        <ele>338.52</ele>
        <time>2010-05-16T09:37:34Z</time>
      </trkpt>
      <trkpt lat="46.79373" lon="4.73164">
        <ele>339</ele>
        <time>2010-05-16T09:37:35Z</time>
      </trkpt>
      <trkpt lat="46.79371" lon="4.7316">
        <ele>339</ele>
        <time>2010-05-16T09:37:36Z</time>
      </trkpt>
      <trkpt lat="46.7937" lon="4.73157">
        <ele>339</ele>
        <time>2010-05-16T09:37:37Z</time>
      </trkpt>
      <trkpt lat="46.79369" lon="4.73153">
        <ele>339</ele>
        <time>2010-05-16T09:37:38Z</time>
      </trkpt>
      <trkpt lat="46.79371" lon="4.73136">
        <ele>337.56</ele>
        <time>2010-05-16T09:37:42Z</time>
      </trkpt>
      <trkpt lat="46.79372" lon="4.73131">
        <ele>336.12</ele>
        <time>2010-05-16T09:37:44Z</time>
      </trkpt>
      <trkpt lat="46.79373" lon="4.73123">
        <ele>335.64</ele>
        <time>2010-05-16T09:37:46Z</time>
      </trkpt>
      <trkpt lat="46.79381" lon="4.73102">
        <ele>332.75</ele>
        <time>2010-05-16T09:37:52Z</time>
      </trkpt>
      <trkpt lat="46.79391" lon="4.7309">
        <ele>331.31</ele>
        <time>2010-05-16T09:37:55Z</time>
      </trkpt>
      <trkpt lat="46.79398" lon="4.73083">
        <ele>329.87</ele>
        <time>2010-05-16T09:37:57Z</time>
      </trkpt>
      <trkpt lat="46.79415" lon="4.73064">
        <ele>326.02</ele>
        <time>2010-05-16T09:38:02Z</time>
      </trkpt>
      <trkpt lat="46.79428" lon="4.7305">
        <ele>322.66</ele>
        <time>2010-05-16T09:38:07Z</time>
      </trkpt>
      <trkpt lat="46.79437" lon="4.73039">
        <ele>318.81</ele>
        <time>2010-05-16T09:38:11Z</time>
      </trkpt>
      <trkpt lat="46.7944" lon="4.73037">
        <ele>317.85</ele>
        <time>2010-05-16T09:38:12Z</time>
      </trkpt>
      <trkpt lat="46.79455" lon="4.73026">
        <ele>314.49</ele>
        <time>2010-05-16T09:38:16Z</time>
      </trkpt>
      <trkpt lat="46.79466" lon="4.72999">
        <ele>310.64</ele>
        <time>2010-05-16T09:38:21Z</time>
      </trkpt>
      <trkpt lat="46.79475" lon="4.7298">
        <ele>308.24</ele>
        <time>2010-05-16T09:38:25Z</time>
      </trkpt>
      <trkpt lat="46.79488" lon="4.72954">
        <ele>304.39</ele>
        <time>2010-05-16T09:38:29Z</time>
      </trkpt>
      <trkpt lat="46.79497" lon="4.72943">
        <ele>302.47</ele>
        <time>2010-05-16T09:38:31Z</time>
      </trkpt>
      <trkpt lat="46.79512" lon="4.72918">
        <ele>296.7</ele>
        <time>2010-05-16T09:38:36Z</time>
      </trkpt>
      <trkpt lat="46.79519" lon="4.72909">
        <ele>295.74</ele>
        <time>2010-05-16T09:38:38Z</time>
      </trkpt>
      <trkpt lat="46.79531" lon="4.72895">
        <ele>291.42</ele>
        <time>2010-05-16T09:38:42Z</time>
      </trkpt>
      <trkpt lat="46.79535" lon="4.72889">
        <ele>290.94</ele>
        <time>2010-05-16T09:38:44Z</time>
      </trkpt>
      <trkpt lat="46.79539" lon="4.72867">
        <ele>289.49</ele>
        <time>2010-05-16T09:38:49Z</time>
      </trkpt>
      <trkpt lat="46.79533" lon="4.72851">
        <ele>290.46</ele>
        <time>2010-05-16T09:38:54Z</time>
      </trkpt>
      <trkpt lat="46.79524" lon="4.72836">
        <ele>291.42</ele>
        <time>2010-05-16T09:38:59Z</time>
      </trkpt>
      <trkpt lat="46.79522" lon="4.72831">
        <ele>291.9</ele>
        <time>2010-05-16T09:39:01Z</time>
      </trkpt>
      <trkpt lat="46.79508" lon="4.72818">
        <ele>294.3</ele>
        <time>2010-05-16T09:39:08Z</time>
      </trkpt>
      <trkpt lat="46.79504" lon="4.72816">
        <ele>294.3</ele>
        <time>2010-05-16T09:39:10Z</time>
      </trkpt>
      <trkpt lat="46.79491" lon="4.72807">
        <ele>295.74</ele>
        <time>2010-05-16T09:39:17Z</time>
      </trkpt>
      <trkpt lat="46.7949" lon="4.72806">
        <ele>295.26</ele>
        <time>2010-05-16T09:39:18Z</time>
      </trkpt>
      <trkpt lat="46.79487" lon="4.72797">
        <ele>295.74</ele>
        <time>2010-05-16T09:39:22Z</time>
      </trkpt>
      <trkpt lat="46.79485" lon="4.7278">
        <ele>295.26</ele>
        <time>2010-05-16T09:39:28Z</time>
      </trkpt>
      <trkpt lat="46.79475" lon="4.72765">
        <ele>295.26</ele>
        <time>2010-05-16T09:39:33Z</time>
      </trkpt>
      <trkpt lat="46.79463" lon="4.72746">
        <ele>294.78</ele>
        <time>2010-05-16T09:39:38Z</time>
      </trkpt>
      <trkpt lat="46.79458" lon="4.72714">
        <ele>291.42</ele>
        <time>2010-05-16T09:39:43Z</time>
      </trkpt>
      <trkpt lat="46.79458" lon="4.72707">
        <ele>290.46</ele>
        <time>2010-05-16T09:39:44Z</time>
      </trkpt>
      <trkpt lat="46.7946" lon="4.72682">
        <ele>287.09</ele>
        <time>2010-05-16T09:39:47Z</time>
      </trkpt>
      <trkpt lat="46.7946" lon="4.72643">
        <ele>284.21</ele>
        <time>2010-05-16T09:39:51Z</time>
      </trkpt>
      <trkpt lat="46.79463" lon="4.72596">
        <ele>278.92</ele>
        <time>2010-05-16T09:39:56Z</time>
      </trkpt>
      <trkpt lat="46.79464" lon="4.72589">
        <ele>278.44</ele>
        <time>2010-05-16T09:39:57Z</time>
      </trkpt>
      <trkpt lat="46.79476" lon="4.7256">
        <ele>274.59</ele>
        <time>2010-05-16T09:40:02Z</time>
      </trkpt>
      <trkpt lat="46.79488" lon="4.72537">
        <ele>271.71</ele>
        <time>2010-05-16T09:40:06Z</time>
      </trkpt>
      <trkpt lat="46.79495" lon="4.72525">
        <ele>269.79</ele>
        <time>2010-05-16T09:40:09Z</time>
      </trkpt>
      <trkpt lat="46.79505" lon="4.72522">
        <ele>268.35</ele>
        <time>2010-05-16T09:40:14Z</time>
      </trkpt>
      <trkpt lat="46.79506" lon="4.72521">
        <ele>268.35</ele>
        <time>2010-05-16T09:40:20Z</time>
      </trkpt>
      <trkpt lat="46.79506" lon="4.7252">
        <ele>266.9</ele>
        <time>2010-05-16T09:41:05Z</time>
      </trkpt>
      <trkpt lat="46.79506" lon="4.72519">
        <ele>266.42</ele>
        <time>2010-05-16T09:41:37Z</time>
      </trkpt>
      <trkpt lat="46.79506" lon="4.72519">
        <ele>266.9</ele>
        <time>2010-05-16T09:41:47Z</time>
      </trkpt>
      <trkpt lat="46.79512" lon="4.7252">
        <ele>266.9</ele>
        <time>2010-05-16T09:42:04Z</time>
      </trkpt>
      <trkpt lat="46.79515" lon="4.72521">
        <ele>266.9</ele>
        <time>2010-05-16T09:42:05Z</time>
      </trkpt>
      <trkpt lat="46.79525" lon="4.72527">
        <ele>265.94</ele>
        <time>2010-05-16T09:42:09Z</time>
      </trkpt>
      <trkpt lat="46.79531" lon="4.72532">
        <ele>265.46</ele>
        <time>2010-05-16T09:42:11Z</time>
      </trkpt>
      <trkpt lat="46.79536" lon="4.72534">
        <ele>265.46</ele>
        <time>2010-05-16T09:42:12Z</time>
      </trkpt>
      <trkpt lat="46.7954" lon="4.72538">
        <ele>265.46</ele>
        <time>2010-05-16T09:42:13Z</time>
      </trkpt>
      <trkpt lat="46.79545" lon="4.72543">
        <ele>264.98</ele>
        <time>2010-05-16T09:42:14Z</time>
      </trkpt>
      <trkpt lat="46.79549" lon="4.72548">
        <ele>264.5</ele>
        <time>2010-05-16T09:42:15Z</time>
      </trkpt>
      <trkpt lat="46.79552" lon="4.72554">
        <ele>264.5</ele>
        <time>2010-05-16T09:42:16Z</time>
      </trkpt>
      <trkpt lat="46.79556" lon="4.72559">
        <ele>264.02</ele>
        <time>2010-05-16T09:42:17Z</time>
      </trkpt>
      <trkpt lat="46.79561" lon="4.72565">
        <ele>263.54</ele>
        <time>2010-05-16T09:42:18Z</time>
      </trkpt>
      <trkpt lat="46.79594" lon="4.72606">
        <ele>262.1</ele>
        <time>2010-05-16T09:42:24Z</time>
      </trkpt>
      <trkpt lat="46.79616" lon="4.72635">
        <ele>258.25</ele>
        <time>2010-05-16T09:42:28Z</time>
      </trkpt>
      <trkpt lat="46.79621" lon="4.72644">
        <ele>258.25</ele>
        <time>2010-05-16T09:42:29Z</time>
      </trkpt>
      <trkpt lat="46.79625" lon="4.72652">
        <ele>257.77</ele>
        <time>2010-05-16T09:42:30Z</time>
      </trkpt>
      <trkpt lat="46.79651" lon="4.727">
        <ele>254.89</ele>
        <time>2010-05-16T09:42:36Z</time>
      </trkpt>
      <trkpt lat="46.79657" lon="4.72707">
        <ele>254.89</ele>
        <time>2010-05-16T09:42:37Z</time>
      </trkpt>
      <trkpt lat="46.79661" lon="4.72715">
        <ele>254.41</ele>
        <time>2010-05-16T09:42:38Z</time>
      </trkpt>
      <trkpt lat="46.79665" lon="4.72722">
        <ele>252.96</ele>
        <time>2010-05-16T09:42:39Z</time>
      </trkpt>
      <trkpt lat="46.7967" lon="4.72728">
        <ele>252.96</ele>
        <time>2010-05-16T09:42:40Z</time>
      </trkpt>
      <trkpt lat="46.79674" lon="4.72733">
        <ele>251.52</ele>
        <time>2010-05-16T09:42:41Z</time>
      </trkpt>
      <trkpt lat="46.7968" lon="4.7274">
        <ele>250.56</ele>
        <time>2010-05-16T09:42:43Z</time>
      </trkpt>
      <trkpt lat="46.79683" lon="4.72743">
        <ele>250.08</ele>
        <time>2010-05-16T09:42:44Z</time>
      </trkpt>
      <trkpt lat="46.79686" lon="4.72744">
        <ele>249.12</ele>
        <time>2010-05-16T09:42:45Z</time>
      </trkpt>
      <trkpt lat="46.79689" lon="4.72744">
        <ele>248.64</ele>
        <time>2010-05-16T09:42:46Z</time>
      </trkpt>
      <trkpt lat="46.79693" lon="4.72744">
        <ele>248.16</ele>
        <time>2010-05-16T09:42:47Z</time>
      </trkpt>
      <trkpt lat="46.79698" lon="4.72743">
        <ele>247.68</ele>
        <time>2010-05-16T09:42:48Z</time>
      </trkpt>
      <trkpt lat="46.79703" lon="4.72745">
        <ele>247.2</ele>
        <time>2010-05-16T09:42:49Z</time>
      </trkpt>
      <trkpt lat="46.79708" lon="4.72748">
        <ele>246.72</ele>
        <time>2010-05-16T09:42:50Z</time>
      </trkpt>
      <trkpt lat="46.79713" lon="4.72753">
        <ele>247.2</ele>
        <time>2010-05-16T09:42:51Z</time>
      </trkpt>
      <trkpt lat="46.79719" lon="4.72757">
        <ele>246.72</ele>
        <time>2010-05-16T09:42:52Z</time>
      </trkpt>
      <trkpt lat="46.79742" lon="4.72773">
        <ele>245.75</ele>
        <time>2010-05-16T09:42:56Z</time>
      </trkpt>
      <trkpt lat="46.79764" lon="4.72795">
        <ele>246.23</ele>
        <time>2010-05-16T09:43:00Z</time>
      </trkpt>
      <trkpt lat="46.79802" lon="4.7285">
        <ele>243.83</ele>
        <time>2010-05-16T09:43:08Z</time>
      </trkpt>
      <trkpt lat="46.79806" lon="4.72857">
        <ele>243.35</ele>
        <time>2010-05-16T09:43:09Z</time>
      </trkpt>
      <trkpt lat="46.79819" lon="4.72876">
        <ele>242.87</ele>
        <time>2010-05-16T09:43:12Z</time>
      </trkpt>
      <trkpt lat="46.79823" lon="4.72883">
        <ele>243.35</ele>
        <time>2010-05-16T09:43:13Z</time>
      </trkpt>
      <trkpt lat="46.79825" lon="4.72891">
        <ele>243.35</ele>
        <time>2010-05-16T09:43:14Z</time>
      </trkpt>
      <trkpt lat="46.79828" lon="4.72897">
        <ele>242.87</ele>
        <time>2010-05-16T09:43:15Z</time>
      </trkpt>
      <trkpt lat="46.7983" lon="4.72904">
        <ele>242.87</ele>
        <time>2010-05-16T09:43:16Z</time>
      </trkpt>
      <trkpt lat="46.79833" lon="4.72911">
        <ele>242.87</ele>
        <time>2010-05-16T09:43:17Z</time>
      </trkpt>
      <trkpt lat="46.79843" lon="4.72935">
        <ele>241.91</ele>
        <time>2010-05-16T09:43:20Z</time>
      </trkpt>
      <trkpt lat="46.79848" lon="4.72941">
        <ele>241.43</ele>
        <time>2010-05-16T09:43:21Z</time>
      </trkpt>
      <trkpt lat="46.79875" lon="4.72968">
        <ele>239.51</ele>
        <time>2010-05-16T09:43:26Z</time>
      </trkpt>
      <trkpt lat="46.79881" lon="4.72972">
        <ele>239.51</ele>
        <time>2010-05-16T09:43:27Z</time>
      </trkpt>
      <trkpt lat="46.79924" lon="4.73002">
        <ele>237.58</ele>
        <time>2010-05-16T09:43:33Z</time>
      </trkpt>
      <trkpt lat="46.79943" lon="4.73024">
        <ele>237.58</ele>
        <time>2010-05-16T09:43:36Z</time>
      </trkpt>
      <trkpt lat="46.79994" lon="4.73063">
        <ele>235.18</ele>
        <time>2010-05-16T09:43:43Z</time>
      </trkpt>
      <trkpt lat="46.8003" lon="4.73092">
        <ele>231.81</ele>
        <time>2010-05-16T09:43:48Z</time>
      </trkpt>
      <trkpt lat="46.80037" lon="4.73098">
        <ele>231.33</ele>
        <time>2010-05-16T09:43:49Z</time>
      </trkpt>
      <trkpt lat="46.80081" lon="4.73132">
        <ele>229.89</ele>
        <time>2010-05-16T09:43:55Z</time>
      </trkpt>
      <trkpt lat="46.80094" lon="4.73146">
        <ele>228.93</ele>
        <time>2010-05-16T09:43:57Z</time>
      </trkpt>
      <trkpt lat="46.80099" lon="4.73154">
        <ele>228.93</ele>
        <time>2010-05-16T09:43:58Z</time>
      </trkpt>
      <trkpt lat="46.80115" lon="4.7318">
        <ele>228.93</ele>
        <time>2010-05-16T09:44:01Z</time>
      </trkpt>
      <trkpt lat="46.80121" lon="4.73187">
        <ele>228.45</ele>
        <time>2010-05-16T09:44:02Z</time>
      </trkpt>
      <trkpt lat="46.80127" lon="4.73194">
        <ele>228.45</ele>
        <time>2010-05-16T09:44:03Z</time>
      </trkpt>
      <trkpt lat="46.80171" lon="4.73241">
        <ele>226.53</ele>
        <time>2010-05-16T09:44:10Z</time>
      </trkpt>
      <trkpt lat="46.80178" lon="4.73247">
        <ele>226.53</ele>
        <time>2010-05-16T09:44:11Z</time>
      </trkpt>
      <trkpt lat="46.80225" lon="4.73284">
        <ele>225.09</ele>
        <time>2010-05-16T09:44:18Z</time>
      </trkpt>
      <trkpt lat="46.80236" lon="4.73298">
        <ele>224.12</ele>
        <time>2010-05-16T09:44:20Z</time>
      </trkpt>
      <trkpt lat="46.80241" lon="4.73305">
        <ele>224.12</ele>
        <time>2010-05-16T09:44:21Z</time>
      </trkpt>
      <trkpt lat="46.80279" lon="4.7334">
        <ele>223.16</ele>
        <time>2010-05-16T09:44:28Z</time>
      </trkpt>
      <trkpt lat="46.80284" lon="4.73342">
        <ele>223.16</ele>
        <time>2010-05-16T09:44:29Z</time>
      </trkpt>
      <trkpt lat="46.80288" lon="4.73341">
        <ele>223.16</ele>
        <time>2010-05-16T09:44:30Z</time>
      </trkpt>
      <trkpt lat="46.80293" lon="4.73337">
        <ele>223.16</ele>
        <time>2010-05-16T09:44:31Z</time>
      </trkpt>
      <trkpt lat="46.80297" lon="4.73332">
        <ele>223.64</ele>
        <time>2010-05-16T09:44:32Z</time>
      </trkpt>
      <trkpt lat="46.80301" lon="4.73326">
        <ele>223.64</ele>
        <time>2010-05-16T09:44:33Z</time>
      </trkpt>
      <trkpt lat="46.80305" lon="4.73321">
        <ele>223.64</ele>
        <time>2010-05-16T09:44:34Z</time>
      </trkpt>
      <trkpt lat="46.80338" lon="4.73284">
        <ele>223.64</ele>
        <time>2010-05-16T09:44:42Z</time>
      </trkpt>
      <trkpt lat="46.80365" lon="4.73243">
        <ele>223.64</ele>
        <time>2010-05-16T09:44:49Z</time>
      </trkpt>
      <trkpt lat="46.80369" lon="4.73238">
        <ele>223.16</ele>
        <time>2010-05-16T09:44:50Z</time>
      </trkpt>
      <trkpt lat="46.80374" lon="4.73234">
        <ele>223.64</ele>
        <time>2010-05-16T09:44:51Z</time>
      </trkpt>
      <trkpt lat="46.80379" lon="4.73231">
        <ele>223.16</ele>
        <time>2010-05-16T09:44:52Z</time>
      </trkpt>
      <trkpt lat="46.80384" lon="4.73229">
        <ele>223.16</ele>
        <time>2010-05-16T09:44:53Z</time>
      </trkpt>
      <trkpt lat="46.80389" lon="4.73228">
        <ele>223.16</ele>
        <time>2010-05-16T09:44:54Z</time>
      </trkpt>
      <trkpt lat="46.80426" lon="4.73231">
        <ele>222.2</ele>
        <time>2010-05-16T09:45:01Z</time>
      </trkpt>
      <trkpt lat="46.80436" lon="4.73234">
        <ele>221.72</ele>
        <time>2010-05-16T09:45:03Z</time>
      </trkpt>
      <trkpt lat="46.80445" lon="4.73241">
        <ele>221.24</ele>
        <time>2010-05-16T09:45:05Z</time>
      </trkpt>
      <trkpt lat="46.8045" lon="4.73245">
        <ele>221.24</ele>
        <time>2010-05-16T09:45:06Z</time>
      </trkpt>
      <trkpt lat="46.80454" lon="4.73249">
        <ele>220.76</ele>
        <time>2010-05-16T09:45:07Z</time>
      </trkpt>
      <trkpt lat="46.80459" lon="4.73252">
        <ele>220.76</ele>
        <time>2010-05-16T09:45:08Z</time>
      </trkpt>
      <trkpt lat="46.80464" lon="4.73254">
        <ele>220.28</ele>
        <time>2010-05-16T09:45:09Z</time>
      </trkpt>
      <trkpt lat="46.8047" lon="4.73254">
        <ele>220.76</ele>
        <time>2010-05-16T09:45:10Z</time>
      </trkpt>
      <trkpt lat="46.80475" lon="4.73252">
        <ele>219.8</ele>
        <time>2010-05-16T09:45:11Z</time>
      </trkpt>
      <trkpt lat="46.8048" lon="4.73249">
        <ele>220.28</ele>
        <time>2010-05-16T09:45:12Z</time>
      </trkpt>
      <trkpt lat="46.80485" lon="4.73245">
        <ele>219.8</ele>
        <time>2010-05-16T09:45:13Z</time>
      </trkpt>
      <trkpt lat="46.80526" lon="4.73208">
        <ele>218.36</ele>
        <time>2010-05-16T09:45:21Z</time>
      </trkpt>
      <trkpt lat="46.80574" lon="4.73169">
        <ele>215.95</ele>
        <time>2010-05-16T09:45:29Z</time>
      </trkpt>
      <trkpt lat="46.80609" lon="4.73147">
        <ele>214.03</ele>
        <time>2010-05-16T09:45:34Z</time>
      </trkpt>
      <trkpt lat="46.80636" lon="4.73129">
        <ele>212.59</ele>
        <time>2010-05-16T09:45:38Z</time>
      </trkpt>
      <trkpt lat="46.80685" lon="4.73097">
        <ele>212.59</ele>
        <time>2010-05-16T09:45:46Z</time>
      </trkpt>
      <trkpt lat="46.80691" lon="4.73092">
        <ele>212.59</ele>
        <time>2010-05-16T09:45:47Z</time>
      </trkpt>
      <trkpt lat="46.80695" lon="4.73086">
        <ele>212.11</ele>
        <time>2010-05-16T09:45:48Z</time>
      </trkpt>
      <trkpt lat="46.80699" lon="4.7308">
        <ele>212.11</ele>
        <time>2010-05-16T09:45:49Z</time>
      </trkpt>
      <trkpt lat="46.80702" lon="4.73072">
        <ele>212.11</ele>
        <time>2010-05-16T09:45:50Z</time>
      </trkpt>
      <trkpt lat="46.80704" lon="4.73064">
        <ele>212.11</ele>
        <time>2010-05-16T09:45:51Z</time>
      </trkpt>
      <trkpt lat="46.80705" lon="4.73056">
        <ele>212.59</ele>
        <time>2010-05-16T09:45:52Z</time>
      </trkpt>
      <trkpt lat="46.80707" lon="4.73048">
        <ele>212.59</ele>
        <time>2010-05-16T09:45:53Z</time>
      </trkpt>
      <trkpt lat="46.80719" lon="4.72987">
        <ele>213.55</ele>
        <time>2010-05-16T09:46:01Z</time>
      </trkpt>
      <trkpt lat="46.80744" lon="4.72925">
        <ele>213.07</ele>
        <time>2010-05-16T09:46:10Z</time>
      </trkpt>
      <trkpt lat="46.80777" lon="4.72872">
        <ele>212.59</ele>
        <time>2010-05-16T09:46:19Z</time>
      </trkpt>
      <trkpt lat="46.80826" lon="4.72821">
        <ele>212.59</ele>
        <time>2010-05-16T09:46:30Z</time>
      </trkpt>
      <trkpt lat="46.80868" lon="4.72792">
        <ele>211.63</ele>
        <time>2010-05-16T09:46:38Z</time>
      </trkpt>
      <trkpt lat="46.80873" lon="4.72787">
        <ele>212.11</ele>
        <time>2010-05-16T09:46:39Z</time>
      </trkpt>
      <trkpt lat="46.80877" lon="4.72782">
        <ele>212.11</ele>
        <time>2010-05-16T09:46:40Z</time>
      </trkpt>
      <trkpt lat="46.80881" lon="4.72775">
        <ele>211.63</ele>
        <time>2010-05-16T09:46:41Z</time>
      </trkpt>
      <trkpt lat="46.80884" lon="4.72768">
        <ele>212.11</ele>
        <time>2010-05-16T09:46:42Z</time>
      </trkpt>
      <trkpt lat="46.80887" lon="4.7276">
        <ele>211.15</ele>
        <time>2010-05-16T09:46:43Z</time>
      </trkpt>
      <trkpt lat="46.80888" lon="4.72752">
        <ele>211.15</ele>
        <time>2010-05-16T09:46:44Z</time>
      </trkpt>
      <trkpt lat="46.8089" lon="4.72744">
        <ele>210.67</ele>
        <time>2010-05-16T09:46:45Z</time>
      </trkpt>
      <trkpt lat="46.80893" lon="4.72729">
        <ele>210.67</ele>
        <time>2010-05-16T09:46:47Z</time>
      </trkpt>
      <trkpt lat="46.80897" lon="4.72723">
        <ele>210.67</ele>
        <time>2010-05-16T09:46:48Z</time>
      </trkpt>
      <trkpt lat="46.80901" lon="4.72718">
        <ele>210.19</ele>
        <time>2010-05-16T09:46:49Z</time>
      </trkpt>
      <trkpt lat="46.80906" lon="4.72715">
        <ele>210.19</ele>
        <time>2010-05-16T09:46:50Z</time>
      </trkpt>
      <trkpt lat="46.80911" lon="4.72711">
        <ele>209.22</ele>
        <time>2010-05-16T09:46:51Z</time>
      </trkpt>
      <trkpt lat="46.80942" lon="4.7269">
        <ele>208.26</ele>
        <time>2010-05-16T09:46:57Z</time>
      </trkpt>
      <trkpt lat="46.80948" lon="4.72689">
        <ele>208.26</ele>
        <time>2010-05-16T09:46:58Z</time>
      </trkpt>
      <trkpt lat="46.80953" lon="4.72689">
        <ele>208.26</ele>
        <time>2010-05-16T09:46:59Z</time>
      </trkpt>
      <trkpt lat="46.80971" lon="4.72689">
        <ele>207.78</ele>
        <time>2010-05-16T09:47:02Z</time>
      </trkpt>
      <trkpt lat="46.80977" lon="4.72688">
        <ele>207.78</ele>
        <time>2010-05-16T09:47:03Z</time>
      </trkpt>
      <trkpt lat="46.80993" lon="4.72686">
        <ele>207.78</ele>
        <time>2010-05-16T09:47:06Z</time>
      </trkpt>
      <trkpt lat="46.80996" lon="4.72682">
        <ele>207.3</ele>
        <time>2010-05-16T09:47:07Z</time>
      </trkpt>
      <trkpt lat="46.80999" lon="4.72675">
        <ele>207.3</ele>
        <time>2010-05-16T09:47:08Z</time>
      </trkpt>
      <trkpt lat="46.80999" lon="4.72668">
        <ele>207.78</ele>
        <time>2010-05-16T09:47:09Z</time>
      </trkpt>
      <trkpt lat="46.80999" lon="4.72662">
        <ele>207.78</ele>
        <time>2010-05-16T09:47:10Z</time>
      </trkpt>
      <trkpt lat="46.80998" lon="4.72655">
        <ele>207.3</ele>
        <time>2010-05-16T09:47:11Z</time>
      </trkpt>
      <trkpt lat="46.80998" lon="4.72649">
        <ele>207.3</ele>
        <time>2010-05-16T09:47:12Z</time>
      </trkpt>
      <trkpt lat="46.80997" lon="4.72642">
        <ele>207.78</ele>
        <time>2010-05-16T09:47:13Z</time>
      </trkpt>
      <trkpt lat="46.80996" lon="4.72635">
        <ele>207.78</ele>
        <time>2010-05-16T09:47:14Z</time>
      </trkpt>
      <trkpt lat="46.80983" lon="4.72591">
        <ele>208.26</ele>
        <time>2010-05-16T09:47:21Z</time>
      </trkpt>
      <trkpt lat="46.80982" lon="4.72584">
        <ele>208.26</ele>
        <time>2010-05-16T09:47:22Z</time>
      </trkpt>
      <trkpt lat="46.80981" lon="4.72563">
        <ele>208.26</ele>
        <time>2010-05-16T09:47:25Z</time>
      </trkpt>
      <trkpt lat="46.8098" lon="4.72527">
        <ele>208.74</ele>
        <time>2010-05-16T09:47:30Z</time>
      </trkpt>
      <trkpt lat="46.80981" lon="4.72521">
        <ele>208.26</ele>
        <time>2010-05-16T09:47:31Z</time>
      </trkpt>
      <trkpt lat="46.80982" lon="4.72507">
        <ele>208.74</ele>
        <time>2010-05-16T09:47:33Z</time>
      </trkpt>
      <trkpt lat="46.80982" lon="4.725">
        <ele>208.74</ele>
        <time>2010-05-16T09:47:34Z</time>
      </trkpt>
      <trkpt lat="46.80982" lon="4.72492">
        <ele>208.74</ele>
        <time>2010-05-16T09:47:35Z</time>
      </trkpt>
      <trkpt lat="46.80983" lon="4.72485">
        <ele>208.74</ele>
        <time>2010-05-16T09:47:36Z</time>
      </trkpt>
      <trkpt lat="46.80985" lon="4.72478">
        <ele>208.74</ele>
        <time>2010-05-16T09:47:37Z</time>
      </trkpt>
      <trkpt lat="46.80987" lon="4.72471">
        <ele>208.74</ele>
        <time>2010-05-16T09:47:38Z</time>
      </trkpt>
      <trkpt lat="46.80991" lon="4.72465">
        <ele>208.74</ele>
        <time>2010-05-16T09:47:39Z</time>
      </trkpt>
      <trkpt lat="46.80996" lon="4.72461">
        <ele>208.26</ele>
        <time>2010-05-16T09:47:40Z</time>
      </trkpt>
      <trkpt lat="46.81001" lon="4.72456">
        <ele>207.78</ele>
        <time>2010-05-16T09:47:41Z</time>
      </trkpt>
      <trkpt lat="46.81007" lon="4.72453">
        <ele>208.26</ele>
        <time>2010-05-16T09:47:42Z</time>
      </trkpt>
      <trkpt lat="46.81013" lon="4.7245">
        <ele>208.26</ele>
        <time>2010-05-16T09:47:43Z</time>
      </trkpt>
      <trkpt lat="46.81018" lon="4.72447">
        <ele>208.26</ele>
        <time>2010-05-16T09:47:44Z</time>
      </trkpt>
      <trkpt lat="46.81024" lon="4.72445">
        <ele>208.26</ele>
        <time>2010-05-16T09:47:45Z</time>
      </trkpt>
      <trkpt lat="46.81029" lon="4.72443">
        <ele>207.78</ele>
        <time>2010-05-16T09:47:46Z</time>
      </trkpt>
      <trkpt lat="46.81055" lon="4.72425">
        <ele>208.26</ele>
        <time>2010-05-16T09:47:52Z</time>
      </trkpt>
      <trkpt lat="46.81067" lon="4.7241">
        <ele>207.78</ele>
        <time>2010-05-16T09:47:57Z</time>
      </trkpt>
      <trkpt lat="46.81076" lon="4.72369">
        <ele>208.74</ele>
        <time>2010-05-16T09:48:04Z</time>
      </trkpt>
      <trkpt lat="46.81079" lon="4.72364">
        <ele>208.74</ele>
        <time>2010-05-16T09:48:05Z</time>
      </trkpt>
      <trkpt lat="46.81082" lon="4.7236">
        <ele>208.74</ele>
        <time>2010-05-16T09:48:06Z</time>
      </trkpt>
      <trkpt lat="46.81087" lon="4.72357">
        <ele>208.26</ele>
        <time>2010-05-16T09:48:07Z</time>
      </trkpt>
      <trkpt lat="46.81093" lon="4.72355">
        <ele>208.74</ele>
        <time>2010-05-16T09:48:08Z</time>
      </trkpt>
      <trkpt lat="46.81098" lon="4.72354">
        <ele>208.26</ele>
        <time>2010-05-16T09:48:09Z</time>
      </trkpt>
      <trkpt lat="46.81104" lon="4.72354">
        <ele>207.78</ele>
        <time>2010-05-16T09:48:10Z</time>
      </trkpt>
      <trkpt lat="46.81148" lon="4.72356">
        <ele>207.3</ele>
        <time>2010-05-16T09:48:17Z</time>
      </trkpt>
      <trkpt lat="46.81154" lon="4.72355">
        <ele>207.3</ele>
        <time>2010-05-16T09:48:18Z</time>
      </trkpt>
      <trkpt lat="46.8116" lon="4.72355">
        <ele>206.82</ele>
        <time>2010-05-16T09:48:19Z</time>
      </trkpt>
      <trkpt lat="46.81166" lon="4.72355">
        <ele>206.34</ele>
        <time>2010-05-16T09:48:20Z</time>
      </trkpt>
      <trkpt lat="46.81172" lon="4.72353">
        <ele>205.86</ele>
        <time>2010-05-16T09:48:21Z</time>
      </trkpt>
      <trkpt lat="46.81177" lon="4.72352">
        <ele>206.34</ele>
        <time>2010-05-16T09:48:22Z</time>
      </trkpt>
      <trkpt lat="46.81182" lon="4.7235">
        <ele>206.34</ele>
        <time>2010-05-16T09:48:23Z</time>
      </trkpt>
      <trkpt lat="46.81198" lon="4.72345">
        <ele>205.86</ele>
        <time>2010-05-16T09:48:28Z</time>
      </trkpt>
      <trkpt lat="46.81202" lon="4.72343">
        <ele>205.86</ele>
        <time>2010-05-16T09:48:30Z</time>
      </trkpt>
      <trkpt lat="46.81204" lon="4.7234">
        <ele>205.86</ele>
        <time>2010-05-16T09:48:31Z</time>
      </trkpt>
      <trkpt lat="46.81214" lon="4.72317">
        <ele>206.82</ele>
        <time>2010-05-16T09:48:36Z</time>
      </trkpt>
      <trkpt lat="46.81226" lon="4.72294">
        <ele>206.82</ele>
        <time>2010-05-16T09:48:41Z</time>
      </trkpt>
      <trkpt lat="46.81249" lon="4.72258">
        <ele>208.26</ele>
        <time>2010-05-16T09:48:49Z</time>
      </trkpt>
      <trkpt lat="46.81258" lon="4.72227">
        <ele>210.19</ele>
        <time>2010-05-16T09:48:56Z</time>
      </trkpt>
      <trkpt lat="46.81264" lon="4.722">
        <ele>210.19</ele>
        <time>2010-05-16T09:49:02Z</time>
      </trkpt>
      <trkpt lat="46.81279" lon="4.72181">
        <ele>211.15</ele>
        <time>2010-05-16T09:49:08Z</time>
      </trkpt>
      <trkpt lat="46.81297" lon="4.72158">
        <ele>212.59</ele>
        <time>2010-05-16T09:49:17Z</time>
      </trkpt>
      <trkpt lat="46.81315" lon="4.72132">
        <ele>213.55</ele>
        <time>2010-05-16T09:49:27Z</time>
      </trkpt>
      <trkpt lat="46.8133" lon="4.72109">
        <ele>215.47</ele>
        <time>2010-05-16T09:49:36Z</time>
      </trkpt>
      <trkpt lat="46.81341" lon="4.7209">
        <ele>217.4</ele>
        <time>2010-05-16T09:49:44Z</time>
      </trkpt>
      <trkpt lat="46.81351" lon="4.72073">
        <ele>218.36</ele>
        <time>2010-05-16T09:49:53Z</time>
      </trkpt>
      <trkpt lat="46.81359" lon="4.72059">
        <ele>219.8</ele>
        <time>2010-05-16T09:50:01Z</time>
      </trkpt>
      <trkpt lat="46.8137" lon="4.72045">
        <ele>221.24</ele>
        <time>2010-05-16T09:50:09Z</time>
      </trkpt>
      <trkpt lat="46.81383" lon="4.72026">
        <ele>223.16</ele>
        <time>2010-05-16T09:50:20Z</time>
      </trkpt>
      <trkpt lat="46.81392" lon="4.72014">
        <ele>223.64</ele>
        <time>2010-05-16T09:50:27Z</time>
      </trkpt>
      <trkpt lat="46.81406" lon="4.71998">
        <ele>225.09</ele>
        <time>2010-05-16T09:50:36Z</time>
      </trkpt>
      <trkpt lat="46.81418" lon="4.71981">
        <ele>227.01</ele>
        <time>2010-05-16T09:50:44Z</time>
      </trkpt>
      <trkpt lat="46.81433" lon="4.71963">
        <ele>227.49</ele>
        <time>2010-05-16T09:50:52Z</time>
      </trkpt>
      <trkpt lat="46.81448" lon="4.71941">
        <ele>227.49</ele>
        <time>2010-05-16T09:50:59Z</time>
      </trkpt>
      <trkpt lat="46.81461" lon="4.71922">
        <ele>227.97</ele>
        <time>2010-05-16T09:51:05Z</time>
      </trkpt>
      <trkpt lat="46.81482" lon="4.71895">
        <ele>227.97</ele>
        <time>2010-05-16T09:51:12Z</time>
      </trkpt>
      <trkpt lat="46.81516" lon="4.71852">
        <ele>228.45</ele>
        <time>2010-05-16T09:51:22Z</time>
      </trkpt>
      <trkpt lat="46.81519" lon="4.71848">
        <ele>228.45</ele>
        <time>2010-05-16T09:51:23Z</time>
      </trkpt>
      <trkpt lat="46.81555" lon="4.71799">
        <ele>228.45</ele>
        <time>2010-05-16T09:51:33Z</time>
      </trkpt>
      <trkpt lat="46.81589" lon="4.71752">
        <ele>228.93</ele>
        <time>2010-05-16T09:51:43Z</time>
      </trkpt>
      <trkpt lat="46.81615" lon="4.71715">
        <ele>229.89</ele>
        <time>2010-05-16T09:51:52Z</time>
      </trkpt>
      <trkpt lat="46.81636" lon="4.71686">
        <ele>231.33</ele>
        <time>2010-05-16T09:52:00Z</time>
      </trkpt>
      <trkpt lat="46.81637" lon="4.71667">
        <ele>231.33</ele>
        <time>2010-05-16T09:52:04Z</time>
      </trkpt>
      <trkpt lat="46.81623" lon="4.7164">
        <ele>232.78</ele>
        <time>2010-05-16T09:52:11Z</time>
      </trkpt>
      <trkpt lat="46.81607" lon="4.7161">
        <ele>232.78</ele>
        <time>2010-05-16T09:52:19Z</time>
      </trkpt>
      <trkpt lat="46.81589" lon="4.71579">
        <ele>233.74</ele>
        <time>2010-05-16T09:52:27Z</time>
      </trkpt>
      <trkpt lat="46.8157" lon="4.71547">
        <ele>234.7</ele>
        <time>2010-05-16T09:52:36Z</time>
      </trkpt>
      <trkpt lat="46.81559" lon="4.71526">
        <ele>235.18</ele>
        <time>2010-05-16T09:52:41Z</time>
      </trkpt>
      <trkpt lat="46.81555" lon="4.71498">
        <ele>236.14</ele>
        <time>2010-05-16T09:52:47Z</time>
      </trkpt>
      <trkpt lat="46.81565" lon="4.71472">
        <ele>236.62</ele>
        <time>2010-05-16T09:52:54Z</time>
      </trkpt>
      <trkpt lat="46.81559" lon="4.71451">
        <ele>238.06</ele>
        <time>2010-05-16T09:53:00Z</time>
      </trkpt>
      <trkpt lat="46.81547" lon="4.71422">
        <ele>239.02</ele>
        <time>2010-05-16T09:53:09Z</time>
      </trkpt>
      <trkpt lat="46.81541" lon="4.71404">
        <ele>238.54</ele>
        <time>2010-05-16T09:53:16Z</time>
      </trkpt>
      <trkpt lat="46.81541" lon="4.71404">
        <ele>239.02</ele>
        <time>2010-05-16T09:53:25Z</time>
      </trkpt>
      <trkpt lat="46.8154" lon="4.71403">
        <ele>239.02</ele>
        <time>2010-05-16T09:53:32Z</time>
      </trkpt>
      <trkpt lat="46.81539" lon="4.71401">
        <ele>239.02</ele>
        <time>2010-05-16T09:53:33Z</time>
      </trkpt>
      <trkpt lat="46.81537" lon="4.714">
        <ele>239.02</ele>
        <time>2010-05-16T09:53:34Z</time>
      </trkpt>
      <trkpt lat="46.81535" lon="4.714">
        <ele>239.51</ele>
        <time>2010-05-16T09:53:35Z</time>
      </trkpt>
      <trkpt lat="46.81534" lon="4.71402">
        <ele>239.51</ele>
        <time>2010-05-16T09:53:36Z</time>
      </trkpt>
      <trkpt lat="46.81533" lon="4.71404">
        <ele>239.51</ele>
        <time>2010-05-16T09:53:40Z</time>
      </trkpt>
      <trkpt lat="46.81533" lon="4.71405">
        <ele>239.51</ele>
        <time>2010-05-16T09:53:46Z</time>
      </trkpt>
      <trkpt lat="46.81533" lon="4.71405">
        <ele>236.14</ele>
        <time>2010-05-16T09:53:49Z</time>
      </trkpt>
    </trkseg>
  </trk>
</gpx>